Wetterdaten: Montag, 02.07.2018
Datum Zeit Temp. A. Pool Temp. Feuchte A. Luftdruck Regen Wind Richtung Richtung Sonnenschein ET UV Solar Taupunkt Windchill Windben Empfang
02.07.2018 00:00 13,4 C 21,7 C 65 % 1016,2 hPa 0,0 l/m 10,3 km/h (2 Bft) O-NO 67 0 min 0,000 mm 0,0 UV-I 0 W/m 7,0 C 11,2 C 14,5 km/h (3 Bft) 93,33 %
02.07.2018 00:02 13,4 C 21,1 C 65 % 1016,2 hPa 0,0 l/m 8,8 km/h (2 Bft) O-NO 69 0 min 0,000 mm 0,0 UV-I 0 W/m 7,0 C 12,0 C 12,9 km/h (3 Bft) 92,31 %
02.07.2018 00:03 13,3 C 21,7 C 65 % 1016,2 hPa 0,0 l/m 8,2 km/h (2 Bft) O-NO 72 0 min 0,000 mm 0,0 UV-I 0 W/m 6,9 C 12,2 C 12,9 km/h (3 Bft) 95,83 %
02.07.2018 00:04 13,3 C 21,7 C 65 % 1016,2 hPa 0,0 l/m 9,9 km/h (2 Bft) O-NO 73 0 min 0,000 mm 0,0 UV-I 0 W/m 6,9 C 11,3 C 12,9 km/h (3 Bft) 91,30 %
02.07.2018 00:05 13,3 C 21,7 C 65 % 1016,2 hPa 0,0 l/m 9,4 km/h (2 Bft) O 84 0 min 0,000 mm 0,0 UV-I 0 W/m 6,9 C 11,5 C 11,3 km/h (2 Bft) 100,00 %
02.07.2018 00:06 13,3 C 21,1 C 65 % 1016,2 hPa 0,0 l/m 7,1 km/h (2 Bft) O-NO 63 0 min 0,000 mm 0,0 UV-I 0 W/m 6,9 C 12,9 C 11,3 km/h (2 Bft) 92,31 %
02.07.2018 00:07 13,2 C 21,7 C 66 % 1016,2 hPa 0,0 l/m 6,6 km/h (2 Bft) O 80 0 min 0,000 mm 0,0 UV-I 0 W/m 7,0 C 13,1 C 11,3 km/h (2 Bft) 95,83 %
02.07.2018 00:08 13,2 C 21,7 C 66 % 1016,2 hPa 0,0 l/m 6,2 km/h (2 Bft) O-NO 76 0 min 0,000 mm 0,0 UV-I 0 W/m 7,0 C 13,2 C 9,7 km/h (2 Bft) 95,65 %
02.07.2018 00:09 13,2 C 21,7 C 66 % 1016,2 hPa 0,0 l/m 6,0 km/h (2 Bft) O-NO 78 0 min 0,000 mm 0,0 UV-I 0 W/m 7,0 C 13,2 C 12,9 km/h (3 Bft) 95,83 %
02.07.2018 00:10 13,1 C 21,7 C 66 % 1016,2 hPa 0,0 l/m 5,3 km/h (1 Bft) O 84 0 min 0,000 mm 0,0 UV-I 0 W/m 6,9 C 13,1 C 6,4 km/h (2 Bft) 96,15 %
02.07.2018 00:11 13,1 C 21,7 C 66 % 1016,2 hPa 0,0 l/m 6,2 km/h (2 Bft) O-NO 67 0 min 0,000 mm 0,0 UV-I 0 W/m 6,9 C 13,1 C 8,0 km/h (2 Bft) 91,67 %
02.07.2018 00:12 13,0 C 21,1 C 67 % 1016,2 hPa 0,0 l/m 6,6 km/h (2 Bft) O 83 0 min 0,000 mm 0,0 UV-I 0 W/m 7,0 C 12,9 C 8,0 km/h (2 Bft) 95,65 %
02.07.2018 00:13 12,9 C 21,1 C 67 % 1016,1 hPa 0,0 l/m 5,2 km/h (1 Bft) O 86 0 min 0,000 mm 0,0 UV-I 0 W/m 6,9 C 12,9 C 8,0 km/h (2 Bft) 95,83 %
02.07.2018 00:14 12,9 C 21,1 C 67 % 1016,1 hPa 0,0 l/m 5,4 km/h (1 Bft) O-NO 65 0 min 0,000 mm 0,0 UV-I 0 W/m 6,9 C 12,9 C 8,0 km/h (2 Bft) 100,00 %
02.07.2018 00:15 12,9 C 21,1 C 67 % 1016,1 hPa 0,0 l/m 5,3 km/h (1 Bft) O-NO 63 0 min 0,000 mm 0,0 UV-I 0 W/m 6,9 C 12,9 C 8,0 km/h (2 Bft) 100,00 %
02.07.2018 00:16 12,8 C 21,1 C 68 % 1016,1 hPa 0,0 l/m 6,9 km/h (2 Bft) O-NO 75 0 min 0,000 mm 0,0 UV-I 0 W/m 7,0 C 12,5 C 9,7 km/h (2 Bft) 96,30 %
02.07.2018 00:17 12,7 C 21,1 C 69 % 1016,1 hPa 0,0 l/m 6,8 km/h (2 Bft) NO 56 0 min 0,000 mm 0,0 UV-I 0 W/m 7,2 C 12,5 C 11,3 km/h (2 Bft) 91,30 %
02.07.2018 00:18 12,6 C 21,1 C 69 % 1016,2 hPa 0,0 l/m 6,1 km/h (2 Bft) O-NO 60 0 min 0,000 mm 0,0 UV-I 0 W/m 7,1 C 12,6 C 8,0 km/h (2 Bft) 100,00 %
02.07.2018 00:19 12,5 C 21,1 C 69 % 1016,1 hPa 0,0 l/m 7,3 km/h (2 Bft) O-NO 70 0 min 0,000 mm 0,0 UV-I 0 W/m 7,0 C 11,9 C 11,3 km/h (2 Bft) 96,15 %
02.07.2018 00:20 12,4 C 21,1 C 70 % 1016,1 hPa 0,0 l/m 6,6 km/h (2 Bft) O-NO 70 0 min 0,000 mm 0,0 UV-I 0 W/m 7,1 C 12,3 C 8,0 km/h (2 Bft) 100,00 %
02.07.2018 00:21 12,4 C 21,1 C 70 % 1016,1 hPa 0,0 l/m 6,5 km/h (2 Bft) O-NO 70 0 min 0,000 mm 0,0 UV-I 0 W/m 7,1 C 12,4 C 8,0 km/h (2 Bft) 96,15 %
02.07.2018 00:22 12,4 C 21,1 C 69 % 1016,1 hPa 0,0 l/m 7,0 km/h (2 Bft) O-NO 67 0 min 0,000 mm 0,0 UV-I 0 W/m 6,9 C 12,0 C 8,0 km/h (2 Bft) 100,00 %
02.07.2018 00:23 12,5 C 21,1 C 69 % 1016,1 hPa 0,0 l/m 5,6 km/h (1 Bft) O-NO 67 0 min 0,000 mm 0,0 UV-I 0 W/m 7,0 C 12,5 C 8,0 km/h (2 Bft) 96,55 %
02.07.2018 00:24 12,4 C 21,1 C 70 % 1016,1 hPa 0,0 l/m 7,3 km/h (2 Bft) O-NO 67 0 min 0,000 mm 0,0 UV-I 0 W/m 7,1 C 11,8 C 9,7 km/h (2 Bft) 96,30 %
02.07.2018 00:25 12,4 C 21,1 C 70 % 1016,1 hPa 0,0 l/m 7,8 km/h (2 Bft) O-NO 75 0 min 0,000 mm 0,0 UV-I 0 W/m 7,1 C 11,5 C 9,7 km/h (2 Bft) 100,00 %
02.07.2018 00:26 12,3 C 21,1 C 70 % 1016,1 hPa 0,0 l/m 5,7 km/h (1 Bft) NO 54 0 min 0,000 mm 0,0 UV-I 0 W/m 7,0 C 12,3 C 9,7 km/h (2 Bft) 100,00 %
02.07.2018 00:27 12,3 C 21,1 C 70 % 1016,1 hPa 0,0 l/m 5,8 km/h (2 Bft) O-NO 75 0 min 0,000 mm 0,0 UV-I 0 W/m 7,0 C 12,3 C 8,0 km/h (2 Bft) 96,15 %
02.07.2018 00:28 12,3 C 21,1 C 70 % 1016,1 hPa 0,0 l/m 6,2 km/h (2 Bft) O-NO 57 0 min 0,000 mm 0,0 UV-I 0 W/m 7,0 C 12,3 C 9,7 km/h (2 Bft) 95,83 %
02.07.2018 00:29 12,3 C 21,1 C 71 % 1016,1 hPa 0,0 l/m 5,4 km/h (1 Bft) O-NO 69 0 min 0,000 mm 0,0 UV-I 0 W/m 7,2 C 12,3 C 8,0 km/h (2 Bft) 100,00 %
02.07.2018 00:30 12,2 C 21,1 C 71 % 1016,1 hPa 0,0 l/m 6,8 km/h (2 Bft) O-NO 63 0 min 0,000 mm 0,0 UV-I 0 W/m 7,1 C 11,9 C 9,7 km/h (2 Bft) 95,83 %
02.07.2018 00:31 12,2 C 21,1 C 71 % 1016,1 hPa 0,0 l/m 3,8 km/h (1 Bft) O-NO 64 0 min 0,000 mm 0,0 UV-I 0 W/m 7,1 C 12,2 C 4,8 km/h (1 Bft) 100,00 %
02.07.2018 00:32 12,1 C 21,1 C 72 % 1016,1 hPa 0,0 l/m 3,8 km/h (1 Bft) NO 40 0 min 0,000 mm 0,0 UV-I 0 W/m 7,2 C 12,1 C 6,4 km/h (2 Bft) 95,83 %
02.07.2018 00:33 12,1 C 21,1 C 72 % 1016,1 hPa 0,0 l/m 6,1 km/h (2 Bft) O-NO 59 0 min 0,000 mm 0,0 UV-I 0 W/m 7,2 C 12,1 C 8,0 km/h (2 Bft) 100,00 %
02.07.2018 00:34 12,0 C 21,1 C 72 % 1016,0 hPa 0,0 l/m 6,0 km/h (2 Bft) NO 49 0 min 0,000 mm 0,0 UV-I 0 W/m 7,1 C 12,0 C 9,7 km/h (2 Bft) 91,67 %
02.07.2018 00:35 11,9 C 21,1 C 72 % 1016,0 hPa 0,0 l/m 6,4 km/h (2 Bft) O-NO 67 0 min 0,000 mm 0,0 UV-I 0 W/m 7,0 C 11,9 C 9,7 km/h (2 Bft) 96,15 %
02.07.2018 00:36 11,9 C 21,1 C 73 % 1016,0 hPa 0,0 l/m 6,4 km/h (2 Bft) O-NO 72 0 min 0,000 mm 0,0 UV-I 0 W/m 7,2 C 11,9 C 8,0 km/h (2 Bft) 100,00 %
02.07.2018 00:37 11,9 C 21,1 C 72 % 1016,0 hPa 0,0 l/m 6,4 km/h (2 Bft) O-NO 59 0 min 0,000 mm 0,0 UV-I 0 W/m 7,0 C 11,9 C 8,0 km/h (2 Bft) 92,59 %
02.07.2018 00:38 12,0 C 21,1 C 72 % 1016,0 hPa 0,0 l/m 7,1 km/h (2 Bft) O-NO 76 0 min 0,000 mm 0,0 UV-I 0 W/m 7,1 C 11,5 C 8,0 km/h (2 Bft) 100,00 %
02.07.2018 00:39 12,0 C 21,1 C 72 % 1016,0 hPa 0,0 l/m 5,8 km/h (2 Bft) O-NO 67 0 min 0,000 mm 0,0 UV-I 0 W/m 7,1 C 12,0 C 6,4 km/h (2 Bft) 95,83 %
02.07.2018 00:40 12,0 C 21,1 C 72 % 1016,0 hPa 0,0 l/m 6,6 km/h (2 Bft) O-NO 74 0 min 0,000 mm 0,0 UV-I 0 W/m 7,1 C 11,9 C 9,7 km/h (2 Bft) 100,00 %
02.07.2018 00:41 12,0 C 21,1 C 72 % 1016,0 hPa 0,0 l/m 7,8 km/h (2 Bft) O 80 0 min 0,000 mm 0,0 UV-I 0 W/m 7,1 C 11,1 C 12,9 km/h (3 Bft) 95,83 %
02.07.2018 00:42 12,1 C 21,1 C 72 % 1015,9 hPa 0,0 l/m 6,6 km/h (2 Bft) NO 55 0 min 0,000 mm 0,0 UV-I 0 W/m 7,2 C 12,0 C 8,0 km/h (2 Bft) 100,00 %
02.07.2018 00:43 12,1 C 21,1 C 72 % 1016,0 hPa 0,0 l/m 6,2 km/h (2 Bft) O 81 0 min 0,000 mm 0,0 UV-I 0 W/m 7,2 C 12,1 C 8,0 km/h (2 Bft) 91,67 %
02.07.2018 00:44 12,1 C 21,1 C 72 % 1015,9 hPa 0,0 l/m 5,5 km/h (1 Bft) O-NO 71 0 min 0,000 mm 0,0 UV-I 0 W/m 7,2 C 12,1 C 6,4 km/h (2 Bft) 100,00 %
02.07.2018 00:45 12,0 C 21,1 C 72 % 1015,9 hPa 0,0 l/m 6,6 km/h (2 Bft) O-NO 62 0 min 0,000 mm 0,0 UV-I 0 W/m 7,1 C 11,9 C 11,3 km/h (2 Bft) 95,83 %
02.07.2018 00:46 11,9 C 21,1 C 72 % 1015,9 hPa 0,0 l/m 5,0 km/h (1 Bft) O-NO 76 0 min 0,000 mm 0,0 UV-I 0 W/m 7,0 C 11,9 C 11,3 km/h (2 Bft) 100,00 %
02.07.2018 00:47 11,9 C 21,1 C 73 % 1015,9 hPa 0,0 l/m 6,8 km/h (2 Bft) O 80 0 min 0,000 mm 0,0 UV-I 0 W/m 7,2 C 11,6 C 9,7 km/h (2 Bft) 100,00 %
02.07.2018 00:48 11,9 C 21,1 C 73 % 1015,9 hPa 0,0 l/m 5,8 km/h (2 Bft) O 79 0 min 0,000 mm 0,0 UV-I 0 W/m 7,2 C 11,9 C 11,3 km/h (2 Bft) 100,00 %
02.07.2018 00:49 11,8 C 21,1 C 73 % 1015,9 hPa 0,0 l/m 6,0 km/h (2 Bft) O 88 0 min 0,000 mm 0,0 UV-I 0 W/m 7,1 C 11,8 C 8,0 km/h (2 Bft) 100,00 %
02.07.2018 00:50 11,8 C 21,1 C 73 % 1015,9 hPa 0,0 l/m 6,5 km/h (2 Bft) O-NO 78 0 min 0,000 mm 0,0 UV-I 0 W/m 7,1 C 11,8 C 11,3 km/h (2 Bft) 100,00 %
02.07.2018 00:51 11,8 C 21,1 C 73 % 1015,9 hPa 0,0 l/m 6,1 km/h (2 Bft) O 94 0 min 0,000 mm 0,0 UV-I 0 W/m 7,1 C 11,8 C 8,0 km/h (2 Bft) 100,00 %
02.07.2018 00:52 11,8 C 21,1 C 73 % 1015,9 hPa 0,0 l/m 5,2 km/h (1 Bft) O 79 0 min 0,000 mm 0,0 UV-I 0 W/m 7,1 C 11,8 C 8,0 km/h (2 Bft) 100,00 %
02.07.2018 00:53 11,8 C 21,1 C 73 % 1015,9 hPa 0,0 l/m 5,7 km/h (1 Bft) NO 53 0 min 0,000 mm 0,0 UV-I 0 W/m 7,1 C 11,8 C 6,4 km/h (2 Bft) 100,00 %
02.07.2018 00:54 11,8 C 21,1 C 73 % 1015,9 hPa 0,0 l/m 8,2 km/h (2 Bft) O 98 0 min 0,000 mm 0,0 UV-I 0 W/m 7,1 C 10,6 C 11,3 km/h (2 Bft) 100,00 %
02.07.2018 00:55 11,8 C 21,1 C 73 % 1015,9 hPa 0,0 l/m 9,3 km/h (2 Bft) O 82 0 min 0,000 mm 0,0 UV-I 0 W/m 7,1 C 10,0 C 12,9 km/h (3 Bft) 100,00 %
02.07.2018 00:56 11,9 C 21,1 C 73 % 1015,9 hPa 0,0 l/m 8,2 km/h (2 Bft) O 86 0 min 0,000 mm 0,0 UV-I 0 W/m 7,2 C 10,7 C 11,3 km/h (2 Bft) 100,00 %
02.07.2018 00:57 12,0 C 21,1 C 73 % 1015,8 hPa 0,0 l/m 8,3 km/h (2 Bft) O-NO 76 0 min 0,000 mm 0,0 UV-I 0 W/m 7,3 C 10,8 C 12,9 km/h (3 Bft) 95,83 %
02.07.2018 00:58 12,0 C 21,1 C 73 % 1015,8 hPa 0,0 l/m 6,3 km/h (2 Bft) O-NO 78 0 min 0,000 mm 0,0 UV-I 0 W/m 7,3 C 12,0 C 8,0 km/h (2 Bft) 100,00 %
02.07.2018 00:59 12,0 C 21,1 C 73 % 1015,8 hPa 0,0 l/m 5,8 km/h (2 Bft) O-NO 65 0 min 0,000 mm 0,0 UV-I 0 W/m 7,3 C 12,0 C 9,7 km/h (2 Bft) 96,15 %
02.07.2018 01:00 11,9 C 21,1 C 73 % 1015,8 hPa 0,0 l/m 5,7 km/h (1 Bft) O-NO 75 0 min 0,025 mm 0,0 UV-I 0 W/m 7,2 C 11,9 C 8,0 km/h (2 Bft) 100,00 %
02.07.2018 01:01 11,9 C 21,1 C 74 % 1015,8 hPa 0,0 l/m 5,1 km/h (1 Bft) O-NO 69 0 min 0,000 mm 0,0 UV-I 0 W/m 7,4 C 11,9 C 6,4 km/h (2 Bft) 100,00 %
02.07.2018 01:02 11,8 C 21,1 C 74 % 1015,8 hPa 0,0 l/m 7,6 km/h (2 Bft) NO 43 0 min 0,000 mm 0,0 UV-I 0 W/m 7,3 C 11,0 C 12,9 km/h (3 Bft) 100,00 %
02.07.2018 01:03 11,8 C 21,1 C 74 % 1015,8 hPa 0,0 l/m 5,1 km/h (1 Bft) O-NO 59 0 min 0,000 mm 0,0 UV-I 0 W/m 7,3 C 11,8 C 8,0 km/h (2 Bft) 100,00 %
02.07.2018 01:04 11,8 C 21,1 C 74 % 1015,8 hPa 0,0 l/m 5,3 km/h (1 Bft) O-NO 72 0 min 0,000 mm 0,0 UV-I 0 W/m 7,3 C 11,8 C 8,0 km/h (2 Bft) 100,00 %
02.07.2018 01:05 11,8 C 21,1 C 74 % 1015,8 hPa 0,0 l/m 7,3 km/h (2 Bft) O-NO 69 0 min 0,000 mm 0,0 UV-I 0 W/m 7,3 C 11,2 C 11,3 km/h (2 Bft) 96,15 %
02.07.2018 01:06 11,7 C 21,1 C 75 % 1015,8 hPa 0,0 l/m 7,2 km/h (2 Bft) O-NO 75 0 min 0,000 mm 0,0 UV-I 0 W/m 7,4 C 11,2 C 9,7 km/h (2 Bft) 100,00 %
02.07.2018 01:07 11,7 C 21,1 C 75 % 1015,8 hPa 0,0 l/m 6,7 km/h (2 Bft) O-NO 57 0 min 0,000 mm 0,0 UV-I 0 W/m 7,4 C 11,5 C 8,0 km/h (2 Bft) 100,00 %
02.07.2018 01:08 11,7 C 21,1 C 75 % 1015,8 hPa 0,0 l/m 5,6 km/h (1 Bft) O 80 0 min 0,000 mm 0,0 UV-I 0 W/m 7,4 C 11,7 C 6,4 km/h (2 Bft) 100,00 %
02.07.2018 01:09 11,6 C 21,1 C 75 % 1015,8 hPa 0,0 l/m 6,4 km/h (2 Bft) O 81 0 min 0,000 mm 0,0 UV-I 0 W/m 7,3 C 11,6 C 8,0 km/h (2 Bft) 92,31 %
02.07.2018 01:10 11,7 C 21,1 C 75 % 1015,8 hPa 0,0 l/m 8,0 km/h (2 Bft) O-NO 69 0 min 0,000 mm 0,0 UV-I 0 W/m 7,4 C 10,6 C 11,3 km/h (2 Bft) 100,00 %
02.07.2018 01:11 11,7 C 21,1 C 75 % 1015,8 hPa 0,0 l/m 6,8 km/h (2 Bft) O 83 0 min 0,000 mm 0,0 UV-I 0 W/m 7,4 C 11,4 C 11,3 km/h (2 Bft) 100,00 %
02.07.2018 01:12 11,7 C 21,1 C 75 % 1015,8 hPa 0,0 l/m 7,5 km/h (2 Bft) O-NO 74 0 min 0,000 mm 0,0 UV-I 0 W/m 7,4 C 11,0 C 11,3 km/h (2 Bft) 100,00 %
02.07.2018 01:13 11,7 C 21,1 C 75 % 1015,8 hPa 0,0 l/m 7,2 km/h (2 Bft) O-NO 66 0 min 0,000 mm 0,0 UV-I 0 W/m 7,4 C 11,2 C 9,7 km/h (2 Bft) 100,00 %
02.07.2018 01:14 11,7 C 21,1 C 75 % 1015,8 hPa 0,0 l/m 7,7 km/h (2 Bft) O-NO 74 0 min 0,000 mm 0,0 UV-I 0 W/m 7,4 C 10,8 C 11,3 km/h (2 Bft) 100,00 %
02.07.2018 01:15 11,7 C 21,1 C 75 % 1015,8 hPa 0,0 l/m 7,1 km/h (2 Bft) O-NO 78 0 min 0,000 mm 0,0 UV-I 0 W/m 7,4 C 11,2 C 11,3 km/h (2 Bft) 100,00 %
02.07.2018 01:16 11,7 C 21,1 C 75 % 1015,8 hPa 0,0 l/m 6,1 km/h (2 Bft) O-NO 65 0 min 0,000 mm 0,0 UV-I 0 W/m 7,4 C 11,7 C 8,0 km/h (2 Bft) 95,65 %
02.07.2018 01:17 11,7 C 21,1 C 75 % 1015,8 hPa 0,0 l/m 4,7 km/h (1 Bft) O-NO 67 0 min 0,000 mm 0,0 UV-I 0 W/m 7,4 C 11,7 C 4,8 km/h (1 Bft) 100,00 %
02.07.2018 01:18 11,7 C 21,1 C 75 % 1015,8 hPa 0,0 l/m 6,4 km/h (2 Bft) NO 53 0 min 0,000 mm 0,0 UV-I 0 W/m 7,4 C 11,7 C 9,7 km/h (2 Bft) 100,00 %
02.07.2018 01:19 11,6 C 21,1 C 75 % 1015,8 hPa 0,0 l/m 7,4 km/h (2 Bft) NO 55 0 min 0,000 mm 0,0 UV-I 0 W/m 7,3 C 10,9 C 12,9 km/h (3 Bft) 100,00 %
02.07.2018 01:20 11,6 C 21,1 C 76 % 1015,7 hPa 0,0 l/m 6,2 km/h (2 Bft) O-NO 71 0 min 0,000 mm 0,0 UV-I 0 W/m 7,5 C 11,6 C 8,0 km/h (2 Bft) 100,00 %
02.07.2018 01:21 11,5 C 21,1 C 76 % 1015,7 hPa 0,0 l/m 5,8 km/h (2 Bft) O 84 0 min 0,000 mm 0,0 UV-I 0 W/m 7,4 C 11,5 C 6,4 km/h (2 Bft) 100,00 %
02.07.2018 01:22 11,5 C 21,1 C 76 % 1015,7 hPa 0,0 l/m 5,0 km/h (1 Bft) O 85 0 min 0,000 mm 0,0 UV-I 0 W/m 7,4 C 11,5 C 8,0 km/h (2 Bft) 100,00 %
02.07.2018 01:23 11,4 C 21,1 C 76 % 1015,8 hPa 0,0 l/m 6,4 km/h (2 Bft) O 90 0 min 0,000 mm 0,0 UV-I 0 W/m 7,3 C 11,4 C 9,7 km/h (2 Bft) 100,00 %
02.07.2018 01:24 11,4 C 21,1 C 76 % 1015,8 hPa 0,0 l/m 6,7 km/h (2 Bft) O 82 0 min 0,000 mm 0,0 UV-I 0 W/m 7,3 C 11,2 C 9,7 km/h (2 Bft) 100,00 %
02.07.2018 01:25 11,4 C 21,1 C 76 % 1015,8 hPa 0,0 l/m 8,2 km/h (2 Bft) O-NO 74 0 min 0,000 mm 0,0 UV-I 0 W/m 7,3 C 10,2 C 11,3 km/h (2 Bft) 100,00 %
02.07.2018 01:26 11,4 C 21,1 C 76 % 1015,8 hPa 0,0 l/m 6,0 km/h (2 Bft) O 83 0 min 0,000 mm 0,0 UV-I 0 W/m 7,3 C 11,4 C 11,3 km/h (2 Bft) 100,00 %
02.07.2018 01:27 11,4 C 21,1 C 76 % 1015,8 hPa 0,0 l/m 6,6 km/h (2 Bft) O 82 0 min 0,000 mm 0,0 UV-I 0 W/m 7,3 C 11,3 C 8,0 km/h (2 Bft) 100,00 %
02.07.2018 01:28 11,4 C 21,1 C 76 % 1015,8 hPa 0,0 l/m 6,9 km/h (2 Bft) O-NO 71 0 min 0,000 mm 0,0 UV-I 0 W/m 7,3 C 11,1 C 11,3 km/h (2 Bft) 95,65 %
02.07.2018 01:29 11,5 C 21,1 C 76 % 1015,8 hPa 0,0 l/m 5,1 km/h (1 Bft) O-NO 71 0 min 0,000 mm 0,0 UV-I 0 W/m 7,4 C 11,5 C 8,0 km/h (2 Bft) 100,00 %
02.07.2018 01:30 11,4 C 21,1 C 76 % 1015,8 hPa 0,0 l/m 5,1 km/h (1 Bft) O-NO 66 0 min 0,000 mm 0,0 UV-I 0 W/m 7,3 C 11,4 C 6,4 km/h (2 Bft) 100,00 %
02.07.2018 01:31 11,4 C 21,1 C 76 % 1015,8 hPa 0,0 l/m 5,2 km/h (1 Bft) O-NO 77 0 min 0,000 mm 0,0 UV-I 0 W/m 7,3 C 11,4 C 6,4 km/h (2 Bft) 100,00 %
02.07.2018 01:32 11,4 C 21,1 C 76 % 1015,8 hPa 0,0 l/m 6,2 km/h (2 Bft) O 81 0 min 0,000 mm 0,0 UV-I 0 W/m 7,3 C 11,4 C 8,0 km/h (2 Bft) 95,65 %
02.07.2018 01:33 11,4 C 21,1 C 76 % 1015,8 hPa 0,0 l/m 6,4 km/h (2 Bft) O-NO 74 0 min 0,000 mm 0,0 UV-I 0 W/m 7,3 C 11,4 C 8,0 km/h (2 Bft) 100,00 %
02.07.2018 01:34 11,4 C 21,1 C 76 % 1015,7 hPa 0,0 l/m 5,4 km/h (1 Bft) O 95 0 min 0,000 mm 0,0 UV-I 0 W/m 7,3 C 11,4 C 9,7 km/h (2 Bft) 100,00 %
02.07.2018 01:35 11,3 C 21,1 C 76 % 1015,7 hPa 0,0 l/m 6,1 km/h (2 Bft) O 81 0 min 0,000 mm 0,0 UV-I 0 W/m 7,2 C 11,3 C 9,7 km/h (2 Bft) 100,00 %
02.07.2018 01:36 11,3 C 21,1 C 77 % 1015,7 hPa 0,0 l/m 6,4 km/h (2 Bft) O-NO 76 0 min 0,000 mm 0,0 UV-I 0 W/m 7,4 C 11,3 C 8,0 km/h (2 Bft) 100,00 %
02.07.2018 01:37 11,2 C 21,1 C 77 % 1015,7 hPa 0,0 l/m 5,9 km/h (2 Bft) O 79 0 min 0,000 mm 0,0 UV-I 0 W/m 7,3 C 11,2 C 8,0 km/h (2 Bft) 95,65 %
02.07.2018 01:38 11,3 C 21,1 C 77 % 1015,7 hPa 0,0 l/m 5,0 km/h (1 Bft) NO 52 0 min 0,000 mm 0,0 UV-I 0 W/m 7,4 C 11,3 C 6,4 km/h (2 Bft) 100,00 %
02.07.2018 01:39 11,2 C 21,1 C 77 % 1015,7 hPa 0,0 l/m 5,8 km/h (2 Bft) O 85 0 min 0,000 mm 0,0 UV-I 0 W/m 7,3 C 11,2 C 8,0 km/h (2 Bft) 90,91 %
02.07.2018 01:40 11,2 C 21,1 C 77 % 1015,7 hPa 0,0 l/m 5,7 km/h (1 Bft) O 80 0 min 0,000 mm 0,0 UV-I 0 W/m 7,3 C 11,2 C 6,4 km/h (2 Bft) 100,00 %
02.07.2018 01:41 11,2 C 21,1 C 77 % 1015,7 hPa 0,0 l/m 5,6 km/h (1 Bft) O 84 0 min 0,000 mm 0,0 UV-I 0 W/m 7,3 C 11,2 C 8,0 km/h (2 Bft) 96,15 %
02.07.2018 01:42 11,3 C 21,1 C 77 % 1015,7 hPa 0,0 l/m 6,4 km/h (2 Bft) O-NO 62 0 min 0,000 mm 0,0 UV-I 0 W/m 7,4 C 11,3 C 8,0 km/h (2 Bft) 95,83 %
02.07.2018 01:43 11,3 C 21,1 C 77 % 1015,7 hPa 0,0 l/m 6,1 km/h (2 Bft) O 96 0 min 0,000 mm 0,0 UV-I 0 W/m 7,4 C 11,3 C 8,0 km/h (2 Bft) 100,00 %
02.07.2018 01:44 11,3 C 21,1 C 77 % 1015,6 hPa 0,0 l/m 4,0 km/h (1 Bft) O-NO 74 0 min 0,000 mm 0,0 UV-I 0 W/m 7,4 C 11,3 C 6,4 km/h (2 Bft) 91,67 %
02.07.2018 01:45 11,3 C 21,1 C 76 % 1015,6 hPa 0,0 l/m 5,6 km/h (1 Bft) O 81 0 min 0,000 mm 0,0 UV-I 0 W/m 7,2 C 11,3 C 9,7 km/h (2 Bft) 97,90 %
02.07.2018 01:46 11,3 C 21,1 C 76 % 1015,6 hPa 0,0 l/m 6,0 km/h (2 Bft) O-NO 69 0 min 0,000 mm 0,0 UV-I 0 W/m 7,2 C 11,3 C 9,7 km/h (2 Bft) 97,37 %
02.07.2018 01:47 11,4 C 21,1 C 76 % 1015,6 hPa 0,0 l/m 6,2 km/h (2 Bft) O-NO 78 0 min 0,000 mm 0,0 UV-I 0 W/m 7,3 C 11,4 C 8,0 km/h (2 Bft) 100,00 %
02.07.2018 01:48 11,4 C 21,1 C 76 % 1015,6 hPa 0,0 l/m 7,0 km/h (2 Bft) O-NO 71 0 min 0,000 mm 0,0 UV-I 0 W/m 7,3 C 11,0 C 8,0 km/h (2 Bft) 95,65 %
02.07.2018 01:49 11,4 C 21,1 C 76 % 1015,6 hPa 0,0 l/m 5,9 km/h (2 Bft) O 80 0 min 0,000 mm 0,0 UV-I 0 W/m 7,3 C 11,4 C 9,7 km/h (2 Bft) 100,00 %
02.07.2018 01:50 11,3 C 21,1 C 76 % 1015,6 hPa 0,0 l/m 7,5 km/h (2 Bft) O 90 0 min 0,000 mm 0,0 UV-I 0 W/m 7,2 C 10,5 C 9,7 km/h (2 Bft) 96,15 %
02.07.2018 01:51 11,3 C 21,1 C 76 % 1015,6 hPa 0,0 l/m 8,6 km/h (2 Bft) O 97 0 min 0,000 mm 0,0 UV-I 0 W/m 7,2 C 9,8 C 11,3 km/h (2 Bft) 100,00 %
02.07.2018 01:52 11,3 C 21,1 C 76 % 1015,6 hPa 0,0 l/m 8,9 km/h (2 Bft) O-NO 69 0 min 0,000 mm 0,0 UV-I 0 W/m 7,2 C 9,7 C 11,3 km/h (2 Bft) 97,56 %
02.07.2018 01:53 11,3 C 21,1 C 76 % 1015,6 hPa 0,0 l/m 8,0 km/h (2 Bft) O 98 0 min 0,000 mm 0,0 UV-I 0 W/m 7,2 C 10,2 C 12,9 km/h (3 Bft) 91,67 %
02.07.2018 01:54 11,3 C 21,1 C 76 % 1015,6 hPa 0,0 l/m 6,8 km/h (2 Bft) O 99 0 min 0,000 mm 0,0 UV-I 0 W/m 7,2 C 11,0 C 9,7 km/h (2 Bft) 96,55 %
02.07.2018 01:55 11,3 C 21,1 C 76 % 1015,6 hPa 0,0 l/m 6,3 km/h (2 Bft) O-NO 74 0 min 0,000 mm 0,0 UV-I 0 W/m 7,2 C 11,3 C 9,7 km/h (2 Bft) 92,59 %
02.07.2018 01:56 11,3 C 21,1 C 76 % 1015,6 hPa 0,0 l/m 5,9 km/h (2 Bft) O 81 0 min 0,000 mm 0,0 UV-I 0 W/m 7,2 C 11,3 C 8,0 km/h (2 Bft) 100,00 %
02.07.2018 01:57 11,3 C 21,1 C 76 % 1015,6 hPa 0,0 l/m 8,3 km/h (2 Bft) O 86 0 min 0,000 mm 0,0 UV-I 0 W/m 7,2 C 10,0 C 11,3 km/h (2 Bft) 95,83 %
02.07.2018 01:58 11,3 C 21,1 C 76 % 1015,6 hPa 0,0 l/m 6,6 km/h (2 Bft) O-NO 77 0 min 0,000 mm 0,0 UV-I 0 W/m 7,2 C 11,2 C 9,7 km/h (2 Bft) 91,30 %
02.07.2018 01:59 11,2 C 21,1 C 76 % 1015,6 hPa 0,0 l/m 6,4 km/h (2 Bft) O 80 0 min 0,000 mm 0,0 UV-I 0 W/m 7,1 C 11,2 C 8,0 km/h (2 Bft) 100,00 %
02.07.2018 02:00 11,2 C 21,1 C 76 % 1015,5 hPa 0,0 l/m 7,8 km/h (2 Bft) O-NO 63 0 min 0,026 mm 0,0 UV-I 0 W/m 7,1 C 10,2 C 11,3 km/h (2 Bft) 95,65 %
02.07.2018 02:01 11,2 C 21,1 C 75 % 1015,5 hPa 0,0 l/m 6,8 km/h (2 Bft) NO 49 0 min 0,000 mm 0,0 UV-I 0 W/m 6,9 C 10,9 C 11,3 km/h (2 Bft) 100,00 %
02.07.2018 02:02 11,2 C 21,1 C 75 % 1015,5 hPa 0,0 l/m 7,6 km/h (2 Bft) O-NO 70 0 min 0,000 mm 0,0 UV-I 0 W/m 6,9 C 10,4 C 12,9 km/h (3 Bft) 95,65 %
02.07.2018 02:03 11,2 C 21,1 C 76 % 1015,5 hPa 0,0 l/m 6,1 km/h (2 Bft) O-NO 68 0 min 0,000 mm 0,0 UV-I 0 W/m 7,1 C 11,2 C 8,0 km/h (2 Bft) 100,00 %
02.07.2018 02:04 11,2 C 21,1 C 76 % 1015,5 hPa 0,0 l/m 6,1 km/h (2 Bft) O-NO 74 0 min 0,000 mm 0,0 UV-I 0 W/m 7,1 C 11,2 C 8,0 km/h (2 Bft) 92,31 %
02.07.2018 02:05 11,2 C 21,1 C 76 % 1015,5 hPa 0,0 l/m 6,6 km/h (2 Bft) O-NO 74 0 min 0,000 mm 0,0 UV-I 0 W/m 7,1 C 11,1 C 9,7 km/h (2 Bft) 100,00 %
02.07.2018 02:06 11,2 C 21,1 C 76 % 1015,5 hPa 0,0 l/m 6,9 km/h (2 Bft) O-NO 74 0 min 0,000 mm 0,0 UV-I 0 W/m 7,1 C 10,9 C 9,7 km/h (2 Bft) 92,31 %
02.07.2018 02:07 11,1 C 21,1 C 76 % 1015,5 hPa 0,0 l/m 5,1 km/h (1 Bft) O-NO 62 0 min 0,000 mm 0,0 UV-I 0 W/m 7,0 C 11,1 C 6,4 km/h (2 Bft) 96,30 %
02.07.2018 02:08 11,0 C 21,1 C 76 % 1015,5 hPa 0,0 l/m 6,2 km/h (2 Bft) O-NO 63 0 min 0,000 mm 0,0 UV-I 0 W/m 6,9 C 11,0 C 8,0 km/h (2 Bft) 100,00 %
02.07.2018 02:09 10,9 C 21,1 C 77 % 1015,5 hPa 0,0 l/m 5,3 km/h (1 Bft) O-NO 71 0 min 0,000 mm 0,0 UV-I 0 W/m 7,0 C 10,9 C 6,4 km/h (2 Bft) 96,15 %
02.07.2018 02:10 10,9 C 21,1 C 77 % 1015,4 hPa 0,0 l/m 7,0 km/h (2 Bft) O-NO 74 0 min 0,000 mm 0,0 UV-I 0 W/m 7,0 C 10,5 C 11,3 km/h (2 Bft) 100,00 %
02.07.2018 02:11 10,9 C 21,1 C 77 % 1015,5 hPa 0,0 l/m 6,6 km/h (2 Bft) O-NO 66 0 min 0,000 mm 0,0 UV-I 0 W/m 7,0 C 10,8 C 11,3 km/h (2 Bft) 100,00 %
02.07.2018 02:12 10,9 C 21,1 C 77 % 1015,4 hPa 0,0 l/m 7,0 km/h (2 Bft) O-NO 69 0 min 0,000 mm 0,0 UV-I 0 W/m 7,0 C 10,5 C 9,7 km/h (2 Bft) 100,00 %
02.07.2018 02:13 10,9 C 21,1 C 77 % 1015,4 hPa 0,0 l/m 6,8 km/h (2 Bft) O-NO 66 0 min 0,000 mm 0,0 UV-I 0 W/m 7,0 C 10,6 C 8,0 km/h (2 Bft) 100,00 %
02.07.2018 02:14 10,9 C 21,1 C 77 % 1015,4 hPa 0,0 l/m 6,0 km/h (2 Bft) O 85 0 min 0,000 mm 0,0 UV-I 0 W/m 7,0 C 10,9 C 6,4 km/h (2 Bft) 100,00 %
02.07.2018 02:15 10,9 C 21,1 C 77 % 1015,4 hPa 0,0 l/m 4,8 km/h (1 Bft) O-NO 75 0 min 0,000 mm 0,0 UV-I 0 W/m 7,0 C 10,9 C 6,4 km/h (2 Bft) 100,00 %
02.07.2018 02:16 10,9 C 21,1 C 77 % 1015,4 hPa 0,0 l/m 6,7 km/h (2 Bft) O 95 0 min 0,000 mm 0,0 UV-I 0 W/m 7,0 C 10,7 C 11,3 km/h (2 Bft) 100,00 %
02.07.2018 02:17 10,8 C 21,1 C 77 % 1015,4 hPa 0,0 l/m 5,4 km/h (1 Bft) O 88 0 min 0,000 mm 0,0 UV-I 0 W/m 6,9 C 10,8 C 6,4 km/h (2 Bft) 100,00 %
02.07.2018 02:18 10,8 C 21,1 C 78 % 1015,4 hPa 0,0 l/m 5,8 km/h (2 Bft) O-NO 74 0 min 0,000 mm 0,0 UV-I 0 W/m 7,1 C 10,8 C 9,7 km/h (2 Bft) 100,00 %
02.07.2018 02:19 10,7 C 21,1 C 78 % 1015,4 hPa 0,0 l/m 5,7 km/h (1 Bft) O 89 0 min 0,000 mm 0,0 UV-I 0 W/m 7,0 C 10,7 C 9,7 km/h (2 Bft) 100,00 %
02.07.2018 02:20 10,7 C 21,1 C 78 % 1015,4 hPa 0,0 l/m 6,2 km/h (2 Bft) O 92 0 min 0,000 mm 0,0 UV-I 0 W/m 7,0 C 10,7 C 9,7 km/h (2 Bft) 100,00 %
02.07.2018 02:21 10,7 C 21,1 C 78 % 1015,4 hPa 0,0 l/m 6,4 km/h (2 Bft) O 96 0 min 0,000 mm 0,0 UV-I 0 W/m 7,0 C 10,7 C 9,7 km/h (2 Bft) 100,00 %
02.07.2018 02:22 10,7 C 21,1 C 78 % 1015,4 hPa 0,0 l/m 5,0 km/h (1 Bft) O 100 0 min 0,000 mm 0,0 UV-I 0 W/m 7,0 C 10,7 C 8,0 km/h (2 Bft) 100,00 %
02.07.2018 02:23 10,7 C 21,1 C 77 % 1015,4 hPa 0,0 l/m 4,7 km/h (1 Bft) O-NO 71 0 min 0,000 mm 0,0 UV-I 0 W/m 6,8 C 10,7 C 6,4 km/h (2 Bft) 100,00 %
02.07.2018 02:24 10,7 C 21,1 C 77 % 1015,4 hPa 0,0 l/m 5,0 km/h (1 Bft) O-NO 78 0 min 0,000 mm 0,0 UV-I 0 W/m 6,8 C 10,7 C 6,4 km/h (2 Bft) 100,00 %
02.07.2018 02:25 10,8 C 21,1 C 77 % 1015,3 hPa 0,0 l/m 5,5 km/h (1 Bft) O-NO 76 0 min 0,000 mm 0,0 UV-I 0 W/m 6,9 C 10,8 C 6,4 km/h (2 Bft) 100,00 %
02.07.2018 02:26 10,8 C 21,1 C 77 % 1015,4 hPa 0,0 l/m 5,5 km/h (1 Bft) O 82 0 min 0,000 mm 0,0 UV-I 0 W/m 6,9 C 10,8 C 6,4 km/h (2 Bft) 100,00 %
02.07.2018 02:27 10,8 C 21,1 C 77 % 1015,3 hPa 0,0 l/m 4,1 km/h (1 Bft) O-NO 71 0 min 0,000 mm 0,0 UV-I 0 W/m 6,9 C 10,8 C 4,8 km/h (1 Bft) 95,65 %
02.07.2018 02:28 10,8 C 21,1 C 77 % 1015,3 hPa 0,0 l/m 5,4 km/h (1 Bft) O 89 0 min 0,000 mm 0,0 UV-I 0 W/m 6,9 C 10,8 C 9,7 km/h (2 Bft) 100,00 %
02.07.2018 02:29 10,8 C 21,1 C 76 % 1015,3 hPa 0,0 l/m 5,1 km/h (1 Bft) O-SO 102 0 min 0,000 mm 0,0 UV-I 0 W/m 6,7 C 10,8 C 6,4 km/h (2 Bft) 100,00 %
02.07.2018 02:30 10,8 C 21,1 C 76 % 1015,3 hPa 0,0 l/m 6,8 km/h (2 Bft) O 91 0 min 0,000 mm 0,0 UV-I 0 W/m 6,7 C 10,5 C 9,7 km/h (2 Bft) 100,00 %
02.07.2018 02:31 10,8 C 21,1 C 77 % 1015,3 hPa 0,0 l/m 5,9 km/h (2 Bft) O 80 0 min 0,000 mm 0,0 UV-I 0 W/m 6,9 C 10,8 C 6,4 km/h (2 Bft) 100,00 %
02.07.2018 02:32 10,8 C 21,1 C 77 % 1015,3 hPa 0,0 l/m 4,7 km/h (1 Bft) O-NO 76 0 min 0,000 mm 0,0 UV-I 0 W/m 6,9 C 10,8 C 6,4 km/h (2 Bft) 100,00 %
02.07.2018 02:33 10,8 C 21,1 C 77 % 1015,3 hPa 0,0 l/m 4,7 km/h (1 Bft) O-NO 71 0 min 0,000 mm 0,0 UV-I 0 W/m 6,9 C 10,8 C 6,4 km/h (2 Bft) 100,00 %
02.07.2018 02:34 10,7 C 21,1 C 77 % 1015,3 hPa 0,0 l/m 4,8 km/h (1 Bft) O-NO 71 0 min 0,000 mm 0,0 UV-I 0 W/m 6,8 C 10,7 C 6,4 km/h (2 Bft) 100,00 %
02.07.2018 02:35 10,6 C 21,1 C 78 % 1015,3 hPa 0,0 l/m 5,4 km/h (1 Bft) O 80 0 min 0,000 mm 0,0 UV-I 0 W/m 6,9 C 10,6 C 6,4 km/h (2 Bft) 100,00 %
02.07.2018 02:36 10,4 C 21,1 C 78 % 1015,2 hPa 0,0 l/m 4,9 km/h (1 Bft) O-NO 67 0 min 0,000 mm 0,0 UV-I 0 W/m 6,7 C 10,4 C 6,4 km/h (2 Bft) 100,00 %
02.07.2018 02:37 10,3 C 21,1 C 79 % 1015,2 hPa 0,0 l/m 4,8 km/h (1 Bft) O-NO 73 0 min 0,000 mm 0,0 UV-I 0 W/m 6,8 C 10,3 C 6,4 km/h (2 Bft) 95,83 %
02.07.2018 02:38 10,2 C 21,1 C 79 % 1015,2 hPa 0,0 l/m 5,0 km/h (1 Bft) O-NO 63 0 min 0,000 mm 0,0 UV-I 0 W/m 6,7 C 10,2 C 6,4 km/h (2 Bft) 100,00 %
02.07.2018 02:39 10,1 C 21,1 C 79 % 1015,2 hPa 0,0 l/m 4,3 km/h (1 Bft) O 80 0 min 0,000 mm 0,0 UV-I 0 W/m 6,6 C 10,1 C 6,4 km/h (2 Bft) 100,00 %
02.07.2018 02:40 10,2 C 21,1 C 80 % 1015,3 hPa 0,0 l/m 5,5 km/h (1 Bft) O-NO 71 0 min 0,000 mm 0,0 UV-I 0 W/m 6,9 C 10,2 C 6,4 km/h (2 Bft) 100,00 %
02.07.2018 02:41 10,1 C 21,1 C 80 % 1015,3 hPa 0,0 l/m 5,2 km/h (1 Bft) O 94 0 min 0,000 mm 0,0 UV-I 0 W/m 6,8 C 10,1 C 8,0 km/h (2 Bft) 96,30 %
02.07.2018 02:42 10,1 C 21,1 C 80 % 1015,3 hPa 0,0 l/m 3,4 km/h (1 Bft) O 94 0 min 0,000 mm 0,0 UV-I 0 W/m 6,8 C 10,1 C 4,8 km/h (1 Bft) 100,00 %
02.07.2018 02:43 10,1 C 21,1 C 80 % 1015,3 hPa 0,0 l/m 2,9 km/h (1 Bft) O 94 0 min 0,000 mm 0,0 UV-I 0 W/m 6,8 C 10,1 C 4,8 km/h (1 Bft) 100,00 %
02.07.2018 02:44 10,1 C 21,1 C 80 % 1015,3 hPa 0,0 l/m 3,5 km/h (1 Bft) O 97 0 min 0,000 mm 0,0 UV-I 0 W/m 6,8 C 10,1 C 4,8 km/h (1 Bft) 100,00 %
02.07.2018 02:45 10,1 C 21,1 C 80 % 1015,3 hPa 0,0 l/m 4,4 km/h (1 Bft) O-SO 115 0 min 0,000 mm 0,0 UV-I 0 W/m 6,8 C 10,1 C 6,4 km/h (2 Bft) 100,00 %
02.07.2018 02:46 10,1 C 21,1 C 80 % 1015,3 hPa 0,0 l/m 4,9 km/h (1 Bft) O 98 0 min 0,000 mm 0,0 UV-I 0 W/m 6,8 C 10,1 C 6,4 km/h (2 Bft) 100,00 %
02.07.2018 02:47 10,1 C 21,1 C 80 % 1015,3 hPa 0,0 l/m 3,0 km/h (1 Bft) O 98 0 min 0,000 mm 0,0 UV-I 0 W/m 6,8 C 10,1 C 4,8 km/h (1 Bft) 100,00 %
02.07.2018 02:48 10,1 C 21,1 C 80 % 1015,3 hPa 0,0 l/m 4,6 km/h (1 Bft) O 96 0 min 0,000 mm 0,0 UV-I 0 W/m 6,8 C 10,1 C 6,4 km/h (2 Bft) 100,00 %
02.07.2018 02:49 10,2 C 21,1 C 79 % 1015,3 hPa 0,0 l/m 4,6 km/h (1 Bft) O 92 0 min 0,000 mm 0,0 UV-I 0 W/m 6,7 C 10,2 C 6,4 km/h (2 Bft) 100,00 %
02.07.2018 02:50 10,2 C 21,1 C 79 % 1015,3 hPa 0,0 l/m 5,1 km/h (1 Bft) O-SO 102 0 min 0,000 mm 0,0 UV-I 0 W/m 6,7 C 10,2 C 6,4 km/h (2 Bft) 100,00 %
02.07.2018 02:51 10,2 C 21,1 C 79 % 1015,3 hPa 0,0 l/m 3,6 km/h (1 Bft) O-SO 102 0 min 0,000 mm 0,0 UV-I 0 W/m 6,7 C 10,2 C 6,4 km/h (2 Bft) 100,00 %
02.07.2018 02:52 10,3 C 21,1 C 78 % 1015,3 hPa 0,0 l/m 4,0 km/h (1 Bft) O 101 0 min 0,000 mm 0,0 UV-I 0 W/m 6,6 C 10,3 C 4,8 km/h (1 Bft) 100,00 %
02.07.2018 02:53 10,3 C 21,1 C 78 % 1015,3 hPa 0,0 l/m 3,7 km/h (1 Bft) O 94 0 min 0,000 mm 0,0 UV-I 0 W/m 6,6 C 10,3 C 4,8 km/h (1 Bft) 100,00 %
02.07.2018 02:54 10,4 C 21,1 C 78 % 1015,3 hPa 0,0 l/m 5,2 km/h (1 Bft) O 96 0 min 0,000 mm 0,0 UV-I 0 W/m 6,7 C 10,4 C 6,4 km/h (2 Bft) 100,00 %
02.07.2018 02:55 10,4 C 21,1 C 77 % 1015,3 hPa 0,0 l/m 4,1 km/h (1 Bft) O 96 0 min 0,000 mm 0,0 UV-I 0 W/m 6,5 C 10,4 C 6,4 km/h (2 Bft) 100,00 %
02.07.2018 02:56 10,4 C 21,1 C 77 % 1015,3 hPa 0,0 l/m 5,0 km/h (1 Bft) O-SO 105 0 min 0,000 mm 0,0 UV-I 0 W/m 6,5 C 10,4 C 9,7 km/h (2 Bft) 100,00 %
02.07.2018 02:57 10,4 C 21,1 C 77 % 1015,3 hPa 0,0 l/m 3,6 km/h (1 Bft) O-SO 105 0 min 0,000 mm 0,0 UV-I 0 W/m 6,5 C 10,4 C 4,8 km/h (1 Bft) 100,00 %
02.07.2018 02:58 10,4 C 21,1 C 77 % 1015,3 hPa 0,0 l/m 3,1 km/h (1 Bft) O-SO 105 0 min 0,000 mm 0,0 UV-I 0 W/m 6,5 C 10,4 C 4,8 km/h (1 Bft) 100,00 %
02.07.2018 02:59 10,4 C 21,1 C 77 % 1015,3 hPa 0,0 l/m 3,6 km/h (1 Bft) O 88 0 min 0,000 mm 0,0 UV-I 0 W/m 6,5 C 10,4 C 4,8 km/h (1 Bft) 100,00 %
02.07.2018 03:00 10,4 C 21,1 C 77 % 1015,3 hPa 0,0 l/m 3,1 km/h (1 Bft) O 88 0 min 0,025 mm 0,0 UV-I 0 W/m 6,5 C 10,4 C 4,8 km/h (1 Bft) 100,00 %
02.07.2018 03:01 10,4 C 21,1 C 77 % 1015,3 hPa 0,0 l/m 4,6 km/h (1 Bft) O 80 0 min 0,000 mm 0,0 UV-I 0 W/m 6,5 C 10,4 C 6,4 km/h (2 Bft) 95,65 %
02.07.2018 03:02 10,4 C 21,1 C 77 % 1015,3 hPa 0,0 l/m 3,9 km/h (1 Bft) O-NO 69 0 min 0,000 mm 0,0 UV-I 0 W/m 6,5 C 10,4 C 6,4 km/h (2 Bft) 100,00 %
02.07.2018 03:03 10,4 C 21,1 C 77 % 1015,2 hPa 0,0 l/m 3,9 km/h (1 Bft) O-NO 74 0 min 0,000 mm 0,0 UV-I 0 W/m 6,5 C 10,4 C 6,4 km/h (2 Bft) 100,00 %
02.07.2018 03:04 10,4 C 21,1 C 77 % 1015,3 hPa 0,0 l/m 4,6 km/h (1 Bft) O 86 0 min 0,000 mm 0,0 UV-I 0 W/m 6,5 C 10,4 C 6,4 km/h (2 Bft) 100,00 %
02.07.2018 03:05 10,3 C 21,1 C 77 % 1015,2 hPa 0,0 l/m 4,4 km/h (1 Bft) O 83 0 min 0,000 mm 0,0 UV-I 0 W/m 6,4 C 10,3 C 6,4 km/h (2 Bft) 100,00 %
02.07.2018 03:06 10,3 C 21,1 C 77 % 1015,2 hPa 0,0 l/m 4,9 km/h (1 Bft) O 82 0 min 0,000 mm 0,0 UV-I 0 W/m 6,4 C 10,3 C 6,4 km/h (2 Bft) 100,00 %
02.07.2018 03:07 10,3 C 21,1 C 77 % 1015,3 hPa 0,0 l/m 4,8 km/h (1 Bft) O-NO 77 0 min 0,000 mm 0,0 UV-I 0 W/m 6,4 C 10,3 C 8,0 km/h (2 Bft) 95,65 %
02.07.2018 03:08 10,2 C 21,1 C 77 % 1015,2 hPa 0,0 l/m 4,8 km/h (1 Bft) O 84 0 min 0,000 mm 0,0 UV-I 0 W/m 6,4 C 10,2 C 6,4 km/h (2 Bft) 100,00 %
02.07.2018 03:09 10,2 C 21,1 C 77 % 1015,2 hPa 0,0 l/m 3,6 km/h (1 Bft) O 83 0 min 0,000 mm 0,0 UV-I 0 W/m 6,4 C 10,2 C 6,4 km/h (2 Bft) 100,00 %
02.07.2018 03:10 10,2 C 21,1 C 77 % 1015,2 hPa 0,0 l/m 3,2 km/h (1 Bft) O 83 0 min 0,000 mm 0,0 UV-I 0 W/m 6,4 C 10,2 C 4,8 km/h (1 Bft) 100,00 %
02.07.2018 03:11 10,2 C 21,1 C 77 % 1015,2 hPa 0,0 l/m 2,3 km/h (1 Bft) O 82 0 min 0,000 mm 0,0 UV-I 0 W/m 6,4 C 10,2 C 4,8 km/h (1 Bft) 100,00 %
02.07.2018 03:12 10,2 C 21,1 C 78 % 1015,2 hPa 0,0 l/m 3,1 km/h (1 Bft) O 80 0 min 0,000 mm 0,0 UV-I 0 W/m 6,5 C 10,2 C 4,8 km/h (1 Bft) 100,00 %
02.07.2018 03:13 10,1 C 21,1 C 78 % 1015,2 hPa 0,0 l/m 3,7 km/h (1 Bft) O 80 0 min 0,000 mm 0,0 UV-I 0 W/m 6,4 C 10,1 C 4,8 km/h (1 Bft) 95,83 %
02.07.2018 03:14 9,9 C 21,1 C 78 % 1015,1 hPa 0,0 l/m 3,0 km/h (1 Bft) O 80 0 min 0,000 mm 0,0 UV-I 0 W/m 6,2 C 9,9 C 3,2 km/h (1 Bft) 91,30 %
02.07.2018 03:15 9,8 C 21,1 C 79 % 1015,1 hPa 0,0 l/m 3,1 km/h (1 Bft) O 80 0 min 0,000 mm 0,0 UV-I 0 W/m 6,3 C 9,8 C 4,8 km/h (1 Bft) 100,00 %
02.07.2018 03:16 9,8 C 21,1 C 79 % 1015,2 hPa 0,0 l/m 2,6 km/h (1 Bft) O 80 0 min 0,000 mm 0,0 UV-I 0 W/m 6,3 C 9,8 C 3,2 km/h (1 Bft) 92,31 %
02.07.2018 03:17 9,8 C 21,1 C 79 % 1015,1 hPa 0,0 l/m 2,2 km/h (1 Bft) O 80 0 min 0,000 mm 0,0 UV-I 0 W/m 6,3 C 9,8 C 3,2 km/h (1 Bft) 100,00 %
02.07.2018 03:18 9,8 C 21,1 C 79 % 1015,2 hPa 0,0 l/m 2,4 km/h (1 Bft) O 80 0 min 0,000 mm 0,0 UV-I 0 W/m 6,3 C 9,8 C 4,8 km/h (1 Bft) 96,15 %
02.07.2018 03:19 9,8 C 21,1 C 79 % 1015,2 hPa 0,0 l/m 3,3 km/h (1 Bft) O 83 0 min 0,000 mm 0,0 UV-I 0 W/m 6,3 C 9,8 C 4,8 km/h (1 Bft) 100,00 %
02.07.2018 03:20 9,9 C 21,1 C 79 % 1015,2 hPa 0,0 l/m 3,9 km/h (1 Bft) O-SO 103 0 min 0,000 mm 0,0 UV-I 0 W/m 6,4 C 9,9 C 4,8 km/h (1 Bft) 96,55 %
02.07.2018 03:21 9,9 C 21,1 C 79 % 1015,2 hPa 0,0 l/m 4,2 km/h (1 Bft) O-SO 103 0 min 0,000 mm 0,0 UV-I 0 W/m 6,4 C 9,9 C 6,4 km/h (2 Bft) 100,00 %
02.07.2018 03:22 9,9 C 21,1 C 78 % 1015,2 hPa 0,0 l/m 4,4 km/h (1 Bft) O 94 0 min 0,000 mm 0,0 UV-I 0 W/m 6,2 C 9,9 C 6,4 km/h (2 Bft) 92,86 %
02.07.2018 03:23 9,9 C 21,1 C 78 % 1015,2 hPa 0,0 l/m 3,8 km/h (1 Bft) O 93 0 min 0,000 mm 0,0 UV-I 0 W/m 6,2 C 9,9 C 4,8 km/h (1 Bft) 97,22 %
02.07.2018 03:24 9,9 C 20,6 C 78 % 1015,2 hPa 0,0 l/m 3,1 km/h (1 Bft) O 80 0 min 0,000 mm 0,0 UV-I 0 W/m 6,2 C 9,9 C 4,8 km/h (1 Bft) 100,00 %
02.07.2018 03:25 10,0 C 20,6 C 78 % 1015,2 hPa 0,0 l/m 2,0 km/h (1 Bft) O 80 0 min 0,000 mm 0,0 UV-I 0 W/m 6,3 C 10,0 C 3,2 km/h (1 Bft) 96,67 %
02.07.2018 03:26 9,9 C 20,6 C 78 % 1015,2 hPa 0,0 l/m 2,5 km/h (1 Bft) O 80 0 min 0,000 mm 0,0 UV-I 0 W/m 6,2 C 9,9 C 3,2 km/h (1 Bft) 100,00 %
02.07.2018 03:27 9,9 C 20,6 C 78 % 1015,2 hPa 0,0 l/m 2,3 km/h (1 Bft) O 80 0 min 0,000 mm 0,0 UV-I 0 W/m 6,2 C 9,9 C 3,2 km/h (1 Bft) 95,83 %
02.07.2018 03:29 10,0 C 20,6 C 78 % 1015,2 hPa 0,0 l/m 2,5 km/h (1 Bft) O 82 0 min 0,000 mm 0,0 UV-I 0 W/m 6,3 C 10,0 C 4,8 km/h (1 Bft) 97,37 %
02.07.2018 03:30 10,0 C 20,6 C 78 % 1015,2 hPa 0,0 l/m 2,9 km/h (1 Bft) O 84 0 min 0,000 mm 0,0 UV-I 0 W/m 6,3 C 10,0 C 4,8 km/h (1 Bft) 96,67 %
02.07.2018 03:31 10,0 C 20,6 C 78 % 1015,2 hPa 0,0 l/m 4,2 km/h (1 Bft) O-SO 102 0 min 0,000 mm 0,0 UV-I 0 W/m 6,3 C 10,0 C 4,8 km/h (1 Bft) 96,15 %
02.07.2018 03:32 10,0 C 20,6 C 78 % 1015,2 hPa 0,0 l/m 4,5 km/h (1 Bft) O 96 0 min 0,000 mm 0,0 UV-I 0 W/m 6,3 C 10,0 C 6,4 km/h (2 Bft) 100,00 %
02.07.2018 03:33 10,0 C 20,6 C 77 % 1015,2 hPa 0,0 l/m 4,7 km/h (1 Bft) O 92 0 min 0,000 mm 0,0 UV-I 0 W/m 6,2 C 10,0 C 6,4 km/h (2 Bft) 96,88 %
02.07.2018 03:34 10,0 C 20,6 C 77 % 1015,2 hPa 0,0 l/m 4,2 km/h (1 Bft) O-NO 72 0 min 0,000 mm 0,0 UV-I 0 W/m 6,2 C 10,0 C 6,4 km/h (2 Bft) 96,30 %
02.07.2018 03:35 10,0 C 20,6 C 77 % 1015,2 hPa 0,0 l/m 4,0 km/h (1 Bft) O 84 0 min 0,000 mm 0,0 UV-I 0 W/m 6,2 C 10,0 C 4,8 km/h (1 Bft) 100,00 %
02.07.2018 03:36 10,0 C 20,6 C 77 % 1015,2 hPa 0,0 l/m 3,0 km/h (1 Bft) O 84 0 min 0,000 mm 0,0 UV-I 0 W/m 6,2 C 10,0 C 4,8 km/h (1 Bft) 95,83 %
02.07.2018 03:37 10,1 C 20,6 C 77 % 1015,2 hPa 0,0 l/m 3,2 km/h (1 Bft) O 83 0 min 0,000 mm 0,0 UV-I 0 W/m 6,3 C 10,1 C 4,8 km/h (1 Bft) 100,00 %
02.07.2018 03:38 10,1 C 20,6 C 77 % 1015,1 hPa 0,0 l/m 2,9 km/h (1 Bft) O 83 0 min 0,000 mm 0,0 UV-I 0 W/m 6,3 C 10,1 C 3,2 km/h (1 Bft) 100,00 %
02.07.2018 03:39 10,0 C 20,6 C 77 % 1015,1 hPa 0,0 l/m 2,9 km/h (1 Bft) O 83 0 min 0,000 mm 0,0 UV-I 0 W/m 6,2 C 10,0 C 4,8 km/h (1 Bft) 92,31 %
02.07.2018 03:40 9,9 C 20,6 C 77 % 1015,2 hPa 0,0 l/m 2,5 km/h (1 Bft) O 83 0 min 0,000 mm 0,0 UV-I 0 W/m 6,1 C 9,9 C 3,2 km/h (1 Bft) 96,30 %
02.07.2018 03:41 9,9 C 20,6 C 77 % 1015,2 hPa 0,0 l/m 2,3 km/h (1 Bft) O 83 0 min 0,000 mm 0,0 UV-I 0 W/m 6,1 C 9,9 C 3,2 km/h (1 Bft) 96,15 %
02.07.2018 03:42 9,8 C 20,6 C 78 % 1015,2 hPa 0,0 l/m 3,1 km/h (1 Bft) O 83 0 min 0,000 mm 0,0 UV-I 0 W/m 6,1 C 9,8 C 4,8 km/h (1 Bft) 92,59 %
02.07.2018 03:43 9,8 C 20,6 C 78 % 1015,2 hPa 0,0 l/m 3,0 km/h (1 Bft) O 84 0 min 0,000 mm 0,0 UV-I 0 W/m 6,1 C 9,8 C 3,2 km/h (1 Bft) 100,00 %
02.07.2018 03:44 9,8 C 20,6 C 78 % 1015,1 hPa 0,0 l/m 2,5 km/h (1 Bft) O 84 0 min 0,000 mm 0,0 UV-I 0 W/m 6,1 C 9,8 C 3,2 km/h (1 Bft) 95,83 %
02.07.2018 03:45 9,8 C 20,6 C 78 % 1015,1 hPa 0,0 l/m 2,9 km/h (1 Bft) O 84 0 min 0,000 mm 0,0 UV-I 0 W/m 6,1 C 9,8 C 4,8 km/h (1 Bft) 95,83 %
02.07.2018 03:46 9,8 C 20,6 C 78 % 1015,2 hPa 0,0 l/m 2,3 km/h (1 Bft) O 84 0 min 0,000 mm 0,0 UV-I 0 W/m 6,1 C 9,8 C 3,2 km/h (1 Bft) 91,30 %
02.07.2018 03:47 9,8 C 20,6 C 78 % 1015,1 hPa 0,0 l/m 2,6 km/h (1 Bft) O 84 0 min 0,000 mm 0,0 UV-I 0 W/m 6,1 C 9,8 C 3,2 km/h (1 Bft) 96,55 %
02.07.2018 03:48 9,8 C 20,6 C 78 % 1015,1 hPa 0,0 l/m 2,7 km/h (1 Bft) O 84 0 min 0,000 mm 0,0 UV-I 0 W/m 6,1 C 9,8 C 3,2 km/h (1 Bft) 95,83 %
02.07.2018 03:49 9,7 C 20,6 C 78 % 1015,1 hPa 0,0 l/m 3,3 km/h (1 Bft) O 84 0 min 0,000 mm 0,0 UV-I 0 W/m 6,1 C 9,7 C 4,8 km/h (1 Bft) 96,15 %
02.07.2018 03:50 9,6 C 20,6 C 79 % 1015,1 hPa 0,0 l/m 2,0 km/h (1 Bft) O 84 0 min 0,000 mm 0,0 UV-I 0 W/m 6,1 C 9,6 C 3,2 km/h (1 Bft) 91,67 %
02.07.2018 03:51 9,4 C 20,6 C 79 % 1015,1 hPa 0,0 l/m 2,3 km/h (1 Bft) O 84 0 min 0,000 mm 0,0 UV-I 0 W/m 5,9 C 9,4 C 3,2 km/h (1 Bft) 96,30 %
02.07.2018 03:52 9,4 C 20,6 C 79 % 1015,1 hPa 0,0 l/m 2,3 km/h (1 Bft) O 84 0 min 0,000 mm 0,0 UV-I 0 W/m 5,9 C 9,4 C 3,2 km/h (1 Bft) 95,65 %
02.07.2018 03:53 9,4 C 20,6 C 80 % 1015,1 hPa 0,0 l/m 2,7 km/h (1 Bft) O 84 0 min 0,000 mm 0,0 UV-I 0 W/m 6,1 C 9,4 C 3,2 km/h (1 Bft) 94,29 %
02.07.2018 03:54 9,4 C 20,6 C 80 % 1015,1 hPa 0,0 l/m 3,5 km/h (1 Bft) O 84 0 min 0,000 mm 0,0 UV-I 0 W/m 6,1 C 9,4 C 4,8 km/h (1 Bft) 100,00 %
02.07.2018 03:55 9,4 C 20,6 C 80 % 1015,1 hPa 0,0 l/m 2,5 km/h (1 Bft) O 84 0 min 0,000 mm 0,0 UV-I 0 W/m 6,1 C 9,4 C 3,2 km/h (1 Bft) 87,50 %
02.07.2018 03:56 9,4 C 20,6 C 80 % 1015,1 hPa 0,0 l/m 2,9 km/h (1 Bft) O 84 0 min 0,000 mm 0,0 UV-I 0 W/m 6,1 C 9,4 C 3,2 km/h (1 Bft) 100,00 %
02.07.2018 03:57 9,4 C 20,6 C 79 % 1015,1 hPa 0,0 l/m 2,7 km/h (1 Bft) O 84 0 min 0,000 mm 0,0 UV-I 0 W/m 5,9 C 9,4 C 4,8 km/h (1 Bft) 91,67 %
02.07.2018 03:58 9,4 C 20,6 C 79 % 1015,1 hPa 0,0 l/m 2,7 km/h (1 Bft) O 84 0 min 0,000 mm 0,0 UV-I 0 W/m 5,9 C 9,4 C 3,2 km/h (1 Bft) 94,29 %
02.07.2018 03:59 9,3 C 20,6 C 80 % 1015,1 hPa 0,0 l/m 2,7 km/h (1 Bft) O 84 0 min 0,000 mm 0,0 UV-I 0 W/m 6,0 C 9,3 C 3,2 km/h (1 Bft) 100,00 %
02.07.2018 04:00 9,3 C 20,6 C 80 % 1015,1 hPa 0,0 l/m 2,8 km/h (1 Bft) O 84 0 min 0,000 mm 0,0 UV-I 0 W/m 6,0 C 9,3 C 4,8 km/h (1 Bft) 95,65 %
02.07.2018 04:01 9,2 C 20,6 C 80 % 1015,1 hPa 0,0 l/m 2,9 km/h (1 Bft) O 84 0 min 0,000 mm 0,0 UV-I 0 W/m 5,9 C 9,2 C 3,2 km/h (1 Bft) 100,00 %
02.07.2018 04:02 9,2 C 20,6 C 80 % 1015,1 hPa 0,0 l/m 3,2 km/h (1 Bft) O 84 0 min 0,000 mm 0,0 UV-I 0 W/m 5,9 C 9,2 C 4,8 km/h (1 Bft) 95,65 %
02.07.2018 04:03 9,2 C 20,6 C 81 % 1015,1 hPa 0,0 l/m 2,3 km/h (1 Bft) O 84 0 min 0,000 mm 0,0 UV-I 0 W/m 6,1 C 9,2 C 3,2 km/h (1 Bft) 100,00 %
02.07.2018 04:04 9,2 C 20,6 C 81 % 1015,1 hPa 0,0 l/m 1,8 km/h (1 Bft) O 84 0 min 0,000 mm 0,0 UV-I 0 W/m 6,1 C 9,2 C 3,2 km/h (1 Bft) 95,65 %
02.07.2018 04:05 9,3 C 20,6 C 81 % 1015,1 hPa 0,0 l/m 2,2 km/h (1 Bft) O 84 0 min 0,000 mm 0,0 UV-I 0 W/m 6,2 C 9,3 C 3,2 km/h (1 Bft) 100,00 %
02.07.2018 04:06 9,3 C 20,6 C 81 % 1015,0 hPa 0,0 l/m 2,0 km/h (1 Bft) O 84 0 min 0,000 mm 0,0 UV-I 0 W/m 6,2 C 9,3 C 4,8 km/h (1 Bft) 93,33 %
02.07.2018 04:07 9,3 C 20,6 C 80 % 1015,1 hPa 0,0 l/m 2,6 km/h (1 Bft) O 84 0 min 0,000 mm 0,0 UV-I 0 W/m 6,0 C 9,3 C 4,8 km/h (1 Bft) 100,00 %
02.07.2018 04:08 9,3 C 20,6 C 80 % 1015,1 hPa 0,0 l/m 2,9 km/h (1 Bft) O 84 0 min 0,000 mm 0,0 UV-I 0 W/m 6,0 C 9,3 C 4,8 km/h (1 Bft) 95,83 %
02.07.2018 04:09 9,3 C 20,6 C 81 % 1015,1 hPa 0,0 l/m 1,4 km/h (1 Bft) O 84 0 min 0,000 mm 0,0 UV-I 0 W/m 6,2 C 9,3 C 3,2 km/h (1 Bft) 100,00 %
02.07.2018 04:10 9,3 C 20,6 C 81 % 1015,0 hPa 0,0 l/m 1,7 km/h (1 Bft) O 84 0 min 0,000 mm 0,0 UV-I 0 W/m 6,2 C 9,3 C 3,2 km/h (1 Bft) 95,83 %
02.07.2018 04:11 9,3 C 20,6 C 81 % 1015,0 hPa 0,0 l/m 3,4 km/h (1 Bft) O 84 0 min 0,000 mm 0,0 UV-I 0 W/m 6,2 C 9,3 C 4,8 km/h (1 Bft) 95,65 %
02.07.2018 04:12 9,2 C 20,6 C 81 % 1015,0 hPa 0,0 l/m 3,3 km/h (1 Bft) O 84 0 min 0,000 mm 0,0 UV-I 0 W/m 6,1 C 9,2 C 4,8 km/h (1 Bft) 100,00 %
02.07.2018 04:13 9,1 C 20,6 C 81 % 1015,0 hPa 0,0 l/m 2,4 km/h (1 Bft) O 84 0 min 0,000 mm 0,0 UV-I 0 W/m 6,0 C 9,1 C 3,2 km/h (1 Bft) 95,65 %
02.07.2018 04:14 9,1 C 20,6 C 82 % 1015,0 hPa 0,0 l/m 2,2 km/h (1 Bft) O 84 0 min 0,000 mm 0,0 UV-I 0 W/m 6,2 C 9,1 C 3,2 km/h (1 Bft) 100,00 %
02.07.2018 04:15 9,0 C 20,6 C 81 % 1015,0 hPa 0,0 l/m 3,0 km/h (1 Bft) O 84 0 min 0,000 mm 0,0 UV-I 0 W/m 5,9 C 9,0 C 3,2 km/h (1 Bft) 100,00 %
02.07.2018 04:16 9,1 C 20,6 C 81 % 1015,0 hPa 0,0 l/m 2,3 km/h (1 Bft) O 84 0 min 0,000 mm 0,0 UV-I 0 W/m 6,0 C 9,1 C 3,2 km/h (1 Bft) 100,00 %
02.07.2018 04:17 9,1 C 20,6 C 81 % 1015,0 hPa 0,0 l/m 3,0 km/h (1 Bft) O 84 0 min 0,000 mm 0,0 UV-I 0 W/m 6,0 C 9,1 C 3,2 km/h (1 Bft) 100,00 %
02.07.2018 04:19 9,2 C 20,6 C 80 % 1015,0 hPa 0,0 l/m 2,8 km/h (1 Bft) O 84 0 min 0,000 mm 0,0 UV-I 0 W/m 5,9 C 9,2 C 4,8 km/h (1 Bft) 97,56 %
02.07.2018 04:20 9,3 C 20,6 C 80 % 1015,0 hPa 0,0 l/m 3,3 km/h (1 Bft) O 84 0 min 0,000 mm 0,0 UV-I 0 W/m 6,0 C 9,3 C 4,8 km/h (1 Bft) 100,00 %
02.07.2018 04:21 9,3 C 20,6 C 80 % 1014,9 hPa 0,0 l/m 2,9 km/h (1 Bft) O 84 0 min 0,000 mm 0,0 UV-I 0 W/m 6,0 C 9,3 C 3,2 km/h (1 Bft) 100,00 %
02.07.2018 04:22 9,3 C 20,6 C 80 % 1014,9 hPa 0,0 l/m 2,5 km/h (1 Bft) O 84 0 min 0,000 mm 0,0 UV-I 0 W/m 6,0 C 9,3 C 3,2 km/h (1 Bft) 100,00 %
02.07.2018 04:23 9,3 C 20,6 C 80 % 1014,9 hPa 0,0 l/m 2,5 km/h (1 Bft) O 83 0 min 0,000 mm 0,0 UV-I 0 W/m 6,0 C 9,3 C 3,2 km/h (1 Bft) 100,00 %
02.07.2018 04:24 9,3 C 20,6 C 80 % 1015,0 hPa 0,0 l/m 2,0 km/h (1 Bft) O 84 0 min 0,000 mm 0,0 UV-I 0 W/m 6,0 C 9,3 C 3,2 km/h (1 Bft) 100,00 %
02.07.2018 04:25 9,3 C 20,6 C 80 % 1014,9 hPa 0,0 l/m 2,3 km/h (1 Bft) O 83 0 min 0,000 mm 0,0 UV-I 0 W/m 6,0 C 9,3 C 3,2 km/h (1 Bft) 100,00 %
02.07.2018 04:26 9,3 C 20,6 C 80 % 1015,0 hPa 0,0 l/m 2,3 km/h (1 Bft) O 83 0 min 0,000 mm 0,0 UV-I 0 W/m 6,0 C 9,3 C 4,8 km/h (1 Bft) 92,31 %
02.07.2018 04:27 9,3 C 20,6 C 80 % 1015,0 hPa 0,0 l/m 2,4 km/h (1 Bft) O 83 0 min 0,000 mm 0,0 UV-I 0 W/m 6,0 C 9,3 C 3,2 km/h (1 Bft) 100,00 %
02.07.2018 04:29 9,2 C 20,6 C 81 % 1015,0 hPa 0,0 l/m 1,5 km/h (1 Bft) O 83 0 min 0,000 mm 0,0 UV-I 0 W/m 6,1 C 9,2 C 3,2 km/h (1 Bft) 100,00 %
02.07.2018 04:30 9,2 C 20,6 C 81 % 1015,0 hPa 0,0 l/m 0,2 km/h (0 Bft) O 83 0 min 0,000 mm 0,0 UV-I 0 W/m 6,1 C 9,2 C 1,6 km/h (1 Bft) 100,00 %
02.07.2018 04:31 9,2 C 20,6 C 81 % 1015,0 hPa 0,0 l/m 0,2 km/h (0 Bft) O 83 0 min 0,000 mm 0,0 UV-I 0 W/m 6,1 C 9,2 C 1,6 km/h (1 Bft) 100,00 %
02.07.2018 04:32 9,1 C 20,6 C 81 % 1014,9 hPa 0,0 l/m 1,6 km/h (1 Bft) O 83 0 min 0,000 mm 0,0 UV-I 0 W/m 6,0 C 9,1 C 3,2 km/h (1 Bft) 100,00 %
02.07.2018 04:33 9,1 C 20,6 C 81 % 1015,0 hPa 0,0 l/m 1,6 km/h (1 Bft) O 83 0 min 0,000 mm 0,0 UV-I 0 W/m 6,0 C 9,1 C 3,2 km/h (1 Bft) 100,00 %
02.07.2018 04:34 9,1 C 20,6 C 81 % 1015,0 hPa 0,0 l/m 1,5 km/h (1 Bft) O 84 0 min 0,000 mm 0,0 UV-I 0 W/m 6,0 C 9,1 C 3,2 km/h (1 Bft) 100,00 %
02.07.2018 04:35 9,1 C 20,6 C 81 % 1014,9 hPa 0,0 l/m 0,2 km/h (0 Bft) O 84 0 min 0,000 mm 0,0 UV-I 0 W/m 6,0 C 9,1 C 1,6 km/h (1 Bft) 100,00 %
02.07.2018 04:36 9,2 C 20,6 C 81 % 1015,0 hPa 0,0 l/m 1,8 km/h (1 Bft) O 84 0 min 0,000 mm 0,0 UV-I 0 W/m 6,1 C 9,2 C 3,2 km/h (1 Bft) 100,00 %
02.07.2018 04:37 9,1 C 20,6 C 81 % 1015,0 hPa 0,0 l/m 3,0 km/h (1 Bft) O 86 0 min 0,000 mm 0,0 UV-I 0 W/m 6,0 C 9,1 C 4,8 km/h (1 Bft) 96,30 %
02.07.2018 04:38 9,1 C 20,6 C 81 % 1015,0 hPa 0,0 l/m 2,0 km/h (1 Bft) O 86 0 min 0,000 mm 0,0 UV-I 0 W/m 6,0 C 9,1 C 3,2 km/h (1 Bft) 100,00 %
02.07.2018 04:39 8,9 C 20,6 C 81 % 1015,0 hPa 0,0 l/m 1,3 km/h (1 Bft) O 86 0 min 0,000 mm 0,0 UV-I 0 W/m 5,8 C 8,9 C 1,6 km/h (1 Bft) 100,00 %
02.07.2018 04:40 8,7 C 20,6 C 82 % 1014,9 hPa 0,0 l/m 1,1 km/h (1 Bft) O 86 0 min 0,000 mm 0,0 UV-I 0 W/m 5,8 C 8,7 C 1,6 km/h (1 Bft) 100,00 %
02.07.2018 04:41 8,6 C 20,6 C 83 % 1014,9 hPa 0,0 l/m 3,5 km/h (1 Bft) O-SO 117 0 min 0,000 mm 0,0 UV-I 0 W/m 5,9 C 8,6 C 4,8 km/h (1 Bft) 100,00 %
02.07.2018 04:42 8,5 C 20,6 C 83 % 1014,9 hPa 0,0 l/m 3,1 km/h (1 Bft) O-SO 117 0 min 0,000 mm 0,0 UV-I 0 W/m 5,8 C 8,5 C 4,8 km/h (1 Bft) 100,00 %
02.07.2018 04:43 8,4 C 20,6 C 83 % 1015,0 hPa 0,0 l/m 4,0 km/h (1 Bft) O 89 0 min 0,000 mm 0,0 UV-I 0 W/m 5,7 C 8,4 C 4,8 km/h (1 Bft) 96,55 %
02.07.2018 04:44 8,6 C 20,6 C 83 % 1014,9 hPa 0,0 l/m 3,5 km/h (1 Bft) O 88 0 min 0,000 mm 0,0 UV-I 0 W/m 5,9 C 8,6 C 4,8 km/h (1 Bft) 100,00 %
02.07.2018 04:45 8,7 C 20,6 C 82 % 1014,9 hPa 0,0 l/m 2,7 km/h (1 Bft) O 88 0 min 0,000 mm 0,0 UV-I 0 W/m 5,8 C 8,7 C 4,8 km/h (1 Bft) 100,00 %
02.07.2018 04:46 8,8 C 20,6 C 81 % 1014,9 hPa 0,0 l/m 2,1 km/h (1 Bft) O 88 0 min 0,000 mm 0,0 UV-I 0 W/m 5,7 C 8,8 C 3,2 km/h (1 Bft) 100,00 %
02.07.2018 04:47 8,9 C 20,6 C 80 % 1014,9 hPa 0,0 l/m 2,0 km/h (1 Bft) O 88 0 min 0,000 mm 0,0 UV-I 0 W/m 5,6 C 8,9 C 3,2 km/h (1 Bft) 96,15 %
02.07.2018 04:48 9,1 C 20,6 C 80 % 1014,9 hPa 0,0 l/m 1,3 km/h (1 Bft) O 88 0 min 0,000 mm 0,0 UV-I 0 W/m 5,8 C 9,1 C 1,6 km/h (1 Bft) 100,00 %
02.07.2018 04:49 9,2 C 20,6 C 79 % 1014,9 hPa 0,0 l/m 1,8 km/h (1 Bft) O 88 0 min 0,000 mm 0,0 UV-I 0 W/m 5,8 C 9,2 C 3,2 km/h (1 Bft) 100,00 %
02.07.2018 04:50 9,3 C 20,6 C 79 % 1014,9 hPa 0,0 l/m 1,3 km/h (1 Bft) O 88 0 min 0,000 mm 0,0 UV-I 0 W/m 5,8 C 9,3 C 3,2 km/h (1 Bft) 100,00 %
02.07.2018 04:51 9,3 C 20,6 C 79 % 1014,9 hPa 0,0 l/m 1,0 km/h (0 Bft) O 88 0 min 0,000 mm 0,0 UV-I 0 W/m 5,8 C 9,3 C 1,6 km/h (1 Bft) 100,00 %
02.07.2018 04:52 9,3 C 20,6 C 79 % 1014,9 hPa 0,0 l/m 0,9 km/h (0 Bft) O 88 0 min 0,000 mm 0,0 UV-I 5 W/m 5,8 C 9,3 C 3,2 km/h (1 Bft) 100,00 %
02.07.2018 04:53 9,3 C 20,6 C 79 % 1014,9 hPa 0,0 l/m 1,9 km/h (1 Bft) O 88 0 min 0,000 mm 0,0 UV-I 5 W/m 5,8 C 9,3 C 3,2 km/h (1 Bft) 100,00 %
02.07.2018 04:54 9,3 C 20,6 C 79 % 1015,0 hPa 0,0 l/m 1,9 km/h (1 Bft) O 88 0 min 0,000 mm 0,0 UV-I 5 W/m 5,8 C 9,3 C 3,2 km/h (1 Bft) 100,00 %
02.07.2018 04:55 9,3 C 20,6 C 79 % 1015,0 hPa 0,0 l/m 2,5 km/h (1 Bft) O 88 0 min 0,000 mm 0,0 UV-I 5 W/m 5,8 C 9,3 C 3,2 km/h (1 Bft) 100,00 %
02.07.2018 04:56 9,3 C 20,6 C 78 % 1014,9 hPa 0,0 l/m 2,1 km/h (1 Bft) O 88 0 min 0,000 mm 0,0 UV-I 5 W/m 5,7 C 9,3 C 3,2 km/h (1 Bft) 100,00 %
02.07.2018 04:57 9,2 C 20,6 C 78 % 1014,9 hPa 0,0 l/m 2,7 km/h (1 Bft) O 88 0 min 0,000 mm 0,0 UV-I 5 W/m 5,6 C 9,2 C 3,2 km/h (1 Bft) 96,15 %
02.07.2018 04:58 9,2 C 20,6 C 79 % 1015,0 hPa 0,0 l/m 1,8 km/h (1 Bft) O 88 0 min 0,000 mm 0,0 UV-I 5 W/m 5,8 C 9,2 C 3,2 km/h (1 Bft) 100,00 %
02.07.2018 04:59 9,2 C 20,6 C 79 % 1015,0 hPa 0,0 l/m 2,1 km/h (1 Bft) O 88 0 min 0,000 mm 0,0 UV-I 5 W/m 5,8 C 9,2 C 3,2 km/h (1 Bft) 100,00 %
02.07.2018 05:00 9,2 C 20,6 C 79 % 1015,0 hPa 0,0 l/m 1,8 km/h (1 Bft) O 88 0 min 0,000 mm 0,0 UV-I 7 W/m 5,8 C 9,2 C 3,2 km/h (1 Bft) 96,55 %
02.07.2018 05:01 9,2 C 20,6 C 79 % 1015,0 hPa 0,0 l/m 1,7 km/h (1 Bft) O 88 0 min 0,000 mm 0,0 UV-I 7 W/m 5,8 C 9,2 C 3,2 km/h (1 Bft) 100,00 %
02.07.2018 05:02 9,1 C 20,6 C 79 % 1015,0 hPa 0,0 l/m 1,5 km/h (1 Bft) O 88 0 min 0,000 mm 0,0 UV-I 7 W/m 5,7 C 9,1 C 3,2 km/h (1 Bft) 100,00 %
02.07.2018 05:03 8,9 C 20,6 C 80 % 1015,0 hPa 0,0 l/m 1,3 km/h (1 Bft) O 88 0 min 0,000 mm 0,0 UV-I 7 W/m 5,6 C 8,9 C 3,2 km/h (1 Bft) 96,15 %
02.07.2018 05:04 8,9 C 20,6 C 80 % 1015,0 hPa 0,0 l/m 0,8 km/h (0 Bft) O 88 0 min 0,000 mm 0,0 UV-I 7 W/m 5,6 C 8,9 C 1,6 km/h (1 Bft) 100,00 %
02.07.2018 05:05 8,8 C 20,6 C 80 % 1015,0 hPa 0,0 l/m 1,3 km/h (1 Bft) O 88 0 min 0,000 mm 0,0 UV-I 7 W/m 5,5 C 8,8 C 1,6 km/h (1 Bft) 100,00 %
02.07.2018 05:06 8,6 C 20,6 C 81 % 1015,1 hPa 0,0 l/m 1,7 km/h (1 Bft) O 88 0 min 0,000 mm 0,0 UV-I 7 W/m 5,5 C 8,6 C 3,2 km/h (1 Bft) 100,00 %
02.07.2018 05:07 8,5 C 20,6 C 82 % 1015,0 hPa 0,0 l/m 1,9 km/h (1 Bft) O 88 0 min 0,000 mm 0,0 UV-I 8 W/m 5,6 C 8,5 C 3,2 km/h (1 Bft) 100,00 %
02.07.2018 05:08 8,4 C 20,6 C 83 % 1015,0 hPa 0,0 l/m 1,7 km/h (1 Bft) O 88 0 min 0,000 mm 0,0 UV-I 9 W/m 5,7 C 8,4 C 3,2 km/h (1 Bft) 100,00 %
02.07.2018 05:09 8,3 C 20,6 C 84 % 1015,0 hPa 0,0 l/m 2,1 km/h (1 Bft) O 88 0 min 0,000 mm 0,0 UV-I 9 W/m 5,8 C 8,3 C 3,2 km/h (1 Bft) 100,00 %
02.07.2018 05:10 8,2 C 20,6 C 84 % 1015,0 hPa 0,0 l/m 2,0 km/h (1 Bft) O 88 0 min 0,000 mm 0,0 UV-I 9 W/m 5,7 C 8,2 C 3,2 km/h (1 Bft) 100,00 %
02.07.2018 05:11 8,2 C 20,6 C 84 % 1015,0 hPa 0,0 l/m 1,4 km/h (1 Bft) O 88 0 min 0,000 mm 0,0 UV-I 9 W/m 5,7 C 8,2 C 3,2 km/h (1 Bft) 100,00 %
02.07.2018 05:12 8,1 C 20,6 C 84 % 1015,0 hPa 0,0 l/m 0,7 km/h (0 Bft) O 88 0 min 0,000 mm 0,0 UV-I 9 W/m 5,6 C 8,1 C 1,6 km/h (1 Bft) 100,00 %
02.07.2018 05:13 8,1 C 20,6 C 84 % 1015,1 hPa 0,0 l/m 1,1 km/h (1 Bft) O 88 0 min 0,000 mm 0,0 UV-I 10 W/m 5,6 C 8,1 C 1,6 km/h (1 Bft) 100,00 %
02.07.2018 05:14 8,1 C 20,6 C 84 % 1015,1 hPa 0,0 l/m 1,4 km/h (1 Bft) O 88 0 min 0,000 mm 0,0 UV-I 11 W/m 5,6 C 8,1 C 1,6 km/h (1 Bft) 100,00 %
02.07.2018 05:15 8,1 C 20,6 C 84 % 1015,1 hPa 0,0 l/m 1,7 km/h (1 Bft) O 88 0 min 0,000 mm 0,0 UV-I 11 W/m 5,6 C 8,1 C 3,2 km/h (1 Bft) 100,00 %
02.07.2018 05:16 8,2 C 20,6 C 84 % 1015,0 hPa 0,0 l/m 1,7 km/h (1 Bft) O 88 0 min 0,000 mm 0,0 UV-I 11 W/m 5,7 C 8,2 C 3,2 km/h (1 Bft) 100,00 %
02.07.2018 05:17 8,3 C 20,6 C 84 % 1015,1 hPa 0,0 l/m 1,8 km/h (1 Bft) O 88 0 min 0,000 mm 0,0 UV-I 12 W/m 5,8 C 8,3 C 3,2 km/h (1 Bft) 100,00 %
02.07.2018 05:18 8,3 C 20,6 C 83 % 1015,0 hPa 0,0 l/m 1,3 km/h (1 Bft) O 88 0 min 0,000 mm 0,0 UV-I 12 W/m 5,6 C 8,3 C 1,6 km/h (1 Bft) 100,00 %
02.07.2018 05:19 8,4 C 20,6 C 83 % 1015,1 hPa 0,0 l/m 1,8 km/h (1 Bft) O 88 0 min 0,000 mm 0,0 UV-I 13 W/m 5,7 C 8,4 C 3,2 km/h (1 Bft) 100,00 %
02.07.2018 05:20 8,5 C 20,6 C 83 % 1015,0 hPa 0,0 l/m 1,5 km/h (1 Bft) O 88 0 min 0,000 mm 0,0 UV-I 17 W/m 5,8 C 8,5 C 1,6 km/h (1 Bft) 100,00 %
02.07.2018 05:21 8,6 C 20,6 C 82 % 1015,0 hPa 0,0 l/m 1,6 km/h (1 Bft) O 88 1 min 0,000 mm 0,0 UV-I 19 W/m 5,7 C 8,6 C 1,6 km/h (1 Bft) 100,00 %
02.07.2018 05:22 8,6 C 20,6 C 82 % 1015,0 hPa 0,0 l/m 2,0 km/h (1 Bft) O 88 1 min 0,000 mm 0,0 UV-I 21 W/m 5,7 C 8,6 C 3,2 km/h (1 Bft) 100,00 %
02.07.2018 05:23 8,6 C 20,6 C 82 % 1015,1 hPa 0,0 l/m 2,0 km/h (1 Bft) O 88 1 min 0,000 mm 0,0 UV-I 22 W/m 5,7 C 8,6 C 3,2 km/h (1 Bft) 100,00 %
02.07.2018 05:24 8,6 C 20,6 C 81 % 1015,1 hPa 0,0 l/m 2,9 km/h (1 Bft) O 88 1 min 0,000 mm 0,0 UV-I 23 W/m 5,5 C 8,6 C 3,2 km/h (1 Bft) 100,00 %
02.07.2018 05:25 8,6 C 20,6 C 81 % 1015,1 hPa 0,0 l/m 2,1 km/h (1 Bft) O 88 1 min 0,000 mm 0,0 UV-I 24 W/m 5,5 C 8,6 C 3,2 km/h (1 Bft) 100,00 %
02.07.2018 05:26 8,6 C 20,6 C 81 % 1015,0 hPa 0,0 l/m 2,7 km/h (1 Bft) O 88 1 min 0,000 mm 0,0 UV-I 25 W/m 5,5 C 8,6 C 3,2 km/h (1 Bft) 100,00 %
02.07.2018 05:27 8,6 C 20,6 C 81 % 1015,0 hPa 0,0 l/m 2,9 km/h (1 Bft) O 88 1 min 0,000 mm 0,0 UV-I 26 W/m 5,5 C 8,6 C 3,2 km/h (1 Bft) 100,00 %
02.07.2018 05:28 8,6 C 20,6 C 81 % 1015,0 hPa 0,0 l/m 3,5 km/h (1 Bft) O 88 1 min 0,000 mm 0,0 UV-I 29 W/m 5,5 C 8,6 C 4,8 km/h (1 Bft) 100,00 %
02.07.2018 05:29 8,6 C 20,6 C 81 % 1015,0 hPa 0,0 l/m 2,9 km/h (1 Bft) O 88 1 min 0,000 mm 0,0 UV-I 30 W/m 5,5 C 8,6 C 3,2 km/h (1 Bft) 100,00 %
02.07.2018 05:30 8,6 C 20,6 C 82 % 1015,0 hPa 0,0 l/m 2,1 km/h (1 Bft) O 88 1 min 0,000 mm 0,0 UV-I 31 W/m 5,7 C 8,6 C 3,2 km/h (1 Bft) 100,00 %
02.07.2018 05:31 8,6 C 20,6 C 82 % 1015,0 hPa 0,0 l/m 1,6 km/h (1 Bft) O 88 1 min 0,000 mm 0,0 UV-I 33 W/m 5,7 C 8,6 C 3,2 km/h (1 Bft) 100,00 %
02.07.2018 05:32 8,6 C 20,6 C 82 % 1015,0 hPa 0,0 l/m 1,2 km/h (1 Bft) O 88 1 min 0,000 mm 0,0 UV-I 34 W/m 5,7 C 8,6 C 3,2 km/h (1 Bft) 100,00 %
02.07.2018 05:33 8,6 C 20,6 C 82 % 1015,0 hPa 0,0 l/m 1,9 km/h (1 Bft) O 88 1 min 0,000 mm 0,0 UV-I 35 W/m 5,7 C 8,6 C 3,2 km/h (1 Bft) 100,00 %
02.07.2018 05:34 8,6 C 20,6 C 81 % 1015,0 hPa 0,0 l/m 0,3 km/h (0 Bft) O 88 1 min 0,000 mm 0,0 UV-I 38 W/m 5,5 C 8,6 C 1,6 km/h (1 Bft) 100,00 %
02.07.2018 05:35 8,6 C 20,6 C 82 % 1015,0 hPa 0,0 l/m 0,0 km/h (0 Bft) O 88 1 min 0,000 mm 0,0 UV-I 39 W/m 5,7 C 8,6 C 0,0 km/h (0 Bft) 100,00 %
02.07.2018 05:36 8,6 C 20,6 C 83 % 1015,0 hPa 0,0 l/m 0,0 km/h (0 Bft) O 88 1 min 0,000 mm 0,0 UV-I 41 W/m 5,9 C 8,6 C 0,0 km/h (0 Bft) 100,00 %
02.07.2018 05:37 8,6 C 20,6 C 82 % 1015,0 hPa 0,0 l/m 0,8 km/h (0 Bft) O 88 1 min 0,000 mm 0,0 UV-I 44 W/m 5,7 C 8,6 C 1,6 km/h (1 Bft) 100,00 %
02.07.2018 05:38 8,6 C 20,6 C 82 % 1015,0 hPa 0,0 l/m 1,5 km/h (1 Bft) O 88 1 min 0,000 mm 0,0 UV-I 44 W/m 5,7 C 8,6 C 1,6 km/h (1 Bft) 100,00 %
02.07.2018 05:39 8,7 C 20,6 C 82 % 1015,0 hPa 0,0 l/m 1,6 km/h (1 Bft) O 88 1 min 0,000 mm 0,0 UV-I 46 W/m 5,8 C 8,7 C 3,2 km/h (1 Bft) 100,00 %
02.07.2018 05:40 8,7 C 20,6 C 82 % 1015,0 hPa 0,0 l/m 0,6 km/h (0 Bft) O 88 1 min 0,000 mm 0,0 UV-I 48 W/m 5,8 C 8,7 C 1,6 km/h (1 Bft) 100,00 %
02.07.2018 05:41 8,8 C 20,6 C 82 % 1015,0 hPa 0,0 l/m 1,0 km/h (0 Bft) O 88 1 min 0,000 mm 0,0 UV-I 50 W/m 5,9 C 8,8 C 1,6 km/h (1 Bft) 100,00 %
02.07.2018 05:42 8,8 C 20,6 C 82 % 1015,0 hPa 0,0 l/m 1,9 km/h (1 Bft) O 88 1 min 0,000 mm 0,0 UV-I 52 W/m 5,9 C 8,8 C 3,2 km/h (1 Bft) 100,00 %
02.07.2018 05:43 8,8 C 20,6 C 82 % 1014,9 hPa 0,0 l/m 1,5 km/h (1 Bft) O 88 1 min 0,000 mm 0,0 UV-I 54 W/m 5,9 C 8,8 C 3,2 km/h (1 Bft) 100,00 %
02.07.2018 05:44 8,8 C 20,6 C 81 % 1015,0 hPa 0,0 l/m 0,2 km/h (0 Bft) O 88 1 min 0,000 mm 0,0 UV-I 56 W/m 5,7 C 8,8 C 1,6 km/h (1 Bft) 100,00 %
02.07.2018 05:45 8,9 C 20,6 C 81 % 1015,0 hPa 0,0 l/m 1,1 km/h (1 Bft) O 88 1 min 0,000 mm 0,0 UV-I 57 W/m 5,8 C 8,9 C 3,2 km/h (1 Bft) 100,00 %
02.07.2018 05:46 8,9 C 20,6 C 81 % 1015,0 hPa 0,0 l/m 1,4 km/h (1 Bft) O 88 1 min 0,000 mm 0,0 UV-I 61 W/m 5,8 C 8,9 C 1,6 km/h (1 Bft) 100,00 %
02.07.2018 05:47 8,9 C 20,6 C 81 % 1014,9 hPa 0,0 l/m 1,2 km/h (1 Bft) O 88 1 min 0,000 mm 0,0 UV-I 63 W/m 5,8 C 8,9 C 3,2 km/h (1 Bft) 100,00 %
02.07.2018 05:48 8,9 C 20,6 C 81 % 1014,9 hPa 0,0 l/m 0,2 km/h (0 Bft) O 88 1 min 0,000 mm 0,0 UV-I 63 W/m 5,8 C 8,9 C 1,6 km/h (1 Bft) 100,00 %
02.07.2018 05:49 8,9 C 20,6 C 81 % 1014,9 hPa 0,0 l/m 1,2 km/h (1 Bft) O 88 1 min 0,000 mm 0,0 UV-I 66 W/m 5,8 C 8,9 C 3,2 km/h (1 Bft) 100,00 %
02.07.2018 05:50 8,9 C 20,6 C 81 % 1014,9 hPa 0,0 l/m 1,5 km/h (1 Bft) O 88 1 min 0,000 mm 0,0 UV-I 67 W/m 5,8 C 8,9 C 1,6 km/h (1 Bft) 100,00 %
02.07.2018 05:51 9,0 C 20,6 C 81 % 1014,9 hPa 0,0 l/m 1,3 km/h (1 Bft) O 88 1 min 0,000 mm 0,0 UV-I 67 W/m 5,9 C 9,0 C 1,6 km/h (1 Bft) 95,83 %
02.07.2018 05:52 9,0 C 20,6 C 81 % 1014,9 hPa 0,0 l/m 1,4 km/h (1 Bft) O 88 1 min 0,000 mm 0,0 UV-I 68 W/m 5,9 C 9,0 C 3,2 km/h (1 Bft) 100,00 %
02.07.2018 05:53 9,0 C 20,6 C 81 % 1015,0 hPa 0,0 l/m 2,2 km/h (1 Bft) O 88 1 min 0,000 mm 0,0 UV-I 70 W/m 5,9 C 9,0 C 3,2 km/h (1 Bft) 100,00 %
02.07.2018 05:54 9,0 C 20,6 C 81 % 1015,0 hPa 0,0 l/m 1,6 km/h (1 Bft) O 88 1 min 0,000 mm 0,0 UV-I 75 W/m 5,9 C 9,0 C 3,2 km/h (1 Bft) 100,00 %
02.07.2018 05:55 9,0 C 20,6 C 81 % 1015,0 hPa 0,0 l/m 2,0 km/h (1 Bft) O 88 1 min 0,000 mm 0,0 UV-I 78 W/m 5,9 C 9,0 C 3,2 km/h (1 Bft) 100,00 %
02.07.2018 05:56 9,0 C 20,6 C 81 % 1015,0 hPa 0,0 l/m 2,9 km/h (1 Bft) O 87 1 min 0,000 mm 0,0 UV-I 81 W/m 5,9 C 9,0 C 4,8 km/h (1 Bft) 100,00 %
02.07.2018 05:57 9,0 C 20,6 C 81 % 1015,0 hPa 0,0 l/m 2,6 km/h (1 Bft) O 87 1 min 0,000 mm 0,0 UV-I 83 W/m 5,9 C 9,0 C 3,2 km/h (1 Bft) 95,65 %
02.07.2018 05:58 9,0 C 20,6 C 81 % 1015,0 hPa 0,0 l/m 1,0 km/h (0 Bft) O 87 1 min 0,000 mm 0,0 UV-I 84 W/m 5,9 C 9,0 C 1,6 km/h (1 Bft) 100,00 %
02.07.2018 05:59 9,0 C 20,6 C 81 % 1015,0 hPa 0,0 l/m 1,3 km/h (1 Bft) O 87 1 min 0,000 mm 0,0 UV-I 87 W/m 5,9 C 9,0 C 1,6 km/h (1 Bft) 92,31 %
02.07.2018 06:00 9,0 C 20,6 C 81 % 1015,0 hPa 0,0 l/m 0,4 km/h (0 Bft) O 87 1 min 0,026 mm 0,0 UV-I 89 W/m 5,9 C 9,0 C 1,6 km/h (1 Bft) 100,00 %
02.07.2018 06:01 9,0 C 20,6 C 81 % 1015,0 hPa 0,0 l/m 0,7 km/h (0 Bft) O 87 1 min 0,000 mm 0,0 UV-I 91 W/m 5,9 C 9,0 C 3,2 km/h (1 Bft) 90,91 %
02.07.2018 06:02 9,0 C 20,6 C 82 % 1015,0 hPa 0,0 l/m 1,3 km/h (1 Bft) O 87 1 min 0,000 mm 0,0 UV-I 93 W/m 6,1 C 9,0 C 3,2 km/h (1 Bft) 95,12 %
02.07.2018 06:03 9,0 C 20,6 C 82 % 1015,0 hPa 0,0 l/m 2,0 km/h (1 Bft) O 87 1 min 0,000 mm 0,0 UV-I 95 W/m 6,1 C 9,0 C 3,2 km/h (1 Bft) 100,00 %
02.07.2018 06:04 9,0 C 20,6 C 82 % 1015,0 hPa 0,0 l/m 1,2 km/h (1 Bft) O 87 1 min 0,000 mm 0,0 UV-I 97 W/m 6,1 C 9,0 C 1,6 km/h (1 Bft) 91,67 %
02.07.2018 06:05 9,1 C 20,6 C 82 % 1015,0 hPa 0,0 l/m 1,8 km/h (1 Bft) O 87 1 min 0,000 mm 0,0 UV-I 99 W/m 6,2 C 9,1 C 3,2 km/h (1 Bft) 100,00 %
02.07.2018 06:06 9,1 C 20,6 C 83 % 1015,0 hPa 0,0 l/m 2,1 km/h (1 Bft) O 87 1 min 0,000 mm 0,0 UV-I 101 W/m 6,4 C 9,1 C 3,2 km/h (1 Bft) 91,67 %
02.07.2018 06:07 9,1 C 20,6 C 83 % 1015,0 hPa 0,0 l/m 2,5 km/h (1 Bft) O 87 1 min 0,000 mm 0,0 UV-I 103 W/m 6,4 C 9,1 C 3,2 km/h (1 Bft) 100,00 %
02.07.2018 06:08 9,1 C 20,6 C 83 % 1015,0 hPa 0,0 l/m 1,0 km/h (0 Bft) O 87 1 min 0,000 mm 0,0 UV-I 104 W/m 6,4 C 9,1 C 1,6 km/h (1 Bft) 93,33 %
02.07.2018 06:09 9,1 C 20,6 C 83 % 1015,0 hPa 0,0 l/m 0,9 km/h (0 Bft) O 87 1 min 0,000 mm 0,0 UV-I 107 W/m 6,4 C 9,1 C 1,6 km/h (1 Bft) 91,30 %
02.07.2018 06:10 9,1 C 20,6 C 83 % 1015,0 hPa 0,0 l/m 1,3 km/h (1 Bft) O 87 1 min 0,000 mm 0,0 UV-I 110 W/m 6,4 C 9,1 C 3,2 km/h (1 Bft) 92,59 %
02.07.2018 06:11 9,1 C 20,6 C 83 % 1015,0 hPa 0,0 l/m 1,1 km/h (1 Bft) O 87 1 min 0,000 mm 0,0 UV-I 112 W/m 6,4 C 9,1 C 1,6 km/h (1 Bft) 90,91 %
02.07.2018 06:12 9,1 C 20,6 C 82 % 1015,0 hPa 0,0 l/m 1,6 km/h (1 Bft) O 87 1 min 0,000 mm 0,0 UV-I 114 W/m 6,2 C 9,1 C 3,2 km/h (1 Bft) 92,59 %
02.07.2018 06:13 9,2 C 20,6 C 82 % 1015,0 hPa 0,0 l/m 1,1 km/h (1 Bft) O 87 1 min 0,000 mm 0,0 UV-I 116 W/m 6,3 C 9,2 C 1,6 km/h (1 Bft) 96,15 %
02.07.2018 06:14 9,2 C 20,6 C 82 % 1015,0 hPa 0,0 l/m 0,5 km/h (0 Bft) O 87 1 min 0,000 mm 0,0 UV-I 118 W/m 6,3 C 9,2 C 3,2 km/h (1 Bft) 96,30 %
02.07.2018 06:15 9,3 C 20,6 C 82 % 1015,0 hPa 0,0 l/m 2,5 km/h (1 Bft) O 87 1 min 0,000 mm 0,0 UV-I 120 W/m 6,4 C 9,3 C 3,2 km/h (1 Bft) 91,30 %
02.07.2018 06:16 9,3 C 20,6 C 82 % 1015,0 hPa 0,0 l/m 1,4 km/h (1 Bft) O 87 1 min 0,000 mm 0,0 UV-I 122 W/m 6,4 C 9,3 C 3,2 km/h (1 Bft) 100,00 %
02.07.2018 06:17 9,3 C 20,6 C 82 % 1015,0 hPa 0,0 l/m 1,7 km/h (1 Bft) O 87 1 min 0,000 mm 0,0 UV-I 124 W/m 6,4 C 9,3 C 3,2 km/h (1 Bft) 86,67 %
02.07.2018 06:18 9,3 C 20,6 C 82 % 1015,0 hPa 0,0 l/m 2,5 km/h (1 Bft) O 87 1 min 0,000 mm 0,0 UV-I 126 W/m 6,4 C 9,3 C 3,2 km/h (1 Bft) 100,00 %
02.07.2018 06:19 9,4 C 20,6 C 83 % 1015,0 hPa 0,0 l/m 3,2 km/h (1 Bft) O 87 1 min 0,000 mm 0,0 UV-I 130 W/m 6,7 C 9,4 C 4,8 km/h (1 Bft) 91,67 %
02.07.2018 06:20 9,4 C 20,6 C 83 % 1015,0 hPa 0,0 l/m 1,3 km/h (1 Bft) O 87 1 min 0,000 mm 0,0 UV-I 132 W/m 6,7 C 9,4 C 1,6 km/h (1 Bft) 91,30 %
02.07.2018 06:21 9,4 C 20,6 C 83 % 1015,0 hPa 0,0 l/m 2,4 km/h (1 Bft) O 87 1 min 0,000 mm 0,0 UV-I 134 W/m 6,7 C 9,4 C 3,2 km/h (1 Bft) 96,30 %
02.07.2018 06:22 9,4 C 20,6 C 83 % 1015,0 hPa 0,0 l/m 2,3 km/h (1 Bft) O 87 1 min 0,000 mm 0,0 UV-I 136 W/m 6,7 C 9,4 C 3,2 km/h (1 Bft) 96,15 %
02.07.2018 06:23 9,5 C 20,6 C 84 % 1014,9 hPa 0,0 l/m 4,7 km/h (1 Bft) O-NO 65 1 min 0,000 mm 0,0 UV-I 138 W/m 6,9 C 9,5 C 6,4 km/h (2 Bft) 93,33 %
02.07.2018 06:24 9,5 C 20,6 C 84 % 1014,9 hPa 0,0 l/m 4,0 km/h (1 Bft) NO 45 1 min 0,000 mm 0,0 UV-I 141 W/m 6,9 C 9,5 C 6,4 km/h (2 Bft) 95,65 %
02.07.2018 06:25 9,6 C 20,6 C 84 % 1014,9 hPa 0,0 l/m 4,4 km/h (1 Bft) O-NO 60 1 min 0,000 mm 0,0 UV-I 144 W/m 7,0 C 9,6 C 6,4 km/h (2 Bft) 96,30 %
02.07.2018 06:26 9,6 C 20,6 C 84 % 1014,9 hPa 0,0 l/m 3,8 km/h (1 Bft) O-NO 60 1 min 0,000 mm 0,0 UV-I 144 W/m 7,0 C 9,6 C 4,8 km/h (1 Bft) 91,30 %
02.07.2018 06:27 9,6 C 20,6 C 84 % 1014,9 hPa 0,0 l/m 4,2 km/h (1 Bft) O-NO 59 1 min 0,000 mm 0,0 UV-I 148 W/m 7,0 C 9,6 C 6,4 km/h (2 Bft) 96,30 %
02.07.2018 06:28 9,7 C 20,6 C 84 % 1014,9 hPa 0,0 l/m 5,6 km/h (1 Bft) NO 56 1 min 0,000 mm 0,0 UV-I 151 W/m 7,1 C 9,7 C 8,0 km/h (2 Bft) 96,15 %
02.07.2018 06:29 9,7 C 20,6 C 84 % 1014,9 hPa 0,0 l/m 2,5 km/h (1 Bft) O-NO 57 1 min 0,000 mm 0,0 UV-I 154 W/m 7,1 C 9,7 C 4,8 km/h (1 Bft) 100,00 %
02.07.2018 06:30 9,7 C 20,6 C 82 % 1014,9 hPa 0,0 l/m 1,6 km/h (1 Bft) O-NO 57 1 min 0,000 mm 0,0 UV-I 156 W/m 6,8 C 9,7 C 3,2 km/h (1 Bft) 96,88 %
02.07.2018 06:31 9,8 C 20,6 C 82 % 1015,0 hPa 0,0 l/m 1,1 km/h (1 Bft) O-NO 66 1 min 0,000 mm 0,0 UV-I 158 W/m 6,9 C 9,8 C 3,2 km/h (1 Bft) 93,33 %
02.07.2018 06:32 9,8 C 20,6 C 82 % 1015,0 hPa 0,0 l/m 3,2 km/h (1 Bft) O-NO 74 1 min 0,000 mm 0,0 UV-I 160 W/m 6,9 C 9,8 C 4,8 km/h (1 Bft) 100,00 %
02.07.2018 06:33 9,9 C 20,6 C 82 % 1015,0 hPa 0,0 l/m 3,8 km/h (1 Bft) O 80 1 min 0,000 mm 0,0 UV-I 162 W/m 7,0 C 9,9 C 6,4 km/h (2 Bft) 95,83 %
02.07.2018 06:34 9,9 C 20,6 C 81 % 1015,0 hPa 0,0 l/m 3,9 km/h (1 Bft) O-NO 71 1 min 0,000 mm 0,0 UV-I 164 W/m 6,8 C 9,9 C 6,4 km/h (2 Bft) 96,15 %
02.07.2018 06:35 9,9 C 20,6 C 81 % 1015,0 hPa 0,0 l/m 3,6 km/h (1 Bft) O-NO 71 1 min 0,000 mm 0,0 UV-I 168 W/m 6,8 C 9,9 C 4,8 km/h (1 Bft) 95,83 %
02.07.2018 06:36 9,9 C 20,6 C 80 % 1015,0 hPa 0,0 l/m 4,6 km/h (1 Bft) O-NO 71 1 min 0,000 mm 0,0 UV-I 170 W/m 6,6 C 9,9 C 6,4 km/h (2 Bft) 100,00 %
02.07.2018 06:37 10,0 C 20,6 C 80 % 1014,9 hPa 0,0 l/m 4,2 km/h (1 Bft) O 80 1 min 0,000 mm 0,0 UV-I 174 W/m 6,7 C 10,0 C 6,4 km/h (2 Bft) 95,83 %
02.07.2018 06:38 10,0 C 20,6 C 81 % 1014,9 hPa 0,0 l/m 5,2 km/h (1 Bft) O-NO 67 1 min 0,000 mm 0,0 UV-I 176 W/m 6,9 C 10,0 C 8,0 km/h (2 Bft) 95,83 %
02.07.2018 06:39 10,1 C 20,6 C 81 % 1014,9 hPa 0,0 l/m 4,6 km/h (1 Bft) O-NO 75 1 min 0,000 mm 0,0 UV-I 178 W/m 7,0 C 10,1 C 6,4 km/h (2 Bft) 100,00 %
02.07.2018 06:40 10,1 C 20,6 C 80 % 1014,9 hPa 0,0 l/m 3,8 km/h (1 Bft) O-NO 78 1 min 0,000 mm 0,0 UV-I 180 W/m 6,8 C 10,1 C 6,4 km/h (2 Bft) 96,55 %
02.07.2018 06:41 10,2 C 20,6 C 80 % 1014,9 hPa 0,0 l/m 5,6 km/h (1 Bft) O-NO 71 1 min 0,000 mm 0,0 UV-I 184 W/m 6,9 C 10,2 C 8,0 km/h (2 Bft) 100,00 %
02.07.2018 06:42 10,2 C 20,6 C 80 % 1014,9 hPa 0,0 l/m 6,6 km/h (2 Bft) O-NO 69 1 min 0,000 mm 0,0 UV-I 186 W/m 6,9 C 10,1 C 8,0 km/h (2 Bft) 96,30 %
02.07.2018 06:43 10,2 C 20,6 C 80 % 1014,9 hPa 0,0 l/m 4,8 km/h (1 Bft) O-NO 77 1 min 0,000 mm 0,0 UV-I 188 W/m 6,9 C 10,2 C 6,4 km/h (2 Bft) 100,00 %
02.07.2018 06:44 10,3 C 20,6 C 79 % 1014,9 hPa 0,0 l/m 6,5 km/h (2 Bft) O-NO 77 1 min 0,000 mm 0,0 UV-I 189 W/m 6,8 C 10,3 C 9,7 km/h (2 Bft) 91,67 %
02.07.2018 06:45 10,3 C 20,6 C 80 % 1014,9 hPa 0,0 l/m 4,8 km/h (1 Bft) NO 53 1 min 0,000 mm 0,0 UV-I 194 W/m 7,0 C 10,3 C 6,4 km/h (2 Bft) 96,88 %
02.07.2018 06:46 10,4 C 20,6 C 79 % 1014,9 hPa 0,0 l/m 4,9 km/h (1 Bft) O-NO 67 1 min 0,000 mm 0,0 UV-I 196 W/m 6,9 C 10,4 C 8,0 km/h (2 Bft) 100,00 %
02.07.2018 06:47 10,4 C 20,6 C 79 % 1014,9 hPa 0,0 l/m 7,5 km/h (2 Bft) O 80 1 min 0,000 mm 0,0 UV-I 199 W/m 6,9 C 9,6 C 9,7 km/h (2 Bft) 95,65 %
02.07.2018 06:48 10,5 C 20,6 C 79 % 1014,9 hPa 0,0 l/m 7,6 km/h (2 Bft) N-NO 25 1 min 0,000 mm 0,0 UV-I 202 W/m 7,0 C 9,6 C 11,3 km/h (2 Bft) 95,83 %
02.07.2018 06:49 10,6 C 20,6 C 79 % 1014,9 hPa 0,0 l/m 8,2 km/h (2 Bft) NO 46 1 min 0,000 mm 0,0 UV-I 204 W/m 7,1 C 9,4 C 9,7 km/h (2 Bft) 91,30 %
02.07.2018 06:50 10,6 C 20,6 C 79 % 1014,9 hPa 0,0 l/m 7,2 km/h (2 Bft) NO 47 1 min 0,000 mm 0,0 UV-I 207 W/m 7,1 C 10,0 C 9,7 km/h (2 Bft) 100,00 %
02.07.2018 06:51 10,6 C 20,6 C 79 % 1014,9 hPa 0,0 l/m 8,7 km/h (2 Bft) NO 48 1 min 0,000 mm 0,0 UV-I 210 W/m 7,1 C 9,0 C 12,9 km/h (3 Bft) 95,65 %
02.07.2018 06:52 10,7 C 20,6 C 79 % 1014,9 hPa 0,0 l/m 6,1 km/h (2 Bft) NO 55 1 min 0,000 mm 0,0 UV-I 212 W/m 7,2 C 10,7 C 8,0 km/h (2 Bft) 100,00 %
02.07.2018 06:53 10,7 C 20,6 C 78 % 1014,9 hPa 0,0 l/m 5,5 km/h (1 Bft) NO 53 1 min 0,000 mm 0,0 UV-I 215 W/m 7,0 C 10,7 C 8,0 km/h (2 Bft) 95,65 %
02.07.2018 06:54 10,7 C 20,6 C 78 % 1014,9 hPa 0,0 l/m 7,0 km/h (2 Bft) O 82 1 min 0,000 mm 0,0 UV-I 218 W/m 7,0 C 10,3 C 11,3 km/h (2 Bft) 96,30 %
02.07.2018 06:55 10,8 C 20,6 C 78 % 1014,9 hPa 0,0 l/m 6,7 km/h (2 Bft) O-NO 67 1 min 0,000 mm 0,0 UV-I 220 W/m 7,1 C 10,6 C 9,7 km/h (2 Bft) 100,00 %
02.07.2018 06:56 10,8 C 20,6 C 78 % 1014,9 hPa 0,0 l/m 7,7 km/h (2 Bft) O 81 1 min 0,000 mm 0,0 UV-I 224 W/m 7,1 C 9,9 C 11,3 km/h (2 Bft) 95,65 %
02.07.2018 06:57 10,9 C 20,6 C 77 % 1014,9 hPa 0,0 l/m 7,8 km/h (2 Bft) O-NO 74 1 min 0,000 mm 0,0 UV-I 226 W/m 7,0 C 9,9 C 9,7 km/h (2 Bft) 100,00 %
02.07.2018 06:58 10,9 C 20,6 C 77 % 1014,9 hPa 0,0 l/m 5,5 km/h (1 Bft) NO 49 1 min 0,000 mm 0,0 UV-I 229 W/m 7,0 C 10,9 C 8,0 km/h (2 Bft) 91,30 %
02.07.2018 06:59 10,9 C 20,6 C 77 % 1014,9 hPa 0,0 l/m 5,2 km/h (1 Bft) NO 55 1 min 0,000 mm 0,0 UV-I 231 W/m 7,0 C 10,9 C 8,0 km/h (2 Bft) 100,00 %
02.07.2018 07:00 11,1 C 20,6 C 76 % 1015,0 hPa 0,0 l/m 5,9 km/h (2 Bft) O 80 1 min 0,076 mm 0,0 UV-I 234 W/m 7,0 C 11,1 C 12,9 km/h (3 Bft) 96,15 %
02.07.2018 07:01 11,1 C 20,6 C 76 % 1015,0 hPa 0,0 l/m 11,5 km/h (2 Bft) O-NO 71 1 min 0,000 mm 0,0 UV-I 237 W/m 7,0 C 8,0 C 14,5 km/h (3 Bft) 100,00 %
02.07.2018 07:02 11,1 C 20,6 C 75 % 1015,0 hPa 0,0 l/m 5,8 km/h (2 Bft) N-NO 32 1 min 0,000 mm 0,0 UV-I 240 W/m 6,8 C 11,1 C 8,0 km/h (2 Bft) 100,00 %
02.07.2018 07:03 11,2 C 20,6 C 76 % 1015,0 hPa 0,0 l/m 5,7 km/h (1 Bft) NO 52 1 min 0,000 mm 0,0 UV-I 242 W/m 7,1 C 11,2 C 8,0 km/h (2 Bft) 100,00 %
02.07.2018 07:04 11,2 C 20,6 C 75 % 1015,0 hPa 0,0 l/m 5,2 km/h (1 Bft) NO 46 1 min 0,000 mm 0,0 UV-I 245 W/m 6,9 C 11,2 C 6,4 km/h (2 Bft) 95,65 %
02.07.2018 07:05 11,3 C 20,6 C 77 % 1015,0 hPa 0,0 l/m 7,8 km/h (2 Bft) O 79 1 min 0,000 mm 0,0 UV-I 247 W/m 7,4 C 10,3 C 12,9 km/h (3 Bft) 96,30 %
02.07.2018 07:06 11,3 C 20,6 C 75 % 1014,9 hPa 0,0 l/m 9,1 km/h (2 Bft) O-NO 58 1 min 0,000 mm 0,0 UV-I 251 W/m 7,0 C 9,5 C 11,3 km/h (2 Bft) 100,00 %
02.07.2018 07:07 11,4 C 20,6 C 75 % 1015,0 hPa 0,0 l/m 8,5 km/h (2 Bft) O-NO 66 1 min 0,000 mm 0,0 UV-I 253 W/m 7,1 C 10,0 C 11,3 km/h (2 Bft) 96,30 %
02.07.2018 07:08 11,4 C 20,6 C 75 % 1015,0 hPa 0,0 l/m 6,9 km/h (2 Bft) O-NO 67 1 min 0,000 mm 0,5 UV-I 256 W/m 7,1 C 11,1 C 11,3 km/h (2 Bft) 100,00 %
02.07.2018 07:09 11,5 C 20,6 C 75 % 1015,0 hPa 0,0 l/m 6,4 km/h (2 Bft) O-NO 72 1 min 0,000 mm 0,5 UV-I 258 W/m 7,2 C 11,5 C 8,0 km/h (2 Bft) 100,00 %
02.07.2018 07:10 11,6 C 20,6 C 75 % 1015,0 hPa 0,0 l/m 12,0 km/h (2 Bft) O-NO 65 1 min 0,000 mm 0,5 UV-I 261 W/m 7,3 C 8,4 C 14,5 km/h (3 Bft) 100,00 %
02.07.2018 07:11 11,6 C 20,6 C 75 % 1015,0 hPa 0,0 l/m 8,0 km/h (2 Bft) NO 36 1 min 0,000 mm 0,5 UV-I 263 W/m 7,3 C 10,5 C 14,5 km/h (3 Bft) 100,00 %
02.07.2018 07:12 11,7 C 20,6 C 75 % 1015,0 hPa 0,0 l/m 5,3 km/h (1 Bft) NO 55 1 min 0,000 mm 0,5 UV-I 267 W/m 7,4 C 11,7 C 6,4 km/h (2 Bft) 100,00 %
02.07.2018 07:13 11,7 C 20,6 C 74 % 1015,0 hPa 0,0 l/m 6,9 km/h (2 Bft) O-NO 57 1 min 0,000 mm 0,5 UV-I 270 W/m 7,2 C 11,4 C 8,0 km/h (2 Bft) 100,00 %
02.07.2018 07:14 11,8 C 20,6 C 73 % 1015,0 hPa 0,0 l/m 7,6 km/h (2 Bft) O 84 1 min 0,000 mm 0,5 UV-I 273 W/m 7,1 C 11,0 C 8,0 km/h (2 Bft) 100,00 %
02.07.2018 07:15 11,8 C 20,6 C 73 % 1015,0 hPa 0,0 l/m 7,4 km/h (2 Bft) O-NO 70 1 min 0,000 mm 0,5 UV-I 275 W/m 7,1 C 11,1 C 9,7 km/h (2 Bft) 100,00 %
02.07.2018 07:16 11,9 C 20,6 C 73 % 1015,0 hPa 0,0 l/m 6,7 km/h (2 Bft) O-NO 68 1 min 0,000 mm 0,5 UV-I 278 W/m 7,2 C 11,7 C 11,3 km/h (2 Bft) 100,00 %
02.07.2018 07:18 11,9 C 20,6 C 72 % 1015,0 hPa 0,0 l/m 6,4 km/h (2 Bft) O 87 2 min 0,000 mm 0,5 UV-I 282 W/m 7,0 C 11,9 C 11,3 km/h (2 Bft) 98,00 %
02.07.2018 07:19 11,9 C 20,6 C 72 % 1015,0 hPa 0,0 l/m 7,0 km/h (2 Bft) O-NO 78 1 min 0,000 mm 0,5 UV-I 287 W/m 7,0 C 11,5 C 11,3 km/h (2 Bft) 100,00 %
02.07.2018 07:20 11,9 C 20,6 C 72 % 1015,0 hPa 0,0 l/m 7,5 km/h (2 Bft) O-NO 73 1 min 0,000 mm 0,6 UV-I 289 W/m 7,0 C 11,2 C 11,3 km/h (2 Bft) 100,00 %
02.07.2018 07:21 11,9 C 20,6 C 72 % 1015,0 hPa 0,0 l/m 6,9 km/h (2 Bft) O 82 1 min 0,000 mm 0,6 UV-I 293 W/m 7,0 C 11,6 C 11,3 km/h (2 Bft) 100,00 %
02.07.2018 07:22 12,0 C 20,6 C 73 % 1015,0 hPa 0,0 l/m 9,5 km/h (2 Bft) O-NO 65 1 min 0,000 mm 0,6 UV-I 295 W/m 7,3 C 10,1 C 16,1 km/h (3 Bft) 100,00 %
02.07.2018 07:23 12,1 C 20,6 C 73 % 1015,0 hPa 0,0 l/m 10,3 km/h (2 Bft) O-NO 62 1 min 0,000 mm 0,6 UV-I 298 W/m 7,4 C 9,8 C 14,5 km/h (3 Bft) 100,00 %
02.07.2018 07:24 12,2 C 20,6 C 72 % 1015,0 hPa 0,0 l/m 9,9 km/h (2 Bft) NO 49 1 min 0,000 mm 0,6 UV-I 301 W/m 7,3 C 10,1 C 14,5 km/h (3 Bft) 100,00 %
02.07.2018 07:25 12,2 C 20,6 C 73 % 1015,0 hPa 0,0 l/m 10,9 km/h (2 Bft) NO 49 1 min 0,000 mm 0,6 UV-I 304 W/m 7,5 C 9,6 C 14,5 km/h (3 Bft) 100,00 %
02.07.2018 07:26 12,3 C 20,6 C 72 % 1015,0 hPa 0,0 l/m 8,4 km/h (2 Bft) NO 50 1 min 0,000 mm 0,6 UV-I 307 W/m 7,4 C 11,0 C 11,3 km/h (2 Bft) 100,00 %
02.07.2018 07:27 12,3 C 20,6 C 72 % 1014,9 hPa 0,0 l/m 11,9 km/h (2 Bft) O-NO 62 1 min 0,000 mm 0,6 UV-I 310 W/m 7,4 C 9,2 C 16,1 km/h (3 Bft) 100,00 %
02.07.2018 07:28 12,3 C 20,6 C 72 % 1014,9 hPa 0,0 l/m 15,6 km/h (3 Bft) NO 53 1 min 0,000 mm 0,6 UV-I 313 W/m 7,4 C 7,7 C 19,3 km/h (3 Bft) 100,00 %
02.07.2018 07:29 12,3 C 20,6 C 71 % 1014,9 hPa 0,0 l/m 14,5 km/h (3 Bft) O-NO 62 1 min 0,000 mm 0,6 UV-I 316 W/m 7,2 C 8,1 C 17,7 km/h (3 Bft) 100,00 %
02.07.2018 07:30 12,4 C 20,6 C 71 % 1015,0 hPa 0,0 l/m 8,1 km/h (2 Bft) NO 54 1 min 0,000 mm 0,7 UV-I 318 W/m 7,3 C 11,3 C 14,5 km/h (3 Bft) 100,00 %
02.07.2018 07:31 12,4 C 20,6 C 71 % 1014,9 hPa 0,0 l/m 8,5 km/h (2 Bft) NO 54 1 min 0,000 mm 0,7 UV-I 321 W/m 7,3 C 11,1 C 12,9 km/h (3 Bft) 100,00 %
02.07.2018 07:32 12,5 C 20,6 C 71 % 1014,9 hPa 0,0 l/m 10,9 km/h (2 Bft) O-NO 67 1 min 0,000 mm 0,7 UV-I 324 W/m 7,4 C 9,9 C 16,1 km/h (3 Bft) 100,00 %
02.07.2018 07:33 12,6 C 20,6 C 71 % 1015,0 hPa 0,0 l/m 8,0 km/h (2 Bft) NO 51 1 min 0,000 mm 0,7 UV-I 327 W/m 7,5 C 11,6 C 16,1 km/h (3 Bft) 100,00 %
02.07.2018 07:34 12,6 C 20,6 C 71 % 1015,0 hPa 0,0 l/m 10,1 km/h (2 Bft) O 91 1 min 0,000 mm 0,7 UV-I 330 W/m 7,5 C 10,4 C 14,5 km/h (3 Bft) 100,00 %
02.07.2018 07:35 12,7 C 20,6 C 69 % 1015,0 hPa 0,0 l/m 10,9 km/h (2 Bft) O-NO 72 1 min 0,000 mm 0,7 UV-I 333 W/m 7,2 C 10,1 C 16,1 km/h (3 Bft) 100,00 %
02.07.2018 07:36 12,7 C 20,6 C 68 % 1015,0 hPa 0,0 l/m 11,6 km/h (2 Bft) O-NO 57 1 min 0,000 mm 0,7 UV-I 336 W/m 6,9 C 9,8 C 14,5 km/h (3 Bft) 95,65 %
02.07.2018 07:37 12,7 C 20,6 C 67 % 1015,0 hPa 0,0 l/m 9,3 km/h (2 Bft) O-SO 123 1 min 0,000 mm 0,7 UV-I 339 W/m 6,7 C 10,9 C 12,9 km/h (3 Bft) 100,00 %
02.07.2018 07:38 12,7 C 20,6 C 67 % 1015,0 hPa 0,0 l/m 11,0 km/h (2 Bft) O 79 1 min 0,000 mm 0,7 UV-I 342 W/m 6,7 C 10,1 C 17,7 km/h (3 Bft) 100,00 %
02.07.2018 07:39 12,6 C 20,6 C 67 % 1015,0 hPa 0,0 l/m 11,6 km/h (2 Bft) O-NO 78 1 min 0,000 mm 0,8 UV-I 344 W/m 6,6 C 9,7 C 16,1 km/h (3 Bft) 100,00 %
02.07.2018 07:40 12,6 C 20,6 C 67 % 1015,0 hPa 0,0 l/m 9,4 km/h (2 Bft) O-NO 71 1 min 0,000 mm 0,8 UV-I 347 W/m 6,6 C 10,8 C 12,9 km/h (3 Bft) 100,00 %
02.07.2018 07:41 12,6 C 20,6 C 68 % 1015,1 hPa 0,0 l/m 9,1 km/h (2 Bft) NO 38 1 min 0,000 mm 0,8 UV-I 350 W/m 6,9 C 10,9 C 16,1 km/h (3 Bft) 100,00 %
02.07.2018 07:42 12,7 C 20,6 C 69 % 1015,0 hPa 0,0 l/m 10,9 km/h (2 Bft) O-NO 74 1 min 0,000 mm 0,8 UV-I 353 W/m 7,2 C 10,1 C 16,1 km/h (3 Bft) 100,00 %
02.07.2018 07:43 12,8 C 20,6 C 68 % 1015,1 hPa 0,0 l/m 11,9 km/h (2 Bft) O-NO 75 1 min 0,000 mm 0,8 UV-I 356 W/m 7,0 C 9,8 C 14,5 km/h (3 Bft) 100,00 %
02.07.2018 07:44 12,8 C 20,6 C 66 % 1015,0 hPa 0,0 l/m 10,6 km/h (2 Bft) O-NO 66 1 min 0,000 mm 0,8 UV-I 358 W/m 6,6 C 10,4 C 16,1 km/h (3 Bft) 100,00 %
02.07.2018 07:45 12,8 C 20,6 C 67 % 1015,0 hPa 0,0 l/m 9,0 km/h (2 Bft) O-NO 60 1 min 0,000 mm 0,8 UV-I 361 W/m 6,8 C 11,2 C 14,5 km/h (3 Bft) 100,00 %
02.07.2018 07:46 12,9 C 20,6 C 66 % 1015,1 hPa 0,0 l/m 12,5 km/h (3 Bft) O-NO 70 1 min 0,000 mm 0,8 UV-I 365 W/m 6,7 C 9,6 C 14,5 km/h (3 Bft) 95,65 %
02.07.2018 07:47 12,9 C 20,6 C 66 % 1015,0 hPa 0,0 l/m 9,6 km/h (2 Bft) O 90 1 min 0,000 mm 0,9 UV-I 367 W/m 6,7 C 11,0 C 14,5 km/h (3 Bft) 100,00 %
02.07.2018 07:48 12,9 C 20,6 C 67 % 1015,0 hPa 0,0 l/m 9,7 km/h (2 Bft) O-NO 77 1 min 0,000 mm 0,9 UV-I 370 W/m 6,9 C 11,0 C 12,9 km/h (3 Bft) 100,00 %
02.07.2018 07:49 12,9 C 20,6 C 67 % 1015,0 hPa 0,0 l/m 9,0 km/h (2 Bft) O-NO 64 1 min 0,000 mm 0,9 UV-I 373 W/m 6,9 C 11,3 C 12,9 km/h (3 Bft) 100,00 %
02.07.2018 07:50 13,0 C 20,6 C 66 % 1015,1 hPa 0,0 l/m 12,2 km/h (2 Bft) O 94 1 min 0,000 mm 0,9 UV-I 375 W/m 6,8 C 9,9 C 14,5 km/h (3 Bft) 100,00 %
02.07.2018 07:51 13,1 C 20,6 C 66 % 1015,1 hPa 0,0 l/m 10,9 km/h (2 Bft) O 80 1 min 0,000 mm 0,9 UV-I 379 W/m 6,9 C 10,6 C 16,1 km/h (3 Bft) 100,00 %
02.07.2018 07:52 13,1 C 20,6 C 66 % 1015,0 hPa 0,0 l/m 7,3 km/h (2 Bft) NO 51 1 min 0,000 mm 0,9 UV-I 381 W/m 6,9 C 12,5 C 14,5 km/h (3 Bft) 100,00 %
02.07.2018 07:53 13,1 C 20,6 C 67 % 1015,0 hPa 0,0 l/m 9,9 km/h (2 Bft) NO 41 1 min 0,000 mm 0,9 UV-I 384 W/m 7,1 C 11,1 C 14,5 km/h (3 Bft) 100,00 %
02.07.2018 07:54 13,1 C 20,6 C 67 % 1015,0 hPa 0,0 l/m 8,8 km/h (2 Bft) O-NO 58 1 min 0,000 mm 0,9 UV-I 387 W/m 7,1 C 11,7 C 12,9 km/h (3 Bft) 100,00 %
02.07.2018 07:55 13,3 C 20,6 C 69 % 1015,0 hPa 0,0 l/m 10,5 km/h (2 Bft) O-NO 65 1 min 0,000 mm 1,0 UV-I 389 W/m 7,7 C 11,0 C 12,9 km/h (3 Bft) 100,00 %
02.07.2018 07:56 13,3 C 20,6 C 67 % 1015,0 hPa 0,0 l/m 9,4 km/h (2 Bft) NO 44 1 min 0,000 mm 1,0 UV-I 392 W/m 7,3 C 11,5 C 16,1 km/h (3 Bft) 100,00 %
02.07.2018 07:57 13,4 C 20,6 C 68 % 1015,0 hPa 0,0 l/m 10,6 km/h (2 Bft) O-NO 61 1 min 0,000 mm 1,0 UV-I 395 W/m 7,6 C 11,1 C 14,5 km/h (3 Bft) 100,00 %
02.07.2018 07:58 13,6 C 20,6 C 67 % 1015,0 hPa 0,0 l/m 14,3 km/h (3 Bft) NO 36 1 min 0,000 mm 1,0 UV-I 398 W/m 7,6 C 9,7 C 17,7 km/h (3 Bft) 100,00 %
02.07.2018 07:59 13,6 C 20,6 C 67 % 1014,9 hPa 0,0 l/m 9,9 km/h (2 Bft) NO 53 1 min 0,000 mm 1,0 UV-I 401 W/m 7,6 C 11,6 C 14,5 km/h (3 Bft) 100,00 %
02.07.2018 08:00 13,6 C 20,6 C 66 % 1014,9 hPa 0,0 l/m 10,1 km/h (2 Bft) O-NO 68 1 min 0,000 mm 1,0 UV-I 404 W/m 7,4 C 11,5 C 14,5 km/h (3 Bft) 100,00 %
02.07.2018 08:01 13,6 C 20,6 C 66 % 1015,0 hPa 0,0 l/m 9,8 km/h (2 Bft) O 100 1 min 0,178 mm 1,0 UV-I 407 W/m 7,4 C 11,7 C 12,9 km/h (3 Bft) 96,15 %
02.07.2018 08:02 13,6 C 20,6 C 66 % 1015,0 hPa 0,0 l/m 5,8 km/h (2 Bft) O-NO 75 1 min 0,000 mm 1,1 UV-I 410 W/m 7,4 C 13,6 C 9,7 km/h (2 Bft) 100,00 %
02.07.2018 08:03 13,7 C 20,6 C 65 % 1015,0 hPa 0,0 l/m 7,3 km/h (2 Bft) O-NO 68 1 min 0,000 mm 1,1 UV-I 412 W/m 7,2 C 13,2 C 11,3 km/h (2 Bft) 98,51 %
02.07.2018 08:04 13,7 C 20,6 C 65 % 1014,9 hPa 0,0 l/m 11,7 km/h (2 Bft) O-NO 70 1 min 0,000 mm 1,1 UV-I 416 W/m 7,2 C 10,9 C 16,1 km/h (3 Bft) 97,37 %
02.07.2018 08:05 13,7 C 20,6 C 66 % 1014,9 hPa 0,0 l/m 13,9 km/h (3 Bft) O-NO 61 1 min 0,000 mm 1,1 UV-I 420 W/m 7,5 C 10,0 C 19,3 km/h (3 Bft) 96,15 %
02.07.2018 08:06 13,7 C 20,6 C 66 % 1014,9 hPa 0,0 l/m 11,8 km/h (2 Bft) O-NO 61 1 min 0,000 mm 1,1 UV-I 423 W/m 7,5 C 10,9 C 16,1 km/h (3 Bft) 100,00 %
02.07.2018 08:07 13,8 C 20,6 C 64 % 1014,9 hPa 0,0 l/m 9,4 km/h (2 Bft) O-NO 61 1 min 0,000 mm 1,1 UV-I 424 W/m 7,1 C 12,1 C 12,9 km/h (3 Bft) 100,00 %
02.07.2018 08:08 13,9 C 20,6 C 66 % 1014,9 hPa 0,0 l/m 9,1 km/h (2 Bft) N-NO 30 1 min 0,000 mm 1,1 UV-I 427 W/m 7,7 C 12,4 C 12,9 km/h (3 Bft) 100,00 %
02.07.2018 08:09 14,0 C 20,6 C 66 % 1014,9 hPa 0,0 l/m 10,4 km/h (2 Bft) O-NO 61 1 min 0,000 mm 1,2 UV-I 430 W/m 7,7 C 11,8 C 12,9 km/h (3 Bft) 100,00 %
02.07.2018 08:10 14,1 C 20,6 C 64 % 1014,9 hPa 0,0 l/m 11,2 km/h (2 Bft) O 96 1 min 0,000 mm 1,2 UV-I 433 W/m 7,4 C 11,6 C 16,1 km/h (3 Bft) 100,00 %
02.07.2018 08:11 14,1 C 20,6 C 65 % 1014,9 hPa 0,0 l/m 7,1 km/h (2 Bft) O-NO 74 1 min 0,000 mm 1,2 UV-I 436 W/m 7,6 C 13,7 C 9,7 km/h (2 Bft) 95,83 %
02.07.2018 08:12 14,2 C 20,6 C 66 % 1014,9 hPa 0,0 l/m 11,2 km/h (2 Bft) O 95 1 min 0,000 mm 1,2 UV-I 438 W/m 7,9 C 11,7 C 17,7 km/h (3 Bft) 100,00 %
02.07.2018 08:13 14,3 C 20,6 C 63 % 1014,9 hPa 0,0 l/m 12,3 km/h (3 Bft) O-NO 67 1 min 0,000 mm 1,2 UV-I 442 W/m 7,4 C 11,3 C 17,7 km/h (3 Bft) 100,00 %
02.07.2018 08:14 14,2 C 20,6 C 63 % 1014,9 hPa 0,0 l/m 10,5 km/h (2 Bft) O-NO 67 1 min 0,000 mm 1,2 UV-I 444 W/m 7,3 C 12,0 C 14,5 km/h (3 Bft) 100,00 %
02.07.2018 08:15 14,2 C 20,6 C 64 % 1014,9 hPa 0,0 l/m 11,9 km/h (2 Bft) O 92 1 min 0,000 mm 1,2 UV-I 447 W/m 7,5 C 11,4 C 16,1 km/h (3 Bft) 95,83 %
02.07.2018 08:16 14,2 C 20,6 C 63 % 1014,9 hPa 0,0 l/m 12,7 km/h (3 Bft) O-NO 71 1 min 0,000 mm 1,3 UV-I 451 W/m 7,3 C 11,1 C 17,7 km/h (3 Bft) 100,00 %
02.07.2018 08:17 14,2 C 20,6 C 62 % 1014,9 hPa 0,0 l/m 14,4 km/h (3 Bft) N-NO 33 1 min 0,000 mm 1,3 UV-I 454 W/m 7,0 C 10,4 C 17,7 km/h (3 Bft) 95,83 %
02.07.2018 08:18 14,3 C 20,6 C 62 % 1015,0 hPa 0,0 l/m 9,3 km/h (2 Bft) NO 36 1 min 0,000 mm 1,3 UV-I 456 W/m 7,1 C 12,7 C 17,7 km/h (3 Bft) 100,00 %
02.07.2018 08:19 14,3 C 20,6 C 62 % 1015,0 hPa 0,0 l/m 10,6 km/h (2 Bft) O 91 1 min 0,000 mm 1,3 UV-I 458 W/m 7,1 C 12,1 C 16,1 km/h (3 Bft) 96,30 %
02.07.2018 08:20 14,3 C 20,6 C 61 % 1014,9 hPa 0,0 l/m 13,9 km/h (3 Bft) O 82 1 min 0,000 mm 1,3 UV-I 461 W/m 6,9 C 10,7 C 16,1 km/h (3 Bft) 100,00 %
02.07.2018 08:21 14,3 C 20,6 C 61 % 1014,9 hPa 0,0 l/m 12,9 km/h (3 Bft) O-NO 63 1 min 0,000 mm 1,3 UV-I 463 W/m 6,9 C 11,1 C 14,5 km/h (3 Bft) 96,67 %
02.07.2018 08:22 14,3 C 20,6 C 62 % 1014,9 hPa 0,0 l/m 10,7 km/h (2 Bft) N-NO 32 1 min 0,000 mm 1,3 UV-I 467 W/m 7,1 C 12,0 C 16,1 km/h (3 Bft) 91,30 %
02.07.2018 08:23 14,4 C 20,6 C 62 % 1014,9 hPa 0,0 l/m 10,9 km/h (2 Bft) NO 45 1 min 0,000 mm 1,4 UV-I 469 W/m 7,2 C 12,0 C 14,5 km/h (3 Bft) 100,00 %
02.07.2018 08:24 14,6 C 20,6 C 64 % 1014,8 hPa 0,0 l/m 9,0 km/h (2 Bft) O-NO 62 1 min 0,000 mm 1,4 UV-I 472 W/m 7,9 C 13,2 C 14,5 km/h (3 Bft) 96,15 %
02.07.2018 08:25 14,7 C 20,6 C 62 % 1014,9 hPa 0,0 l/m 11,5 km/h (2 Bft) O 94 1 min 0,000 mm 1,4 UV-I 475 W/m 7,5 C 12,1 C 14,5 km/h (3 Bft) 100,00 %
02.07.2018 08:26 14,7 C 20,6 C 61 % 1014,8 hPa 0,0 l/m 14,2 km/h (3 Bft) O-SO 105 1 min 0,000 mm 1,4 UV-I 478 W/m 7,3 C 11,1 C 17,7 km/h (3 Bft) 93,33 %
02.07.2018 08:27 14,7 C 20,6 C 59 % 1014,8 hPa 0,0 l/m 13,3 km/h (3 Bft) O-SO 121 1 min 0,000 mm 1,4 UV-I 481 W/m 6,8 C 11,4 C 19,3 km/h (3 Bft) 100,00 %
02.07.2018 08:28 14,7 C 20,6 C 59 % 1014,8 hPa 0,0 l/m 14,3 km/h (3 Bft) O-NO 74 1 min 0,000 mm 1,4 UV-I 483 W/m 6,8 C 11,1 C 17,7 km/h (3 Bft) 95,65 %
02.07.2018 08:29 14,7 C 20,6 C 60 % 1014,8 hPa 0,0 l/m 9,2 km/h (2 Bft) O-NO 62 1 min 0,000 mm 1,5 UV-I 488 W/m 7,0 C 13,2 C 16,1 km/h (3 Bft) 91,67 %
02.07.2018 08:30 14,7 C 20,6 C 60 % 1014,8 hPa 0,0 l/m 16,2 km/h (3 Bft) O 81 1 min 0,000 mm 1,5 UV-I 491 W/m 7,0 C 10,4 C 22,5 km/h (4 Bft) 95,83 %
02.07.2018 08:31 14,7 C 20,6 C 59 % 1014,8 hPa 0,0 l/m 13,5 km/h (3 Bft) NO 40 1 min 0,000 mm 1,5 UV-I 493 W/m 6,8 C 11,4 C 19,3 km/h (3 Bft) 91,30 %
02.07.2018 08:32 14,7 C 20,6 C 58 % 1014,8 hPa 0,0 l/m 16,4 km/h (3 Bft) NO 44 1 min 0,000 mm 1,5 UV-I 494 W/m 6,5 C 10,4 C 24,1 km/h (4 Bft) 96,30 %
02.07.2018 08:33 14,7 C 20,6 C 58 % 1014,8 hPa 0,0 l/m 16,8 km/h (3 Bft) O 89 1 min 0,000 mm 1,5 UV-I 498 W/m 6,5 C 10,3 C 22,5 km/h (4 Bft) 92,86 %
02.07.2018 08:34 14,7 C 20,6 C 57 % 1014,8 hPa 0,0 l/m 17,4 km/h (3 Bft) O 79 1 min 0,000 mm 1,5 UV-I 501 W/m 6,3 C 10,1 C 20,9 km/h (4 Bft) 96,67 %
02.07.2018 08:35 14,7 C 20,6 C 58 % 1014,8 hPa 0,0 l/m 15,6 km/h (3 Bft) O-NO 67 1 min 0,000 mm 1,6 UV-I 504 W/m 6,5 C 10,6 C 22,5 km/h (4 Bft) 95,65 %
02.07.2018 08:36 14,6 C 20,6 C 58 % 1014,8 hPa 0,0 l/m 14,0 km/h (3 Bft) O-NO 71 1 min 0,000 mm 1,6 UV-I 507 W/m 6,4 C 11,1 C 19,3 km/h (3 Bft) 92,59 %
02.07.2018 08:37 14,6 C 20,6 C 58 % 1014,9 hPa 0,0 l/m 12,8 km/h (3 Bft) O 101 1 min 0,000 mm 1,6 UV-I 509 W/m 6,4 C 11,5 C 16,1 km/h (3 Bft) 100,00 %
02.07.2018 08:38 14,7 C 20,6 C 60 % 1014,8 hPa 0,0 l/m 10,0 km/h (2 Bft) O-SO 102 1 min 0,000 mm 1,6 UV-I 511 W/m 7,0 C 12,8 C 16,1 km/h (3 Bft) 96,30 %
02.07.2018 08:39 14,7 C 20,6 C 60 % 1014,8 hPa 0,0 l/m 10,3 km/h (2 Bft) O 97 1 min 0,000 mm 1,6 UV-I 514 W/m 7,0 C 12,6 C 16,1 km/h (3 Bft) 92,31 %
02.07.2018 08:40 14,8 C 20,6 C 59 % 1014,9 hPa 0,0 l/m 7,2 km/h (2 Bft) O-NO 75 1 min 0,000 mm 1,7 UV-I 517 W/m 6,9 C 14,3 C 9,7 km/h (2 Bft) 100,00 %
02.07.2018 08:41 14,9 C 20,6 C 60 % 1014,8 hPa 0,0 l/m 9,7 km/h (2 Bft) N-NO 28 1 min 0,000 mm 1,7 UV-I 519 W/m 7,2 C 13,1 C 16,1 km/h (3 Bft) 96,15 %
02.07.2018 08:42 15,1 C 20,6 C 63 % 1014,8 hPa 0,0 l/m 10,6 km/h (2 Bft) NO 38 1 min 0,000 mm 1,7 UV-I 521 W/m 8,1 C 13,0 C 14,5 km/h (3 Bft) 92,59 %
02.07.2018 08:43 15,2 C 20,6 C 61 % 1014,8 hPa 0,0 l/m 10,7 km/h (2 Bft) N-NO 20 1 min 0,000 mm 1,7 UV-I 525 W/m 7,7 C 13,0 C 14,5 km/h (3 Bft) 95,65 %
02.07.2018 08:44 15,3 C 20,6 C 60 % 1014,8 hPa 0,0 l/m 15,9 km/h (3 Bft) NO 52 1 min 0,000 mm 1,7 UV-I 528 W/m 7,6 C 11,3 C 19,3 km/h (3 Bft) 100,00 %
02.07.2018 08:45 15,4 C 20,6 C 60 % 1014,8 hPa 0,0 l/m 14,8 km/h (3 Bft) O 86 1 min 0,000 mm 1,8 UV-I 531 W/m 7,7 C 11,7 C 19,3 km/h (3 Bft) 95,65 %
02.07.2018 08:46 15,4 C 20,6 C 59 % 1014,8 hPa 0,0 l/m 13,4 km/h (3 Bft) O-NO 67 1 min 0,000 mm 1,8 UV-I 534 W/m 7,4 C 12,2 C 17,7 km/h (3 Bft) 100,00 %
02.07.2018 08:47 15,4 C 20,6 C 58 % 1014,8 hPa 0,0 l/m 12,1 km/h (2 Bft) O-NO 57 1 min 0,000 mm 1,8 UV-I 536 W/m 7,2 C 12,7 C 16,1 km/h (3 Bft) 96,15 %
02.07.2018 08:48 15,4 C 20,6 C 60 % 1014,7 hPa 0,0 l/m 9,7 km/h (2 Bft) O-NO 67 1 min 0,000 mm 1,8 UV-I 539 W/m 7,7 C 13,7 C 16,1 km/h (3 Bft) 95,83 %
02.07.2018 08:49 15,6 C 20,6 C 60 % 1014,7 hPa 0,0 l/m 11,4 km/h (2 Bft) O-NO 76 1 min 0,000 mm 1,8 UV-I 542 W/m 7,9 C 13,2 C 16,1 km/h (3 Bft) 92,31 %
02.07.2018 08:50 15,6 C 20,6 C 57 % 1014,8 hPa 0,0 l/m 12,7 km/h (3 Bft) O 80 1 min 0,000 mm 1,8 UV-I 544 W/m 7,1 C 12,7 C 16,1 km/h (3 Bft) 95,83 %
02.07.2018 08:51 15,5 C 20,6 C 56 % 1014,7 hPa 0,0 l/m 9,4 km/h (2 Bft) O-NO 76 1 min 0,000 mm 1,9 UV-I 547 W/m 6,8 C 13,9 C 14,5 km/h (3 Bft) 100,00 %
02.07.2018 08:52 15,4 C 20,6 C 57 % 1014,7 hPa 0,0 l/m 12,9 km/h (3 Bft) NO 53 1 min 0,000 mm 1,9 UV-I 550 W/m 6,9 C 12,4 C 16,1 km/h (3 Bft) 96,88 %
02.07.2018 08:53 15,4 C 20,6 C 59 % 1014,7 hPa 0,0 l/m 11,8 km/h (2 Bft) O-NO 71 1 min 0,000 mm 1,9 UV-I 553 W/m 7,4 C 12,8 C 14,5 km/h (3 Bft) 96,30 %
02.07.2018 08:54 15,4 C 20,6 C 58 % 1014,7 hPa 0,0 l/m 13,4 km/h (3 Bft) O 86 1 min 0,000 mm 1,9 UV-I 555 W/m 7,2 C 12,2 C 20,9 km/h (4 Bft) 92,86 %
02.07.2018 08:55 15,4 C 20,6 C 57 % 1014,7 hPa 0,0 l/m 12,8 km/h (3 Bft) O 94 1 min 0,000 mm 1,9 UV-I 558 W/m 6,9 C 12,4 C 16,1 km/h (3 Bft) 100,00 %
02.07.2018 08:56 15,3 C 20,6 C 56 % 1014,7 hPa 0,0 l/m 14,7 km/h (3 Bft) O-NO 68 1 min 0,000 mm 2,0 UV-I 560 W/m 6,6 C 11,7 C 17,7 km/h (3 Bft) 98,22 %
02.07.2018 08:57 15,3 C 20,6 C 57 % 1014,7 hPa 0,0 l/m 9,0 km/h (2 Bft) O 80 1 min 0,000 mm 2,0 UV-I 563 W/m 6,8 C 13,9 C 16,1 km/h (3 Bft) 97,56 %
02.07.2018 08:58 15,3 C 20,6 C 57 % 1014,8 hPa 0,0 l/m 9,4 km/h (2 Bft) O 95 1 min 0,000 mm 2,0 UV-I 564 W/m 6,8 C 13,7 C 14,5 km/h (3 Bft) 95,65 %
02.07.2018 08:59 15,3 C 20,6 C 57 % 1014,8 hPa 0,0 l/m 11,7 km/h (2 Bft) NO 37 1 min 0,000 mm 2,0 UV-I 568 W/m 6,8 C 12,7 C 16,1 km/h (3 Bft) 100,00 %
02.07.2018 09:00 15,3 C 20,6 C 58 % 1014,7 hPa 0,0 l/m 8,0 km/h (2 Bft) O-NO 61 1 min 0,304 mm 2,0 UV-I 570 W/m 7,1 C 14,4 C 14,5 km/h (3 Bft) 96,15 %
02.07.2018 09:01 15,4 C 20,6 C 58 % 1014,8 hPa 0,0 l/m 9,3 km/h (2 Bft) O 93 1 min 0,000 mm 2,1 UV-I 573 W/m 7,2 C 13,9 C 14,5 km/h (3 Bft) 100,00 %
02.07.2018 09:02 15,4 C 20,6 C 58 % 1014,8 hPa 0,0 l/m 6,8 km/h (2 Bft) O 84 1 min 0,000 mm 2,1 UV-I 576 W/m 7,2 C 15,2 C 11,3 km/h (2 Bft) 95,65 %
02.07.2018 09:03 15,4 C 20,6 C 59 % 1014,7 hPa 0,0 l/m 14,0 km/h (3 Bft) NO 49 1 min 0,000 mm 2,1 UV-I 578 W/m 7,4 C 12,0 C 19,3 km/h (3 Bft) 95,83 %
02.07.2018 09:04 15,6 C 20,6 C 59 % 1014,7 hPa 0,0 l/m 12,0 km/h (2 Bft) O-NO 63 1 min 0,000 mm 2,1 UV-I 581 W/m 7,6 C 13,0 C 16,1 km/h (3 Bft) 96,15 %
02.07.2018 09:05 15,7 C 20,6 C 58 % 1014,7 hPa 0,0 l/m 9,0 km/h (2 Bft) O 81 1 min 0,000 mm 2,1 UV-I 584 W/m 7,5 C 14,3 C 12,9 km/h (3 Bft) 96,30 %
02.07.2018 09:06 15,7 C 20,6 C 57 % 1014,8 hPa 0,0 l/m 10,5 km/h (2 Bft) O-NO 74 1 min 0,000 mm 2,2 UV-I 587 W/m 7,2 C 13,7 C 12,9 km/h (3 Bft) 100,00 %
02.07.2018 09:08 15,8 C 20,6 C 58 % 1014,8 hPa 0,0 l/m 8,3 km/h (2 Bft) O-NO 73 2 min 0,000 mm 2,2 UV-I 590 W/m 7,6 C 14,8 C 12,9 km/h (3 Bft) 98,08 %
02.07.2018 09:09 15,8 C 20,6 C 58 % 1014,8 hPa 0,0 l/m 6,2 km/h (2 Bft) O-SO 108 1 min 0,000 mm 2,2 UV-I 592 W/m 7,6 C 15,8 C 11,3 km/h (2 Bft) 95,83 %
02.07.2018 09:10 15,8 C 20,6 C 58 % 1014,8 hPa 0,0 l/m 7,4 km/h (2 Bft) O 97 1 min 0,000 mm 2,2 UV-I 596 W/m 7,6 C 15,3 C 12,9 km/h (3 Bft) 93,33 %
02.07.2018 09:11 15,8 C 20,6 C 57 % 1014,8 hPa 0,0 l/m 11,0 km/h (2 Bft) NO 55 1 min 0,000 mm 2,3 UV-I 599 W/m 7,3 C 13,6 C 16,1 km/h (3 Bft) 96,15 %
02.07.2018 09:12 15,9 C 20,6 C 58 % 1014,7 hPa 0,0 l/m 9,8 km/h (2 Bft) O-NO 59 1 min 0,000 mm 2,3 UV-I 602 W/m 7,6 C 14,2 C 17,7 km/h (3 Bft) 100,00 %
02.07.2018 09:13 16,1 C 20,6 C 59 % 1014,7 hPa 0,0 l/m 14,3 km/h (3 Bft) O-NO 58 1 min 0,000 mm 2,3 UV-I 605 W/m 8,1 C 12,7 C 16,1 km/h (3 Bft) 96,15 %
02.07.2018 09:14 16,1 C 20,6 C 57 % 1014,7 hPa 0,0 l/m 11,1 km/h (2 Bft) O-NO 61 1 min 0,000 mm 2,3 UV-I 608 W/m 7,6 C 13,9 C 16,1 km/h (3 Bft) 96,30 %
02.07.2018 09:15 16,1 C 20,6 C 58 % 1014,8 hPa 0,0 l/m 12,2 km/h (2 Bft) O-NO 75 1 min 0,000 mm 2,4 UV-I 610 W/m 7,8 C 13,5 C 16,1 km/h (3 Bft) 100,00 %
02.07.2018 09:16 16,2 C 20,6 C 58 % 1014,8 hPa 0,0 l/m 12,0 km/h (2 Bft) N-NO 24 1 min 0,000 mm 2,4 UV-I 612 W/m 7,9 C 13,7 C 16,1 km/h (3 Bft) 95,83 %
02.07.2018 09:17 16,2 C 20,6 C 57 % 1014,7 hPa 0,0 l/m 7,7 km/h (2 Bft) NO 56 1 min 0,000 mm 2,4 UV-I 613 W/m 7,7 C 15,5 C 11,3 km/h (2 Bft) 100,00 %
02.07.2018 09:18 16,3 C 20,6 C 58 % 1014,7 hPa 0,0 l/m 12,1 km/h (2 Bft) O-NO 59 1 min 0,000 mm 2,4 UV-I 616 W/m 8,0 C 13,7 C 20,9 km/h (4 Bft) 96,30 %
02.07.2018 09:19 16,4 C 20,6 C 56 % 1014,8 hPa 0,0 l/m 13,9 km/h (3 Bft) O-NO 59 1 min 0,000 mm 2,4 UV-I 619 W/m 7,6 C 13,2 C 20,9 km/h (4 Bft) 100,00 %
02.07.2018 09:20 16,3 C 20,6 C 54 % 1014,7 hPa 0,0 l/m 12,8 km/h (3 Bft) O-NO 65 1 min 0,000 mm 2,5 UV-I 622 W/m 7,0 C 13,5 C 19,3 km/h (3 Bft) 95,83 %
02.07.2018 09:21 16,2 C 20,6 C 55 % 1014,7 hPa 0,0 l/m 10,6 km/h (2 Bft) O-NO 71 1 min 0,000 mm 2,5 UV-I 624 W/m 7,2 C 14,2 C 14,5 km/h (3 Bft) 100,00 %
02.07.2018 09:22 16,2 C 20,6 C 55 % 1014,7 hPa 0,0 l/m 12,2 km/h (2 Bft) O-SO 109 1 min 0,000 mm 2,5 UV-I 628 W/m 7,2 C 13,6 C 14,5 km/h (3 Bft) 95,83 %
02.07.2018 09:23 16,2 C 20,6 C 55 % 1014,7 hPa 0,0 l/m 11,0 km/h (2 Bft) O-NO 58 1 min 0,000 mm 2,5 UV-I 630 W/m 7,2 C 14,0 C 14,5 km/h (3 Bft) 100,00 %
02.07.2018 09:24 16,3 C 20,6 C 56 % 1014,7 hPa 0,0 l/m 5,8 km/h (2 Bft) N-NO 26 1 min 0,000 mm 2,5 UV-I 632 W/m 7,5 C 16,3 C 9,7 km/h (2 Bft) 95,65 %
02.07.2018 09:25 16,4 C 20,6 C 58 % 1014,7 hPa 0,0 l/m 11,7 km/h (2 Bft) NO 40 1 min 0,000 mm 2,6 UV-I 634 W/m 8,1 C 14,0 C 17,7 km/h (3 Bft) 100,00 %
02.07.2018 09:26 16,6 C 20,6 C 56 % 1014,7 hPa 0,0 l/m 11,3 km/h (2 Bft) O-NO 57 1 min 0,000 mm 2,6 UV-I 636 W/m 7,8 C 14,4 C 17,7 km/h (3 Bft) 100,00 %
02.07.2018 09:27 16,7 C 20,6 C 59 % 1014,7 hPa 0,0 l/m 10,4 km/h (2 Bft) NO 47 1 min 0,000 mm 2,6 UV-I 640 W/m 8,6 C 14,8 C 14,5 km/h (3 Bft) 100,00 %
02.07.2018 09:28 16,8 C 20,6 C 59 % 1014,7 hPa 0,0 l/m 10,8 km/h (2 Bft) O-NO 74 1 min 0,000 mm 2,6 UV-I 641 W/m 8,7 C 14,8 C 14,5 km/h (3 Bft) 98,15 %
02.07.2018 09:29 16,8 C 20,6 C 55 % 1014,7 hPa 0,0 l/m 5,6 km/h (1 Bft) O-NO 73 1 min 0,000 mm 2,7 UV-I 644 W/m 7,7 C 16,8 C 9,7 km/h (2 Bft) 100,00 %
02.07.2018 09:30 16,8 C 20,6 C 55 % 1014,7 hPa 0,0 l/m 14,0 km/h (3 Bft) NO 55 1 min 0,000 mm 2,7 UV-I 646 W/m 7,7 C 13,7 C 20,9 km/h (4 Bft) 96,15 %
02.07.2018 09:31 16,9 C 20,6 C 57 % 1014,7 hPa 0,0 l/m 10,1 km/h (2 Bft) O-NO 74 1 min 0,000 mm 2,7 UV-I 649 W/m 8,3 C 15,2 C 14,5 km/h (3 Bft) 98,16 %
02.07.2018 09:33 16,9 C 20,6 C 55 % 1014,7 hPa 0,0 l/m 10,4 km/h (2 Bft) O-NO 57 2 min 0,000 mm 2,7 UV-I 653 W/m 7,8 C 15,1 C 16,1 km/h (3 Bft) 100,00 %
02.07.2018 09:34 17,0 C 20,6 C 56 % 1014,7 hPa 0,0 l/m 7,6 km/h (2 Bft) O 100 1 min 0,000 mm 2,8 UV-I 655 W/m 8,2 C 16,4 C 9,7 km/h (2 Bft) 95,65 %
02.07.2018 09:35 16,9 C 20,6 C 53 % 1014,7 hPa 0,0 l/m 12,6 km/h (3 Bft) O-NO 69 1 min 0,000 mm 2,8 UV-I 658 W/m 7,3 C 14,3 C 19,3 km/h (3 Bft) 95,83 %
02.07.2018 09:36 16,9 C 20,6 C 54 % 1014,7 hPa 0,0 l/m 15,3 km/h (3 Bft) O 88 1 min 0,000 mm 2,8 UV-I 660 W/m 7,5 C 13,4 C 19,3 km/h (3 Bft) 100,00 %
02.07.2018 09:37 16,8 C 20,6 C 53 % 1014,6 hPa 0,0 l/m 7,1 km/h (2 Bft) O-NO 72 1 min 0,000 mm 2,9 UV-I 663 W/m 7,2 C 16,4 C 11,3 km/h (2 Bft) 100,00 %
02.07.2018 09:38 16,8 C 20,6 C 54 % 1014,6 hPa 0,0 l/m 10,2 km/h (2 Bft) O-NO 65 1 min 0,000 mm 2,9 UV-I 664 W/m 7,4 C 15,0 C 17,7 km/h (3 Bft) 100,00 %
02.07.2018 09:39 16,8 C 20,6 C 53 % 1014,6 hPa 0,0 l/m 10,1 km/h (2 Bft) O 94 1 min 0,000 mm 2,9 UV-I 668 W/m 7,2 C 15,1 C 12,9 km/h (3 Bft) 100,00 %
02.07.2018 09:40 16,9 C 20,6 C 55 % 1014,6 hPa 0,0 l/m 11,3 km/h (2 Bft) O-NO 67 1 min 0,000 mm 2,9 UV-I 670 W/m 7,8 C 14,7 C 16,1 km/h (3 Bft) 100,00 %
02.07.2018 09:41 16,9 C 20,6 C 54 % 1014,7 hPa 0,0 l/m 14,2 km/h (3 Bft) O-SO 105 1 min 0,000 mm 3,0 UV-I 673 W/m 7,5 C 13,7 C 16,1 km/h (3 Bft) 100,00 %
02.07.2018 09:42 16,8 C 20,6 C 53 % 1014,6 hPa 0,0 l/m 7,7 km/h (2 Bft) O-NO 69 1 min 0,000 mm 3,0 UV-I 676 W/m 7,2 C 16,1 C 14,5 km/h (3 Bft) 100,00 %
02.07.2018 09:43 16,9 C 20,6 C 55 % 1014,6 hPa 0,0 l/m 8,0 km/h (2 Bft) O-NO 69 1 min 0,000 mm 3,0 UV-I 678 W/m 7,8 C 16,1 C 12,9 km/h (3 Bft) 100,00 %
02.07.2018 09:44 16,9 C 20,6 C 53 % 1014,6 hPa 0,0 l/m 10,7 km/h (2 Bft) O 88 1 min 0,000 mm 3,1 UV-I 680 W/m 7,3 C 14,9 C 16,1 km/h (3 Bft) 100,00 %
02.07.2018 09:45 16,9 C 20,6 C 53 % 1014,6 hPa 0,0 l/m 10,1 km/h (2 Bft) O-NO 77 1 min 0,000 mm 3,1 UV-I 682 W/m 7,3 C 15,2 C 14,5 km/h (3 Bft) 100,00 %
02.07.2018 09:46 16,9 C 20,6 C 54 % 1014,5 hPa 0,0 l/m 15,5 km/h (3 Bft) O-NO 60 1 min 0,000 mm 3,1 UV-I 685 W/m 7,5 C 13,3 C 19,3 km/h (3 Bft) 100,00 %
02.07.2018 09:47 17,0 C 20,6 C 54 % 1014,5 hPa 0,0 l/m 12,9 km/h (3 Bft) N-NO 32 1 min 0,000 mm 3,1 UV-I 687 W/m 7,6 C 14,3 C 17,7 km/h (3 Bft) 95,65 %
02.07.2018 09:48 17,1 C 20,6 C 56 % 1014,5 hPa 0,0 l/m 11,4 km/h (2 Bft) NO 51 1 min 0,000 mm 3,1 UV-I 689 W/m 8,3 C 14,9 C 19,3 km/h (3 Bft) 100,00 %
02.07.2018 09:49 17,2 C 20,6 C 54 % 1014,5 hPa 0,0 l/m 16,9 km/h (3 Bft) O-NO 74 1 min 0,000 mm 3,2 UV-I 690 W/m 7,8 C 13,3 C 20,9 km/h (4 Bft) 100,00 %
02.07.2018 09:50 17,2 C 20,6 C 52 % 1014,5 hPa 0,0 l/m 13,6 km/h (3 Bft) O 92 1 min 0,000 mm 3,2 UV-I 693 W/m 7,3 C 14,3 C 17,7 km/h (3 Bft) 95,83 %
02.07.2018 09:51 17,1 C 20,6 C 52 % 1014,5 hPa 0,0 l/m 13,1 km/h (3 Bft) O-NO 71 1 min 0,000 mm 3,2 UV-I 696 W/m 7,2 C 14,3 C 17,7 km/h (3 Bft) 100,00 %
02.07.2018 09:52 17,1 C 20,6 C 54 % 1014,5 hPa 0,0 l/m 7,1 km/h (2 Bft) O-SO 111 1 min 0,000 mm 3,2 UV-I 699 W/m 7,7 C 16,7 C 12,9 km/h (3 Bft) 100,00 %
02.07.2018 09:53 17,1 C 20,6 C 53 % 1014,5 hPa 0,0 l/m 10,7 km/h (2 Bft) O-NO 63 1 min 0,000 mm 3,2 UV-I 700 W/m 7,4 C 15,2 C 20,9 km/h (4 Bft) 100,00 %
02.07.2018 09:54 17,2 C 20,6 C 55 % 1014,5 hPa 0,0 l/m 14,1 km/h (3 Bft) O 80 1 min 0,000 mm 3,3 UV-I 702 W/m 8,1 C 14,1 C 22,5 km/h (4 Bft) 100,00 %
02.07.2018 09:55 17,3 C 20,6 C 53 % 1014,5 hPa 0,0 l/m 13,9 km/h (3 Bft) NO 36 1 min 0,000 mm 3,3 UV-I 704 W/m 7,6 C 14,3 C 20,9 km/h (4 Bft) 100,00 %
02.07.2018 09:56 17,3 C 20,6 C 53 % 1014,4 hPa 0,0 l/m 10,9 km/h (2 Bft) NO 46 1 min 0,000 mm 3,3 UV-I 708 W/m 7,6 C 15,3 C 17,7 km/h (3 Bft) 100,00 %
02.07.2018 09:57 17,3 C 20,6 C 52 % 1014,4 hPa 0,0 l/m 6,8 km/h (2 Bft) O 88 1 min 0,000 mm 3,3 UV-I 708 W/m 7,3 C 17,1 C 11,3 km/h (2 Bft) 95,65 %
02.07.2018 09:58 17,4 C 20,6 C 53 % 1014,4 hPa 0,0 l/m 11,8 km/h (2 Bft) N-NO 23 1 min 0,000 mm 3,4 UV-I 710 W/m 7,7 C 15,1 C 17,7 km/h (3 Bft) 100,00 %
02.07.2018 09:59 17,6 C 20,6 C 54 % 1014,4 hPa 0,0 l/m 10,0 km/h (2 Bft) O-NO 68 1 min 0,000 mm 3,4 UV-I 714 W/m 8,2 C 16,0 C 14,5 km/h (3 Bft) 98,24 %
02.07.2018 10:00 17,6 C 20,6 C 54 % 1014,4 hPa 0,0 l/m 13,8 km/h (3 Bft) NO 36 1 min 0,407 mm 3,4 UV-I 715 W/m 8,2 C 14,7 C 19,3 km/h (3 Bft) 97,56 %
02.07.2018 10:01 17,7 C 20,6 C 55 % 1014,4 hPa 0,0 l/m 15,0 km/h (3 Bft) NO 44 1 min 0,000 mm 3,4 UV-I 716 W/m 8,5 C 14,5 C 17,7 km/h (3 Bft) 95,65 %
02.07.2018 10:02 17,7 C 20,6 C 54 % 1014,5 hPa 0,0 l/m 9,0 km/h (2 Bft) NO 51 1 min 0,000 mm 3,5 UV-I 719 W/m 8,3 C 16,5 C 14,5 km/h (3 Bft) 100,00 %
02.07.2018 10:03 17,8 C 20,6 C 54 % 1014,5 hPa 0,0 l/m 12,6 km/h (3 Bft) N-NO 31 1 min 0,000 mm 3,5 UV-I 720 W/m 8,4 C 15,3 C 17,7 km/h (3 Bft) 96,15 %
02.07.2018 10:04 17,8 C 20,6 C 55 % 1014,4 hPa 0,0 l/m 13,5 km/h (3 Bft) NO 52 1 min 0,000 mm 3,5 UV-I 724 W/m 8,6 C 15,0 C 17,7 km/h (3 Bft) 95,83 %
02.07.2018 10:05 17,9 C 20,6 C 55 % 1014,4 hPa 0,0 l/m 13,4 km/h (3 Bft) NO 42 1 min 0,000 mm 3,5 UV-I 725 W/m 8,7 C 15,2 C 17,7 km/h (3 Bft) 100,00 %
02.07.2018 10:06 18,0 C 20,6 C 54 % 1014,4 hPa 0,0 l/m 11,3 km/h (2 Bft) N-NO 33 1 min 0,000 mm 3,5 UV-I 728 W/m 8,6 C 16,0 C 14,5 km/h (3 Bft) 92,31 %
02.07.2018 10:07 18,1 C 20,6 C 54 % 1014,4 hPa 0,0 l/m 7,5 km/h (2 Bft) O-NO 78 1 min 0,000 mm 3,6 UV-I 729 W/m 8,6 C 17,6 C 14,5 km/h (3 Bft) 100,00 %
02.07.2018 10:08 18,1 C 20,6 C 53 % 1014,4 hPa 0,0 l/m 11,5 km/h (2 Bft) O-NO 74 1 min 0,000 mm 3,6 UV-I 731 W/m 8,4 C 16,0 C 16,1 km/h (3 Bft) 96,55 %
02.07.2018 10:09 18,1 C 20,6 C 54 % 1014,4 hPa 0,0 l/m 14,8 km/h (3 Bft) O 90 1 min 0,000 mm 3,6 UV-I 733 W/m 8,6 C 15,0 C 17,7 km/h (3 Bft) 100,00 %
02.07.2018 10:10 18,1 C 20,6 C 52 % 1014,4 hPa 0,0 l/m 12,2 km/h (2 Bft) NO 41 1 min 0,000 mm 3,6 UV-I 736 W/m 8,1 C 15,8 C 16,1 km/h (3 Bft) 95,65 %
02.07.2018 10:11 18,1 C 20,6 C 52 % 1014,5 hPa 0,0 l/m 11,3 km/h (2 Bft) O-NO 78 1 min 0,000 mm 3,7 UV-I 739 W/m 8,1 C 16,1 C 14,5 km/h (3 Bft) 100,00 %
02.07.2018 10:12 18,1 C 20,6 C 50 % 1014,5 hPa 0,0 l/m 7,7 km/h (2 Bft) O-SO 108 1 min 0,000 mm 3,7 UV-I 740 W/m 7,5 C 17,5 C 14,5 km/h (3 Bft) 96,15 %
02.07.2018 10:13 18,2 C 20,6 C 53 % 1014,5 hPa 0,0 l/m 13,2 km/h (3 Bft) O-NO 62 1 min 0,000 mm 3,7 UV-I 742 W/m 8,5 C 15,6 C 16,1 km/h (3 Bft) 95,83 %
02.07.2018 10:14 18,2 C 20,6 C 52 % 1014,4 hPa 0,0 l/m 9,4 km/h (2 Bft) O-SO 114 1 min 0,000 mm 3,8 UV-I 745 W/m 8,2 C 16,9 C 11,3 km/h (2 Bft) 100,00 %
02.07.2018 10:15 18,1 C 20,6 C 52 % 1014,5 hPa 0,0 l/m 6,0 km/h (2 Bft) NO 40 1 min 0,000 mm 3,8 UV-I 745 W/m 8,1 C 18,1 C 8,0 km/h (2 Bft) 100,00 %
02.07.2018 10:16 18,1 C 20,6 C 52 % 1014,4 hPa 0,0 l/m 10,4 km/h (2 Bft) O 90 1 min 0,000 mm 3,8 UV-I 748 W/m 8,1 C 16,4 C 19,3 km/h (3 Bft) 96,15 %
02.07.2018 10:17 18,1 C 20,6 C 52 % 1014,4 hPa 0,0 l/m 15,0 km/h (3 Bft) O 79 1 min 0,000 mm 3,9 UV-I 750 W/m 8,1 C 14,9 C 19,3 km/h (3 Bft) 96,30 %
02.07.2018 10:18 18,1 C 20,6 C 49 % 1014,4 hPa 0,0 l/m 12,2 km/h (2 Bft) O 86 1 min 0,000 mm 3,9 UV-I 752 W/m 7,2 C 15,8 C 16,1 km/h (3 Bft) 96,15 %
02.07.2018 10:19 18,1 C 20,6 C 51 % 1014,4 hPa 0,0 l/m 13,5 km/h (3 Bft) O-NO 67 1 min 0,000 mm 3,9 UV-I 752 W/m 7,8 C 15,4 C 17,7 km/h (3 Bft) 93,33 %
02.07.2018 10:20 18,0 C 20,6 C 53 % 1014,4 hPa 0,0 l/m 11,1 km/h (2 Bft) O-NO 63 1 min 0,000 mm 4,0 UV-I 754 W/m 8,3 C 16,0 C 16,1 km/h (3 Bft) 100,00 %
02.07.2018 10:21 18,1 C 20,6 C 51 % 1014,4 hPa 0,0 l/m 14,0 km/h (3 Bft) O-NO 78 1 min 0,000 mm 4,0 UV-I 755 W/m 7,8 C 15,2 C 19,3 km/h (3 Bft) 95,65 %
02.07.2018 10:22 18,1 C 20,6 C 51 % 1014,4 hPa 0,0 l/m 15,0 km/h (3 Bft) O-NO 71 1 min 0,000 mm 4,0 UV-I 760 W/m 7,8 C 14,9 C 17,7 km/h (3 Bft) 100,00 %
02.07.2018 10:23 18,2 C 20,6 C 52 % 1014,4 hPa 0,0 l/m 10,5 km/h (2 Bft) O-NO 74 1 min 0,000 mm 4,0 UV-I 762 W/m 8,2 C 16,5 C 14,5 km/h (3 Bft) 95,65 %
02.07.2018 10:24 18,2 C 20,6 C 53 % 1014,4 hPa 0,0 l/m 8,7 km/h (2 Bft) NO 42 1 min 0,000 mm 4,0 UV-I 763 W/m 8,5 C 17,2 C 16,1 km/h (3 Bft) 96,30 %
02.07.2018 10:25 18,2 C 20,6 C 50 % 1014,4 hPa 0,0 l/m 6,4 km/h (2 Bft) O-NO 76 1 min 0,000 mm 4,1 UV-I 765 W/m 7,6 C 18,2 C 12,9 km/h (3 Bft) 96,15 %
02.07.2018 10:26 18,2 C 20,6 C 51 % 1014,4 hPa 0,0 l/m 8,6 km/h (2 Bft) O-SO 103 1 min 0,000 mm 4,1 UV-I 766 W/m 7,9 C 17,2 C 14,5 km/h (3 Bft) 100,00 %
02.07.2018 10:27 18,3 C 20,6 C 52 % 1014,4 hPa 0,0 l/m 6,8 km/h (2 Bft) O 83 1 min 0,000 mm 4,1 UV-I 769 W/m 8,3 C 18,1 C 11,3 km/h (2 Bft) 91,67 %
02.07.2018 10:28 18,3 C 20,6 C 52 % 1014,4 hPa 0,0 l/m 8,6 km/h (2 Bft) NO 54 1 min 0,000 mm 4,1 UV-I 771 W/m 8,3 C 17,3 C 12,9 km/h (3 Bft) 100,00 %
02.07.2018 10:29 18,4 C 20,6 C 51 % 1014,4 hPa 0,0 l/m 9,7 km/h (2 Bft) NO 49 1 min 0,000 mm 4,2 UV-I 772 W/m 8,1 C 17,0 C 12,9 km/h (3 Bft) 100,00 %
02.07.2018 10:30 18,5 C 20,6 C 53 % 1014,4 hPa 0,0 l/m 12,3 km/h (3 Bft) O-NO 63 1 min 0,000 mm 4,2 UV-I 774 W/m 8,7 C 16,2 C 17,7 km/h (3 Bft) 100,00 %
02.07.2018 10:31 18,6 C 20,6 C 52 % 1014,4 hPa 0,0 l/m 15,1 km/h (3 Bft) NO 52 1 min 0,000 mm 4,2 UV-I 777 W/m 8,5 C 15,5 C 17,7 km/h (3 Bft) 100,00 %
02.07.2018 10:32 18,7 C 20,6 C 51 % 1014,4 hPa 0,0 l/m 13,3 km/h (3 Bft) O-NO 76 1 min 0,000 mm 4,2 UV-I 779 W/m 8,4 C 16,1 C 17,7 km/h (3 Bft) 100,00 %
02.07.2018 10:33 18,7 C 20,6 C 49 % 1014,4 hPa 0,0 l/m 10,1 km/h (2 Bft) N-NO 17 1 min 0,000 mm 4,3 UV-I 781 W/m 7,8 C 17,2 C 14,5 km/h (3 Bft) 100,00 %
02.07.2018 10:34 18,7 C 20,6 C 50 % 1014,4 hPa 0,0 l/m 9,5 km/h (2 Bft) NO 49 1 min 0,000 mm 4,3 UV-I 783 W/m 8,1 C 17,4 C 12,9 km/h (3 Bft) 100,00 %
02.07.2018 10:35 18,8 C 20,6 C 50 % 1014,4 hPa 0,0 l/m 12,8 km/h (3 Bft) O-NO 73 1 min 0,000 mm 4,3 UV-I 782 W/m 8,2 C 16,4 C 17,7 km/h (3 Bft) 100,00 %
02.07.2018 10:36 18,9 C 20,6 C 49 % 1014,4 hPa 0,0 l/m 14,6 km/h (3 Bft) N-NO 20 1 min 0,000 mm 4,3 UV-I 785 W/m 7,9 C 16,0 C 19,3 km/h (3 Bft) 96,30 %
02.07.2018 10:37 18,9 C 20,6 C 51 % 1014,3 hPa 0,0 l/m 18,0 km/h (3 Bft) N-NO 32 1 min 0,000 mm 4,4 UV-I 788 W/m 8,5 C 15,2 C 20,9 km/h (4 Bft) 96,15 %
02.07.2018 10:38 18,9 C 20,6 C 47 % 1014,3 hPa 0,0 l/m 17,6 km/h (3 Bft) N 11 1 min 0,000 mm 4,4 UV-I 790 W/m 7,3 C 15,3 C 22,5 km/h (4 Bft) 100,00 %
02.07.2018 10:39 18,9 C 20,6 C 49 % 1014,3 hPa 0,0 l/m 14,2 km/h (3 Bft) NO 46 1 min 0,000 mm 4,4 UV-I 791 W/m 7,9 C 16,1 C 20,9 km/h (4 Bft) 100,00 %
02.07.2018 10:40 19,0 C 20,6 C 50 % 1014,3 hPa 0,0 l/m 17,6 km/h (3 Bft) O 94 1 min 0,000 mm 4,4 UV-I 793 W/m 8,3 C 15,4 C 24,1 km/h (4 Bft) 100,00 %
02.07.2018 10:41 19,1 C 20,6 C 49 % 1014,3 hPa 0,0 l/m 11,6 km/h (2 Bft) NO 52 1 min 0,000 mm 4,5 UV-I 796 W/m 8,1 C 17,1 C 16,1 km/h (3 Bft) 100,00 %
02.07.2018 10:42 19,2 C 20,6 C 50 % 1014,3 hPa 0,0 l/m 12,7 km/h (3 Bft) O-NO 63 1 min 0,000 mm 4,5 UV-I 799 W/m 8,5 C 16,9 C 20,9 km/h (4 Bft) 100,00 %
02.07.2018 10:43 19,2 C 20,6 C 49 % 1014,3 hPa 0,0 l/m 16,4 km/h (3 Bft) O-NO 59 1 min 0,000 mm 4,5 UV-I 800 W/m 8,2 C 15,9 C 19,3 km/h (3 Bft) 100,00 %
02.07.2018 10:44 19,2 C 20,6 C 50 % 1014,3 hPa 0,0 l/m 16,7 km/h (3 Bft) O-NO 66 1 min 0,000 mm 4,5 UV-I 800 W/m 8,5 C 15,9 C 22,5 km/h (4 Bft) 96,15 %
02.07.2018 10:45 19,2 C 20,6 C 50 % 1014,3 hPa 0,0 l/m 17,2 km/h (3 Bft) O-NO 57 1 min 0,000 mm 4,5 UV-I 803 W/m 8,5 C 15,8 C 22,5 km/h (4 Bft) 95,83 %
02.07.2018 10:46 19,2 C 20,6 C 49 % 1014,3 hPa 0,0 l/m 14,3 km/h (3 Bft) O-NO 73 1 min 0,000 mm 4,6 UV-I 806 W/m 8,2 C 16,5 C 19,3 km/h (3 Bft) 100,00 %
02.07.2018 10:47 19,1 C 20,6 C 47 % 1014,3 hPa 0,0 l/m 15,7 km/h (3 Bft) O-NO 74 1 min 0,000 mm 4,6 UV-I 807 W/m 7,5 C 16,0 C 19,3 km/h (3 Bft) 100,00 %
02.07.2018 10:48 19,1 C 20,6 C 47 % 1014,3 hPa 0,0 l/m 14,7 km/h (3 Bft) NO 54 1 min 0,000 mm 4,6 UV-I 807 W/m 7,5 C 16,2 C 19,3 km/h (3 Bft) 100,00 %
02.07.2018 10:49 19,1 C 20,6 C 47 % 1014,3 hPa 0,0 l/m 13,3 km/h (3 Bft) O 84 1 min 0,000 mm 4,6 UV-I 809 W/m 7,5 C 16,6 C 17,7 km/h (3 Bft) 100,00 %
02.07.2018 10:50 19,1 C 20,6 C 48 % 1014,3 hPa 0,0 l/m 14,3 km/h (3 Bft) N-NO 28 1 min 0,000 mm 4,7 UV-I 811 W/m 7,8 C 16,3 C 17,7 km/h (3 Bft) 100,00 %
02.07.2018 10:51 19,2 C 20,6 C 47 % 1014,2 hPa 0,0 l/m 16,3 km/h (3 Bft) NO 42 1 min 0,000 mm 4,7 UV-I 814 W/m 7,6 C 16,0 C 20,9 km/h (4 Bft) 100,00 %
02.07.2018 10:52 19,2 C 20,6 C 47 % 1014,2 hPa 0,0 l/m 14,9 km/h (3 Bft) O-NO 72 1 min 0,000 mm 4,7 UV-I 815 W/m 7,6 C 16,3 C 20,9 km/h (4 Bft) 100,00 %
02.07.2018 10:53 19,1 C 20,6 C 46 % 1014,2 hPa 0,0 l/m 11,3 km/h (2 Bft) O 86 1 min 0,000 mm 4,7 UV-I 815 W/m 7,2 C 17,2 C 19,3 km/h (3 Bft) 100,00 %
02.07.2018 10:54 19,1 C 20,6 C 49 % 1014,2 hPa 0,0 l/m 20,6 km/h (4 Bft) O 89 1 min 0,000 mm 4,8 UV-I 817 W/m 8,1 C 14,9 C 27,4 km/h (4 Bft) 100,00 %
02.07.2018 10:55 19,1 C 20,6 C 46 % 1014,2 hPa 0,0 l/m 16,4 km/h (3 Bft) O-SO 109 1 min 0,000 mm 4,8 UV-I 819 W/m 7,2 C 15,8 C 24,1 km/h (4 Bft) 100,00 %
02.07.2018 10:56 18,9 C 20,6 C 46 % 1014,2 hPa 0,0 l/m 9,9 km/h (2 Bft) O 101 1 min 0,000 mm 4,8 UV-I 821 W/m 7,0 C 17,5 C 17,7 km/h (3 Bft) 100,00 %
02.07.2018 10:57 18,9 C 20,6 C 47 % 1014,2 hPa 0,0 l/m 7,7 km/h (2 Bft) O-SO 105 1 min 0,000 mm 4,8 UV-I 823 W/m 7,3 C 18,3 C 11,3 km/h (2 Bft) 100,00 %
02.07.2018 10:58 18,9 C 20,6 C 49 % 1014,1 hPa 0,0 l/m 9,9 km/h (2 Bft) O 80 1 min 0,000 mm 4,8 UV-I 824 W/m 7,9 C 17,5 C 14,5 km/h (3 Bft) 100,00 %
02.07.2018 10:59 19,0 C 20,6 C 48 % 1014,2 hPa 0,0 l/m 15,0 km/h (3 Bft) O 82 1 min 0,000 mm 4,9 UV-I 825 W/m 7,7 C 16,0 C 20,9 km/h (4 Bft) 100,00 %
02.07.2018 11:00 19,2 C 20,6 C 48 % 1014,2 hPa 0,0 l/m 16,1 km/h (3 Bft) O 91 1 min 0,508 mm 4,9 UV-I 828 W/m 7,9 C 16,0 C 22,5 km/h (4 Bft) 100,00 %
02.07.2018 11:01 19,3 C 20,6 C 46 % 1014,1 hPa 0,0 l/m 16,4 km/h (3 Bft) O 92 1 min 0,000 mm 4,9 UV-I 830 W/m 7,4 C 16,1 C 20,9 km/h (4 Bft) 100,00 %
02.07.2018 11:02 19,3 C 20,6 C 45 % 1014,1 hPa 0,0 l/m 13,7 km/h (3 Bft) O 101 1 min 0,000 mm 4,9 UV-I 830 W/m 7,1 C 16,7 C 17,7 km/h (3 Bft) 100,00 %
02.07.2018 11:03 19,3 C 20,6 C 46 % 1014,1 hPa 0,0 l/m 14,0 km/h (3 Bft) O 93 1 min 0,000 mm 4,9 UV-I 832 W/m 7,4 C 16,7 C 25,7 km/h (4 Bft) 100,00 %
02.07.2018 11:04 19,3 C 20,6 C 44 % 1014,1 hPa 0,0 l/m 18,4 km/h (3 Bft) O-NO 71 1 min 0,000 mm 5,0 UV-I 834 W/m 6,7 C 15,6 C 22,5 km/h (4 Bft) 100,00 %
02.07.2018 11:05 19,3 C 20,6 C 44 % 1014,2 hPa 0,0 l/m 17,9 km/h (3 Bft) O-NO 65 1 min 0,000 mm 5,0 UV-I 836 W/m 6,7 C 15,7 C 22,5 km/h (4 Bft) 100,00 %
02.07.2018 11:06 19,2 C 21,1 C 44 % 1014,1 hPa 0,0 l/m 13,9 km/h (3 Bft) O-NO 59 1 min 0,000 mm 5,0 UV-I 838 W/m 6,7 C 16,6 C 17,7 km/h (3 Bft) 100,00 %
02.07.2018 11:07 19,1 C 21,1 C 45 % 1014,2 hPa 0,0 l/m 11,9 km/h (2 Bft) O 90 1 min 0,000 mm 5,0 UV-I 838 W/m 6,9 C 17,0 C 16,1 km/h (3 Bft) 95,65 %
02.07.2018 11:08 19,2 C 21,1 C 45 % 1014,2 hPa 0,0 l/m 13,7 km/h (3 Bft) O 79 1 min 0,000 mm 5,1 UV-I 839 W/m 7,0 C 16,6 C 17,7 km/h (3 Bft) 100,00 %
02.07.2018 11:09 19,1 C 21,1 C 44 % 1014,2 hPa 0,0 l/m 15,2 km/h (3 Bft) O-NO 68 1 min 0,000 mm 5,1 UV-I 841 W/m 6,6 C 16,1 C 20,9 km/h (4 Bft) 100,00 %
02.07.2018 11:10 19,2 C 21,1 C 45 % 1014,2 hPa 0,0 l/m 15,0 km/h (3 Bft) O 89 1 min 0,000 mm 5,1 UV-I 843 W/m 7,0 C 16,3 C 20,9 km/h (4 Bft) 100,00 %
02.07.2018 11:11 19,1 C 21,1 C 46 % 1014,2 hPa 0,0 l/m 11,1 km/h (2 Bft) O 83 1 min 0,000 mm 5,1 UV-I 844 W/m 7,2 C 17,3 C 20,9 km/h (4 Bft) 100,00 %
02.07.2018 11:13 19,3 C 21,1 C 48 % 1014,2 hPa 0,0 l/m 9,5 km/h (2 Bft) O 86 2 min 0,000 mm 5,1 UV-I 844 W/m 8,0 C 18,0 C 14,5 km/h (3 Bft) 97,56 %
02.07.2018 11:14 19,4 C 21,1 C 46 % 1014,2 hPa 0,0 l/m 17,9 km/h (3 Bft) O-NO 78 1 min 0,000 mm 5,2 UV-I 847 W/m 7,5 C 15,9 C 24,1 km/h (4 Bft) 100,00 %
02.07.2018 11:15 19,4 C 21,1 C 45 % 1014,2 hPa 0,0 l/m 15,7 km/h (3 Bft) O 84 1 min 0,000 mm 5,2 UV-I 850 W/m 7,2 C 16,4 C 19,3 km/h (3 Bft) 100,00 %
02.07.2018 11:16 19,4 C 21,1 C 44 % 1014,2 hPa 0,0 l/m 12,7 km/h (3 Bft) O 86 1 min 0,000 mm 5,2 UV-I 851 W/m 6,8 C 17,1 C 19,3 km/h (3 Bft) 100,00 %
02.07.2018 11:17 19,5 C 21,1 C 44 % 1014,2 hPa 0,0 l/m 17,6 km/h (3 Bft) O 98 1 min 0,000 mm 5,3 UV-I 851 W/m 6,9 C 16,0 C 20,9 km/h (4 Bft) 100,00 %
02.07.2018 11:18 19,4 C 21,1 C 45 % 1014,2 hPa 0,0 l/m 11,9 km/h (2 Bft) O-NO 64 1 min 0,000 mm 5,3 UV-I 853 W/m 7,2 C 17,4 C 16,1 km/h (3 Bft) 100,00 %
02.07.2018 11:19 19,4 C 21,1 C 47 % 1014,2 hPa 0,0 l/m 11,0 km/h (2 Bft) O-SO 105 1 min 0,000 mm 5,3 UV-I 854 W/m 7,8 C 17,6 C 16,1 km/h (3 Bft) 100,00 %
02.07.2018 11:20 19,5 C 21,1 C 44 % 1014,2 hPa 0,0 l/m 14,8 km/h (3 Bft) O-NO 78 1 min 0,000 mm 5,3 UV-I 857 W/m 6,9 C 16,7 C 19,3 km/h (3 Bft) 100,00 %
02.07.2018 11:21 19,6 C 21,1 C 46 % 1014,2 hPa 0,0 l/m 10,8 km/h (2 Bft) O 101 1 min 0,000 mm 5,3 UV-I 858 W/m 7,7 C 17,9 C 14,5 km/h (3 Bft) 100,00 %
02.07.2018 11:22 19,7 C 21,1 C 47 % 1014,3 hPa 0,0 l/m 10,2 km/h (2 Bft) O 95 1 min 0,000 mm 5,4 UV-I 859 W/m 8,1 C 18,2 C 12,9 km/h (3 Bft) 100,00 %
02.07.2018 11:23 19,8 C 21,1 C 43 % 1014,2 hPa 0,0 l/m 11,8 km/h (2 Bft) O-NO 72 1 min 0,000 mm 5,4 UV-I 860 W/m 6,9 C 17,9 C 16,1 km/h (3 Bft) 100,00 %
02.07.2018 11:24 19,8 C 21,1 C 45 % 1014,2 hPa 0,0 l/m 11,4 km/h (2 Bft) NO 50 1 min 0,000 mm 5,4 UV-I 861 W/m 7,5 C 18,0 C 14,5 km/h (3 Bft) 96,15 %
02.07.2018 11:25 19,7 C 21,1 C 46 % 1014,2 hPa 0,0 l/m 6,8 km/h (2 Bft) N-NO 26 1 min 0,000 mm 5,3 UV-I 861 W/m 7,8 C 19,5 C 11,3 km/h (2 Bft) 100,00 %
02.07.2018 11:26 19,7 C 21,1 C 45 % 1014,2 hPa 0,0 l/m 8,0 km/h (2 Bft) O-NO 63 1 min 0,000 mm 4,0 UV-I 861 W/m 7,4 C 19,0 C 14,5 km/h (3 Bft) 100,00 %
02.07.2018 11:27 19,8 C 21,1 C 45 % 1014,2 hPa 0,0 l/m 13,9 km/h (3 Bft) O-NO 67 1 min 0,000 mm 4,0 UV-I 864 W/m 7,5 C 17,3 C 20,9 km/h (4 Bft) 100,00 %
02.07.2018 11:28 19,7 C 21,1 C 45 % 1014,2 hPa 0,0 l/m 11,7 km/h (2 Bft) O-NO 63 1 min 0,000 mm 4,3 UV-I 864 W/m 7,4 C 17,8 C 17,7 km/h (3 Bft) 100,00 %
02.07.2018 11:29 19,7 C 21,1 C 47 % 1014,2 hPa 0,0 l/m 9,0 km/h (2 Bft) O-SO 111 1 min 0,000 mm 4,3 UV-I 865 W/m 8,1 C 18,7 C 12,9 km/h (3 Bft) 100,00 %
02.07.2018 11:30 19,7 C 21,1 C 48 % 1014,2 hPa 0,0 l/m 10,4 km/h (2 Bft) O 94 1 min 0,000 mm 4,4 UV-I 865 W/m 8,4 C 18,2 C 17,7 km/h (3 Bft) 100,00 %
02.07.2018 11:31 19,8 C 21,1 C 46 % 1014,2 hPa 0,0 l/m 14,5 km/h (3 Bft) O-NO 59 1 min 0,000 mm 4,4 UV-I 865 W/m 7,8 C 17,1 C 22,5 km/h (4 Bft) 95,83 %
02.07.2018 11:32 19,9 C 21,1 C 47 % 1014,2 hPa 0,0 l/m 17,9 km/h (3 Bft) O-NO 67 1 min 0,000 mm 4,4 UV-I 866 W/m 8,3 C 16,5 C 22,5 km/h (4 Bft) 100,00 %
02.07.2018 11:33 20,0 C 21,1 C 46 % 1014,2 hPa 0,0 l/m 15,3 km/h (3 Bft) N-NO 31 1 min 0,000 mm 4,4 UV-I 868 W/m 8,0 C 17,2 C 19,3 km/h (3 Bft) 96,30 %
02.07.2018 11:34 19,9 C 21,1 C 46 % 1014,2 hPa 0,0 l/m 11,1 km/h (2 Bft) N-NO 29 1 min 0,000 mm 4,4 UV-I 868 W/m 7,9 C 18,2 C 14,5 km/h (3 Bft) 100,00 %
02.07.2018 11:35 19,9 C 21,1 C 48 % 1014,2 hPa 0,0 l/m 10,5 km/h (2 Bft) NO 35 1 min 0,000 mm 4,5 UV-I 868 W/m 8,6 C 18,4 C 16,1 km/h (3 Bft) 100,00 %
02.07.2018 11:36 20,1 C 21,1 C 45 % 1014,2 hPa 0,0 l/m 11,2 km/h (2 Bft) O-NO 74 1 min 0,000 mm 4,5 UV-I 870 W/m 7,8 C 18,4 C 17,7 km/h (3 Bft) 100,00 %
02.07.2018 11:37 20,1 C 21,1 C 45 % 1014,2 hPa 0,0 l/m 12,9 km/h (3 Bft) O-NO 59 1 min 0,000 mm 5,5 UV-I 873 W/m 7,8 C 17,9 C 16,1 km/h (3 Bft) 100,00 %
02.07.2018 11:38 20,1 C 21,1 C 47 % 1014,1 hPa 0,0 l/m 10,1 km/h (2 Bft) O-NO 65 1 min 0,000 mm 5,6 UV-I 874 W/m 8,4 C 18,7 C 14,5 km/h (3 Bft) 100,00 %
02.07.2018 11:39 20,1 C 21,1 C 47 % 1014,1 hPa 0,0 l/m 14,6 km/h (3 Bft) O 88 1 min 0,000 mm 5,7 UV-I 876 W/m 8,4 C 17,5 C 20,9 km/h (4 Bft) 100,00 %
02.07.2018 11:40 20,0 C 21,1 C 44 % 1014,2 hPa 0,0 l/m 13,2 km/h (3 Bft) O-NO 71 1 min 0,000 mm 5,7 UV-I 877 W/m 7,4 C 17,7 C 16,1 km/h (3 Bft) 100,00 %
02.07.2018 11:41 19,8 C 21,1 C 44 % 1014,2 hPa 0,0 l/m 9,6 km/h (2 Bft) O-NO 57 1 min 0,000 mm 5,7 UV-I 877 W/m 7,2 C 18,6 C 17,7 km/h (3 Bft) 91,30 %
02.07.2018 11:42 19,8 C 21,1 C 46 % 1014,1 hPa 0,0 l/m 12,7 km/h (3 Bft) O-NO 57 1 min 0,000 mm 5,7 UV-I 877 W/m 7,8 C 17,6 C 16,1 km/h (3 Bft) 100,00 %
02.07.2018 11:43 19,9 C 21,1 C 45 % 1014,1 hPa 0,0 l/m 15,3 km/h (3 Bft) N-NO 16 1 min 0,000 mm 5,7 UV-I 877 W/m 7,6 C 17,1 C 22,5 km/h (4 Bft) 96,15 %
02.07.2018 11:44 19,9 C 21,1 C 45 % 1014,2 hPa 0,0 l/m 16,6 km/h (3 Bft) NO 42 1 min 0,000 mm 5,7 UV-I 879 W/m 7,6 C 16,8 C 19,3 km/h (3 Bft) 100,00 %
02.07.2018 11:45 19,9 C 21,1 C 45 % 1014,1 hPa 0,0 l/m 17,0 km/h (3 Bft) NO 38 1 min 0,000 mm 5,8 UV-I 881 W/m 7,6 C 16,7 C 20,9 km/h (4 Bft) 95,65 %
02.07.2018 11:46 19,9 C 21,1 C 45 % 1014,2 hPa 0,0 l/m 11,2 km/h (2 Bft) NO 51 1 min 0,000 mm 5,8 UV-I 883 W/m 7,6 C 18,2 C 16,1 km/h (3 Bft) 100,00 %
02.07.2018 11:47 20,0 C 21,1 C 47 % 1014,2 hPa 0,0 l/m 9,6 km/h (2 Bft) NO 53 1 min 0,000 mm 5,8 UV-I 884 W/m 8,3 C 18,8 C 11,3 km/h (2 Bft) 95,65 %
02.07.2018 11:48 20,1 C 21,1 C 45 % 1014,2 hPa 0,0 l/m 12,5 km/h (3 Bft) NO 34 1 min 0,000 mm 4,5 UV-I 884 W/m 7,8 C 18,0 C 17,7 km/h (3 Bft) 95,83 %
02.07.2018 11:49 20,2 C 21,1 C 47 % 1014,2 hPa 0,0 l/m 6,8 km/h (2 Bft) N 11 1 min 0,000 mm 4,3 UV-I 883 W/m 8,5 C 20,0 C 11,3 km/h (2 Bft) 100,00 %
02.07.2018 11:50 20,3 C 21,1 C 47 % 1014,2 hPa 0,0 l/m 5,7 km/h (1 Bft) NO 45 1 min 0,000 mm 4,5 UV-I 883 W/m 8,6 C 20,3 C 8,0 km/h (2 Bft) 95,83 %
02.07.2018 11:51 20,4 C 21,1 C 48 % 1014,1 hPa 0,0 l/m 5,6 km/h (1 Bft) N-NO 22 1 min 0,000 mm 5,8 UV-I 885 W/m 9,0 C 20,4 C 8,0 km/h (2 Bft) 100,00 %
02.07.2018 11:52 20,5 C 21,1 C 49 % 1014,1 hPa 0,0 l/m 7,8 km/h (2 Bft) O-NO 69 1 min 0,000 mm 5,9 UV-I 888 W/m 9,4 C 20,0 C 16,1 km/h (3 Bft) 96,30 %
02.07.2018 11:53 20,7 C 21,1 C 44 % 1014,1 hPa 0,0 l/m 10,7 km/h (2 Bft) O-NO 63 1 min 0,000 mm 5,9 UV-I 888 W/m 8,0 C 19,2 C 14,5 km/h (3 Bft) 100,00 %
02.07.2018 11:54 20,7 C 21,1 C 45 % 1014,1 hPa 0,0 l/m 7,3 km/h (2 Bft) O 91 1 min 0,000 mm 5,9 UV-I 889 W/m 8,3 C 20,4 C 11,3 km/h (2 Bft) 96,55 %
02.07.2018 11:55 20,8 C 21,1 C 45 % 1014,1 hPa 0,0 l/m 14,3 km/h (3 Bft) O 98 1 min 0,000 mm 5,9 UV-I 891 W/m 8,4 C 18,4 C 19,3 km/h (3 Bft) 100,00 %
02.07.2018 11:56 20,8 C 21,1 C 47 % 1014,1 hPa 0,0 l/m 10,4 km/h (2 Bft) O-SO 107 1 min 0,000 mm 6,0 UV-I 891 W/m 9,1 C 19,4 C 16,1 km/h (3 Bft) 96,15 %
02.07.2018 11:58 20,5 C 21,1 C 43 % 1014,1 hPa 0,0 l/m 12,7 km/h (3 Bft) O-SO 118 2 min 0,000 mm 6,0 UV-I 893 W/m 7,5 C 18,4 C 19,3 km/h (3 Bft) 97,56 %
02.07.2018 11:59 20,4 C 21,1 C 45 % 1014,1 hPa 0,0 l/m 12,1 km/h (2 Bft) O-SO 114 1 min 0,000 mm 6,0 UV-I 895 W/m 8,1 C 18,5 C 16,1 km/h (3 Bft) 96,30 %
02.07.2018 12:00 20,4 C 21,1 C 44 % 1014,1 hPa 0,0 l/m 11,3 km/h (2 Bft) O-SO 121 1 min 0,584 mm 6,0 UV-I 895 W/m 7,7 C 18,7 C 17,7 km/h (3 Bft) 100,00 %
02.07.2018 12:01 20,5 C 21,1 C 45 % 1014,1 hPa 0,0 l/m 12,1 km/h (2 Bft) O 82 1 min 0,000 mm 5,8 UV-I 895 W/m 8,2 C 18,6 C 14,5 km/h (3 Bft) 96,30 %
02.07.2018 12:02 20,5 C 21,1 C 47 % 1014,1 hPa 0,0 l/m 11,1 km/h (2 Bft) O-SO 103 1 min 0,000 mm 4,8 UV-I 896 W/m 8,8 C 18,9 C 14,5 km/h (3 Bft) 95,65 %
02.07.2018 12:03 20,6 C 21,1 C 44 % 1014,1 hPa 0,0 l/m 6,4 km/h (2 Bft) O 99 1 min 0,000 mm 5,0 UV-I 897 W/m 7,9 C 20,6 C 11,3 km/h (2 Bft) 91,67 %
02.07.2018 12:04 20,6 C 21,1 C 44 % 1014,1 hPa 0,0 l/m 7,8 km/h (2 Bft) O-SO 107 1 min 0,000 mm 4,6 UV-I 896 W/m 7,9 C 20,1 C 16,1 km/h (3 Bft) 96,88 %
02.07.2018 12:05 20,6 C 21,1 C 47 % 1014,1 hPa 0,0 l/m 10,6 km/h (2 Bft) O 101 1 min 0,000 mm 5,3 UV-I 900 W/m 8,9 C 19,1 C 14,5 km/h (3 Bft) 96,30 %
02.07.2018 12:06 20,6 C 21,1 C 44 % 1014,1 hPa 0,0 l/m 5,0 km/h (1 Bft) O-SO 119 1 min 0,000 mm 5,6 UV-I 902 W/m 7,9 C 20,6 C 9,7 km/h (2 Bft) 90,91 %
02.07.2018 12:07 20,4 C 21,1 C 43 % 1014,0 hPa 0,0 l/m 2,5 km/h (1 Bft) NO 40 1 min 0,000 mm 6,2 UV-I 898 W/m 7,4 C 20,4 C 6,4 km/h (2 Bft) 96,30 %
02.07.2018 12:08 20,5 C 21,1 C 46 % 1014,0 hPa 0,0 l/m 15,0 km/h (3 Bft) NO 49 1 min 0,000 mm 6,2 UV-I 891 W/m 8,5 C 17,9 C 25,7 km/h (4 Bft) 86,96 %
02.07.2018 12:09 20,5 C 21,1 C 49 % 1014,0 hPa 0,0 l/m 18,5 km/h (3 Bft) NO 51 1 min 0,000 mm 6,2 UV-I 891 W/m 9,4 C 17,1 C 20,9 km/h (4 Bft) 100,00 %
02.07.2018 12:10 20,6 C 21,1 C 47 % 1014,0 hPa 0,0 l/m 14,7 km/h (3 Bft) NO 41 1 min 0,000 mm 6,2 UV-I 898 W/m 8,9 C 18,0 C 19,3 km/h (3 Bft) 96,15 %
02.07.2018 12:11 20,6 C 21,1 C 49 % 1014,0 hPa 0,0 l/m 16,5 km/h (3 Bft) NO 34 1 min 0,000 mm 6,2 UV-I 902 W/m 9,5 C 17,7 C 19,3 km/h (3 Bft) 98,27 %
02.07.2018 12:12 20,7 C 21,1 C 47 % 1014,1 hPa 0,0 l/m 10,0 km/h (2 Bft) N-NO 14 1 min 0,000 mm 6,2 UV-I 905 W/m 9,0 C 19,4 C 14,5 km/h (3 Bft) 100,00 %
02.07.2018 12:13 20,8 C 21,1 C 49 % 1014,1 hPa 0,0 l/m 11,4 km/h (2 Bft) N 11 1 min 0,000 mm 6,2 UV-I 905 W/m 9,7 C 19,1 C 14,5 km/h (3 Bft) 96,30 %
02.07.2018 12:14 20,9 C 21,1 C 52 % 1014,1 hPa 0,0 l/m 12,1 km/h (2 Bft) N-NO 32 1 min 0,000 mm 6,2 UV-I 900 W/m 10,7 C 19,0 C 19,3 km/h (3 Bft) 100,00 %
02.07.2018 12:15 21,0 C 21,1 C 47 % 1014,0 hPa 0,0 l/m 13,7 km/h (3 Bft) NO 41 1 min 0,000 mm 6,2 UV-I 903 W/m 9,3 C 18,8 C 17,7 km/h (3 Bft) 100,00 %
02.07.2018 12:16 21,1 C 21,1 C 48 % 1014,0 hPa 0,0 l/m 13,6 km/h (3 Bft) NO 48 1 min 0,000 mm 6,2 UV-I 905 W/m 9,7 C 18,9 C 17,7 km/h (3 Bft) 95,83 %
02.07.2018 12:17 21,1 C 21,1 C 46 % 1013,9 hPa 0,0 l/m 6,9 km/h (2 Bft) NO 36 1 min 0,000 mm 6,2 UV-I 907 W/m 9,0 C 20,9 C 12,9 km/h (3 Bft) 96,15 %
02.07.2018 12:18 21,1 C 21,1 C 46 % 1013,9 hPa 0,0 l/m 8,5 km/h (2 Bft) O-SO 105 1 min 0,000 mm 6,3 UV-I 909 W/m 9,0 C 20,3 C 17,7 km/h (3 Bft) 100,00 %
02.07.2018 12:19 21,0 C 21,1 C 44 % 1013,9 hPa 0,0 l/m 13,0 km/h (3 Bft) O-NO 65 1 min 0,000 mm 5,5 UV-I 910 W/m 8,3 C 18,9 C 17,7 km/h (3 Bft) 96,15 %
02.07.2018 12:20 20,9 C 21,1 C 46 % 1013,9 hPa 0,0 l/m 13,4 km/h (3 Bft) O 91 1 min 0,000 mm 4,2 UV-I 911 W/m 8,8 C 18,7 C 17,7 km/h (3 Bft) 100,00 %
02.07.2018 12:21 20,9 C 21,1 C 44 % 1013,9 hPa 0,0 l/m 11,2 km/h (2 Bft) O 90 1 min 0,000 mm 5,9 UV-I 911 W/m 8,2 C 19,3 C 16,1 km/h (3 Bft) 95,65 %
02.07.2018 12:22 20,9 C 21,1 C 46 % 1013,9 hPa 0,0 l/m 13,5 km/h (3 Bft) O-NO 59 1 min 0,000 mm 6,3 UV-I 908 W/m 8,8 C 18,7 C 17,7 km/h (3 Bft) 91,67 %
02.07.2018 12:23 20,9 C 21,1 C 49 % 1014,0 hPa 0,0 l/m 14,8 km/h (3 Bft) O-NO 78 1 min 0,000 mm 6,3 UV-I 911 W/m 9,8 C 18,4 C 17,7 km/h (3 Bft) 100,00 %
02.07.2018 12:24 20,8 C 21,1 C 44 % 1014,1 hPa 0,0 l/m 11,3 km/h (2 Bft) O-NO 66 1 min 0,000 mm 6,4 UV-I 912 W/m 8,1 C 19,1 C 16,1 km/h (3 Bft) 95,83 %
02.07.2018 12:25 20,7 C 21,1 C 45 % 1014,1 hPa 0,0 l/m 7,0 km/h (2 Bft) O-NO 76 1 min 0,000 mm 6,4 UV-I 913 W/m 8,3 C 20,5 C 11,3 km/h (2 Bft) 100,00 %
02.07.2018 12:26 20,7 C 21,1 C 48 % 1014,0 hPa 0,0 l/m 6,4 km/h (2 Bft) O 81 1 min 0,000 mm 6,4 UV-I 912 W/m 9,3 C 20,7 C 9,7 km/h (2 Bft) 100,00 %
02.07.2018 12:27 20,8 C 21,1 C 48 % 1014,0 hPa 0,0 l/m 11,2 km/h (2 Bft) O-NO 58 1 min 0,000 mm 6,4 UV-I 912 W/m 9,4 C 19,2 C 16,1 km/h (3 Bft) 91,30 %
02.07.2018 12:28 20,8 C 21,1 C 44 % 1014,0 hPa 0,0 l/m 6,0 km/h (2 Bft) O 82 1 min 0,000 mm 6,4 UV-I 912 W/m 8,1 C 20,8 C 9,7 km/h (2 Bft) 93,33 %
02.07.2018 12:29 20,7 C 21,1 C 48 % 1014,0 hPa 0,0 l/m 4,5 km/h (1 Bft) O 96 1 min 0,000 mm 6,3 UV-I 909 W/m 9,3 C 20,7 C 6,4 km/h (2 Bft) 100,00 %
02.07.2018 12:30 20,7 C 21,1 C 46 % 1013,9 hPa 0,0 l/m 9,3 km/h (2 Bft) O 80 1 min 0,000 mm 5,6 UV-I 909 W/m 8,7 C 19,6 C 16,1 km/h (3 Bft) 95,83 %
02.07.2018 12:31 20,7 C 21,1 C 44 % 1013,9 hPa 0,0 l/m 13,5 km/h (3 Bft) O-NO 63 1 min 0,000 mm 6,3 UV-I 906 W/m 8,0 C 18,5 C 19,3 km/h (3 Bft) 100,00 %
02.07.2018 12:32 20,7 C 21,1 C 46 % 1013,9 hPa 0,0 l/m 10,1 km/h (2 Bft) N 11 1 min 0,000 mm 6,4 UV-I 908 W/m 8,7 C 19,4 C 17,7 km/h (3 Bft) 95,65 %
02.07.2018 12:33 20,8 C 21,1 C 46 % 1013,9 hPa 0,0 l/m 8,6 km/h (2 Bft) NO 36 1 min 0,000 mm 6,4 UV-I 913 W/m 8,8 C 20,0 C 12,9 km/h (3 Bft) 100,00 %
02.07.2018 12:34 21,1 C 21,1 C 50 % 1013,9 hPa 0,0 l/m 15,0 km/h (3 Bft) O-NO 74 1 min 0,000 mm 6,5 UV-I 917 W/m 10,3 C 18,6 C 22,5 km/h (4 Bft) 95,65 %
02.07.2018 12:35 21,2 C 21,1 C 44 % 1013,9 hPa 0,0 l/m 14,1 km/h (3 Bft) O-SO 102 1 min 0,000 mm 6,4 UV-I 916 W/m 8,5 C 18,9 C 19,3 km/h (3 Bft) 100,00 %
02.07.2018 12:36 21,1 C 21,1 C 47 % 1013,9 hPa 0,0 l/m 15,0 km/h (3 Bft) O-NO 69 1 min 0,000 mm 6,4 UV-I 917 W/m 9,3 C 18,6 C 17,7 km/h (3 Bft) 97,56 %
02.07.2018 12:37 21,1 C 21,1 C 44 % 1013,9 hPa 0,0 l/m 11,0 km/h (2 Bft) O-SO 117 1 min 0,000 mm 6,5 UV-I 918 W/m 8,4 C 19,6 C 17,7 km/h (3 Bft) 92,59 %
02.07.2018 12:38 21,1 C 21,1 C 46 % 1013,8 hPa 0,0 l/m 10,3 km/h (2 Bft) O-NO 70 1 min 0,000 mm 6,5 UV-I 919 W/m 9,0 C 19,8 C 17,7 km/h (3 Bft) 98,21 %
02.07.2018 12:39 21,0 C 21,1 C 45 % 1013,8 hPa 0,0 l/m 10,9 km/h (2 Bft) O-SO 112 1 min 0,000 mm 6,5 UV-I 919 W/m 8,6 C 19,5 C 16,1 km/h (3 Bft) 97,56 %
02.07.2018 12:40 21,0 C 21,1 C 46 % 1013,9 hPa 0,0 l/m 13,9 km/h (3 Bft) O 83 1 min 0,000 mm 6,5 UV-I 917 W/m 8,9 C 18,7 C 17,7 km/h (3 Bft) 100,00 %
02.07.2018 12:41 21,0 C 21,1 C 45 % 1013,8 hPa 0,0 l/m 16,2 km/h (3 Bft) O 88 1 min 0,000 mm 6,5 UV-I 916 W/m 8,6 C 18,2 C 19,3 km/h (3 Bft) 93,33 %
02.07.2018 12:42 20,9 C 21,1 C 45 % 1013,8 hPa 0,0 l/m 9,7 km/h (2 Bft) O 101 1 min 0,000 mm 6,5 UV-I 916 W/m 8,5 C 19,7 C 12,9 km/h (3 Bft) 100,00 %
02.07.2018 12:43 20,8 C 21,1 C 44 % 1013,8 hPa 0,0 l/m 6,0 km/h (2 Bft) O-NO 72 1 min 0,000 mm 6,5 UV-I 917 W/m 8,1 C 20,8 C 8,0 km/h (2 Bft) 95,83 %
02.07.2018 12:44 20,7 C 21,1 C 46 % 1013,8 hPa 0,0 l/m 4,6 km/h (1 Bft) N-NO 22 1 min 0,000 mm 6,5 UV-I 918 W/m 8,7 C 20,7 C 6,4 km/h (2 Bft) 100,00 %
02.07.2018 12:45 20,7 C 21,1 C 47 % 1013,8 hPa 0,0 l/m 9,4 km/h (2 Bft) N-NO 25 1 min 0,000 mm 6,5 UV-I 920 W/m 9,0 C 19,6 C 20,9 km/h (4 Bft) 95,83 %
02.07.2018 12:46 20,7 C 21,1 C 48 % 1013,8 hPa 0,0 l/m 20,7 km/h (4 Bft) O-NO 58 1 min 0,000 mm 6,5 UV-I 915 W/m 9,3 C 17,0 C 27,4 km/h (4 Bft) 100,00 %
02.07.2018 12:47 20,9 C 21,1 C 46 % 1013,8 hPa 0,0 l/m 10,9 km/h (2 Bft) O-NO 62 1 min 0,000 mm 6,5 UV-I 914 W/m 8,8 C 19,4 C 14,5 km/h (3 Bft) 92,59 %
02.07.2018 12:48 21,0 C 21,1 C 47 % 1013,8 hPa 0,0 l/m 11,0 km/h (2 Bft) N 10 1 min 0,000 mm 6,4 UV-I 909 W/m 9,3 C 19,5 C 19,3 km/h (3 Bft) 96,15 %
02.07.2018 12:49 21,0 C 21,1 C 43 % 1013,8 hPa 0,0 l/m 9,4 km/h (2 Bft) NO 34 1 min 0,000 mm 6,4 UV-I 910 W/m 7,9 C 19,9 C 12,9 km/h (3 Bft) 100,00 %
02.07.2018 12:50 20,9 C 21,1 C 46 % 1013,7 hPa 0,0 l/m 6,3 km/h (2 Bft) N-NO 33 1 min 0,000 mm 6,4 UV-I 913 W/m 8,8 C 20,9 C 8,0 km/h (2 Bft) 96,55 %
02.07.2018 12:51 20,9 C 21,1 C 46 % 1013,7 hPa 0,0 l/m 9,9 km/h (2 Bft) NO 36 1 min 0,000 mm 6,6 UV-I 920 W/m 8,8 C 19,7 C 14,5 km/h (3 Bft) 100,00 %
02.07.2018 12:52 20,9 C 21,1 C 47 % 1013,7 hPa 0,0 l/m 9,7 km/h (2 Bft) N-NO 23 1 min 0,000 mm 6,6 UV-I 921 W/m 9,2 C 19,7 C 12,9 km/h (3 Bft) 93,33 %
02.07.2018 12:53 21,2 C 21,1 C 50 % 1013,6 hPa 0,0 l/m 10,1 km/h (2 Bft) NO 46 1 min 0,000 mm 6,6 UV-I 919 W/m 10,4 C 19,9 C 19,3 km/h (3 Bft) 100,00 %
02.07.2018 12:54 21,3 C 21,1 C 48 % 1013,7 hPa 0,0 l/m 9,6 km/h (2 Bft) NO 38 1 min 0,000 mm 6,6 UV-I 919 W/m 9,8 C 20,2 C 14,5 km/h (3 Bft) 95,83 %
02.07.2018 12:55 21,4 C 21,1 C 46 % 1013,7 hPa 0,0 l/m 11,3 km/h (2 Bft) NO 55 1 min 0,000 mm 6,6 UV-I 919 W/m 9,3 C 19,8 C 16,1 km/h (3 Bft) 100,00 %
02.07.2018 12:56 21,5 C 21,1 C 48 % 1013,7 hPa 0,0 l/m 7,4 km/h (2 Bft) O 92 1 min 0,000 mm 6,6 UV-I 919 W/m 10,0 C 21,1 C 11,3 km/h (2 Bft) 96,30 %
02.07.2018 12:58 21,6 C 21,1 C 44 % 1013,7 hPa 0,0 l/m 11,0 km/h (2 Bft) O-SO 113 2 min 0,000 mm 6,6 UV-I 922 W/m 8,8 C 20,1 C 17,7 km/h (3 Bft) 98,08 %
02.07.2018 12:59 21,6 C 21,1 C 46 % 1013,7 hPa 0,0 l/m 8,3 km/h (2 Bft) O-NO 71 1 min 0,000 mm 6,6 UV-I 923 W/m 9,5 C 20,9 C 14,5 km/h (3 Bft) 100,00 %
02.07.2018 13:00 21,6 C 21,1 C 47 % 1013,7 hPa 0,0 l/m 9,0 km/h (2 Bft) O-NO 63 1 min 0,610 mm 6,6 UV-I 920 W/m 9,8 C 20,7 C 16,1 km/h (3 Bft) 95,83 %
02.07.2018 13:02 21,6 C 21,7 C 47 % 1013,8 hPa 0,0 l/m 12,0 km/h (2 Bft) O-NO 63 2 min 0,000 mm 6,6 UV-I 918 W/m 9,8 C 19,9 C 19,3 km/h (3 Bft) 97,73 %
02.07.2018 13:03 21,6 C 21,7 C 47 % 1013,7 hPa 0,0 l/m 11,7 km/h (2 Bft) NO 52 1 min 0,000 mm 6,6 UV-I 851 W/m 9,8 C 19,9 C 19,3 km/h (3 Bft) 96,88 %
02.07.2018 13:04 21,6 C 21,7 C 49 % 1013,7 hPa 0,0 l/m 8,5 km/h (2 Bft) NO 49 1 min 0,000 mm 6,6 UV-I 919 W/m 10,4 C 20,9 C 12,9 km/h (3 Bft) 100,00 %
02.07.2018 13:05 21,6 C 21,7 C 44 % 1013,7 hPa 0,0 l/m 14,0 km/h (3 Bft) O-NO 68 1 min 0,000 mm 6,6 UV-I 918 W/m 8,8 C 19,4 C 16,1 km/h (3 Bft) 100,00 %
02.07.2018 13:06 21,6 C 21,7 C 45 % 1013,7 hPa 0,0 l/m 12,4 km/h (3 Bft) NO 51 1 min 0,000 mm 6,6 UV-I 918 W/m 9,2 C 19,8 C 16,1 km/h (3 Bft) 97,56 %
02.07.2018 13:08 21,6 C 21,7 C 45 % 1013,6 hPa 0,0 l/m 9,7 km/h (2 Bft) NO 52 2 min 0,000 mm 6,6 UV-I 917 W/m 9,2 C 20,5 C 14,5 km/h (3 Bft) 96,00 %
02.07.2018 13:09 21,6 C 21,7 C 46 % 1013,6 hPa 0,0 l/m 7,7 km/h (2 Bft) NO 55 1 min 0,000 mm 6,6 UV-I 919 W/m 9,5 C 21,1 C 11,3 km/h (2 Bft) 100,00 %
02.07.2018 13:10 21,7 C 21,7 C 44 % 1013,6 hPa 0,0 l/m 10,4 km/h (2 Bft) N-NO 22 1 min 0,000 mm 6,6 UV-I 918 W/m 8,9 C 20,4 C 16,1 km/h (3 Bft) 96,55 %
02.07.2018 13:11 21,6 C 21,7 C 43 % 1013,6 hPa 0,0 l/m 12,7 km/h (3 Bft) O 81 1 min 0,000 mm 6,6 UV-I 919 W/m 8,5 C 19,7 C 16,1 km/h (3 Bft) 100,00 %
02.07.2018 13:12 21,6 C 21,7 C 42 % 1013,6 hPa 0,0 l/m 10,6 km/h (2 Bft) O 80 1 min 0,000 mm 6,5 UV-I 918 W/m 8,1 C 20,2 C 14,5 km/h (3 Bft) 96,15 %
02.07.2018 13:13 21,6 C 21,7 C 42 % 1013,6 hPa 0,0 l/m 9,4 km/h (2 Bft) O-SO 109 1 min 0,000 mm 6,6 UV-I 920 W/m 8,1 C 20,6 C 12,9 km/h (3 Bft) 100,00 %
02.07.2018 13:14 21,5 C 21,7 C 42 % 1013,6 hPa 0,0 l/m 5,0 km/h (1 Bft) O-NO 61 1 min 0,000 mm 6,6 UV-I 923 W/m 8,0 C 21,5 C 9,7 km/h (2 Bft) 96,55 %
02.07.2018 13:15 21,6 C 21,7 C 44 % 1013,6 hPa 0,0 l/m 12,9 km/h (3 Bft) O 100 1 min 0,000 mm 6,6 UV-I 925 W/m 8,8 C 19,7 C 17,7 km/h (3 Bft) 100,00 %
02.07.2018 13:16 21,6 C 21,7 C 42 % 1013,6 hPa 0,0 l/m 9,2 km/h (2 Bft) O 91 1 min 0,000 mm 6,6 UV-I 923 W/m 8,1 C 20,6 C 14,5 km/h (3 Bft) 96,15 %
02.07.2018 13:18 21,6 C 21,7 C 44 % 1013,6 hPa 0,0 l/m 7,0 km/h (2 Bft) O-NO 65 2 min 0,000 mm 6,6 UV-I 918 W/m 8,8 C 21,4 C 14,5 km/h (3 Bft) 97,87 %
02.07.2018 13:19 21,6 C 21,7 C 43 % 1013,6 hPa 0,0 l/m 1,1 km/h (1 Bft) O-NO 65 1 min 0,000 mm 6,6 UV-I 915 W/m 8,5 C 21,6 C 3,2 km/h (1 Bft) 95,83 %
02.07.2018 13:20 21,4 C 21,7 C 43 % 1013,6 hPa 0,0 l/m 3,4 km/h (1 Bft) O 96 1 min 0,000 mm 6,6 UV-I 916 W/m 8,3 C 21,4 C 6,4 km/h (2 Bft) 100,00 %
02.07.2018 13:21 21,4 C 21,7 C 45 % 1013,5 hPa 0,0 l/m 5,7 km/h (1 Bft) O 88 1 min 0,000 mm 6,6 UV-I 914 W/m 9,0 C 21,4 C 11,3 km/h (2 Bft) 100,00 %
02.07.2018 13:22 21,3 C 21,7 C 43 % 1013,5 hPa 0,0 l/m 1,8 km/h (1 Bft) O-NO 69 1 min 0,000 mm 6,6 UV-I 907 W/m 8,2 C 21,3 C 3,2 km/h (1 Bft) 100,00 %
02.07.2018 13:23 21,4 C 21,7 C 45 % 1013,6 hPa 0,0 l/m 4,5 km/h (1 Bft) O-SO 102 1 min 0,000 mm 6,6 UV-I 889 W/m 9,0 C 21,4 C 12,9 km/h (3 Bft) 100,00 %
02.07.2018 13:24 21,6 C 21,7 C 48 % 1013,6 hPa 0,0 l/m 7,7 km/h (2 Bft) O 88 1 min 0,000 mm 6,6 UV-I 912 W/m 10,1 C 21,1 C 11,3 km/h (2 Bft) 100,00 %
02.07.2018 13:25 21,7 C 21,7 C 46 % 1013,5 hPa 0,0 l/m 14,4 km/h (3 Bft) O-SO 107 1 min 0,000 mm 6,6 UV-I 916 W/m 9,6 C 19,4 C 19,3 km/h (3 Bft) 100,00 %
02.07.2018 13:26 21,8 C 21,7 C 46 % 1013,5 hPa 0,0 l/m 10,7 km/h (2 Bft) NO 49 1 min 0,000 mm 6,6 UV-I 916 W/m 9,7 C 20,4 C 17,7 km/h (3 Bft) 100,00 %
02.07.2018 13:27 21,9 C 21,7 C 45 % 1013,6 hPa 0,0 l/m 12,7 km/h (3 Bft) NO 49 1 min 0,000 mm 6,6 UV-I 914 W/m 9,4 C 20,1 C 17,7 km/h (3 Bft) 91,30 %
02.07.2018 13:28 22,0 C 21,7 C 43 % 1013,5 hPa 0,0 l/m 11,0 km/h (2 Bft) O 94 1 min 0,000 mm 6,6 UV-I 914 W/m 8,8 C 20,6 C 16,1 km/h (3 Bft) 100,00 %
02.07.2018 13:29 22,0 C 21,7 C 44 % 1013,6 hPa 0,0 l/m 15,4 km/h (3 Bft) O 86 1 min 0,000 mm 6,6 UV-I 912 W/m 9,2 C 19,6 C 20,9 km/h (4 Bft) 100,00 %
02.07.2018 13:30 22,0 C 21,7 C 43 % 1013,5 hPa 0,0 l/m 13,9 km/h (3 Bft) NO 42 1 min 0,000 mm 6,6 UV-I 912 W/m 8,8 C 19,9 C 20,9 km/h (4 Bft) 95,65 %
02.07.2018 13:31 22,0 C 21,7 C 46 % 1013,5 hPa 0,0 l/m 15,3 km/h (3 Bft) NO 49 1 min 0,000 mm 6,5 UV-I 910 W/m 9,8 C 19,6 C 17,7 km/h (3 Bft) 96,30 %
02.07.2018 13:32 22,1 C 21,7 C 43 % 1013,5 hPa 0,0 l/m 14,5 km/h (3 Bft) O-NO 62 1 min 0,000 mm 6,5 UV-I 911 W/m 8,9 C 19,9 C 19,3 km/h (3 Bft) 100,00 %
02.07.2018 13:33 22,2 C 21,7 C 46 % 1013,5 hPa 0,0 l/m 11,8 km/h (2 Bft) NO 51 1 min 0,000 mm 6,5 UV-I 912 W/m 10,0 C 20,6 C 16,1 km/h (3 Bft) 92,31 %
02.07.2018 13:34 22,1 C 21,7 C 44 % 1013,5 hPa 0,0 l/m 11,5 km/h (2 Bft) NO 38 1 min 0,000 mm 6,6 UV-I 916 W/m 9,3 C 20,6 C 17,7 km/h (3 Bft) 100,00 %
02.07.2018 13:35 22,0 C 21,7 C 45 % 1013,5 hPa 0,0 l/m 12,5 km/h (3 Bft) O-NO 68 1 min 0,000 mm 6,6 UV-I 914 W/m 9,5 C 20,2 C 16,1 km/h (3 Bft) 96,15 %
02.07.2018 13:36 22,0 C 21,7 C 47 % 1013,4 hPa 0,0 l/m 7,4 km/h (2 Bft) O-NO 65 1 min 0,000 mm 6,5 UV-I 912 W/m 10,2 C 21,7 C 9,7 km/h (2 Bft) 91,67 %
02.07.2018 13:38 22,0 C 21,7 C 43 % 1013,4 hPa 0,0 l/m 8,6 km/h (2 Bft) O 79 2 min 0,000 mm 6,5 UV-I 912 W/m 8,8 C 21,3 C 14,5 km/h (3 Bft) 96,55 %
02.07.2018 13:39 22,1 C 21,7 C 43 % 1013,4 hPa 0,0 l/m 4,2 km/h (1 Bft) N-NO 25 1 min 0,000 mm 6,5 UV-I 909 W/m 8,9 C 22,1 C 8,0 km/h (2 Bft) 97,37 %
02.07.2018 13:40 22,1 C 21,7 C 43 % 1013,4 hPa 0,0 l/m 3,9 km/h (1 Bft) N 9 1 min 0,000 mm 6,5 UV-I 908 W/m 8,9 C 22,1 C 8,0 km/h (2 Bft) 96,30 %
02.07.2018 13:41 22,1 C 21,7 C 44 % 1013,4 hPa 0,0 l/m 7,8 km/h (2 Bft) O 88 1 min 0,000 mm 6,5 UV-I 906 W/m 9,3 C 21,6 C 16,1 km/h (3 Bft) 98,14 %
02.07.2018 13:42 22,1 C 21,7 C 42 % 1013,4 hPa 0,0 l/m 13,5 km/h (3 Bft) O 90 1 min 0,000 mm 6,5 UV-I 906 W/m 8,6 C 20,1 C 20,9 km/h (4 Bft) 97,73 %
02.07.2018 13:43 22,2 C 21,7 C 43 % 1013,4 hPa 0,0 l/m 15,3 km/h (3 Bft) O 100 1 min 0,000 mm 6,5 UV-I 906 W/m 9,0 C 19,9 C 19,3 km/h (3 Bft) 95,65 %
02.07.2018 13:44 22,2 C 21,7 C 41 % 1013,4 hPa 0,0 l/m 13,1 km/h (3 Bft) O-NO 76 1 min 0,000 mm 6,4 UV-I 905 W/m 8,3 C 20,3 C 16,1 km/h (3 Bft) 100,00 %
02.07.2018 13:45 22,1 C 21,7 C 41 % 1013,4 hPa 0,0 l/m 10,2 km/h (2 Bft) O 92 1 min 0,000 mm 6,4 UV-I 904 W/m 8,2 C 20,9 C 14,5 km/h (3 Bft) 91,30 %
02.07.2018 13:46 21,9 C 21,7 C 40 % 1013,4 hPa 0,0 l/m 4,4 km/h (1 Bft) S 175 1 min 0,000 mm 6,4 UV-I 904 W/m 7,7 C 21,9 C 8,0 km/h (2 Bft) 100,00 %
02.07.2018 13:47 21,8 C 21,7 C 42 % 1013,4 hPa 0,0 l/m 4,7 km/h (1 Bft) SO 129 1 min 0,000 mm 6,4 UV-I 904 W/m 8,3 C 21,8 C 6,4 km/h (2 Bft) 97,37 %
02.07.2018 13:48 21,8 C 21,7 C 45 % 1013,4 hPa 0,0 l/m 7,6 km/h (2 Bft) O-SO 112 1 min 0,000 mm 6,4 UV-I 903 W/m 9,3 C 21,4 C 12,9 km/h (3 Bft) 91,67 %
02.07.2018 13:49 21,9 C 21,7 C 42 % 1013,4 hPa 0,0 l/m 11,7 km/h (2 Bft) N-NO 19 1 min 0,000 mm 6,4 UV-I 903 W/m 8,4 C 20,3 C 17,7 km/h (3 Bft) 95,65 %
02.07.2018 13:50 22,0 C 21,7 C 44 % 1013,4 hPa 0,0 l/m 11,6 km/h (2 Bft) O-NO 70 1 min 0,000 mm 6,4 UV-I 904 W/m 9,2 C 20,4 C 16,1 km/h (3 Bft) 100,00 %
02.07.2018 13:51 22,0 C 21,7 C 43 % 1013,4 hPa 0,0 l/m 12,4 km/h (3 Bft) O-SO 103 1 min 0,000 mm 6,4 UV-I 907 W/m 8,8 C 20,2 C 16,1 km/h (3 Bft) 95,83 %
02.07.2018 13:52 22,1 C 21,7 C 42 % 1013,4 hPa 0,0 l/m 6,2 km/h (2 Bft) O-SO 122 1 min 0,000 mm 6,4 UV-I 905 W/m 8,6 C 22,1 C 11,3 km/h (2 Bft) 95,65 %
02.07.2018 13:53 22,2 C 21,7 C 42 % 1013,4 hPa 0,0 l/m 7,2 km/h (2 Bft) NO 40 1 min 0,000 mm 6,4 UV-I 905 W/m 8,7 C 21,9 C 12,9 km/h (3 Bft) 100,00 %
02.07.2018 13:54 22,2 C 21,7 C 42 % 1013,4 hPa 0,0 l/m 6,7 km/h (2 Bft) NO 47 1 min 0,000 mm 6,4 UV-I 903 W/m 8,7 C 22,1 C 8,0 km/h (2 Bft) 95,65 %
02.07.2018 13:55 22,4 C 21,7 C 45 % 1013,3 hPa 0,0 l/m 13,7 km/h (3 Bft) O-NO 57 1 min 0,000 mm 6,4 UV-I 902 W/m 9,9 C 20,4 C 19,3 km/h (3 Bft) 100,00 %
02.07.2018 13:56 22,4 C 21,7 C 40 % 1013,3 hPa 0,0 l/m 11,6 km/h (2 Bft) NO 53 1 min 0,000 mm 6,3 UV-I 900 W/m 8,1 C 20,9 C 17,7 km/h (3 Bft) 95,65 %
02.07.2018 13:57 22,3 C 21,7 C 42 % 1013,3 hPa 0,0 l/m 11,3 km/h (2 Bft) O-NO 71 1 min 0,000 mm 6,3 UV-I 900 W/m 8,8 C 20,8 C 14,5 km/h (3 Bft) 96,30 %
02.07.2018 13:58 22,3 C 21,7 C 43 % 1013,4 hPa 0,0 l/m 8,6 km/h (2 Bft) S-SO 151 1 min 0,000 mm 6,3 UV-I 900 W/m 9,1 C 21,6 C 12,9 km/h (3 Bft) 100,00 %
02.07.2018 13:59 22,2 C 21,7 C 40 % 1013,3 hPa 0,0 l/m 5,6 km/h (1 Bft) O 94 1 min 0,000 mm 6,3 UV-I 900 W/m 8,0 C 22,2 C 8,0 km/h (2 Bft) 96,30 %
02.07.2018 14:00 22,3 C 21,7 C 41 % 1013,3 hPa 0,0 l/m 6,0 km/h (2 Bft) O-SO 117 1 min 0,609 mm 6,3 UV-I 899 W/m 8,4 C 22,3 C 11,3 km/h (2 Bft) 100,00 %
02.07.2018 14:01 22,3 C 21,7 C 40 % 1013,4 hPa 0,0 l/m 4,9 km/h (1 Bft) O-SO 111 1 min 0,000 mm 6,3 UV-I 898 W/m 8,0 C 22,3 C 6,4 km/h (2 Bft) 100,00 %
02.07.2018 14:02 22,3 C 21,7 C 43 % 1013,3 hPa 0,0 l/m 2,7 km/h (1 Bft) SO 132 1 min 0,000 mm 6,3 UV-I 896 W/m 9,1 C 22,3 C 6,4 km/h (2 Bft) 100,00 %
02.07.2018 14:03 22,4 C 21,7 C 41 % 1013,3 hPa 0,0 l/m 8,0 km/h (2 Bft) SO 132 1 min 0,000 mm 6,3 UV-I 895 W/m 8,5 C 21,9 C 11,3 km/h (2 Bft) 100,00 %
02.07.2018 14:04 22,5 C 21,7 C 41 % 1013,3 hPa 0,0 l/m 9,7 km/h (2 Bft) O-NO 67 1 min 0,000 mm 6,3 UV-I 893 W/m 8,6 C 21,5 C 14,5 km/h (3 Bft) 100,00 %
02.07.2018 14:05 22,6 C 21,7 C 42 % 1013,3 hPa 0,0 l/m 13,2 km/h (3 Bft) NO 45 1 min 0,000 mm 6,2 UV-I 890 W/m 9,0 C 20,8 C 17,7 km/h (3 Bft) 100,00 %
02.07.2018 14:06 22,7 C 21,7 C 40 % 1013,3 hPa 0,0 l/m 13,9 km/h (3 Bft) N-NO 31 1 min 0,000 mm 6,2 UV-I 890 W/m 8,4 C 20,7 C 17,7 km/h (3 Bft) 100,00 %
02.07.2018 14:07 22,7 C 21,7 C 40 % 1013,3 hPa 0,0 l/m 12,2 km/h (2 Bft) N-NO 13 1 min 0,000 mm 6,2 UV-I 891 W/m 8,4 C 21,1 C 17,7 km/h (3 Bft) 100,00 %
02.07.2018 14:08 22,7 C 21,7 C 43 % 1013,3 hPa 0,0 l/m 7,2 km/h (2 Bft) O-NO 61 1 min 0,000 mm 5,4 UV-I 889 W/m 9,5 C 22,4 C 9,7 km/h (2 Bft) 100,00 %
02.07.2018 14:09 22,7 C 21,7 C 41 % 1013,3 hPa 0,0 l/m 8,6 km/h (2 Bft) O 79 1 min 0,000 mm 6,1 UV-I 888 W/m 8,8 C 22,0 C 12,9 km/h (3 Bft) 100,00 %
02.07.2018 14:10 22,8 C 21,7 C 41 % 1013,2 hPa 0,0 l/m 7,1 km/h (2 Bft) N 355 1 min 0,000 mm 6,2 UV-I 889 W/m 8,9 C 22,6 C 12,9 km/h (3 Bft) 100,00 %
02.07.2018 14:11 22,8 C 21,7 C 42 % 1013,2 hPa 0,0 l/m 11,9 km/h (2 Bft) N-NO 13 1 min 0,000 mm 6,2 UV-I 888 W/m 9,2 C 21,3 C 14,5 km/h (3 Bft) 100,00 %
02.07.2018 14:12 22,8 C 21,7 C 43 % 1013,3 hPa 0,0 l/m 9,3 km/h (2 Bft) N-NO 22 1 min 0,000 mm 6,1 UV-I 888 W/m 9,6 C 21,9 C 12,9 km/h (3 Bft) 100,00 %
02.07.2018 14:13 22,9 C 21,7 C 42 % 1013,2 hPa 0,0 l/m 8,1 km/h (2 Bft) N-NO 22 1 min 0,000 mm 6,1 UV-I 887 W/m 9,3 C 22,4 C 12,9 km/h (3 Bft) 90,91 %
02.07.2018 14:14 22,8 C 21,7 C 41 % 1013,2 hPa 0,0 l/m 6,4 km/h (2 Bft) NO 50 1 min 0,000 mm 6,1 UV-I 888 W/m 8,9 C 22,8 C 8,0 km/h (2 Bft) 100,00 %
02.07.2018 14:15 22,8 C 21,7 C 42 % 1013,2 hPa 0,0 l/m 7,9 km/h (2 Bft) NW 307 1 min 0,000 mm 6,1 UV-I 886 W/m 9,2 C 22,3 C 11,3 km/h (2 Bft) 100,00 %
02.07.2018 14:16 22,8 C 21,7 C 38 % 1013,2 hPa 0,0 l/m 8,9 km/h (2 Bft) N 5 1 min 0,000 mm 5,6 UV-I 888 W/m 7,7 C 22,0 C 12,9 km/h (3 Bft) 100,00 %
02.07.2018 14:17 22,8 C 21,7 C 41 % 1013,2 hPa 0,0 l/m 5,7 km/h (1 Bft) O 79 1 min 0,000 mm 6,1 UV-I 886 W/m 8,9 C 22,8 C 8,0 km/h (2 Bft) 100,00 %
02.07.2018 14:18 22,7 C 21,7 C 41 % 1013,2 hPa 0,0 l/m 5,4 km/h (1 Bft) NO 46 1 min 0,000 mm 6,1 UV-I 884 W/m 8,8 C 22,7 C 6,4 km/h (2 Bft) 100,00 %
02.07.2018 14:19 22,7 C 21,7 C 43 % 1013,2 hPa 0,0 l/m 6,4 km/h (2 Bft) NO 34 1 min 0,000 mm 6,0 UV-I 880 W/m 9,5 C 22,7 C 8,0 km/h (2 Bft) 96,55 %
02.07.2018 14:20 22,8 C 21,7 C 44 % 1013,2 hPa 0,0 l/m 6,9 km/h (2 Bft) NO 36 1 min 0,000 mm 6,0 UV-I 876 W/m 9,9 C 22,6 C 8,0 km/h (2 Bft) 100,00 %
02.07.2018 14:21 22,8 C 22,2 C 41 % 1013,2 hPa 0,0 l/m 9,9 km/h (2 Bft) NO 39 1 min 0,000 mm 6,0 UV-I 877 W/m 8,9 C 21,8 C 11,3 km/h (2 Bft) 100,00 %
02.07.2018 14:22 22,9 C 22,2 C 46 % 1013,2 hPa 0,0 l/m 8,1 km/h (2 Bft) O-SO 123 1 min 0,000 mm 6,0 UV-I 877 W/m 10,7 C 22,4 C 12,9 km/h (3 Bft) 100,00 %
02.07.2018 14:23 22,7 C 22,2 C 39 % 1013,2 hPa 0,0 l/m 6,0 km/h (2 Bft) O 91 1 min 0,000 mm 6,0 UV-I 877 W/m 8,0 C 22,7 C 9,7 km/h (2 Bft) 100,00 %
02.07.2018 14:24 22,6 C 22,2 C 41 % 1013,2 hPa 0,0 l/m 10,0 km/h (2 Bft) O 94 1 min 0,000 mm 6,0 UV-I 876 W/m 8,7 C 21,5 C 12,9 km/h (3 Bft) 100,00 %
02.07.2018 14:25 22,5 C 22,2 C 41 % 1013,2 hPa 0,0 l/m 4,7 km/h (1 Bft) O-SO 116 1 min 0,000 mm 5,9 UV-I 874 W/m 8,6 C 22,5 C 6,4 km/h (2 Bft) 100,00 %
02.07.2018 14:26 22,4 C 22,2 C 40 % 1013,2 hPa 0,0 l/m 3,3 km/h (1 Bft) O-SO 116 1 min 0,000 mm 5,9 UV-I 874 W/m 8,1 C 22,4 C 4,8 km/h (1 Bft) 100,00 %
02.07.2018 14:27 22,3 C 22,2 C 40 % 1013,2 hPa 0,0 l/m 1,5 km/h (1 Bft) O-SO 116 1 min 0,000 mm 5,9 UV-I 871 W/m 8,0 C 22,3 C 3,2 km/h (1 Bft) 100,00 %
02.07.2018 14:28 22,3 C 22,2 C 39 % 1013,2 hPa 0,0 l/m 3,7 km/h (1 Bft) O-NO 70 1 min 0,000 mm 5,9 UV-I 871 W/m 7,7 C 22,3 C 6,4 km/h (2 Bft) 100,00 %
02.07.2018 14:29 22,3 C 22,2 C 39 % 1013,2 hPa 0,0 l/m 3,5 km/h (1 Bft) O-SO 121 1 min 0,000 mm 5,9 UV-I 870 W/m 7,7 C 22,3 C 4,8 km/h (1 Bft) 100,00 %
02.07.2018 14:30 22,4 C 22,2 C 44 % 1013,2 hPa 0,0 l/m 9,5 km/h (2 Bft) O 87 1 min 0,000 mm 5,9 UV-I 869 W/m 9,5 C 21,4 C 19,3 km/h (3 Bft) 96,15 %
02.07.2018 14:31 22,6 C 22,2 C 41 % 1013,2 hPa 0,0 l/m 11,8 km/h (2 Bft) NO 39 1 min 0,000 mm 5,8 UV-I 868 W/m 8,7 C 21,1 C 16,1 km/h (3 Bft) 100,00 %
02.07.2018 14:32 22,7 C 22,2 C 39 % 1013,2 hPa 0,0 l/m 9,2 km/h (2 Bft) O-SO 107 1 min 0,000 mm 5,8 UV-I 865 W/m 8,0 C 21,8 C 12,9 km/h (3 Bft) 100,00 %
02.07.2018 14:33 22,7 C 22,2 C 37 % 1013,2 hPa 0,0 l/m 6,4 km/h (2 Bft) NO 42 1 min 0,000 mm 5,8 UV-I 865 W/m 7,3 C 22,7 C 9,7 km/h (2 Bft) 95,83 %
02.07.2018 14:34 22,7 C 22,2 C 42 % 1013,2 hPa 0,0 l/m 15,2 km/h (3 Bft) NO 42 1 min 0,000 mm 5,8 UV-I 865 W/m 9,1 C 20,5 C 19,3 km/h (3 Bft) 100,00 %
02.07.2018 14:35 22,8 C 22,2 C 43 % 1013,2 hPa 0,0 l/m 11,7 km/h (2 Bft) NO 44 1 min 0,000 mm 5,8 UV-I 864 W/m 9,6 C 21,3 C 17,7 km/h (3 Bft) 100,00 %
02.07.2018 14:36 22,9 C 22,2 C 40 % 1013,2 hPa 0,0 l/m 9,6 km/h (2 Bft) O-NO 69 1 min 0,000 mm 5,8 UV-I 862 W/m 8,6 C 21,9 C 12,9 km/h (3 Bft) 98,18 %
02.07.2018 14:38 22,9 C 22,2 C 37 % 1013,2 hPa 0,0 l/m 5,5 km/h (1 Bft) SO 130 2 min 0,000 mm 5,7 UV-I 860 W/m 7,4 C 22,9 C 14,5 km/h (3 Bft) 100,00 %
02.07.2018 14:39 22,7 C 22,2 C 37 % 1013,2 hPa 0,0 l/m 3,2 km/h (1 Bft) O 101 1 min 0,000 mm 5,7 UV-I 861 W/m 7,3 C 22,7 C 4,8 km/h (1 Bft) 100,00 %
02.07.2018 14:40 22,7 C 22,2 C 38 % 1013,2 hPa 0,0 l/m 8,0 km/h (2 Bft) N-NO 28 1 min 0,000 mm 5,7 UV-I 862 W/m 7,6 C 22,2 C 14,5 km/h (3 Bft) 100,00 %
02.07.2018 14:41 22,7 C 22,2 C 38 % 1013,2 hPa 0,0 l/m 7,4 km/h (2 Bft) N 5 1 min 0,000 mm 5,7 UV-I 862 W/m 7,6 C 22,4 C 11,3 km/h (2 Bft) 96,15 %
02.07.2018 14:43 22,9 C 22,2 C 40 % 1013,1 hPa 0,0 l/m 9,3 km/h (2 Bft) N-NO 17 2 min 0,000 mm 5,7 UV-I 860 W/m 8,6 C 22,0 C 14,5 km/h (3 Bft) 100,00 %
02.07.2018 14:44 23,1 C 22,2 C 44 % 1013,2 hPa 0,0 l/m 8,4 km/h (2 Bft) N 11 1 min 0,000 mm 5,7 UV-I 859 W/m 10,2 C 22,5 C 12,9 km/h (3 Bft) 100,00 %
02.07.2018 14:45 23,1 C 22,2 C 38 % 1013,2 hPa 0,0 l/m 5,8 km/h (2 Bft) N 9 1 min 0,000 mm 5,7 UV-I 853 W/m 8,0 C 23,1 C 8,0 km/h (2 Bft) 100,00 %
02.07.2018 14:46 23,1 C 22,2 C 38 % 1013,2 hPa 0,0 l/m 5,9 km/h (2 Bft) NO 40 1 min 0,000 mm 5,6 UV-I 855 W/m 8,0 C 23,1 C 9,7 km/h (2 Bft) 95,65 %
02.07.2018 14:47 22,9 C 22,2 C 36 % 1013,2 hPa 0,0 l/m 1,3 km/h (1 Bft) NO 40 1 min 0,000 mm 5,6 UV-I 852 W/m 7,0 C 22,9 C 4,8 km/h (1 Bft) 100,00 %
02.07.2018 14:48 22,8 C 22,2 C 40 % 1013,2 hPa 0,0 l/m 1,2 km/h (1 Bft) NO 46 1 min 0,000 mm 5,6 UV-I 851 W/m 8,5 C 22,8 C 1,6 km/h (1 Bft) 100,00 %
02.07.2018 14:49 22,8 C 22,2 C 39 % 1013,2 hPa 0,0 l/m 5,0 km/h (1 Bft) N-NO 24 1 min 0,000 mm 5,6 UV-I 847 W/m 8,1 C 22,8 C 6,4 km/h (2 Bft) 100,00 %
02.07.2018 14:50 22,8 C 22,2 C 36 % 1013,2 hPa 0,0 l/m 2,1 km/h (1 Bft) N-NO 24 1 min 0,000 mm 5,6 UV-I 849 W/m 6,9 C 22,8 C 4,8 km/h (1 Bft) 100,00 %
02.07.2018 14:51 22,8 C 22,2 C 34 % 1013,2 hPa 0,0 l/m 3,4 km/h (1 Bft) N-NO 30 1 min 0,000 mm 5,6 UV-I 848 W/m 6,1 C 22,8 C 4,8 km/h (1 Bft) 100,00 %
02.07.2018 14:52 22,8 C 22,2 C 34 % 1013,2 hPa 0,0 l/m 3,5 km/h (1 Bft) S-SO 155 1 min 0,000 mm 4,7 UV-I 847 W/m 6,1 C 22,8 C 6,4 km/h (2 Bft) 100,00 %
02.07.2018 14:53 22,7 C 22,2 C 35 % 1013,2 hPa 0,0 l/m 4,0 km/h (1 Bft) SO 138 1 min 0,000 mm 4,4 UV-I 846 W/m 6,4 C 22,7 C 6,4 km/h (2 Bft) 100,00 %
02.07.2018 14:54 22,8 C 22,2 C 41 % 1013,2 hPa 0,0 l/m 2,5 km/h (1 Bft) S-SO 156 1 min 0,000 mm 5,5 UV-I 844 W/m 8,9 C 22,8 C 4,8 km/h (1 Bft) 95,83 %
02.07.2018 14:55 22,8 C 22,2 C 36 % 1013,2 hPa 0,0 l/m 4,2 km/h (1 Bft) W 275 1 min 0,000 mm 5,5 UV-I 840 W/m 6,9 C 22,8 C 4,8 km/h (1 Bft) 100,00 %
02.07.2018 14:56 22,8 C 22,2 C 35 % 1013,2 hPa 0,0 l/m 3,9 km/h (1 Bft) W-SW 257 1 min 0,000 mm 5,5 UV-I 839 W/m 6,5 C 22,8 C 6,4 km/h (2 Bft) 100,00 %
02.07.2018 14:57 22,9 C 22,2 C 35 % 1013,2 hPa 0,0 l/m 2,5 km/h (1 Bft) N 11 1 min 0,000 mm 5,4 UV-I 835 W/m 6,6 C 22,9 C 4,8 km/h (1 Bft) 100,00 %
02.07.2018 14:58 23,1 C 22,2 C 38 % 1013,2 hPa 0,0 l/m 9,1 km/h (2 Bft) SO 131 1 min 0,000 mm 5,4 UV-I 829 W/m 8,0 C 22,3 C 16,1 km/h (3 Bft) 100,00 %
02.07.2018 14:59 23,1 C 22,2 C 35 % 1013,2 hPa 0,0 l/m 8,1 km/h (2 Bft) N 350 1 min 0,000 mm 5,4 UV-I 829 W/m 6,8 C 22,6 C 12,9 km/h (3 Bft) 100,00 %
02.07.2018 15:00 23,2 C 22,2 C 40 % 1013,2 hPa 0,0 l/m 6,4 km/h (2 Bft) O-NO 63 1 min 0,584 mm 5,3 UV-I 828 W/m 8,8 C 23,2 C 8,0 km/h (2 Bft) 100,00 %
02.07.2018 15:01 23,3 C 22,2 C 39 % 1013,2 hPa 0,0 l/m 6,3 km/h (2 Bft) NO 38 1 min 0,000 mm 5,3 UV-I 826 W/m 8,6 C 23,3 C 8,0 km/h (2 Bft) 100,00 %
02.07.2018 15:02 23,4 C 22,2 C 38 % 1013,2 hPa 0,0 l/m 11,4 km/h (2 Bft) NO 38 1 min 0,000 mm 5,3 UV-I 817 W/m 8,3 C 22,1 C 14,5 km/h (3 Bft) 97,37 %
02.07.2018 15:03 23,6 C 22,2 C 40 % 1013,2 hPa 0,0 l/m 8,9 km/h (2 Bft) N-NO 31 1 min 0,000 mm 5,0 UV-I 793 W/m 9,2 C 22,9 C 12,9 km/h (3 Bft) 100,00 %
02.07.2018 15:04 23,8 C 22,2 C 38 % 1013,2 hPa 0,0 l/m 8,4 km/h (2 Bft) N-NO 26 1 min 0,000 mm 4,4 UV-I 825 W/m 8,6 C 23,2 C 12,9 km/h (3 Bft) 100,00 %
02.07.2018 15:05 23,9 C 22,2 C 40 % 1013,2 hPa 0,0 l/m 8,7 km/h (2 Bft) NO 34 1 min 0,000 mm 5,2 UV-I 824 W/m 9,5 C 23,3 C 11,3 km/h (2 Bft) 100,00 %
02.07.2018 15:06 23,8 C 22,2 C 38 % 1013,3 hPa 0,0 l/m 10,6 km/h (2 Bft) N 355 1 min 0,000 mm 5,2 UV-I 822 W/m 8,6 C 22,7 C 14,5 km/h (3 Bft) 100,00 %
02.07.2018 15:07 23,7 C 22,2 C 37 % 1013,2 hPa 0,0 l/m 10,7 km/h (2 Bft) NO 56 1 min 0,000 mm 5,2 UV-I 821 W/m 8,1 C 22,6 C 16,1 km/h (3 Bft) 100,00 %
02.07.2018 15:08 23,6 C 22,2 C 36 % 1013,3 hPa 0,0 l/m 9,0 km/h (2 Bft) N 9 1 min 0,000 mm 5,0 UV-I 820 W/m 7,6 C 22,9 C 14,5 km/h (3 Bft) 100,00 %
02.07.2018 15:09 23,5 C 22,2 C 40 % 1013,2 hPa 0,0 l/m 9,1 km/h (2 Bft) N-NW 334 1 min 0,000 mm 3,5 UV-I 819 W/m 9,1 C 22,7 C 12,9 km/h (3 Bft) 100,00 %
02.07.2018 15:10 23,4 C 22,2 C 36 % 1013,2 hPa 0,0 l/m 6,0 km/h (2 Bft) W-NW 291 1 min 0,000 mm 5,1 UV-I 814 W/m 7,5 C 23,4 C 8,0 km/h (2 Bft) 90,91 %
02.07.2018 15:11 23,4 C 22,2 C 38 % 1013,2 hPa 0,0 l/m 4,6 km/h (1 Bft) N 5 1 min 0,000 mm 5,1 UV-I 811 W/m 8,3 C 23,4 C 6,4 km/h (2 Bft) 100,00 %
02.07.2018 15:12 23,6 C 22,2 C 41 % 1013,2 hPa 0,0 l/m 5,2 km/h (1 Bft) N-NO 16 1 min 0,000 mm 5,1 UV-I 809 W/m 9,6 C 23,6 C 6,4 km/h (2 Bft) 100,00 %
02.07.2018 15:13 23,5 C 22,2 C 35 % 1013,2 hPa 0,0 l/m 3,2 km/h (1 Bft) N-NO 30 1 min 0,000 mm 5,0 UV-I 809 W/m 7,1 C 23,5 C 3,2 km/h (1 Bft) 100,00 %
02.07.2018 15:14 23,4 C 22,2 C 36 % 1013,2 hPa 0,0 l/m 2,9 km/h (1 Bft) SO 131 1 min 0,000 mm 5,0 UV-I 808 W/m 7,5 C 23,4 C 8,0 km/h (2 Bft) 100,00 %
02.07.2018 15:15 23,3 C 22,2 C 34 % 1013,2 hPa 0,0 l/m 4,6 km/h (1 Bft) NO 36 1 min 0,000 mm 5,0 UV-I 804 W/m 6,6 C 23,3 C 9,7 km/h (2 Bft) 100,00 %
02.07.2018 15:16 23,3 C 22,2 C 35 % 1013,2 hPa 0,0 l/m 12,3 km/h (3 Bft) O 82 1 min 0,000 mm 5,0 UV-I 803 W/m 7,0 C 21,8 C 17,7 km/h (3 Bft) 100,00 %
02.07.2018 15:17 23,3 C 22,2 C 33 % 1013,2 hPa 0,0 l/m 12,0 km/h (2 Bft) O-SO 123 1 min 0,000 mm 5,0 UV-I 803 W/m 6,1 C 21,8 C 16,1 km/h (3 Bft) 97,56 %
02.07.2018 15:18 23,3 C 22,2 C 36 % 1013,2 hPa 0,0 l/m 10,5 km/h (2 Bft) O 84 1 min 0,000 mm 5,0 UV-I 800 W/m 7,4 C 22,2 C 14,5 km/h (3 Bft) 100,00 %
02.07.2018 15:19 23,3 C 22,2 C 35 % 1013,2 hPa 0,0 l/m 9,0 km/h (2 Bft) NO 55 1 min 0,000 mm 5,0 UV-I 803 W/m 7,0 C 22,5 C 14,5 km/h (3 Bft) 96,30 %
02.07.2018 15:20 23,5 C 22,2 C 37 % 1013,1 hPa 0,0 l/m 9,3 km/h (2 Bft) NO 44 1 min 0,000 mm 4,9 UV-I 800 W/m 8,0 C 22,7 C 12,9 km/h (3 Bft) 100,00 %
02.07.2018 15:21 23,6 C 22,2 C 39 % 1013,1 hPa 0,0 l/m 9,1 km/h (2 Bft) O-NO 77 1 min 0,000 mm 4,9 UV-I 798 W/m 8,8 C 22,8 C 12,9 km/h (3 Bft) 100,00 %
02.07.2018 15:22 23,8 C 22,2 C 37 % 1013,2 hPa 0,0 l/m 10,8 km/h (2 Bft) O-NO 62 1 min 0,000 mm 3,9 UV-I 796 W/m 8,2 C 22,7 C 14,5 km/h (3 Bft) 100,00 %
02.07.2018 15:23 23,8 C 22,2 C 33 % 1013,2 hPa 0,0 l/m 6,8 km/h (2 Bft) O-SO 115 1 min 0,000 mm 3,8 UV-I 795 W/m 6,6 C 23,7 C 12,9 km/h (3 Bft) 100,00 %
02.07.2018 15:24 23,7 C 22,2 C 32 % 1013,2 hPa 0,0 l/m 2,3 km/h (1 Bft) O 92 1 min 0,000 mm 4,8 UV-I 798 W/m 6,0 C 23,7 C 4,8 km/h (1 Bft) 96,15 %
02.07.2018 15:25 23,6 C 22,2 C 33 % 1013,2 hPa 0,0 l/m 7,1 km/h (2 Bft) O-NO 72 1 min 0,000 mm 4,8 UV-I 791 W/m 6,4 C 23,4 C 12,9 km/h (3 Bft) 100,00 %
02.07.2018 15:26 23,6 C 22,2 C 33 % 1013,2 hPa 0,0 l/m 9,8 km/h (2 Bft) O-NO 67 1 min 0,000 mm 4,8 UV-I 789 W/m 6,4 C 22,7 C 14,5 km/h (3 Bft) 100,00 %
02.07.2018 15:28 23,5 C 22,2 C 35 % 1013,2 hPa 0,0 l/m 7,8 km/h (2 Bft) NO 55 2 min 0,000 mm 4,8 UV-I 786 W/m 7,1 C 23,1 C 14,5 km/h (3 Bft) 98,11 %
02.07.2018 15:29 23,5 C 22,2 C 36 % 1013,2 hPa 0,0 l/m 5,9 km/h (2 Bft) NO 53 1 min 0,000 mm 4,7 UV-I 780 W/m 7,6 C 23,5 C 8,0 km/h (2 Bft) 96,15 %
02.07.2018 15:30 23,4 C 22,2 C 32 % 1013,2 hPa 0,0 l/m 3,3 km/h (1 Bft) O-NO 63 1 min 0,000 mm 4,7 UV-I 780 W/m 5,8 C 23,4 C 6,4 km/h (2 Bft) 100,00 %
02.07.2018 15:31 23,3 C 22,2 C 34 % 1013,2 hPa 0,0 l/m 1,1 km/h (1 Bft) O-NO 63 1 min 0,000 mm 3,0 UV-I 779 W/m 6,6 C 23,3 C 3,2 km/h (1 Bft) 95,65 %
02.07.2018 15:32 23,3 C 22,2 C 35 % 1013,2 hPa 0,0 l/m 2,3 km/h (1 Bft) O-SO 105 1 min 0,000 mm 4,7 UV-I 777 W/m 7,0 C 23,3 C 4,8 km/h (1 Bft) 95,83 %
02.07.2018 15:33 23,3 C 22,2 C 33 % 1013,2 hPa 0,0 l/m 6,6 km/h (2 Bft) O-NO 71 1 min 0,000 mm 4,7 UV-I 778 W/m 6,1 C 23,2 C 11,3 km/h (2 Bft) 91,30 %
02.07.2018 15:34 23,3 C 22,2 C 32 % 1013,2 hPa 0,0 l/m 10,7 km/h (2 Bft) O-SO 103 1 min 0,000 mm 4,7 UV-I 776 W/m 5,7 C 22,1 C 14,5 km/h (3 Bft) 95,83 %
02.07.2018 15:35 23,4 C 22,2 C 34 % 1013,3 hPa 0,0 l/m 3,1 km/h (1 Bft) O-SO 103 1 min 0,000 mm 4,6 UV-I 775 W/m 6,6 C 23,4 C 6,4 km/h (2 Bft) 100,00 %
02.07.2018 15:36 23,3 C 22,2 C 32 % 1013,3 hPa 0,0 l/m 3,0 km/h (1 Bft) O 98 1 min 0,000 mm 4,6 UV-I 772 W/m 5,7 C 23,3 C 4,8 km/h (1 Bft) 95,83 %
02.07.2018 15:37 23,3 C 22,2 C 32 % 1013,2 hPa 0,0 l/m 4,0 km/h (1 Bft) O-SO 105 1 min 0,000 mm 4,6 UV-I 771 W/m 5,7 C 23,3 C 4,8 km/h (1 Bft) 100,00 %
02.07.2018 15:38 23,3 C 22,2 C 30 % 1013,2 hPa 0,0 l/m 3,5 km/h (1 Bft) O-SO 108 1 min 0,000 mm 4,6 UV-I 767 W/m 4,7 C 23,3 C 4,8 km/h (1 Bft) 96,15 %
02.07.2018 15:39 23,3 C 22,2 C 31 % 1013,2 hPa 0,0 l/m 0,6 km/h (0 Bft) O-SO 108 1 min 0,000 mm 4,5 UV-I 766 W/m 5,2 C 23,3 C 1,6 km/h (1 Bft) 100,00 %
02.07.2018 15:40 23,3 C 22,2 C 30 % 1013,2 hPa 0,0 l/m 3,9 km/h (1 Bft) W-SW 244 1 min 0,000 mm 4,5 UV-I 764 W/m 4,7 C 23,3 C 4,8 km/h (1 Bft) 96,15 %
02.07.2018 15:41 23,3 C 22,2 C 35 % 1013,2 hPa 0,0 l/m 1,5 km/h (1 Bft) W-SW 244 1 min 0,000 mm 4,5 UV-I 761 W/m 7,0 C 23,3 C 3,2 km/h (1 Bft) 100,00 %
02.07.2018 15:42 23,3 C 22,2 C 34 % 1013,2 hPa 0,0 l/m 1,3 km/h (1 Bft) S-SO 157 1 min 0,000 mm 4,4 UV-I 759 W/m 6,6 C 23,3 C 3,2 km/h (1 Bft) 95,65 %
02.07.2018 15:43 23,4 C 22,2 C 32 % 1013,1 hPa 0,0 l/m 6,0 km/h (2 Bft) S-SO 161 1 min 0,000 mm 4,4 UV-I 758 W/m 5,8 C 23,4 C 8,0 km/h (2 Bft) 95,83 %
02.07.2018 15:44 23,3 C 22,2 C 31 % 1013,1 hPa 0,0 l/m 6,7 km/h (2 Bft) S 176 1 min 0,000 mm 4,4 UV-I 756 W/m 5,2 C 23,2 C 9,7 km/h (2 Bft) 100,00 %
02.07.2018 15:45 23,2 C 22,2 C 31 % 1013,2 hPa 0,0 l/m 3,1 km/h (1 Bft) S 178 1 min 0,000 mm 4,4 UV-I 756 W/m 5,1 C 23,2 C 6,4 km/h (2 Bft) 95,83 %
02.07.2018 15:46 23,2 C 22,2 C 36 % 1013,1 hPa 0,0 l/m 3,4 km/h (1 Bft) S-SW 213 1 min 0,000 mm 4,3 UV-I 753 W/m 7,3 C 23,2 C 8,0 km/h (2 Bft) 100,00 %
02.07.2018 15:47 23,3 C 22,2 C 32 % 1013,1 hPa 0,0 l/m 6,3 km/h (2 Bft) W-SW 239 1 min 0,000 mm 3,7 UV-I 752 W/m 5,7 C 23,3 C 8,0 km/h (2 Bft) 96,77 %
02.07.2018 15:48 23,4 C 22,2 C 34 % 1013,1 hPa 0,0 l/m 6,0 km/h (2 Bft) S-SW 207 1 min 0,000 mm 4,1 UV-I 751 W/m 6,6 C 23,4 C 8,0 km/h (2 Bft) 100,00 %
02.07.2018 15:49 23,6 C 22,2 C 32 % 1013,1 hPa 0,0 l/m 5,2 km/h (1 Bft) SW 225 1 min 0,000 mm 4,3 UV-I 748 W/m 5,9 C 23,6 C 8,0 km/h (2 Bft) 91,67 %
02.07.2018 15:50 23,6 C 22,2 C 32 % 1013,1 hPa 0,0 l/m 3,9 km/h (1 Bft) SW 230 1 min 0,000 mm 4,3 UV-I 746 W/m 5,9 C 23,6 C 4,8 km/h (1 Bft) 100,00 %
02.07.2018 15:51 23,5 C 22,2 C 33 % 1013,1 hPa 0,0 l/m 3,9 km/h (1 Bft) SW 231 1 min 0,000 mm 4,2 UV-I 745 W/m 6,3 C 23,5 C 4,8 km/h (1 Bft) 96,67 %
02.07.2018 15:52 23,6 C 22,2 C 33 % 1013,1 hPa 0,0 l/m 3,3 km/h (1 Bft) S-SW 206 1 min 0,000 mm 3,7 UV-I 744 W/m 6,4 C 23,6 C 6,4 km/h (2 Bft) 95,65 %
02.07.2018 15:53 23,6 C 22,2 C 33 % 1013,1 hPa 0,0 l/m 4,0 km/h (1 Bft) W-NW 284 1 min 0,000 mm 3,9 UV-I 741 W/m 6,4 C 23,6 C 6,4 km/h (2 Bft) 100,00 %
02.07.2018 15:54 23,7 C 22,2 C 33 % 1013,1 hPa 0,0 l/m 5,6 km/h (1 Bft) NO 41 1 min 0,000 mm 4,2 UV-I 740 W/m 6,5 C 23,7 C 8,0 km/h (2 Bft) 96,15 %
02.07.2018 15:55 23,7 C 22,2 C 34 % 1013,2 hPa 0,0 l/m 8,4 km/h (2 Bft) O-NO 59 1 min 0,000 mm 4,1 UV-I 738 W/m 6,9 C 23,1 C 11,3 km/h (2 Bft) 100,00 %
02.07.2018 15:56 23,6 C 22,2 C 33 % 1013,2 hPa 0,0 l/m 5,9 km/h (2 Bft) O 82 1 min 0,000 mm 4,1 UV-I 736 W/m 6,4 C 23,6 C 8,0 km/h (2 Bft) 96,88 %
02.07.2018 15:57 23,7 C 22,2 C 34 % 1013,2 hPa 0,0 l/m 6,4 km/h (2 Bft) O-NO 78 1 min 0,000 mm 4,1 UV-I 734 W/m 6,9 C 23,7 C 9,7 km/h (2 Bft) 100,00 %
02.07.2018 15:58 23,8 C 22,2 C 35 % 1013,1 hPa 0,0 l/m 3,6 km/h (1 Bft) O-NO 76 1 min 0,000 mm 4,0 UV-I 731 W/m 7,4 C 23,8 C 6,4 km/h (2 Bft) 96,15 %
02.07.2018 15:59 23,8 C 22,2 C 32 % 1013,1 hPa 0,0 l/m 1,3 km/h (1 Bft) O 96 1 min 0,000 mm 4,0 UV-I 728 W/m 6,1 C 23,8 C 3,2 km/h (1 Bft) 100,00 %
02.07.2018 16:00 23,8 C 22,2 C 34 % 1013,1 hPa 0,0 l/m 4,5 km/h (1 Bft) NO 34 1 min 0,000 mm 4,0 UV-I 726 W/m 7,0 C 23,8 C 6,4 km/h (2 Bft) 100,00 %
02.07.2018 16:01 23,9 C 22,2 C 34 % 1013,1 hPa 0,0 l/m 7,1 km/h (2 Bft) N-NO 28 1 min 0,534 mm 4,0 UV-I 724 W/m 7,1 C 23,7 C 9,7 km/h (2 Bft) 100,00 %
02.07.2018 16:02 24,1 C 22,2 C 39 % 1013,1 hPa 0,0 l/m 9,4 km/h (2 Bft) NO 39 1 min 0,000 mm 4,0 UV-I 724 W/m 9,3 C 23,3 C 11,3 km/h (2 Bft) 100,00 %
02.07.2018 16:03 24,1 C 22,2 C 40 % 1013,1 hPa 0,0 l/m 10,7 km/h (2 Bft) NO 45 1 min 0,000 mm 3,9 UV-I 719 W/m 9,6 C 23,0 C 14,5 km/h (3 Bft) 100,00 %
02.07.2018 16:04 24,1 C 22,2 C 33 % 1013,1 hPa 0,0 l/m 9,2 km/h (2 Bft) NO 51 1 min 0,000 mm 3,9 UV-I 715 W/m 6,8 C 23,4 C 12,9 km/h (3 Bft) 100,00 %
02.07.2018 16:05 24,1 C 22,2 C 34 % 1013,1 hPa 0,0 l/m 9,5 km/h (2 Bft) NO 44 1 min 0,000 mm 3,8 UV-I 712 W/m 7,2 C 23,3 C 12,9 km/h (3 Bft) 100,00 %
02.07.2018 16:06 24,1 C 22,2 C 35 % 1013,1 hPa 0,0 l/m 10,4 km/h (2 Bft) O 86 1 min 0,000 mm 3,8 UV-I 709 W/m 7,7 C 23,1 C 14,5 km/h (3 Bft) 100,00 %
02.07.2018 16:07 24,0 C 22,2 C 35 % 1013,1 hPa 0,0 l/m 8,1 km/h (2 Bft) O 83 1 min 0,000 mm 3,8 UV-I 706 W/m 7,6 C 23,5 C 11,3 km/h (2 Bft) 100,00 %
02.07.2018 16:08 23,9 C 22,2 C 33 % 1013,1 hPa 0,0 l/m 3,2 km/h (1 Bft) O 80 1 min 0,000 mm 3,8 UV-I 705 W/m 6,6 C 23,9 C 4,8 km/h (1 Bft) 100,00 %
02.07.2018 16:09 23,8 C 22,2 C 31 % 1013,1 hPa 0,0 l/m 3,6 km/h (1 Bft) O-NO 69 1 min 0,000 mm 3,8 UV-I 702 W/m 5,6 C 23,8 C 4,8 km/h (1 Bft) 96,55 %
02.07.2018 16:10 23,9 C 22,2 C 34 % 1013,0 hPa 0,0 l/m 8,4 km/h (2 Bft) O-NO 70 1 min 0,000 mm 3,7 UV-I 700 W/m 7,1 C 23,3 C 14,5 km/h (3 Bft) 100,00 %
02.07.2018 16:11 24,1 C 22,2 C 36 % 1013,0 hPa 0,0 l/m 10,5 km/h (2 Bft) O-NO 62 1 min 0,000 mm 3,7 UV-I 698 W/m 8,1 C 23,1 C 12,9 km/h (3 Bft) 100,00 %
02.07.2018 16:12 24,1 C 22,8 C 33 % 1013,0 hPa 0,0 l/m 9,5 km/h (2 Bft) O-NO 63 1 min 0,000 mm 3,7 UV-I 697 W/m 6,8 C 23,3 C 12,9 km/h (3 Bft) 100,00 %
02.07.2018 16:13 24,2 C 22,8 C 35 % 1013,0 hPa 0,0 l/m 5,8 km/h (2 Bft) O-NO 67 1 min 0,000 mm 3,7 UV-I 694 W/m 7,8 C 24,2 C 8,0 km/h (2 Bft) 100,00 %
02.07.2018 16:14 24,1 C 22,8 C 31 % 1013,0 hPa 0,0 l/m 7,6 km/h (2 Bft) O-NO 59 1 min 0,000 mm 3,6 UV-I 692 W/m 5,9 C 23,8 C 14,5 km/h (3 Bft) 100,00 %
02.07.2018 16:15 24,1 C 22,8 C 33 % 1013,0 hPa 0,0 l/m 3,4 km/h (1 Bft) O-NO 59 1 min 0,000 mm 3,6 UV-I 690 W/m 6,8 C 24,1 C 6,4 km/h (2 Bft) 100,00 %
02.07.2018 16:16 24,2 C 22,8 C 35 % 1013,0 hPa 0,0 l/m 7,0 km/h (2 Bft) O-NO 71 1 min 0,000 mm 3,0 UV-I 684 W/m 7,8 C 24,0 C 9,7 km/h (2 Bft) 100,00 %
02.07.2018 16:17 24,3 C 22,8 C 35 % 1013,0 hPa 0,0 l/m 8,4 km/h (2 Bft) O-SO 113 1 min 0,000 mm 3,2 UV-I 680 W/m 7,8 C 23,8 C 11,3 km/h (2 Bft) 100,00 %
02.07.2018 16:18 24,3 C 22,8 C 31 % 1013,0 hPa 0,0 l/m 7,4 km/h (2 Bft) O-SO 104 1 min 0,000 mm 3,2 UV-I 685 W/m 6,1 C 24,0 C 11,3 km/h (2 Bft) 100,00 %
02.07.2018 16:19 24,3 C 22,8 C 31 % 1013,0 hPa 0,0 l/m 3,9 km/h (1 Bft) SO 138 1 min 0,000 mm 2,6 UV-I 682 W/m 6,1 C 24,3 C 4,8 km/h (1 Bft) 100,00 %
02.07.2018 16:20 24,1 C 22,8 C 30 % 1013,0 hPa 0,0 l/m 2,6 km/h (1 Bft) S-SO 148 1 min 0,000 mm 3,5 UV-I 681 W/m 5,4 C 24,1 C 3,2 km/h (1 Bft) 100,00 %
02.07.2018 16:21 23,9 C 22,8 C 29 % 1013,0 hPa 0,0 l/m 3,6 km/h (1 Bft) SO 142 1 min 0,000 mm 3,5 UV-I 678 W/m 4,8 C 23,9 C 4,8 km/h (1 Bft) 100,00 %
02.07.2018 16:22 23,7 C 22,8 C 30 % 1013,0 hPa 0,0 l/m 2,2 km/h (1 Bft) N-NO 15 1 min 0,000 mm 3,5 UV-I 677 W/m 5,1 C 23,7 C 4,8 km/h (1 Bft) 100,00 %
02.07.2018 16:23 23,8 C 22,8 C 35 % 1013,0 hPa 0,0 l/m 7,3 km/h (2 Bft) NO 45 1 min 0,000 mm 3,4 UV-I 675 W/m 7,4 C 23,5 C 9,7 km/h (2 Bft) 100,00 %
02.07.2018 16:24 23,9 C 22,8 C 35 % 1013,0 hPa 0,0 l/m 6,0 km/h (2 Bft) O-NO 61 1 min 0,000 mm 3,4 UV-I 674 W/m 7,5 C 23,9 C 9,7 km/h (2 Bft) 100,00 %
02.07.2018 16:25 23,9 C 22,8 C 31 % 1013,0 hPa 0,0 l/m 3,6 km/h (1 Bft) O-NO 69 1 min 0,000 mm 3,2 UV-I 670 W/m 5,7 C 23,9 C 6,4 km/h (2 Bft) 100,00 %
02.07.2018 16:26 24,0 C 22,8 C 32 % 1012,9 hPa 0,0 l/m 6,0 km/h (2 Bft) NO 53 1 min 0,000 mm 2,8 UV-I 667 W/m 6,3 C 24,0 C 11,3 km/h (2 Bft) 100,00 %
02.07.2018 16:27 24,1 C 22,8 C 36 % 1013,0 hPa 0,0 l/m 6,9 km/h (2 Bft) O-NO 59 1 min 0,000 mm 3,3 UV-I 664 W/m 8,1 C 24,0 C 9,7 km/h (2 Bft) 100,00 %
02.07.2018 16:28 24,2 C 22,8 C 34 % 1012,9 hPa 0,0 l/m 5,6 km/h (1 Bft) O 80 1 min 0,000 mm 3,3 UV-I 661 W/m 7,3 C 24,2 C 8,0 km/h (2 Bft) 100,00 %
02.07.2018 16:29 24,2 C 22,8 C 29 % 1012,9 hPa 0,0 l/m 5,5 km/h (1 Bft) O-SO 107 1 min 0,000 mm 3,2 UV-I 657 W/m 5,0 C 24,2 C 9,7 km/h (2 Bft) 100,00 %
02.07.2018 16:30 24,1 C 22,8 C 30 % 1012,9 hPa 0,0 l/m 3,9 km/h (1 Bft) O 101 1 min 0,000 mm 3,2 UV-I 651 W/m 5,4 C 24,1 C 6,4 km/h (2 Bft) 100,00 %
02.07.2018 16:31 24,0 C 22,8 C 32 % 1012,9 hPa 0,0 l/m 1,9 km/h (1 Bft) O 101 1 min 0,000 mm 3,2 UV-I 650 W/m 6,3 C 24,0 C 4,8 km/h (1 Bft) 100,00 %
02.07.2018 16:32 23,9 C 22,8 C 30 % 1012,9 hPa 0,0 l/m 4,2 km/h (1 Bft) NO 49 1 min 0,000 mm 3,2 UV-I 650 W/m 5,3 C 23,9 C 6,4 km/h (2 Bft) 100,00 %
02.07.2018 16:33 24,0 C 22,8 C 34 % 1012,9 hPa 0,0 l/m 5,5 km/h (1 Bft) N-NO 15 1 min 0,000 mm 3,1 UV-I 643 W/m 7,2 C 24,0 C 8,0 km/h (2 Bft) 97,37 %
02.07.2018 16:34 24,1 C 22,8 C 32 % 1012,9 hPa 0,0 l/m 4,8 km/h (1 Bft) N-NO 26 1 min 0,000 mm 3,1 UV-I 643 W/m 6,4 C 24,1 C 6,4 km/h (2 Bft) 100,00 %
02.07.2018 16:35 24,1 C 22,8 C 30 % 1012,9 hPa 0,0 l/m 2,9 km/h (1 Bft) N-NO 26 1 min 0,000 mm 3,1 UV-I 645 W/m 5,4 C 24,1 C 4,8 km/h (1 Bft) 96,15 %
02.07.2018 16:36 24,2 C 22,8 C 33 % 1012,9 hPa 0,0 l/m 7,6 km/h (2 Bft) N 9 1 min 0,000 mm 3,1 UV-I 645 W/m 6,9 C 23,9 C 9,7 km/h (2 Bft) 100,00 %
02.07.2018 16:38 24,2 C 22,8 C 31 % 1012,9 hPa 0,0 l/m 5,6 km/h (1 Bft) N-NO 30 2 min 0,000 mm 3,1 UV-I 635 W/m 6,0 C 24,2 C 9,7 km/h (2 Bft) 97,78 %
02.07.2018 16:39 24,1 C 22,8 C 29 % 1012,9 hPa 0,0 l/m 3,1 km/h (1 Bft) N-NO 30 1 min 0,000 mm 3,0 UV-I 626 W/m 4,9 C 24,1 C 3,2 km/h (1 Bft) 94,44 %
02.07.2018 16:40 24,1 C 22,8 C 31 % 1012,9 hPa 0,0 l/m 2,5 km/h (1 Bft) N-NO 32 1 min 0,000 mm 3,0 UV-I 626 W/m 5,9 C 24,1 C 3,2 km/h (1 Bft) 100,00 %
02.07.2018 16:41 24,2 C 22,8 C 35 % 1012,9 hPa 0,0 l/m 4,0 km/h (1 Bft) N-NO 17 1 min 0,000 mm 3,0 UV-I 631 W/m 7,8 C 24,2 C 6,4 km/h (2 Bft) 95,65 %
02.07.2018 16:42 24,3 C 22,8 C 31 % 1012,9 hPa 0,0 l/m 7,1 km/h (2 Bft) NO 37 1 min 0,000 mm 3,0 UV-I 630 W/m 6,1 C 24,1 C 12,9 km/h (3 Bft) 100,00 %
02.07.2018 16:43 24,4 C 22,8 C 33 % 1012,9 hPa 0,0 l/m 9,6 km/h (2 Bft) W-NW 285 1 min 0,000 mm 3,0 UV-I 628 W/m 7,1 C 23,6 C 14,5 km/h (3 Bft) 95,65 %
02.07.2018 16:44 24,6 C 22,8 C 32 % 1012,9 hPa 0,0 l/m 5,8 km/h (2 Bft) N 5 1 min 0,000 mm 2,9 UV-I 626 W/m 6,8 C 24,6 C 8,0 km/h (2 Bft) 100,00 %
02.07.2018 16:45 24,6 C 22,8 C 32 % 1012,9 hPa 0,0 l/m 5,6 km/h (1 Bft) N-NO 19 1 min 0,000 mm 2,9 UV-I 623 W/m 6,8 C 24,6 C 8,0 km/h (2 Bft) 96,15 %
02.07.2018 16:46 24,6 C 22,8 C 33 % 1012,9 hPa 0,0 l/m 4,8 km/h (1 Bft) W-SW 243 1 min 0,000 mm 2,9 UV-I 619 W/m 7,2 C 24,6 C 8,0 km/h (2 Bft) 95,83 %
02.07.2018 16:47 24,6 C 22,8 C 29 % 1012,9 hPa 0,0 l/m 5,8 km/h (2 Bft) NW 309 1 min 0,000 mm 2,8 UV-I 618 W/m 5,4 C 24,6 C 8,0 km/h (2 Bft) 100,00 %
02.07.2018 16:48 24,4 C 22,8 C 28 % 1012,9 hPa 0,0 l/m 3,6 km/h (1 Bft) N-NO 21 1 min 0,000 mm 2,8 UV-I 615 W/m 4,7 C 24,4 C 4,8 km/h (1 Bft) 96,30 %
02.07.2018 16:49 24,3 C 22,8 C 29 % 1012,9 hPa 0,0 l/m 5,1 km/h (1 Bft) NO 50 1 min 0,000 mm 2,8 UV-I 612 W/m 5,1 C 24,3 C 6,4 km/h (2 Bft) 100,00 %
02.07.2018 16:50 24,3 C 22,8 C 35 % 1012,9 hPa 0,0 l/m 5,2 km/h (1 Bft) O-NO 64 1 min 0,000 mm 2,8 UV-I 607 W/m 7,8 C 24,3 C 8,0 km/h (2 Bft) 96,30 %
02.07.2018 16:51 24,4 C 22,8 C 33 % 1012,9 hPa 0,0 l/m 4,9 km/h (1 Bft) NO 34 1 min 0,000 mm 2,7 UV-I 608 W/m 7,1 C 24,4 C 6,4 km/h (2 Bft) 96,15 %
02.07.2018 16:52 24,5 C 22,8 C 35 % 1013,0 hPa 0,0 l/m 7,3 km/h (2 Bft) N 9 1 min 0,000 mm 2,7 UV-I 606 W/m 8,0 C 24,3 C 9,7 km/h (2 Bft) 95,83 %
02.07.2018 16:53 24,7 C 22,8 C 36 % 1013,0 hPa 0,0 l/m 6,0 km/h (2 Bft) N-NO 32 1 min 0,000 mm 2,7 UV-I 603 W/m 8,6 C 24,7 C 8,0 km/h (2 Bft) 92,31 %
02.07.2018 16:54 24,7 C 22,8 C 32 % 1012,9 hPa 0,0 l/m 5,7 km/h (1 Bft) NO 35 1 min 0,000 mm 2,7 UV-I 601 W/m 6,9 C 24,7 C 6,4 km/h (2 Bft) 100,00 %
02.07.2018 16:55 24,7 C 22,8 C 36 % 1012,9 hPa 0,0 l/m 3,8 km/h (1 Bft) NW 323 1 min 0,000 mm 2,7 UV-I 598 W/m 8,6 C 24,7 C 4,8 km/h (1 Bft) 100,00 %
02.07.2018 16:56 24,7 C 22,8 C 37 % 1012,9 hPa 0,0 l/m 4,4 km/h (1 Bft) NW 316 1 min 0,000 mm 2,7 UV-I 596 W/m 9,0 C 24,7 C 6,4 km/h (2 Bft) 91,30 %
02.07.2018 16:57 24,7 C 22,8 C 30 % 1012,9 hPa 0,0 l/m 4,6 km/h (1 Bft) N-NO 31 1 min 0,000 mm 2,6 UV-I 594 W/m 6,0 C 24,7 C 6,4 km/h (2 Bft) 96,30 %
02.07.2018 16:58 24,6 C 22,8 C 29 % 1012,9 hPa 0,0 l/m 4,2 km/h (1 Bft) N-NO 17 1 min 0,000 mm 2,6 UV-I 591 W/m 5,4 C 24,6 C 4,8 km/h (1 Bft) 95,65 %
02.07.2018 16:59 24,6 C 22,8 C 31 % 1013,0 hPa 0,0 l/m 5,9 km/h (2 Bft) N-NW 329 1 min 0,000 mm 2,6 UV-I 586 W/m 6,3 C 24,6 C 8,0 km/h (2 Bft) 96,30 %
02.07.2018 17:00 24,4 C 22,8 C 29 % 1012,9 hPa 0,0 l/m 3,9 km/h (1 Bft) NW 313 1 min 0,000 mm 2,5 UV-I 583 W/m 5,2 C 24,4 C 6,4 km/h (2 Bft) 100,00 %
02.07.2018 17:01 24,4 C 22,8 C 30 % 1013,0 hPa 0,0 l/m 5,0 km/h (1 Bft) NW 318 1 min 0,457 mm 2,5 UV-I 581 W/m 5,7 C 24,4 C 6,4 km/h (2 Bft) 96,30 %
02.07.2018 17:02 24,4 C 22,8 C 29 % 1012,9 hPa 0,0 l/m 1,7 km/h (1 Bft) NW 319 1 min 0,000 mm 2,5 UV-I 578 W/m 5,2 C 24,4 C 3,2 km/h (1 Bft) 100,00 %
02.07.2018 17:03 24,3 C 22,8 C 29 % 1012,9 hPa 0,0 l/m 1,0 km/h (0 Bft) NW 320 1 min 0,000 mm 2,5 UV-I 574 W/m 5,1 C 24,3 C 3,2 km/h (1 Bft) 93,33 %
02.07.2018 17:04 24,3 C 22,8 C 29 % 1012,9 hPa 0,0 l/m 3,8 km/h (1 Bft) NW 323 1 min 0,000 mm 2,4 UV-I 571 W/m 5,1 C 24,3 C 6,4 km/h (2 Bft) 100,00 %
02.07.2018 17:05 24,2 C 22,8 C 30 % 1012,9 hPa 0,0 l/m 3,5 km/h (1 Bft) NW 323 1 min 0,000 mm 2,4 UV-I 568 W/m 5,5 C 24,2 C 6,4 km/h (2 Bft) 95,83 %
02.07.2018 17:06 24,2 C 22,8 C 30 % 1012,9 hPa 0,0 l/m 2,2 km/h (1 Bft) N-NO 14 1 min 0,000 mm 2,4 UV-I 566 W/m 5,5 C 24,2 C 3,2 km/h (1 Bft) 96,15 %
02.07.2018 17:07 24,2 C 22,8 C 30 % 1012,8 hPa 0,0 l/m 1,5 km/h (1 Bft) N-NO 15 1 min 0,000 mm 2,4 UV-I 562 W/m 5,5 C 24,2 C 3,2 km/h (1 Bft) 100,00 %
02.07.2018 17:08 24,2 C 22,8 C 30 % 1012,9 hPa 0,0 l/m 1,8 km/h (1 Bft) N-NO 19 1 min 0,000 mm 2,4 UV-I 557 W/m 5,5 C 24,2 C 3,2 km/h (1 Bft) 96,55 %
02.07.2018 17:09 24,2 C 22,8 C 31 % 1012,9 hPa 0,0 l/m 1,2 km/h (1 Bft) N-NO 18 1 min 0,000 mm 2,3 UV-I 555 W/m 6,0 C 24,2 C 3,2 km/h (1 Bft) 100,00 %
02.07.2018 17:10 24,3 C 22,8 C 33 % 1012,9 hPa 0,0 l/m 2,0 km/h (1 Bft) W-SW 250 1 min 0,000 mm 2,3 UV-I 554 W/m 7,0 C 24,3 C 4,8 km/h (1 Bft) 93,33 %
02.07.2018 17:11 24,4 C 22,8 C 29 % 1012,9 hPa 0,0 l/m 1,6 km/h (1 Bft) W-SW 250 1 min 0,000 mm 2,3 UV-I 551 W/m 5,2 C 24,4 C 3,2 km/h (1 Bft) 100,00 %
02.07.2018 17:12 24,4 C 22,8 C 30 % 1012,8 hPa 0,0 l/m 2,7 km/h (1 Bft) W-SW 250 1 min 0,000 mm 2,3 UV-I 548 W/m 5,7 C 24,4 C 6,4 km/h (2 Bft) 95,83 %
02.07.2018 17:13 24,5 C 22,8 C 30 % 1012,9 hPa 0,0 l/m 3,4 km/h (1 Bft) W-SW 250 1 min 0,000 mm 2,2 UV-I 546 W/m 5,8 C 24,5 C 6,4 km/h (2 Bft) 100,00 %
02.07.2018 17:14 24,5 C 22,8 C 30 % 1012,8 hPa 0,0 l/m 2,5 km/h (1 Bft) NW 324 1 min 0,000 mm 2,2 UV-I 542 W/m 5,8 C 24,5 C 6,4 km/h (2 Bft) 95,83 %
02.07.2018 17:15 24,5 C 22,8 C 30 % 1012,8 hPa 0,0 l/m 3,5 km/h (1 Bft) NW 325 1 min 0,000 mm 2,2 UV-I 540 W/m 5,8 C 24,5 C 6,4 km/h (2 Bft) 100,00 %
02.07.2018 17:16 24,6 C 22,8 C 28 % 1012,8 hPa 0,0 l/m 1,1 km/h (1 Bft) N 351 1 min 0,000 mm 2,2 UV-I 536 W/m 4,9 C 24,6 C 4,8 km/h (1 Bft) 96,30 %
02.07.2018 17:17 24,6 C 22,8 C 32 % 1012,8 hPa 0,0 l/m 4,4 km/h (1 Bft) N 360 1 min 0,000 mm 2,2 UV-I 536 W/m 6,8 C 24,6 C 6,4 km/h (2 Bft) 100,00 %
02.07.2018 17:18 24,6 C 22,8 C 31 % 1012,9 hPa 0,0 l/m 3,7 km/h (1 Bft) N-NO 32 1 min 0,000 mm 2,1 UV-I 533 W/m 6,3 C 24,6 C 6,4 km/h (2 Bft) 96,97 %
02.07.2018 17:19 24,6 C 22,8 C 32 % 1012,9 hPa 0,0 l/m 2,7 km/h (1 Bft) NO 37 1 min 0,000 mm 2,1 UV-I 530 W/m 6,8 C 24,6 C 4,8 km/h (1 Bft) 91,30 %
02.07.2018 17:20 24,5 C 22,8 C 33 % 1012,9 hPa 0,0 l/m 3,0 km/h (1 Bft) N 350 1 min 0,000 mm 2,1 UV-I 527 W/m 7,2 C 24,5 C 6,4 km/h (2 Bft) 100,00 %
02.07.2018 17:21 24,6 C 22,8 C 34 % 1012,9 hPa 0,0 l/m 5,9 km/h (2 Bft) N 355 1 min 0,000 mm 2,1 UV-I 524 W/m 7,7 C 24,6 C 8,0 km/h (2 Bft) 95,65 %
02.07.2018 17:23 24,5 C 22,8 C 31 % 1012,9 hPa 0,0 l/m 5,8 km/h (2 Bft) N 9 2 min 0,000 mm 2,0 UV-I 519 W/m 6,3 C 24,5 C 8,0 km/h (2 Bft) 96,23 %
02.07.2018 17:24 24,5 C 22,8 C 30 % 1012,9 hPa 0,0 l/m 3,3 km/h (1 Bft) N 5 1 min 0,000 mm 2,0 UV-I 515 W/m 5,8 C 24,5 C 4,8 km/h (1 Bft) 98,23 %
02.07.2018 17:25 24,4 C 22,8 C 28 % 1012,9 hPa 0,0 l/m 5,2 km/h (1 Bft) N-NW 339 1 min 0,000 mm 2,0 UV-I 513 W/m 4,7 C 24,4 C 6,4 km/h (2 Bft) 97,37 %
02.07.2018 17:26 24,4 C 22,8 C 30 % 1012,9 hPa 0,0 l/m 7,3 km/h (2 Bft) W-SW 250 1 min 0,000 mm 2,0 UV-I 510 W/m 5,7 C 24,2 C 9,7 km/h (2 Bft) 92,59 %
02.07.2018 17:27 24,4 C 22,8 C 29 % 1012,9 hPa 0,0 l/m 6,6 km/h (2 Bft) N-NO 15 1 min 0,000 mm 1,9 UV-I 508 W/m 5,2 C 24,4 C 11,3 km/h (2 Bft) 95,65 %
02.07.2018 17:28 24,4 C 22,8 C 30 % 1012,9 hPa 0,0 l/m 7,0 km/h (2 Bft) N 11 1 min 0,000 mm 1,9 UV-I 504 W/m 5,7 C 24,2 C 8,0 km/h (2 Bft) 100,00 %
02.07.2018 17:29 24,4 C 22,8 C 32 % 1012,9 hPa 0,0 l/m 2,9 km/h (1 Bft) N 11 1 min 0,000 mm 1,9 UV-I 503 W/m 6,6 C 24,4 C 6,4 km/h (2 Bft) 91,67 %
02.07.2018 17:30 24,4 C 22,8 C 31 % 1012,9 hPa 0,0 l/m 2,3 km/h (1 Bft) O 90 1 min 0,000 mm 1,9 UV-I 501 W/m 6,2 C 24,4 C 4,8 km/h (1 Bft) 96,15 %
02.07.2018 17:31 24,3 C 22,8 C 30 % 1012,8 hPa 0,0 l/m 1,8 km/h (1 Bft) O 92 1 min 0,000 mm 1,9 UV-I 498 W/m 5,6 C 24,3 C 3,2 km/h (1 Bft) 95,83 %
02.07.2018 17:32 24,3 C 22,8 C 32 % 1012,9 hPa 0,0 l/m 3,9 km/h (1 Bft) N-NO 33 1 min 0,000 mm 1,9 UV-I 492 W/m 6,5 C 24,3 C 4,8 km/h (1 Bft) 91,30 %
02.07.2018 17:33 24,3 C 22,8 C 33 % 1012,8 hPa 0,0 l/m 6,1 km/h (2 Bft) N-NO 27 1 min 0,000 mm 1,8 UV-I 490 W/m 7,0 C 24,3 C 8,0 km/h (2 Bft) 96,30 %
02.07.2018 17:34 24,4 C 22,8 C 33 % 1012,9 hPa 0,0 l/m 5,2 km/h (1 Bft) N-NO 33 1 min 0,000 mm 1,8 UV-I 489 W/m 7,1 C 24,4 C 8,0 km/h (2 Bft) 92,31 %
02.07.2018 17:35 24,4 C 22,8 C 33 % 1012,9 hPa 0,0 l/m 5,0 km/h (1 Bft) NO 40 1 min 0,000 mm 1,8 UV-I 487 W/m 7,1 C 24,4 C 8,0 km/h (2 Bft) 100,00 %
02.07.2018 17:36 24,4 C 22,8 C 31 % 1012,9 hPa 0,0 l/m 4,1 km/h (1 Bft) N-NO 20 1 min 0,000 mm 1,8 UV-I 482 W/m 6,2 C 24,4 C 4,8 km/h (1 Bft) 95,65 %
02.07.2018 17:37 24,4 C 22,8 C 33 % 1012,9 hPa 0,0 l/m 3,1 km/h (1 Bft) N 360 1 min 0,000 mm 1,7 UV-I 478 W/m 7,1 C 24,4 C 4,8 km/h (1 Bft) 95,83 %
02.07.2018 17:38 24,5 C 22,8 C 32 % 1012,9 hPa 0,0 l/m 1,8 km/h (1 Bft) N 349 1 min 0,000 mm 1,7 UV-I 475 W/m 6,7 C 24,5 C 4,8 km/h (1 Bft) 93,10 %
02.07.2018 17:39 24,5 C 22,8 C 31 % 1012,9 hPa 0,0 l/m 2,2 km/h (1 Bft) SW 232 1 min 0,000 mm 1,7 UV-I 473 W/m 6,3 C 24,5 C 4,8 km/h (1 Bft) 100,00 %
02.07.2018 17:40 24,4 C 22,8 C 29 % 1012,9 hPa 0,0 l/m 2,1 km/h (1 Bft) SW 232 1 min 0,000 mm 1,7 UV-I 469 W/m 5,2 C 24,4 C 3,2 km/h (1 Bft) 95,65 %
02.07.2018 17:41 24,4 C 22,8 C 30 % 1012,9 hPa 0,0 l/m 2,3 km/h (1 Bft) W-SW 244 1 min 0,000 mm 1,7 UV-I 456 W/m 5,7 C 24,4 C 4,8 km/h (1 Bft) 100,00 %
02.07.2018 17:42 24,5 C 22,8 C 31 % 1012,9 hPa 0,0 l/m 4,9 km/h (1 Bft) W-SW 253 1 min 0,000 mm 1,7 UV-I 440 W/m 6,3 C 24,5 C 8,0 km/h (2 Bft) 96,55 %
02.07.2018 17:43 24,6 C 22,8 C 30 % 1012,9 hPa 0,0 l/m 1,1 km/h (1 Bft) W-SW 247 1 min 0,000 mm 1,6 UV-I 458 W/m 5,9 C 24,6 C 3,2 km/h (1 Bft) 100,00 %
02.07.2018 17:44 24,7 C 22,8 C 33 % 1012,9 hPa 0,0 l/m 2,6 km/h (1 Bft) W 277 1 min 0,000 mm 1,6 UV-I 458 W/m 7,3 C 24,7 C 4,8 km/h (1 Bft) 92,31 %
02.07.2018 17:45 24,7 C 22,8 C 32 % 1012,9 hPa 0,0 l/m 3,4 km/h (1 Bft) N 355 1 min 0,000 mm 1,6 UV-I 397 W/m 6,9 C 24,7 C 4,8 km/h (1 Bft) 95,83 %
02.07.2018 17:46 24,7 C 22,8 C 31 % 1012,9 hPa 0,0 l/m 2,7 km/h (1 Bft) NW 325 1 min 0,000 mm 1,6 UV-I 455 W/m 6,4 C 24,7 C 4,8 km/h (1 Bft) 100,00 %
02.07.2018 17:47 24,7 C 22,8 C 32 % 1012,9 hPa 0,0 l/m 4,4 km/h (1 Bft) W-NW 296 1 min 0,000 mm 1,6 UV-I 441 W/m 6,9 C 24,7 C 6,4 km/h (2 Bft) 96,15 %
02.07.2018 17:48 24,7 C 22,8 C 32 % 1012,9 hPa 0,0 l/m 2,0 km/h (1 Bft) W-NW 300 1 min 0,000 mm 1,6 UV-I 431 W/m 6,9 C 24,7 C 3,2 km/h (1 Bft) 100,00 %
02.07.2018 17:49 24,7 C 22,8 C 32 % 1012,9 hPa 0,0 l/m 1,1 km/h (1 Bft) W-NW 300 1 min 0,000 mm 1,5 UV-I 447 W/m 6,9 C 24,7 C 1,6 km/h (1 Bft) 96,30 %
02.07.2018 17:50 24,7 C 22,8 C 30 % 1012,9 hPa 0,0 l/m 4,4 km/h (1 Bft) SW 220 1 min 0,000 mm 1,5 UV-I 444 W/m 6,0 C 24,7 C 4,8 km/h (1 Bft) 100,00 %
02.07.2018 17:51 24,7 C 22,8 C 29 % 1012,9 hPa 0,0 l/m 4,8 km/h (1 Bft) W-SW 239 1 min 0,000 mm 1,5 UV-I 441 W/m 5,5 C 24,7 C 6,4 km/h (2 Bft) 96,15 %
02.07.2018 17:52 24,6 C 22,8 C 31 % 1013,0 hPa 0,0 l/m 5,3 km/h (1 Bft) SW 224 1 min 0,000 mm 1,5 UV-I 439 W/m 6,3 C 24,6 C 8,0 km/h (2 Bft) 100,00 %
02.07.2018 17:53 24,6 C 22,8 C 33 % 1012,9 hPa 0,0 l/m 2,8 km/h (1 Bft) SW 223 1 min 0,000 mm 1,5 UV-I 436 W/m 7,2 C 24,6 C 4,8 km/h (1 Bft) 96,15 %
02.07.2018 17:54 24,6 C 22,8 C 32 % 1012,9 hPa 0,0 l/m 3,4 km/h (1 Bft) W-SW 257 1 min 0,000 mm 1,4 UV-I 433 W/m 6,8 C 24,6 C 4,8 km/h (1 Bft) 95,83 %
02.07.2018 17:55 24,7 C 22,8 C 33 % 1012,9 hPa 0,0 l/m 2,8 km/h (1 Bft) N-NO 13 1 min 0,000 mm 1,4 UV-I 430 W/m 7,3 C 24,7 C 4,8 km/h (1 Bft) 100,00 %
02.07.2018 17:56 24,8 C 22,8 C 30 % 1012,9 hPa 0,0 l/m 2,3 km/h (1 Bft) W-SW 246 1 min 0,000 mm 1,4 UV-I 427 W/m 6,0 C 24,8 C 4,8 km/h (1 Bft) 91,67 %
02.07.2018 17:57 24,7 C 22,8 C 30 % 1012,9 hPa 0,0 l/m 3,5 km/h (1 Bft) N-NW 337 1 min 0,000 mm 1,4 UV-I 427 W/m 6,0 C 24,7 C 4,8 km/h (1 Bft) 100,00 %
02.07.2018 17:58 24,7 C 22,8 C 30 % 1012,9 hPa 0,0 l/m 8,4 km/h (2 Bft) NO 36 1 min 0,000 mm 1,4 UV-I 424 W/m 6,0 C 24,2 C 12,9 km/h (3 Bft) 100,00 %
02.07.2018 17:59 24,6 C 22,8 C 33 % 1012,9 hPa 0,0 l/m 7,2 km/h (2 Bft) NO 51 1 min 0,000 mm 1,4 UV-I 421 W/m 7,2 C 24,4 C 9,7 km/h (2 Bft) 100,00 %
02.07.2018 18:00 24,5 C 22,8 C 34 % 1012,9 hPa 0,0 l/m 7,0 km/h (2 Bft) N-NO 24 1 min 0,000 mm 1,3 UV-I 418 W/m 7,6 C 24,3 C 9,7 km/h (2 Bft) 100,00 %
02.07.2018 18:01 24,4 C 22,8 C 32 % 1012,9 hPa 0,0 l/m 5,6 km/h (1 Bft) NO 44 1 min 0,356 mm 1,3 UV-I 417 W/m 6,6 C 24,4 C 8,0 km/h (2 Bft) 96,15 %
02.07.2018 18:02 24,4 C 22,8 C 32 % 1012,9 hPa 0,0 l/m 2,5 km/h (1 Bft) NO 44 1 min 0,000 mm 1,3 UV-I 414 W/m 6,6 C 24,4 C 3,2 km/h (1 Bft) 95,83 %
02.07.2018 18:03 24,3 C 22,8 C 31 % 1012,9 hPa 0,0 l/m 0,5 km/h (0 Bft) NO 43 1 min 0,000 mm 1,3 UV-I 411 W/m 6,1 C 24,3 C 1,6 km/h (1 Bft) 100,00 %
02.07.2018 18:04 24,3 C 22,8 C 31 % 1012,9 hPa 0,0 l/m 3,5 km/h (1 Bft) NW 321 1 min 0,000 mm 1,3 UV-I 409 W/m 6,1 C 24,3 C 6,4 km/h (2 Bft) 100,00 %
02.07.2018 18:05 24,3 C 22,8 C 30 % 1012,9 hPa 0,0 l/m 3,8 km/h (1 Bft) NW 321 1 min 0,000 mm 1,3 UV-I 405 W/m 5,6 C 24,3 C 4,8 km/h (1 Bft) 92,86 %
02.07.2018 18:06 24,4 C 22,8 C 33 % 1012,9 hPa 0,0 l/m 1,9 km/h (1 Bft) NW 321 1 min 0,000 mm 1,3 UV-I 403 W/m 7,1 C 24,4 C 3,2 km/h (1 Bft) 100,00 %
02.07.2018 18:07 24,4 C 22,8 C 32 % 1012,9 hPa 0,0 l/m 1,6 km/h (1 Bft) NW 321 1 min 0,000 mm 1,2 UV-I 400 W/m 6,6 C 24,4 C 3,2 km/h (1 Bft) 100,00 %
02.07.2018 18:08 24,4 C 22,8 C 31 % 1012,9 hPa 0,0 l/m 1,0 km/h (0 Bft) NW 322 1 min 0,000 mm 1,2 UV-I 396 W/m 6,2 C 24,4 C 3,2 km/h (1 Bft) 100,00 %
02.07.2018 18:09 24,6 C 22,8 C 31 % 1012,9 hPa 0,0 l/m 4,4 km/h (1 Bft) NO 53 1 min 0,000 mm 1,2 UV-I 394 W/m 6,3 C 24,6 C 8,0 km/h (2 Bft) 100,00 %
02.07.2018 18:10 24,6 C 22,8 C 40 % 1012,9 hPa 0,0 l/m 5,0 km/h (1 Bft) O-NO 75 1 min 0,000 mm 1,2 UV-I 390 W/m 10,1 C 24,6 C 8,0 km/h (2 Bft) 100,00 %
02.07.2018 18:11 24,4 C 22,8 C 30 % 1012,9 hPa 0,0 l/m 2,3 km/h (1 Bft) O-NO 75 1 min 0,000 mm 1,2 UV-I 387 W/m 5,7 C 24,4 C 3,2 km/h (1 Bft) 100,00 %
02.07.2018 18:12 24,4 C 22,8 C 35 % 1012,9 hPa 0,0 l/m 1,4 km/h (1 Bft) O-NO 75 1 min 0,000 mm 1,2 UV-I 384 W/m 7,9 C 24,4 C 1,6 km/h (1 Bft) 100,00 %
02.07.2018 18:13 24,4 C 22,8 C 32 % 1012,9 hPa 0,0 l/m 1,9 km/h (1 Bft) N 360 1 min 0,000 mm 1,1 UV-I 382 W/m 6,6 C 24,4 C 3,2 km/h (1 Bft) 100,00 %
02.07.2018 18:14 24,5 C 22,8 C 32 % 1012,9 hPa 0,0 l/m 3,2 km/h (1 Bft) N 360 1 min 0,000 mm 1,1 UV-I 378 W/m 6,7 C 24,5 C 4,8 km/h (1 Bft) 100,00 %
02.07.2018 18:15 24,6 C 22,8 C 33 % 1012,9 hPa 0,0 l/m 3,6 km/h (1 Bft) N 355 1 min 0,000 mm 1,1 UV-I 376 W/m 7,2 C 24,6 C 4,8 km/h (1 Bft) 100,00 %
02.07.2018 18:16 24,6 C 22,8 C 31 % 1012,9 hPa 0,0 l/m 4,7 km/h (1 Bft) W-NW 286 1 min 0,000 mm 1,1 UV-I 374 W/m 6,3 C 24,6 C 6,4 km/h (2 Bft) 96,55 %
02.07.2018 18:17 24,5 C 22,8 C 30 % 1012,9 hPa 0,0 l/m 3,2 km/h (1 Bft) NW 313 1 min 0,000 mm 1,1 UV-I 372 W/m 5,8 C 24,5 C 4,8 km/h (1 Bft) 100,00 %
02.07.2018 18:18 24,4 C 22,8 C 33 % 1012,9 hPa 0,0 l/m 4,0 km/h (1 Bft) N 349 1 min 0,000 mm 1,1 UV-I 370 W/m 7,1 C 24,4 C 6,4 km/h (2 Bft) 100,00 %
02.07.2018 18:19 24,4 C 22,8 C 31 % 1012,9 hPa 0,0 l/m 2,4 km/h (1 Bft) N 349 1 min 0,000 mm 1,1 UV-I 367 W/m 6,2 C 24,4 C 3,2 km/h (1 Bft) 100,00 %
02.07.2018 18:20 24,4 C 22,8 C 32 % 1012,9 hPa 0,0 l/m 3,8 km/h (1 Bft) NW 323 1 min 0,000 mm 1,0 UV-I 364 W/m 6,6 C 24,4 C 4,8 km/h (1 Bft) 100,00 %
02.07.2018 18:21 24,4 C 22,8 C 34 % 1012,9 hPa 0,0 l/m 4,2 km/h (1 Bft) W-NW 301 1 min 0,000 mm 1,0 UV-I 360 W/m 7,5 C 24,4 C 6,4 km/h (2 Bft) 100,00 %
02.07.2018 18:22 24,3 C 22,8 C 30 % 1012,9 hPa 0,0 l/m 4,0 km/h (1 Bft) NW 326 1 min 0,000 mm 1,0 UV-I 359 W/m 5,6 C 24,3 C 4,8 km/h (1 Bft) 100,00 %
02.07.2018 18:24 24,2 C 22,8 C 31 % 1012,9 hPa 0,0 l/m 2,0 km/h (1 Bft) N-NW 331 2 min 0,000 mm 1,0 UV-I 355 W/m 6,0 C 24,2 C 4,8 km/h (1 Bft) 100,00 %
02.07.2018 18:25 24,3 C 22,8 C 32 % 1012,9 hPa 0,0 l/m 3,6 km/h (1 Bft) N-NW 331 1 min 0,000 mm 1,0 UV-I 349 W/m 6,5 C 24,3 C 4,8 km/h (1 Bft) 100,00 %
02.07.2018 18:26 24,3 C 22,8 C 33 % 1012,9 hPa 0,0 l/m 3,5 km/h (1 Bft) N-NW 338 1 min 0,000 mm 1,0 UV-I 346 W/m 7,0 C 24,3 C 6,4 km/h (2 Bft) 100,00 %
02.07.2018 18:27 24,3 C 22,8 C 33 % 1012,8 hPa 0,0 l/m 3,5 km/h (1 Bft) N-NW 338 1 min 0,000 mm 0,9 UV-I 344 W/m 7,0 C 24,3 C 4,8 km/h (1 Bft) 100,00 %
02.07.2018 18:28 24,3 C 22,8 C 32 % 1012,9 hPa 0,0 l/m 1,8 km/h (1 Bft) N-NW 338 1 min 0,000 mm 0,9 UV-I 341 W/m 6,5 C 24,3 C 3,2 km/h (1 Bft) 100,00 %
02.07.2018 18:29 24,3 C 22,8 C 30 % 1012,9 hPa 0,0 l/m 4,4 km/h (1 Bft) W-NW 297 1 min 0,000 mm 0,9 UV-I 338 W/m 5,6 C 24,3 C 6,4 km/h (2 Bft) 100,00 %
02.07.2018 18:30 24,3 C 22,8 C 30 % 1012,9 hPa 0,0 l/m 3,4 km/h (1 Bft) NW 313 1 min 0,000 mm 0,9 UV-I 335 W/m 5,6 C 24,3 C 4,8 km/h (1 Bft) 100,00 %
02.07.2018 18:31 24,3 C 22,8 C 30 % 1012,9 hPa 0,0 l/m 3,3 km/h (1 Bft) NW 314 1 min 0,000 mm 0,9 UV-I 332 W/m 5,6 C 24,3 C 4,8 km/h (1 Bft) 100,00 %
02.07.2018 18:33 24,2 C 22,8 C 33 % 1012,9 hPa 0,0 l/m 3,6 km/h (1 Bft) NW 315 2 min 0,000 mm 0,9 UV-I 328 W/m 6,9 C 24,2 C 4,8 km/h (1 Bft) 98,11 %
02.07.2018 18:34 24,2 C 22,8 C 31 % 1012,9 hPa 0,0 l/m 1,8 km/h (1 Bft) NW 315 1 min 0,000 mm 0,9 UV-I 323 W/m 6,0 C 24,2 C 4,8 km/h (1 Bft) 100,00 %
02.07.2018 18:35 24,3 C 22,8 C 33 % 1012,8 hPa 0,0 l/m 4,1 km/h (1 Bft) N-NW 327 1 min 0,000 mm 0,8 UV-I 318 W/m 7,0 C 24,3 C 4,8 km/h (1 Bft) 98,21 %
02.07.2018 18:36 24,3 C 22,8 C 33 % 1012,8 hPa 0,0 l/m 4,3 km/h (1 Bft) NW 315 1 min 0,000 mm 0,8 UV-I 315 W/m 7,0 C 24,3 C 4,8 km/h (1 Bft) 100,00 %
02.07.2018 18:37 24,3 C 22,8 C 35 % 1012,8 hPa 0,0 l/m 2,3 km/h (1 Bft) NW 315 1 min 0,000 mm 0,8 UV-I 312 W/m 7,8 C 24,3 C 3,2 km/h (1 Bft) 100,00 %
02.07.2018 18:38 24,3 C 22,8 C 31 % 1012,8 hPa 0,0 l/m 2,3 km/h (1 Bft) NW 315 1 min 0,000 mm 0,8 UV-I 308 W/m 6,1 C 24,3 C 3,2 km/h (1 Bft) 100,00 %
02.07.2018 18:39 24,3 C 22,8 C 31 % 1012,8 hPa 0,0 l/m 3,9 km/h (1 Bft) NW 324 1 min 0,000 mm 0,8 UV-I 305 W/m 6,1 C 24,3 C 6,4 km/h (2 Bft) 95,65 %
02.07.2018 18:40 24,3 C 22,8 C 33 % 1012,8 hPa 0,0 l/m 4,2 km/h (1 Bft) NW 323 1 min 0,000 mm 0,8 UV-I 302 W/m 7,0 C 24,3 C 4,8 km/h (1 Bft) 100,00 %
02.07.2018 18:41 24,3 C 22,8 C 31 % 1012,8 hPa 0,0 l/m 3,9 km/h (1 Bft) W 271 1 min 0,000 mm 0,8 UV-I 300 W/m 6,1 C 24,3 C 4,8 km/h (1 Bft) 100,00 %
02.07.2018 18:42 24,4 C 22,8 C 32 % 1012,8 hPa 0,0 l/m 4,7 km/h (1 Bft) S-SW 198 1 min 0,000 mm 0,7 UV-I 295 W/m 6,6 C 24,4 C 6,4 km/h (2 Bft) 100,00 %
02.07.2018 18:43 24,4 C 22,8 C 33 % 1012,8 hPa 0,0 l/m 5,0 km/h (1 Bft) SW 215 1 min 0,000 mm 0,7 UV-I 291 W/m 7,1 C 24,4 C 6,4 km/h (2 Bft) 100,00 %
02.07.2018 18:44 24,3 C 22,8 C 32 % 1012,8 hPa 0,0 l/m 4,0 km/h (1 Bft) SW 219 1 min 0,000 mm 0,7 UV-I 290 W/m 6,5 C 24,3 C 4,8 km/h (1 Bft) 100,00 %
02.07.2018 18:45 24,3 C 22,8 C 32 % 1012,8 hPa 0,0 l/m 1,9 km/h (1 Bft) SW 219 1 min 0,000 mm 0,7 UV-I 287 W/m 6,5 C 24,3 C 3,2 km/h (1 Bft) 100,00 %
02.07.2018 18:46 24,2 C 22,8 C 31 % 1012,8 hPa 0,0 l/m 2,1 km/h (1 Bft) SW 219 1 min 0,000 mm 0,7 UV-I 283 W/m 6,0 C 24,2 C 4,8 km/h (1 Bft) 95,65 %
02.07.2018 18:47 24,2 C 22,8 C 32 % 1012,8 hPa 0,0 l/m 2,7 km/h (1 Bft) SW 219 1 min 0,000 mm 0,7 UV-I 280 W/m 6,5 C 24,2 C 3,2 km/h (1 Bft) 100,00 %
02.07.2018 18:48 24,2 C 22,8 C 32 % 1012,8 hPa 0,0 l/m 3,5 km/h (1 Bft) SW 218 1 min 0,000 mm 0,7 UV-I 278 W/m 6,5 C 24,2 C 4,8 km/h (1 Bft) 100,00 %
02.07.2018 18:49 24,2 C 22,8 C 32 % 1012,8 hPa 0,0 l/m 1,9 km/h (1 Bft) SW 218 1 min 0,000 mm 0,7 UV-I 274 W/m 6,5 C 24,2 C 3,2 km/h (1 Bft) 96,30 %
02.07.2018 18:50 24,3 C 22,8 C 33 % 1012,8 hPa 0,0 l/m 3,6 km/h (1 Bft) S 190 1 min 0,000 mm 0,6 UV-I 272 W/m 7,0 C 24,3 C 4,8 km/h (1 Bft) 100,00 %
02.07.2018 18:51 24,3 C 22,8 C 33 % 1012,7 hPa 0,0 l/m 4,8 km/h (1 Bft) SO 141 1 min 0,000 mm 0,6 UV-I 270 W/m 7,0 C 24,3 C 8,0 km/h (2 Bft) 100,00 %
02.07.2018 18:52 24,3 C 22,8 C 32 % 1012,8 hPa 0,0 l/m 6,2 km/h (2 Bft) S-SO 150 1 min 0,000 mm 0,6 UV-I 266 W/m 6,5 C 24,3 C 8,0 km/h (2 Bft) 100,00 %
02.07.2018 18:53 24,3 C 22,8 C 32 % 1012,8 hPa 0,0 l/m 6,9 km/h (2 Bft) SO 142 1 min 0,000 mm 0,6 UV-I 264 W/m 6,5 C 24,2 C 9,7 km/h (2 Bft) 96,55 %
02.07.2018 18:54 24,2 C 22,8 C 32 % 1012,8 hPa 0,0 l/m 4,3 km/h (1 Bft) S-SO 159 1 min 0,000 mm 0,6 UV-I 263 W/m 6,5 C 24,2 C 9,7 km/h (2 Bft) 100,00 %
02.07.2018 18:55 24,1 C 22,8 C 34 % 1012,8 hPa 0,0 l/m 3,4 km/h (1 Bft) S-SO 159 1 min 0,000 mm 0,6 UV-I 260 W/m 7,2 C 24,1 C 6,4 km/h (2 Bft) 100,00 %
02.07.2018 18:56 24,2 C 22,8 C 35 % 1012,8 hPa 0,0 l/m 4,7 km/h (1 Bft) O-SO 107 1 min 0,000 mm 0,6 UV-I 258 W/m 7,8 C 24,2 C 9,7 km/h (2 Bft) 100,00 %
02.07.2018 18:57 24,2 C 22,8 C 33 % 1012,8 hPa 0,0 l/m 5,2 km/h (1 Bft) O-SO 108 1 min 0,000 mm 0,6 UV-I 254 W/m 6,9 C 24,2 C 9,7 km/h (2 Bft) 100,00 %
02.07.2018 18:58 24,2 C 22,8 C 34 % 1012,8 hPa 0,0 l/m 3,4 km/h (1 Bft) SO 146 1 min 0,000 mm 0,6 UV-I 251 W/m 7,3 C 24,2 C 4,8 km/h (1 Bft) 96,15 %
02.07.2018 18:59 24,2 C 22,8 C 36 % 1012,7 hPa 0,0 l/m 4,3 km/h (1 Bft) SO 145 1 min 0,000 mm 0,6 UV-I 249 W/m 8,2 C 24,2 C 6,4 km/h (2 Bft) 100,00 %
02.07.2018 19:00 24,2 C 22,8 C 33 % 1012,7 hPa 0,0 l/m 4,3 km/h (1 Bft) S 171 1 min 0,254 mm 0,5 UV-I 246 W/m 6,9 C 24,2 C 8,0 km/h (2 Bft) 100,00 %
02.07.2018 19:01 24,2 C 22,8 C 33 % 1012,8 hPa 0,0 l/m 6,5 km/h (2 Bft) S-SW 205 1 min 0,000 mm 0,5 UV-I 243 W/m 6,9 C 24,2 C 9,7 km/h (2 Bft) 100,00 %
02.07.2018 19:02 24,1 C 22,8 C 32 % 1012,8 hPa 0,0 l/m 7,8 km/h (2 Bft) S-SW 209 1 min 0,000 mm 0,5 UV-I 241 W/m 6,4 C 23,7 C 9,7 km/h (2 Bft) 95,65 %
02.07.2018 19:03 24,0 C 22,8 C 32 % 1012,8 hPa 0,0 l/m 4,9 km/h (1 Bft) S-SW 202 1 min 0,000 mm 0,5 UV-I 238 W/m 6,3 C 24,0 C 6,4 km/h (2 Bft) 100,00 %
02.07.2018 19:04 23,9 C 22,8 C 32 % 1012,8 hPa 0,0 l/m 4,3 km/h (1 Bft) S-SW 196 1 min 0,000 mm 0,5 UV-I 237 W/m 6,2 C 23,9 C 6,4 km/h (2 Bft) 100,00 %
02.07.2018 19:05 23,8 C 22,8 C 32 % 1012,8 hPa 0,0 l/m 4,8 km/h (1 Bft) S 178 1 min 0,000 mm 0,5 UV-I 235 W/m 6,1 C 23,8 C 6,4 km/h (2 Bft) 100,00 %
02.07.2018 19:06 23,8 C 22,8 C 33 % 1012,8 hPa 0,0 l/m 0,9 km/h (0 Bft) S 178 1 min 0,000 mm 0,5 UV-I 231 W/m 6,6 C 23,8 C 3,2 km/h (1 Bft) 100,00 %
02.07.2018 19:08 23,8 C 22,8 C 31 % 1012,8 hPa 0,0 l/m 0,5 km/h (0 Bft) S 178 2 min 0,000 mm 0,5 UV-I 227 W/m 5,6 C 23,8 C 1,6 km/h (1 Bft) 97,44 %
02.07.2018 19:09 23,8 C 22,8 C 32 % 1012,8 hPa 0,0 l/m 0,6 km/h (0 Bft) S 178 1 min 0,000 mm 0,5 UV-I 222 W/m 6,1 C 23,8 C 1,6 km/h (1 Bft) 100,00 %
02.07.2018 19:10 23,9 C 22,8 C 34 % 1012,8 hPa 0,0 l/m 0,5 km/h (0 Bft) S 178 1 min 0,000 mm 0,5 UV-I 219 W/m 7,1 C 23,9 C 1,6 km/h (1 Bft) 100,00 %
02.07.2018 19:11 23,9 C 22,8 C 36 % 1012,8 hPa 0,0 l/m 1,3 km/h (1 Bft) S 178 1 min 0,000 mm 0,2 UV-I 217 W/m 7,9 C 23,9 C 3,2 km/h (1 Bft) 100,00 %
02.07.2018 19:13 24,0 C 22,8 C 33 % 1012,9 hPa 0,0 l/m 5,5 km/h (1 Bft) S-SW 195 2 min 0,000 mm 0,0 UV-I 212 W/m 6,7 C 24,0 C 9,7 km/h (2 Bft) 100,00 %
02.07.2018 19:14 23,9 C 22,8 C 33 % 1012,9 hPa 0,0 l/m 5,0 km/h (1 Bft) S 172 1 min 0,000 mm 0,0 UV-I 208 W/m 6,6 C 23,9 C 8,0 km/h (2 Bft) 100,00 %
02.07.2018 19:15 23,8 C 22,8 C 34 % 1012,9 hPa 0,0 l/m 5,2 km/h (1 Bft) SO 137 1 min 0,000 mm 0,0 UV-I 207 W/m 7,0 C 23,8 C 8,0 km/h (2 Bft) 100,00 %
02.07.2018 19:16 23,8 C 22,8 C 36 % 1012,9 hPa 0,0 l/m 3,1 km/h (1 Bft) SO 137 1 min 0,000 mm 0,0 UV-I 205 W/m 7,8 C 23,8 C 4,8 km/h (1 Bft) 100,00 %
02.07.2018 19:17 23,8 C 22,8 C 37 % 1012,9 hPa 0,0 l/m 2,7 km/h (1 Bft) SO 137 1 min 0,000 mm 0,0 UV-I 203 W/m 8,2 C 23,8 C 4,8 km/h (1 Bft) 100,00 %
02.07.2018 19:18 23,8 C 22,8 C 37 % 1012,9 hPa 0,0 l/m 4,0 km/h (1 Bft) SO 137 1 min 0,000 mm 0,0 UV-I 200 W/m 8,2 C 23,8 C 6,4 km/h (2 Bft) 95,83 %
02.07.2018 19:19 23,9 C 22,8 C 37 % 1012,9 hPa 0,0 l/m 5,0 km/h (1 Bft) SO 137 1 min 0,000 mm 0,0 UV-I 199 W/m 8,3 C 23,9 C 6,4 km/h (2 Bft) 100,00 %
02.07.2018 19:20 23,8 C 22,8 C 33 % 1012,9 hPa 0,0 l/m 9,6 km/h (2 Bft) SO 135 1 min 0,000 mm 0,0 UV-I 197 W/m 6,6 C 22,9 C 12,9 km/h (3 Bft) 96,77 %
02.07.2018 19:21 23,8 C 22,8 C 33 % 1012,9 hPa 0,0 l/m 5,1 km/h (1 Bft) O-SO 119 1 min 0,000 mm 0,0 UV-I 191 W/m 6,6 C 23,8 C 6,4 km/h (2 Bft) 96,15 %
02.07.2018 19:23 23,8 C 22,8 C 35 % 1012,8 hPa 0,0 l/m 3,8 km/h (1 Bft) S 170 2 min 0,000 mm 0,0 UV-I 187 W/m 7,4 C 23,8 C 6,4 km/h (2 Bft) 97,44 %
02.07.2018 19:24 23,9 C 22,8 C 35 % 1012,9 hPa 0,0 l/m 4,0 km/h (1 Bft) S-SO 167 1 min 0,000 mm 0,0 UV-I 183 W/m 7,5 C 23,9 C 6,4 km/h (2 Bft) 96,55 %
02.07.2018 19:25 23,9 C 22,8 C 36 % 1012,8 hPa 0,0 l/m 4,4 km/h (1 Bft) S-SO 165 1 min 0,000 mm 0,0 UV-I 181 W/m 7,9 C 23,9 C 6,4 km/h (2 Bft) 98,25 %
02.07.2018 19:26 23,8 C 22,8 C 40 % 1012,8 hPa 0,0 l/m 4,2 km/h (1 Bft) SO 134 1 min 0,000 mm 0,0 UV-I 177 W/m 9,4 C 23,8 C 6,4 km/h (2 Bft) 97,56 %
02.07.2018 19:27 23,8 C 22,8 C 37 % 1012,8 hPa 0,0 l/m 5,5 km/h (1 Bft) SO 135 1 min 0,000 mm 0,0 UV-I 175 W/m 8,2 C 23,8 C 8,0 km/h (2 Bft) 95,83 %
02.07.2018 19:28 23,8 C 22,8 C 36 % 1012,9 hPa 0,0 l/m 6,8 km/h (2 Bft) S 186 1 min 0,000 mm 0,0 UV-I 173 W/m 7,8 C 23,7 C 11,3 km/h (2 Bft) 95,65 %
02.07.2018 19:29 23,7 C 22,8 C 35 % 1012,8 hPa 0,0 l/m 4,6 km/h (1 Bft) S-SO 148 1 min 0,000 mm 0,0 UV-I 169 W/m 7,3 C 23,7 C 8,0 km/h (2 Bft) 100,00 %
02.07.2018 19:30 23,7 C 22,8 C 34 % 1012,8 hPa 0,0 l/m 5,8 km/h (2 Bft) SO 145 1 min 0,000 mm 0,0 UV-I 167 W/m 6,9 C 23,7 C 12,9 km/h (3 Bft) 93,10 %
02.07.2018 19:31 23,6 C 22,8 C 35 % 1012,9 hPa 0,0 l/m 6,3 km/h (2 Bft) S 174 1 min 0,000 mm 0,0 UV-I 165 W/m 7,2 C 23,6 C 9,7 km/h (2 Bft) 96,30 %
02.07.2018 19:33 23,6 C 22,8 C 36 % 1012,9 hPa 0,0 l/m 6,3 km/h (2 Bft) S-SO 168 2 min 0,000 mm 0,0 UV-I 162 W/m 7,6 C 23,6 C 11,3 km/h (2 Bft) 96,00 %
02.07.2018 19:34 23,7 C 22,8 C 36 % 1012,9 hPa 0,0 l/m 4,2 km/h (1 Bft) S 169 1 min 0,000 mm 0,0 UV-I 159 W/m 7,7 C 23,7 C 6,4 km/h (2 Bft) 96,15 %
02.07.2018 19:35 23,7 C 22,8 C 35 % 1012,9 hPa 0,0 l/m 4,9 km/h (1 Bft) S-SO 167 1 min 0,000 mm 0,0 UV-I 156 W/m 7,3 C 23,7 C 8,0 km/h (2 Bft) 100,00 %
02.07.2018 19:36 23,6 C 22,8 C 36 % 1012,9 hPa 0,0 l/m 4,0 km/h (1 Bft) SO 127 1 min 0,000 mm 0,0 UV-I 153 W/m 7,6 C 23,6 C 6,4 km/h (2 Bft) 96,30 %
02.07.2018 19:37 23,6 C 22,8 C 37 % 1012,9 hPa 0,0 l/m 5,2 km/h (1 Bft) O-SO 115 1 min 0,000 mm 0,0 UV-I 149 W/m 8,0 C 23,6 C 6,4 km/h (2 Bft) 96,55 %
02.07.2018 19:38 23,6 C 22,8 C 37 % 1012,9 hPa 0,0 l/m 5,7 km/h (1 Bft) SO 134 1 min 0,000 mm 0,0 UV-I 147 W/m 8,0 C 23,6 C 8,0 km/h (2 Bft) 95,65 %
02.07.2018 19:39 23,4 C 22,8 C 35 % 1012,9 hPa 0,0 l/m 5,5 km/h (1 Bft) SO 135 1 min 0,000 mm 0,0 UV-I 145 W/m 7,1 C 23,4 C 6,4 km/h (2 Bft) 100,00 %
02.07.2018 19:40 23,4 C 22,8 C 36 % 1012,9 hPa 0,0 l/m 4,1 km/h (1 Bft) O-SO 123 1 min 0,000 mm 0,0 UV-I 143 W/m 7,5 C 23,4 C 6,4 km/h (2 Bft) 95,65 %
02.07.2018 19:41 23,3 C 22,8 C 35 % 1012,9 hPa 0,0 l/m 4,7 km/h (1 Bft) SO 136 1 min 0,000 mm 0,0 UV-I 141 W/m 7,0 C 23,3 C 6,4 km/h (2 Bft) 100,00 %
02.07.2018 19:42 23,3 C 22,8 C 36 % 1012,9 hPa 0,0 l/m 3,6 km/h (1 Bft) SO 130 1 min 0,000 mm 0,0 UV-I 139 W/m 7,4 C 23,3 C 6,4 km/h (2 Bft) 95,83 %
02.07.2018 19:43 23,3 C 22,8 C 36 % 1012,9 hPa 0,0 l/m 4,2 km/h (1 Bft) SO 131 1 min 0,000 mm 0,0 UV-I 136 W/m 7,4 C 23,3 C 4,8 km/h (1 Bft) 100,00 %
02.07.2018 19:44 23,3 C 22,8 C 36 % 1012,9 hPa 0,0 l/m 4,1 km/h (1 Bft) SO 140 1 min 0,000 mm 0,0 UV-I 133 W/m 7,4 C 23,3 C 4,8 km/h (1 Bft) 88,89 %
02.07.2018 19:45 23,2 C 22,8 C 36 % 1012,9 hPa 0,0 l/m 3,8 km/h (1 Bft) SO 141 1 min 0,000 mm 0,0 UV-I 131 W/m 7,3 C 23,2 C 4,8 km/h (1 Bft) 96,15 %
02.07.2018 19:46 23,2 C 22,8 C 38 % 1012,9 hPa 0,0 l/m 2,1 km/h (1 Bft) SO 141 1 min 0,000 mm 0,0 UV-I 129 W/m 8,1 C 23,2 C 3,2 km/h (1 Bft) 100,00 %
02.07.2018 19:47 23,2 C 22,8 C 37 % 1012,9 hPa 0,0 l/m 2,1 km/h (1 Bft) SO 141 1 min 0,000 mm 0,0 UV-I 127 W/m 7,7 C 23,2 C 4,8 km/h (1 Bft) 96,15 %
02.07.2018 19:48 23,2 C 22,8 C 37 % 1012,9 hPa 0,0 l/m 4,2 km/h (1 Bft) SO 140 1 min 0,000 mm 0,0 UV-I 125 W/m 7,7 C 23,2 C 4,8 km/h (1 Bft) 98,20 %
02.07.2018 19:49 23,2 C 22,8 C 37 % 1013,0 hPa 0,0 l/m 3,9 km/h (1 Bft) SO 139 1 min 0,000 mm 0,0 UV-I 122 W/m 7,7 C 23,2 C 6,4 km/h (2 Bft) 97,73 %
02.07.2018 19:50 23,3 C 22,8 C 38 % 1013,0 hPa 0,0 l/m 4,2 km/h (1 Bft) SO 139 1 min 0,000 mm 0,0 UV-I 121 W/m 8,2 C 23,3 C 4,8 km/h (1 Bft) 100,00 %
02.07.2018 19:51 23,3 C 22,8 C 37 % 1012,9 hPa 0,0 l/m 4,2 km/h (1 Bft) SO 139 1 min 0,000 mm 0,0 UV-I 119 W/m 7,8 C 23,3 C 4,8 km/h (1 Bft) 100,00 %
02.07.2018 19:52 23,2 C 22,8 C 37 % 1013,0 hPa 0,0 l/m 4,4 km/h (1 Bft) SO 139 1 min 0,000 mm 0,0 UV-I 117 W/m 7,7 C 23,2 C 6,4 km/h (2 Bft) 100,00 %
02.07.2018 19:53 23,2 C 22,8 C 39 % 1013,0 hPa 0,0 l/m 4,1 km/h (1 Bft) SO 139 1 min 0,000 mm 0,0 UV-I 114 W/m 8,5 C 23,2 C 6,4 km/h (2 Bft) 100,00 %
02.07.2018 19:54 23,2 C 22,8 C 37 % 1013,0 hPa 0,0 l/m 4,6 km/h (1 Bft) SO 142 1 min 0,000 mm 0,0 UV-I 113 W/m 7,7 C 23,2 C 6,4 km/h (2 Bft) 100,00 %
02.07.2018 19:55 23,1 C 22,8 C 37 % 1013,0 hPa 0,0 l/m 3,1 km/h (1 Bft) SO 142 1 min 0,000 mm 0,0 UV-I 112 W/m 7,6 C 23,1 C 4,8 km/h (1 Bft) 100,00 %
02.07.2018 19:56 23,1 C 22,8 C 39 % 1013,0 hPa 0,0 l/m 3,2 km/h (1 Bft) SO 142 1 min 0,000 mm 0,0 UV-I 110 W/m 8,4 C 23,1 C 4,8 km/h (1 Bft) 100,00 %
02.07.2018 19:58 23,1 C 22,8 C 37 % 1013,0 hPa 0,0 l/m 3,4 km/h (1 Bft) SO 142 2 min 0,000 mm 0,0 UV-I 107 W/m 7,6 C 23,1 C 4,8 km/h (1 Bft) 100,00 %
02.07.2018 19:59 23,1 C 22,8 C 37 % 1013,0 hPa 0,0 l/m 3,1 km/h (1 Bft) SO 142 1 min 0,000 mm 0,0 UV-I 104 W/m 7,6 C 23,1 C 4,8 km/h (1 Bft) 100,00 %
02.07.2018 20:00 23,1 C 22,8 C 38 % 1013,0 hPa 0,0 l/m 3,1 km/h (1 Bft) SO 142 1 min 0,000 mm 0,0 UV-I 102 W/m 8,0 C 23,1 C 4,8 km/h (1 Bft) 95,65 %
02.07.2018 20:01 23,1 C 22,8 C 38 % 1013,0 hPa 0,0 l/m 3,0 km/h (1 Bft) SO 142 1 min 0,152 mm 0,0 UV-I 100 W/m 8,0 C 23,1 C 3,2 km/h (1 Bft) 100,00 %
02.07.2018 20:03 23,1 C 22,8 C 39 % 1013,0 hPa 0,0 l/m 2,5 km/h (1 Bft) SO 142 2 min 0,000 mm 0,0 UV-I 98 W/m 8,4 C 23,1 C 3,2 km/h (1 Bft) 97,73 %
02.07.2018 20:04 23,1 C 22,8 C 39 % 1013,0 hPa 0,0 l/m 2,2 km/h (1 Bft) SO 142 1 min 0,000 mm 0,0 UV-I 95 W/m 8,4 C 23,1 C 4,8 km/h (1 Bft) 100,00 %
02.07.2018 20:05 23,1 C 22,8 C 37 % 1013,0 hPa 0,0 l/m 2,9 km/h (1 Bft) SO 142 1 min 0,000 mm 0,0 UV-I 93 W/m 7,6 C 23,1 C 4,8 km/h (1 Bft) 100,00 %
02.07.2018 20:06 23,1 C 22,8 C 39 % 1013,0 hPa 0,0 l/m 3,8 km/h (1 Bft) SO 142 1 min 0,000 mm 0,0 UV-I 93 W/m 8,4 C 23,1 C 4,8 km/h (1 Bft) 95,65 %
02.07.2018 20:07 23,0 C 22,8 C 38 % 1013,0 hPa 0,0 l/m 3,0 km/h (1 Bft) SO 142 1 min 0,000 mm 0,0 UV-I 89 W/m 7,9 C 23,0 C 4,8 km/h (1 Bft) 100,00 %
02.07.2018 20:08 22,9 C 22,8 C 38 % 1013,1 hPa 0,0 l/m 3,2 km/h (1 Bft) S-SO 150 1 min 0,000 mm 0,0 UV-I 87 W/m 7,8 C 22,9 C 4,8 km/h (1 Bft) 96,15 %
02.07.2018 20:09 22,9 C 22,8 C 40 % 1013,1 hPa 0,0 l/m 2,2 km/h (1 Bft) S-SO 150 1 min 0,000 mm 0,0 UV-I 86 W/m 8,6 C 22,9 C 3,2 km/h (1 Bft) 100,00 %
02.07.2018 20:10 22,9 C 22,8 C 38 % 1013,1 hPa 0,0 l/m 3,3 km/h (1 Bft) S-SO 150 1 min 0,000 mm 0,0 UV-I 85 W/m 7,8 C 22,9 C 4,8 km/h (1 Bft) 100,00 %
02.07.2018 20:11 22,8 C 22,8 C 39 % 1013,1 hPa 0,0 l/m 2,9 km/h (1 Bft) SO 129 1 min 0,000 mm 0,0 UV-I 83 W/m 8,1 C 22,8 C 4,8 km/h (1 Bft) 100,00 %
02.07.2018 20:13 22,7 C 22,8 C 43 % 1013,1 hPa 0,0 l/m 2,2 km/h (1 Bft) SO 129 2 min 0,000 mm 0,0 UV-I 79 W/m 9,5 C 22,7 C 3,2 km/h (1 Bft) 97,87 %
02.07.2018 20:14 22,7 C 22,8 C 43 % 1013,1 hPa 0,0 l/m 2,3 km/h (1 Bft) SO 129 1 min 0,000 mm 0,0 UV-I 77 W/m 9,5 C 22,7 C 3,2 km/h (1 Bft) 95,65 %
02.07.2018 20:15 22,6 C 22,8 C 43 % 1013,1 hPa 0,0 l/m 2,9 km/h (1 Bft) SO 129 1 min 0,000 mm 0,0 UV-I 76 W/m 9,4 C 22,6 C 4,8 km/h (1 Bft) 95,83 %
02.07.2018 20:16 22,5 C 22,8 C 43 % 1013,1 hPa 0,0 l/m 2,7 km/h (1 Bft) SO 129 1 min 0,000 mm 0,0 UV-I 75 W/m 9,3 C 22,5 C 3,2 km/h (1 Bft) 100,00 %
02.07.2018 20:20 22,3 C 22,8 C 42 % 1013,0 hPa 0,0 l/m 3,2 km/h (1 Bft) SO 135 4 min 0,000 mm 0,0 UV-I 70 W/m 8,8 C 22,3 C 4,8 km/h (1 Bft) 95,61 %
02.07.2018 20:23 21,8 C 22,8 C 44 % 1013,1 hPa 0,0 l/m 3,0 km/h (1 Bft) SO 129 3 min 0,000 mm 0,0 UV-I 66 W/m 9,0 C 21,8 C 3,2 km/h (1 Bft) 100,00 %
02.07.2018 20:24 21,8 C 22,8 C 46 % 1013,1 hPa 0,0 l/m 3,1 km/h (1 Bft) SO 129 1 min 0,000 mm 0,0 UV-I 62 W/m 9,7 C 21,8 C 4,8 km/h (1 Bft) 100,00 %
02.07.2018 20:25 21,7 C 22,8 C 46 % 1013,1 hPa 0,0 l/m 2,3 km/h (1 Bft) SO 129 1 min 0,000 mm 0,0 UV-I 61 W/m 9,6 C 21,7 C 3,2 km/h (1 Bft) 100,00 %
02.07.2018 20:26 21,6 C 22,8 C 46 % 1013,1 hPa 0,0 l/m 4,0 km/h (1 Bft) SO 128 1 min 0,000 mm 0,0 UV-I 59 W/m 9,5 C 21,6 C 4,8 km/h (1 Bft) 100,00 %
02.07.2018 20:27 21,5 C 22,8 C 44 % 1013,1 hPa 0,0 l/m 2,5 km/h (1 Bft) SO 128 1 min 0,000 mm 0,0 UV-I 57 W/m 8,7 C 21,5 C 3,2 km/h (1 Bft) 100,00 %
02.07.2018 20:28 21,5 C 22,8 C 46 % 1013,1 hPa 0,0 l/m 4,1 km/h (1 Bft) SO 127 1 min 0,000 mm 0,0 UV-I 56 W/m 9,4 C 21,5 C 6,4 km/h (2 Bft) 95,83 %
02.07.2018 20:30 21,4 C 22,8 C 45 % 1013,1 hPa 0,0 l/m 3,2 km/h (1 Bft) SO 135 2 min 0,000 mm 0,0 UV-I 55 W/m 9,0 C 21,4 C 6,4 km/h (2 Bft) 98,25 %
02.07.2018 20:32 21,3 C 22,8 C 45 % 1013,2 hPa 0,0 l/m 4,7 km/h (1 Bft) SO 127 2 min 0,000 mm 0,0 UV-I 52 W/m 8,9 C 21,3 C 6,4 km/h (2 Bft) 97,80 %
02.07.2018 20:33 21,2 C 22,8 C 45 % 1013,1 hPa 0,0 l/m 2,9 km/h (1 Bft) SO 127 1 min 0,000 mm 0,0 UV-I 49 W/m 8,8 C 21,2 C 4,8 km/h (1 Bft) 100,00 %
02.07.2018 20:34 21,2 C 22,8 C 44 % 1013,1 hPa 0,0 l/m 3,8 km/h (1 Bft) SO 127 1 min 0,000 mm 0,0 UV-I 47 W/m 8,5 C 21,2 C 4,8 km/h (1 Bft) 100,00 %
02.07.2018 20:35 21,2 C 22,8 C 46 % 1013,1 hPa 0,0 l/m 4,0 km/h (1 Bft) SO 127 1 min 0,000 mm 0,0 UV-I 46 W/m 9,1 C 21,2 C 4,8 km/h (1 Bft) 100,00 %
02.07.2018 20:36 21,2 C 22,8 C 48 % 1013,2 hPa 0,0 l/m 2,6 km/h (1 Bft) SO 127 1 min 0,000 mm 0,0 UV-I 46 W/m 9,7 C 21,2 C 4,8 km/h (1 Bft) 100,00 %
02.07.2018 20:37 21,1 C 22,8 C 48 % 1013,2 hPa 0,0 l/m 3,0 km/h (1 Bft) SO 127 1 min 0,000 mm 0,0 UV-I 43 W/m 9,7 C 21,1 C 4,8 km/h (1 Bft) 96,15 %
02.07.2018 20:38 20,9 C 22,8 C 48 % 1013,2 hPa 0,0 l/m 2,8 km/h (1 Bft) SO 127 1 min 0,000 mm 0,0 UV-I 42 W/m 9,5 C 20,9 C 3,2 km/h (1 Bft) 100,00 %
02.07.2018 20:39 20,8 C 22,8 C 48 % 1013,2 hPa 0,0 l/m 1,3 km/h (1 Bft) SO 127 1 min 0,000 mm 0,0 UV-I 41 W/m 9,4 C 20,8 C 3,2 km/h (1 Bft) 100,00 %
02.07.2018 20:40 20,8 C 22,8 C 49 % 1013,2 hPa 0,0 l/m 1,7 km/h (1 Bft) SO 127 1 min 0,000 mm 0,0 UV-I 39 W/m 9,7 C 20,8 C 3,2 km/h (1 Bft) 100,00 %
02.07.2018 20:41 20,7 C 22,8 C 48 % 1013,2 hPa 0,0 l/m 1,5 km/h (1 Bft) SO 128 1 min 0,000 mm 0,0 UV-I 37 W/m 9,3 C 20,7 C 3,2 km/h (1 Bft) 100,00 %
02.07.2018 20:42 20,7 C 22,8 C 50 % 1013,3 hPa 0,0 l/m 2,2 km/h (1 Bft) SO 140 1 min 0,000 mm 0,0 UV-I 35 W/m 9,9 C 20,7 C 3,2 km/h (1 Bft) 91,30 %
02.07.2018 20:43 20,4 C 22,8 C 52 % 1013,3 hPa 0,0 l/m 2,2 km/h (1 Bft) O-SO 120 1 min 0,000 mm 0,0 UV-I 34 W/m 10,2 C 20,4 C 3,2 km/h (1 Bft) 100,00 %
02.07.2018 20:44 20,2 C 22,8 C 54 % 1013,3 hPa 0,0 l/m 2,0 km/h (1 Bft) O-SO 120 1 min 0,000 mm 0,0 UV-I 33 W/m 10,6 C 20,2 C 3,2 km/h (1 Bft) 96,55 %
02.07.2018 20:45 20,1 C 22,8 C 54 % 1013,3 hPa 0,0 l/m 1,7 km/h (1 Bft) O-SO 120 1 min 0,000 mm 0,0 UV-I 32 W/m 10,5 C 20,1 C 3,2 km/h (1 Bft) 100,00 %
02.07.2018 20:46 20,0 C 22,8 C 53 % 1013,3 hPa 0,0 l/m 1,7 km/h (1 Bft) O-SO 120 1 min 0,000 mm 0,0 UV-I 32 W/m 10,1 C 20,0 C 3,2 km/h (1 Bft) 96,15 %
02.07.2018 20:48 19,8 C 22,8 C 54 % 1013,3 hPa 0,0 l/m 1,5 km/h (1 Bft) O-SO 120 2 min 0,000 mm 0,0 UV-I 28 W/m 10,2 C 19,8 C 3,2 km/h (1 Bft) 97,56 %
02.07.2018 20:49 19,7 C 22,8 C 55 % 1013,3 hPa 0,0 l/m 1,5 km/h (1 Bft) O-SO 120 1 min 0,000 mm 0,0 UV-I 26 W/m 10,4 C 19,7 C 3,2 km/h (1 Bft) 100,00 %
02.07.2018 20:50 19,6 C 22,8 C 55 % 1013,3 hPa 0,0 l/m 1,7 km/h (1 Bft) O-SO 120 1 min 0,000 mm 0,0 UV-I 25 W/m 10,3 C 19,6 C 3,2 km/h (1 Bft) 96,30 %
02.07.2018 20:51 19,5 C 22,8 C 54 % 1013,3 hPa 0,0 l/m 1,7 km/h (1 Bft) O-SO 120 1 min 0,000 mm 0,0 UV-I 24 W/m 9,9 C 19,5 C 3,2 km/h (1 Bft) 100,00 %
02.07.2018 20:52 19,4 C 22,8 C 54 % 1013,3 hPa 0,0 l/m 1,5 km/h (1 Bft) O-SO 120 1 min 0,000 mm 0,0 UV-I 23 W/m 9,8 C 19,4 C 3,2 km/h (1 Bft) 95,83 %
02.07.2018 20:53 19,4 C 22,8 C 55 % 1013,3 hPa 0,0 l/m 1,6 km/h (1 Bft) O-SO 120 1 min 0,000 mm 0,0 UV-I 21 W/m 10,1 C 19,4 C 1,6 km/h (1 Bft) 95,65 %
02.07.2018 20:54 19,4 C 22,8 C 54 % 1013,3 hPa 0,0 l/m 1,9 km/h (1 Bft) O-SO 120 1 min 0,000 mm 0,0 UV-I 21 W/m 9,8 C 19,4 C 3,2 km/h (1 Bft) 100,00 %
02.07.2018 20:55 19,3 C 22,8 C 54 % 1013,3 hPa 0,0 l/m 2,1 km/h (1 Bft) O-SO 120 0 min 0,000 mm 0,0 UV-I 19 W/m 9,8 C 19,3 C 3,2 km/h (1 Bft) 96,15 %
02.07.2018 20:56 19,3 C 22,8 C 53 % 1013,3 hPa 0,0 l/m 2,8 km/h (1 Bft) O-SO 120 0 min 0,000 mm 0,0 UV-I 18 W/m 9,5 C 19,3 C 3,2 km/h (1 Bft) 100,00 %
02.07.2018 20:57 19,4 C 22,8 C 53 % 1013,3 hPa 0,0 l/m 3,0 km/h (1 Bft) O-SO 120 0 min 0,000 mm 0,0 UV-I 16 W/m 9,6 C 19,4 C 3,2 km/h (1 Bft) 96,15 %
02.07.2018 20:58 19,3 C 22,8 C 54 % 1013,3 hPa 0,0 l/m 3,1 km/h (1 Bft) O-SO 120 0 min 0,000 mm 0,0 UV-I 16 W/m 9,8 C 19,3 C 3,2 km/h (1 Bft) 100,00 %
02.07.2018 20:59 19,2 C 22,8 C 55 % 1013,3 hPa 0,0 l/m 3,0 km/h (1 Bft) O-SO 120 0 min 0,000 mm 0,0 UV-I 14 W/m 9,9 C 19,2 C 3,2 km/h (1 Bft) 95,65 %
02.07.2018 21:00 19,3 C 22,8 C 55 % 1013,4 hPa 0,0 l/m 3,2 km/h (1 Bft) O-SO 120 0 min 0,000 mm 0,0 UV-I 12 W/m 10,0 C 19,3 C 3,2 km/h (1 Bft) 95,83 %
02.07.2018 21:01 19,2 C 22,8 C 54 % 1013,3 hPa 0,0 l/m 3,0 km/h (1 Bft) O-SO 120 0 min 0,051 mm 0,0 UV-I 12 W/m 9,7 C 19,2 C 3,2 km/h (1 Bft) 100,00 %
02.07.2018 21:02 19,2 C 22,8 C 54 % 1013,4 hPa 0,0 l/m 3,6 km/h (1 Bft) O-SO 120 0 min 0,000 mm 0,0 UV-I 11 W/m 9,7 C 19,2 C 4,8 km/h (1 Bft) 91,67 %
02.07.2018 21:03 19,1 C 22,8 C 55 % 1013,4 hPa 0,0 l/m 3,0 km/h (1 Bft) O-SO 120 0 min 0,000 mm 0,0 UV-I 11 W/m 9,8 C 19,1 C 4,8 km/h (1 Bft) 100,00 %
02.07.2018 21:04 19,0 C 22,8 C 55 % 1013,3 hPa 0,0 l/m 2,5 km/h (1 Bft) O-SO 120 0 min 0,000 mm 0,0 UV-I 11 W/m 9,8 C 19,0 C 3,2 km/h (1 Bft) 95,83 %
02.07.2018 21:05 18,9 C 22,8 C 55 % 1013,4 hPa 0,0 l/m 2,1 km/h (1 Bft) O-SO 120 0 min 0,000 mm 0,0 UV-I 11 W/m 9,7 C 18,9 C 3,2 km/h (1 Bft) 95,65 %
02.07.2018 21:06 18,8 C 22,8 C 55 % 1013,4 hPa 0,0 l/m 2,1 km/h (1 Bft) O-SO 120 0 min 0,000 mm 0,0 UV-I 10 W/m 9,6 C 18,8 C 3,2 km/h (1 Bft) 95,83 %
02.07.2018 21:07 18,8 C 22,8 C 54 % 1013,4 hPa 0,0 l/m 1,7 km/h (1 Bft) O-SO 120 0 min 0,000 mm 0,0 UV-I 9 W/m 9,3 C 18,8 C 3,2 km/h (1 Bft) 100,00 %
02.07.2018 21:08 18,8 C 22,8 C 55 % 1013,4 hPa 0,0 l/m 2,1 km/h (1 Bft) O-SO 120 0 min 0,000 mm 0,0 UV-I 9 W/m 9,6 C 18,8 C 3,2 km/h (1 Bft) 100,00 %
02.07.2018 21:09 18,8 C 22,8 C 54 % 1013,4 hPa 0,0 l/m 1,4 km/h (1 Bft) O-SO 120 0 min 0,000 mm 0,0 UV-I 9 W/m 9,3 C 18,8 C 3,2 km/h (1 Bft) 95,65 %
02.07.2018 21:10 18,8 C 22,8 C 54 % 1013,4 hPa 0,0 l/m 1,7 km/h (1 Bft) O-SO 120 0 min 0,000 mm 0,0 UV-I 9 W/m 9,3 C 18,8 C 3,2 km/h (1 Bft) 94,44 %
02.07.2018 21:11 18,7 C 22,8 C 55 % 1013,4 hPa 0,0 l/m 1,0 km/h (0 Bft) O-SO 120 0 min 0,000 mm 0,0 UV-I 9 W/m 9,5 C 18,7 C 1,6 km/h (1 Bft) 100,00 %
02.07.2018 21:13 18,6 C 22,8 C 55 % 1013,4 hPa 0,0 l/m 0,1 km/h (0 Bft) O-SO 120 0 min 0,000 mm 0,0 UV-I 7 W/m 9,4 C 18,6 C 1,6 km/h (1 Bft) 94,00 %
02.07.2018 21:14 18,4 C 22,8 C 56 % 1013,4 hPa 0,0 l/m 0,0 km/h (0 Bft) O-SO 120 0 min 0,000 mm 0,0 UV-I 7 W/m 9,5 C 18,4 C 0,0 km/h (0 Bft) 100,00 %
02.07.2018 21:15 18,4 C 22,8 C 56 % 1013,4 hPa 0,0 l/m 0,0 km/h (0 Bft) O-SO 120 0 min 0,000 mm 0,0 UV-I 7 W/m 9,5 C 18,4 C 0,0 km/h (0 Bft) 95,83 %
02.07.2018 21:16 18,2 C 22,8 C 57 % 1013,4 hPa 0,0 l/m 0,0 km/h (0 Bft) O-SO 120 0 min 0,000 mm 0,0 UV-I 7 W/m 9,5 C 18,2 C 0,0 km/h (0 Bft) 96,15 %
02.07.2018 21:18 18,2 C 22,8 C 58 % 1013,5 hPa 0,0 l/m 0,0 km/h (0 Bft) O-SO 120 0 min 0,000 mm 0,0 UV-I 6 W/m 9,8 C 18,2 C 0,0 km/h (0 Bft) 96,00 %
02.07.2018 21:19 18,2 C 22,8 C 58 % 1013,5 hPa 0,0 l/m 0,0 km/h (0 Bft) O-SO 120 0 min 0,000 mm 0,0 UV-I 5 W/m 9,8 C 18,2 C 0,0 km/h (0 Bft) 91,67 %
02.07.2018 21:20 18,2 C 22,8 C 60 % 1013,5 hPa 0,0 l/m 0,0 km/h (0 Bft) O-SO 120 0 min 0,000 mm 0,0 UV-I 5 W/m 10,3 C 18,2 C 0,0 km/h (0 Bft) 100,00 %
02.07.2018 21:21 18,1 C 22,8 C 60 % 1013,5 hPa 0,0 l/m 0,0 km/h (0 Bft) O-SO 120 0 min 0,000 mm 0,0 UV-I 5 W/m 10,2 C 18,1 C 0,0 km/h (0 Bft) 91,67 %
02.07.2018 21:22 18,2 C 22,8 C 60 % 1013,5 hPa 0,0 l/m 0,0 km/h (0 Bft) O-SO 120 0 min 0,000 mm 0,0 UV-I 5 W/m 10,3 C 18,2 C 0,0 km/h (0 Bft) 100,00 %
02.07.2018 21:23 18,2 C 22,8 C 60 % 1013,5 hPa 0,0 l/m 0,0 km/h (0 Bft) O-SO 120 0 min 0,000 mm 0,0 UV-I 5 W/m 10,3 C 18,2 C 0,0 km/h (0 Bft) 94,74 %
02.07.2018 21:24 18,2 C 22,8 C 59 % 1013,5 hPa 0,0 l/m 0,0 km/h (0 Bft) O-SO 120 0 min 0,000 mm 0,0 UV-I 5 W/m 10,1 C 18,2 C 0,0 km/h (0 Bft) 92,31 %
02.07.2018 21:25 18,2 C 22,8 C 59 % 1013,5 hPa 0,0 l/m 0,0 km/h (0 Bft) O-SO 120 0 min 0,000 mm 0,0 UV-I 5 W/m 10,1 C 18,2 C 0,0 km/h (0 Bft) 100,00 %
02.07.2018 21:26 18,2 C 22,8 C 62 % 1013,5 hPa 0,0 l/m 0,0 km/h (0 Bft) O-SO 120 0 min 0,000 mm 0,0 UV-I 5 W/m 10,8 C 18,2 C 0,0 km/h (0 Bft) 91,30 %
02.07.2018 21:28 17,9 C 22,8 C 64 % 1013,5 hPa 0,0 l/m 0,0 km/h (0 Bft) O-SO 120 0 min 0,000 mm 0,0 UV-I 4 W/m 11,0 C 17,9 C 0,0 km/h (0 Bft) 96,00 %
02.07.2018 21:29 17,8 C 22,8 C 64 % 1013,5 hPa 0,0 l/m 0,0 km/h (0 Bft) O-SO 120 0 min 0,000 mm 0,0 UV-I 0 W/m 10,9 C 17,8 C 0,0 km/h (0 Bft) 100,00 %
02.07.2018 21:30 17,7 C 22,8 C 62 % 1013,6 hPa 0,0 l/m 0,0 km/h (0 Bft) O-SO 120 0 min 0,000 mm 0,0 UV-I 0 W/m 10,3 C 17,7 C 0,0 km/h (0 Bft) 88,46 %
02.07.2018 21:31 17,7 C 22,8 C 63 % 1013,6 hPa 0,0 l/m 1,4 km/h (1 Bft) O-SO 120 0 min 0,000 mm 0,0 UV-I 0 W/m 10,6 C 17,7 C 3,2 km/h (1 Bft) 96,30 %
02.07.2018 21:32 17,7 C 22,8 C 57 % 1013,6 hPa 0,0 l/m 6,0 km/h (2 Bft) O-NO 78 0 min 0,000 mm 0,0 UV-I 0 W/m 9,1 C 17,7 C 11,3 km/h (2 Bft) 95,65 %
02.07.2018 21:33 17,9 C 22,8 C 57 % 1013,7 hPa 0,0 l/m 3,4 km/h (1 Bft) O-NO 78 0 min 0,000 mm 0,0 UV-I 0 W/m 9,3 C 17,9 C 4,8 km/h (1 Bft) 91,67 %
02.07.2018 21:34 18,0 C 22,8 C 55 % 1013,7 hPa 0,0 l/m 3,5 km/h (1 Bft) O-NO 78 0 min 0,000 mm 0,0 UV-I 0 W/m 8,8 C 18,0 C 4,8 km/h (1 Bft) 100,00 %
02.07.2018 21:35 18,1 C 22,8 C 54 % 1013,7 hPa 0,0 l/m 3,7 km/h (1 Bft) O-NO 78 0 min 0,000 mm 0,0 UV-I 0 W/m 8,6 C 18,1 C 4,8 km/h (1 Bft) 91,67 %
02.07.2018 21:36 18,2 C 22,8 C 54 % 1013,7 hPa 0,0 l/m 4,0 km/h (1 Bft) O 80 0 min 0,000 mm 0,0 UV-I 0 W/m 8,7 C 18,2 C 4,8 km/h (1 Bft) 100,00 %
02.07.2018 21:38 18,3 C 22,8 C 54 % 1013,7 hPa 0,0 l/m 7,8 km/h (2 Bft) O-SO 104 0 min 0,000 mm 0,0 UV-I 0 W/m 8,8 C 17,7 C 11,3 km/h (2 Bft) 94,00 %
02.07.2018 21:39 18,6 C 22,8 C 54 % 1013,7 hPa 0,0 l/m 6,0 km/h (2 Bft) O 96 0 min 0,000 mm 0,0 UV-I 0 W/m 9,1 C 18,6 C 12,9 km/h (3 Bft) 96,55 %
02.07.2018 21:40 18,8 C 22,8 C 54 % 1013,7 hPa 0,0 l/m 10,0 km/h (2 Bft) O-SO 109 0 min 0,000 mm 0,0 UV-I 0 W/m 9,3 C 17,3 C 11,3 km/h (2 Bft) 91,67 %
02.07.2018 21:41 18,9 C 22,8 C 53 % 1013,7 hPa 0,0 l/m 6,6 km/h (2 Bft) O-SO 103 0 min 0,000 mm 0,0 UV-I 0 W/m 9,1 C 18,8 C 11,3 km/h (2 Bft) 96,55 %
02.07.2018 21:43 19,2 C 22,8 C 52 % 1013,8 hPa 0,0 l/m 5,9 km/h (2 Bft) O-SO 104 0 min 0,000 mm 0,0 UV-I 0 W/m 9,1 C 19,2 C 9,7 km/h (2 Bft) 96,23 %
02.07.2018 21:44 19,2 C 22,8 C 52 % 1013,8 hPa 0,0 l/m 5,1 km/h (1 Bft) O-SO 108 0 min 0,000 mm 0,0 UV-I 0 W/m 9,1 C 19,2 C 6,4 km/h (2 Bft) 93,33 %
02.07.2018 21:45 19,2 C 22,8 C 53 % 1013,8 hPa 0,0 l/m 5,1 km/h (1 Bft) O-SO 105 0 min 0,000 mm 0,0 UV-I 0 W/m 9,4 C 19,2 C 6,4 km/h (2 Bft) 96,15 %
02.07.2018 21:46 19,1 C 22,8 C 53 % 1013,8 hPa 0,0 l/m 6,9 km/h (2 Bft) O 95 0 min 0,000 mm 0,0 UV-I 0 W/m 9,3 C 18,9 C 11,3 km/h (2 Bft) 91,67 %
02.07.2018 21:47 19,1 C 22,8 C 53 % 1013,9 hPa 0,0 l/m 5,1 km/h (1 Bft) O-SO 114 0 min 0,000 mm 0,0 UV-I 0 W/m 9,3 C 19,1 C 9,7 km/h (2 Bft) 96,15 %
02.07.2018 21:48 19,2 C 22,8 C 53 % 1013,9 hPa 0,0 l/m 5,0 km/h (1 Bft) O 90 0 min 0,000 mm 0,0 UV-I 0 W/m 9,4 C 19,2 C 6,4 km/h (2 Bft) 95,83 %
02.07.2018 21:49 19,1 C 22,8 C 54 % 1013,9 hPa 0,0 l/m 6,4 km/h (2 Bft) O-SO 109 0 min 0,000 mm 0,0 UV-I 0 W/m 9,6 C 19,1 C 9,7 km/h (2 Bft) 95,65 %
02.07.2018 21:50 19,1 C 22,8 C 54 % 1013,9 hPa 0,0 l/m 5,2 km/h (1 Bft) O 96 0 min 0,000 mm 0,0 UV-I 0 W/m 9,6 C 19,1 C 8,0 km/h (2 Bft) 100,00 %
02.07.2018 21:51 19,0 C 22,8 C 54 % 1013,9 hPa 0,0 l/m 5,2 km/h (1 Bft) O 97 0 min 0,000 mm 0,0 UV-I 0 W/m 9,5 C 19,0 C 6,4 km/h (2 Bft) 91,30 %
02.07.2018 21:52 19,0 C 22,8 C 54 % 1013,9 hPa 0,0 l/m 4,4 km/h (1 Bft) O-SO 107 0 min 0,000 mm 0,0 UV-I 0 W/m 9,5 C 19,0 C 6,4 km/h (2 Bft) 100,00 %
02.07.2018 21:53 19,0 C 22,8 C 54 % 1013,9 hPa 0,0 l/m 4,6 km/h (1 Bft) O-SO 117 0 min 0,000 mm 0,0 UV-I 0 W/m 9,5 C 19,0 C 6,4 km/h (2 Bft) 100,00 %
02.07.2018 21:54 19,0 C 22,8 C 55 % 1013,9 hPa 0,0 l/m 4,0 km/h (1 Bft) O-SO 115 0 min 0,000 mm 0,0 UV-I 0 W/m 9,8 C 19,0 C 6,4 km/h (2 Bft) 100,00 %
02.07.2018 21:55 19,0 C 22,8 C 55 % 1013,9 hPa 0,0 l/m 4,6 km/h (1 Bft) O 82 0 min 0,000 mm 0,0 UV-I 0 W/m 9,8 C 19,0 C 6,4 km/h (2 Bft) 96,30 %
02.07.2018 21:56 18,9 C 22,8 C 55 % 1013,9 hPa 0,0 l/m 3,8 km/h (1 Bft) O 92 0 min 0,000 mm 0,0 UV-I 0 W/m 9,7 C 18,9 C 4,8 km/h (1 Bft) 100,00 %
02.07.2018 21:58 18,8 C 22,8 C 56 % 1013,9 hPa 0,0 l/m 3,2 km/h (1 Bft) O 91 0 min 0,000 mm 0,0 UV-I 0 W/m 9,8 C 18,8 C 6,4 km/h (2 Bft) 100,00 %
02.07.2018 21:59 18,6 C 22,8 C 56 % 1013,9 hPa 0,0 l/m 2,8 km/h (1 Bft) O 91 0 min 0,000 mm 0,0 UV-I 0 W/m 9,6 C 18,6 C 3,2 km/h (1 Bft) 100,00 %
02.07.2018 22:00 18,5 C 22,8 C 56 % 1014,0 hPa 0,0 l/m 3,3 km/h (1 Bft) O 91 0 min 0,000 mm 0,0 UV-I 0 W/m 9,6 C 18,5 C 4,8 km/h (1 Bft) 100,00 %
02.07.2018 22:02 18,2 C 22,8 C 58 % 1014,0 hPa 0,0 l/m 3,7 km/h (1 Bft) O-NO 57 0 min 0,025 mm 0,0 UV-I 0 W/m 9,8 C 18,2 C 4,8 km/h (1 Bft) 100,00 %
02.07.2018 22:03 18,0 C 22,8 C 59 % 1014,0 hPa 0,0 l/m 4,2 km/h (1 Bft) O-NO 57 0 min 0,000 mm 0,0 UV-I 0 W/m 9,9 C 18,0 C 4,8 km/h (1 Bft) 100,00 %
02.07.2018 22:04 17,7 C 22,8 C 61 % 1014,0 hPa 0,0 l/m 4,3 km/h (1 Bft) NO 46 0 min 0,000 mm 0,0 UV-I 0 W/m 10,1 C 17,7 C 4,8 km/h (1 Bft) 95,65 %
02.07.2018 22:05 17,3 C 22,2 C 62 % 1014,0 hPa 0,0 l/m 5,1 km/h (1 Bft) NO 39 0 min 0,000 mm 0,0 UV-I 0 W/m 9,9 C 17,3 C 6,4 km/h (2 Bft) 100,00 %
02.07.2018 22:06 17,1 C 22,8 C 64 % 1014,0 hPa 0,0 l/m 4,9 km/h (1 Bft) NO 38 0 min 0,000 mm 0,0 UV-I 0 W/m 10,2 C 17,1 C 6,4 km/h (2 Bft) 100,00 %
02.07.2018 22:08 16,4 C 22,8 C 65 % 1014,1 hPa 0,0 l/m 6,1 km/h (2 Bft) N-NO 23 0 min 0,000 mm 0,0 UV-I 0 W/m 9,8 C 16,4 C 8,0 km/h (2 Bft) 97,87 %
02.07.2018 22:09 16,3 C 22,8 C 67 % 1014,1 hPa 0,0 l/m 8,0 km/h (2 Bft) N-NO 24 0 min 0,000 mm 0,0 UV-I 0 W/m 10,2 C 15,5 C 9,7 km/h (2 Bft) 100,00 %
02.07.2018 22:10 16,1 C 22,8 C 67 % 1014,0 hPa 0,0 l/m 7,2 km/h (2 Bft) N-NO 25 0 min 0,000 mm 0,0 UV-I 0 W/m 10,0 C 15,7 C 9,7 km/h (2 Bft) 100,00 %
02.07.2018 22:11 16,1 C 22,2 C 68 % 1014,1 hPa 0,0 l/m 5,9 km/h (2 Bft) N-NO 28 0 min 0,000 mm 0,0 UV-I 0 W/m 10,2 C 16,1 C 8,0 km/h (2 Bft) 100,00 %
02.07.2018 22:13 16,1 C 22,2 C 68 % 1014,1 hPa 0,0 l/m 6,3 km/h (2 Bft) NO 40 0 min 0,000 mm 0,0 UV-I 0 W/m 10,2 C 16,1 C 8,0 km/h (2 Bft) 100,00 %
02.07.2018 22:14 16,2 C 22,2 C 68 % 1014,1 hPa 0,0 l/m 5,2 km/h (1 Bft) NO 34 0 min 0,000 mm 0,0 UV-I 0 W/m 10,3 C 16,2 C 8,0 km/h (2 Bft) 100,00 %
02.07.2018 22:15 16,3 C 22,2 C 68 % 1014,1 hPa 0,0 l/m 4,0 km/h (1 Bft) NO 36 0 min 0,000 mm 0,0 UV-I 0 W/m 10,4 C 16,3 C 4,8 km/h (1 Bft) 100,00 %
02.07.2018 22:16 16,3 C 22,2 C 68 % 1014,1 hPa 0,0 l/m 4,5 km/h (1 Bft) NO 40 0 min 0,000 mm 0,0 UV-I 0 W/m 10,4 C 16,3 C 4,8 km/h (1 Bft) 100,00 %
02.07.2018 22:17 16,4 C 22,8 C 67 % 1014,1 hPa 0,0 l/m 3,0 km/h (1 Bft) NO 40 0 min 0,000 mm 0,0 UV-I 0 W/m 10,3 C 16,4 C 4,8 km/h (1 Bft) 100,00 %
02.07.2018 22:18 16,4 C 22,8 C 68 % 1014,1 hPa 0,0 l/m 2,1 km/h (1 Bft) NO 40 0 min 0,000 mm 0,0 UV-I 0 W/m 10,5 C 16,4 C 3,2 km/h (1 Bft) 100,00 %
02.07.2018 22:19 16,3 C 22,8 C 68 % 1014,1 hPa 0,0 l/m 2,8 km/h (1 Bft) NO 44 0 min 0,000 mm 0,0 UV-I 0 W/m 10,4 C 16,3 C 4,8 km/h (1 Bft) 100,00 %
02.07.2018 22:20 16,3 C 22,8 C 68 % 1014,1 hPa 0,0 l/m 4,1 km/h (1 Bft) NO 44 0 min 0,000 mm 0,0 UV-I 0 W/m 10,4 C 16,3 C 4,8 km/h (1 Bft) 100,00 %
02.07.2018 22:21 16,3 C 22,2 C 69 % 1014,1 hPa 0,0 l/m 3,2 km/h (1 Bft) NO 45 0 min 0,000 mm 0,0 UV-I 0 W/m 10,6 C 16,3 C 4,8 km/h (1 Bft) 100,00 %
02.07.2018 22:22 16,3 C 22,2 C 69 % 1014,1 hPa 0,0 l/m 3,1 km/h (1 Bft) NO 45 0 min 0,000 mm 0,0 UV-I 0 W/m 10,6 C 16,3 C 4,8 km/h (1 Bft) 100,00 %
02.07.2018 22:23 16,3 C 22,2 C 68 % 1014,1 hPa 0,0 l/m 3,2 km/h (1 Bft) NO 45 0 min 0,000 mm 0,0 UV-I 0 W/m 10,4 C 16,3 C 3,2 km/h (1 Bft) 100,00 %
02.07.2018 22:24 16,4 C 22,8 C 68 % 1014,1 hPa 0,0 l/m 2,6 km/h (1 Bft) NO 45 0 min 0,000 mm 0,0 UV-I 0 W/m 10,5 C 16,4 C 3,2 km/h (1 Bft) 100,00 %
02.07.2018 22:25 16,5 C 22,8 C 68 % 1014,2 hPa 0,0 l/m 3,2 km/h (1 Bft) NO 45 0 min 0,000 mm 0,0 UV-I 0 W/m 10,6 C 16,5 C 3,2 km/h (1 Bft) 100,00 %
02.07.2018 22:26 16,6 C 22,8 C 68 % 1014,1 hPa 0,0 l/m 2,9 km/h (1 Bft) NO 45 0 min 0,000 mm 0,0 UV-I 0 W/m 10,7 C 16,6 C 4,8 km/h (1 Bft) 100,00 %
02.07.2018 22:28 16,7 C 22,8 C 67 % 1014,1 hPa 0,0 l/m 2,5 km/h (1 Bft) NO 45 0 min 0,000 mm 0,0 UV-I 0 W/m 10,5 C 16,7 C 4,8 km/h (1 Bft) 98,00 %
02.07.2018 22:29 16,7 C 22,2 C 68 % 1014,1 hPa 0,0 l/m 1,7 km/h (1 Bft) NO 45 0 min 0,000 mm 0,0 UV-I 0 W/m 10,8 C 16,7 C 3,2 km/h (1 Bft) 100,00 %
02.07.2018 22:30 16,7 C 22,2 C 67 % 1014,1 hPa 0,0 l/m 1,5 km/h (1 Bft) NO 45 0 min 0,000 mm 0,0 UV-I 0 W/m 10,5 C 16,7 C 3,2 km/h (1 Bft) 100,00 %
02.07.2018 22:31 16,7 C 22,2 C 66 % 1014,1 hPa 0,0 l/m 2,5 km/h (1 Bft) NO 45 0 min 0,000 mm 0,0 UV-I 0 W/m 10,3 C 16,7 C 3,2 km/h (1 Bft) 100,00 %
02.07.2018 22:33 16,8 C 22,2 C 66 % 1014,2 hPa 0,0 l/m 2,3 km/h (1 Bft) NO 45 0 min 0,000 mm 0,0 UV-I 0 W/m 10,4 C 16,8 C 4,8 km/h (1 Bft) 100,00 %
02.07.2018 22:34 16,8 C 22,2 C 65 % 1014,2 hPa 0,0 l/m 2,1 km/h (1 Bft) NO 45 0 min 0,000 mm 0,0 UV-I 0 W/m 10,2 C 16,8 C 3,2 km/h (1 Bft) 100,00 %
02.07.2018 22:35 16,8 C 22,2 C 65 % 1014,2 hPa 0,0 l/m 1,6 km/h (1 Bft) NO 45 0 min 0,000 mm 0,0 UV-I 0 W/m 10,2 C 16,8 C 3,2 km/h (1 Bft) 100,00 %
02.07.2018 22:36 16,8 C 22,2 C 65 % 1014,2 hPa 0,0 l/m 2,5 km/h (1 Bft) NO 45 0 min 0,000 mm 0,0 UV-I 0 W/m 10,2 C 16,8 C 3,2 km/h (1 Bft) 100,00 %
02.07.2018 22:38 16,8 C 22,2 C 65 % 1014,3 hPa 0,0 l/m 1,9 km/h (1 Bft) NO 45 0 min 0,000 mm 0,0 UV-I 0 W/m 10,2 C 16,8 C 3,2 km/h (1 Bft) 97,87 %
02.07.2018 22:39 16,7 C 22,2 C 66 % 1014,3 hPa 0,0 l/m 1,7 km/h (1 Bft) NO 45 0 min 0,000 mm 0,0 UV-I 0 W/m 10,3 C 16,7 C 3,2 km/h (1 Bft) 100,00 %
02.07.2018 22:40 16,7 C 22,2 C 66 % 1014,3 hPa 0,0 l/m 0,1 km/h (0 Bft) NO 45 0 min 0,000 mm 0,0 UV-I 0 W/m 10,3 C 16,7 C 1,6 km/h (1 Bft) 100,00 %
02.07.2018 22:41 16,7 C 22,2 C 66 % 1014,3 hPa 0,0 l/m 0,0 km/h (0 Bft) NO 45 0 min 0,000 mm 0,0 UV-I 0 W/m 10,3 C 16,7 C 0,0 km/h (0 Bft) 100,00 %
02.07.2018 22:42 16,6 C 22,2 C 66 % 1014,3 hPa 0,0 l/m 0,0 km/h (0 Bft) NO 45 0 min 0,000 mm 0,0 UV-I 0 W/m 10,2 C 16,6 C 0,0 km/h (0 Bft) 100,00 %
02.07.2018 22:43 16,6 C 22,2 C 67 % 1014,3 hPa 0,0 l/m 0,0 km/h (0 Bft) NO 45 0 min 0,000 mm 0,0 UV-I 0 W/m 10,4 C 16,6 C 0,0 km/h (0 Bft) 100,00 %
02.07.2018 22:44 16,5 C 22,2 C 67 % 1014,3 hPa 0,0 l/m 0,0 km/h (0 Bft) NO 45 0 min 0,000 mm 0,0 UV-I 0 W/m 10,4 C 16,5 C 0,0 km/h (0 Bft) 100,00 %
02.07.2018 22:45 16,5 C 22,2 C 67 % 1014,3 hPa 0,0 l/m 0,0 km/h (0 Bft) NO 45 0 min 0,000 mm 0,0 UV-I 0 W/m 10,4 C 16,5 C 0,0 km/h (0 Bft) 100,00 %
02.07.2018 22:46 16,5 C 22,2 C 67 % 1014,3 hPa 0,0 l/m 0,0 km/h (0 Bft) NO 45 0 min 0,000 mm 0,0 UV-I 0 W/m 10,4 C 16,5 C 0,0 km/h (0 Bft) 96,88 %
02.07.2018 22:47 16,6 C 22,2 C 67 % 1014,3 hPa 0,0 l/m 0,0 km/h (0 Bft) NO 45 0 min 0,000 mm 0,0 UV-I 0 W/m 10,4 C 16,6 C 0,0 km/h (0 Bft) 100,00 %
02.07.2018 22:48 16,5 C 22,2 C 67 % 1014,3 hPa 0,0 l/m 0,0 km/h (0 Bft) NO 45 0 min 0,000 mm 0,0 UV-I 0 W/m 10,4 C 16,5 C 0,0 km/h (0 Bft) 100,00 %
02.07.2018 22:49 16,5 C 22,2 C 68 % 1014,3 hPa 0,0 l/m 0,0 km/h (0 Bft) NO 45 0 min 0,000 mm 0,0 UV-I 0 W/m 10,6 C 16,5 C 0,0 km/h (0 Bft) 100,00 %
02.07.2018 22:50 16,5 C 22,2 C 68 % 1014,4 hPa 0,0 l/m 0,0 km/h (0 Bft) NO 45 0 min 0,000 mm 0,0 UV-I 0 W/m 10,6 C 16,5 C 0,0 km/h (0 Bft) 100,00 %
02.07.2018 22:51 16,6 C 22,2 C 68 % 1014,4 hPa 0,0 l/m 0,0 km/h (0 Bft) NO 45 0 min 0,000 mm 0,0 UV-I 0 W/m 10,7 C 16,6 C 0,0 km/h (0 Bft) 100,00 %
02.07.2018 22:52 16,6 C 22,2 C 68 % 1014,4 hPa 0,0 l/m 0,0 km/h (0 Bft) NO 45 0 min 0,000 mm 0,0 UV-I 0 W/m 10,7 C 16,6 C 0,0 km/h (0 Bft) 100,00 %
02.07.2018 22:53 16,6 C 22,2 C 69 % 1014,4 hPa 0,0 l/m 1,5 km/h (1 Bft) NO 45 0 min 0,000 mm 0,0 UV-I 0 W/m 10,9 C 16,6 C 3,2 km/h (1 Bft) 100,00 %
02.07.2018 22:54 16,4 C 22,2 C 68 % 1014,3 hPa 0,0 l/m 1,1 km/h (1 Bft) NO 45 0 min 0,000 mm 0,0 UV-I 0 W/m 10,5 C 16,4 C 3,2 km/h (1 Bft) 100,00 %
02.07.2018 22:55 16,4 C 22,2 C 68 % 1014,3 hPa 0,0 l/m 1,6 km/h (1 Bft) NO 45 0 min 0,000 mm 0,0 UV-I 0 W/m 10,5 C 16,4 C 3,2 km/h (1 Bft) 100,00 %
02.07.2018 22:56 16,4 C 22,2 C 68 % 1014,3 hPa 0,0 l/m 1,5 km/h (1 Bft) NO 45 0 min 0,000 mm 0,0 UV-I 0 W/m 10,5 C 16,4 C 1,6 km/h (1 Bft) 100,00 %
02.07.2018 22:58 16,3 C 22,2 C 68 % 1014,4 hPa 0,0 l/m 1,7 km/h (1 Bft) NO 45 0 min 0,000 mm 0,0 UV-I 0 W/m 10,4 C 16,3 C 3,2 km/h (1 Bft) 98,00 %
02.07.2018 22:59 16,3 C 22,2 C 68 % 1014,4 hPa 0,0 l/m 1,8 km/h (1 Bft) NO 45 0 min 0,000 mm 0,0 UV-I 0 W/m 10,4 C 16,3 C 3,2 km/h (1 Bft) 100,00 %
02.07.2018 23:00 16,3 C 22,2 C 68 % 1014,3 hPa 0,0 l/m 1,9 km/h (1 Bft) NO 45 0 min 0,000 mm 0,0 UV-I 0 W/m 10,4 C 16,3 C 3,2 km/h (1 Bft) 100,00 %
02.07.2018 23:01 16,3 C 22,2 C 68 % 1014,3 hPa 0,0 l/m 1,9 km/h (1 Bft) NO 45 0 min 0,026 mm 0,0 UV-I 0 W/m 10,4 C 16,3 C 3,2 km/h (1 Bft) 95,65 %
02.07.2018 23:02 16,3 C 22,2 C 68 % 1014,3 hPa 0,0 l/m 2,1 km/h (1 Bft) NO 45 0 min 0,000 mm 0,0 UV-I 0 W/m 10,4 C 16,3 C 3,2 km/h (1 Bft) 100,00 %
02.07.2018 23:03 16,4 C 22,2 C 67 % 1014,3 hPa 0,0 l/m 2,1 km/h (1 Bft) NO 45 0 min 0,000 mm 0,0 UV-I 0 W/m 10,3 C 16,4 C 3,2 km/h (1 Bft) 100,00 %
02.07.2018 23:04 16,5 C 22,2 C 67 % 1014,3 hPa 0,0 l/m 2,1 km/h (1 Bft) NO 45 0 min 0,000 mm 0,0 UV-I 0 W/m 10,4 C 16,5 C 3,2 km/h (1 Bft) 100,00 %
02.07.2018 23:05 16,5 C 22,2 C 67 % 1014,3 hPa 0,0 l/m 2,1 km/h (1 Bft) NO 45 0 min 0,000 mm 0,0 UV-I 0 W/m 10,4 C 16,5 C 3,2 km/h (1 Bft) 100,00 %
02.07.2018 23:06 16,5 C 22,2 C 67 % 1014,3 hPa 0,0 l/m 2,3 km/h (1 Bft) NO 45 0 min 0,000 mm 0,0 UV-I 0 W/m 10,4 C 16,5 C 3,2 km/h (1 Bft) 100,00 %
02.07.2018 23:08 16,4 C 22,2 C 67 % 1014,4 hPa 0,0 l/m 3,6 km/h (1 Bft) NO 45 0 min 0,000 mm 0,0 UV-I 0 W/m 10,3 C 16,4 C 4,8 km/h (1 Bft) 100,00 %
02.07.2018 23:09 16,4 C 22,2 C 67 % 1014,4 hPa 0,0 l/m 3,1 km/h (1 Bft) NO 45 0 min 0,000 mm 0,0 UV-I 0 W/m 10,3 C 16,4 C 3,2 km/h (1 Bft) 100,00 %
02.07.2018 23:10 16,3 C 22,2 C 67 % 1014,4 hPa 0,0 l/m 3,0 km/h (1 Bft) NO 45 0 min 0,000 mm 0,0 UV-I 0 W/m 10,2 C 16,3 C 3,2 km/h (1 Bft) 100,00 %
02.07.2018 23:11 16,3 C 22,2 C 68 % 1014,4 hPa 0,0 l/m 2,2 km/h (1 Bft) NO 45 0 min 0,000 mm 0,0 UV-I 0 W/m 10,4 C 16,3 C 3,2 km/h (1 Bft) 100,00 %
02.07.2018 23:12 16,3 C 22,2 C 68 % 1014,3 hPa 0,0 l/m 2,2 km/h (1 Bft) NO 45 0 min 0,000 mm 0,0 UV-I 0 W/m 10,4 C 16,3 C 3,2 km/h (1 Bft) 100,00 %
02.07.2018 23:13 16,3 C 22,2 C 68 % 1014,3 hPa 0,0 l/m 3,2 km/h (1 Bft) NO 45 0 min 0,000 mm 0,0 UV-I 0 W/m 10,4 C 16,3 C 4,8 km/h (1 Bft) 100,00 %
02.07.2018 23:14 16,3 C 22,2 C 68 % 1014,4 hPa 0,0 l/m 3,2 km/h (1 Bft) NO 45 0 min 0,000 mm 0,0 UV-I 0 W/m 10,4 C 16,3 C 4,8 km/h (1 Bft) 100,00 %
02.07.2018 23:15 16,3 C 22,2 C 68 % 1014,4 hPa 0,0 l/m 3,1 km/h (1 Bft) NO 45 0 min 0,000 mm 0,0 UV-I 0 W/m 10,4 C 16,3 C 3,2 km/h (1 Bft) 100,00 %
02.07.2018 23:16 16,3 C 22,2 C 68 % 1014,4 hPa 0,0 l/m 2,6 km/h (1 Bft) NO 45 0 min 0,000 mm 0,0 UV-I 0 W/m 10,4 C 16,3 C 3,2 km/h (1 Bft) 100,00 %
02.07.2018 23:17 16,4 C 22,2 C 67 % 1014,4 hPa 0,0 l/m 2,2 km/h (1 Bft) NO 45 0 min 0,000 mm 0,0 UV-I 0 W/m 10,3 C 16,4 C 3,2 km/h (1 Bft) 100,00 %
02.07.2018 23:18 16,4 C 22,2 C 67 % 1014,4 hPa 0,0 l/m 2,2 km/h (1 Bft) NO 45 0 min 0,000 mm 0,0 UV-I 0 W/m 10,3 C 16,4 C 3,2 km/h (1 Bft) 100,00 %
02.07.2018 23:19 16,4 C 22,2 C 67 % 1014,4 hPa 0,0 l/m 1,7 km/h (1 Bft) NO 45 0 min 0,000 mm 0,0 UV-I 0 W/m 10,3 C 16,4 C 3,2 km/h (1 Bft) 100,00 %
02.07.2018 23:20 16,4 C 22,2 C 67 % 1014,4 hPa 0,0 l/m 1,6 km/h (1 Bft) NO 45 0 min 0,000 mm 0,0 UV-I 0 W/m 10,3 C 16,4 C 1,6 km/h (1 Bft) 100,00 %
02.07.2018 23:21 16,4 C 22,2 C 67 % 1014,4 hPa 0,0 l/m 1,1 km/h (1 Bft) NO 45 0 min 0,000 mm 0,0 UV-I 0 W/m 10,3 C 16,4 C 1,6 km/h (1 Bft) 100,00 %
02.07.2018 23:22 16,4 C 22,2 C 69 % 1014,4 hPa 0,0 l/m 1,7 km/h (1 Bft) NO 45 0 min 0,000 mm 0,0 UV-I 0 W/m 10,7 C 16,4 C 3,2 km/h (1 Bft) 100,00 %
02.07.2018 23:23 16,3 C 22,2 C 69 % 1014,4 hPa 0,0 l/m 1,5 km/h (1 Bft) NO 45 0 min 0,000 mm 0,0 UV-I 0 W/m 10,6 C 16,3 C 3,2 km/h (1 Bft) 100,00 %
02.07.2018 23:24 16,2 C 22,2 C 70 % 1014,4 hPa 0,0 l/m 1,6 km/h (1 Bft) NO 45 0 min 0,000 mm 0,0 UV-I 0 W/m 10,7 C 16,2 C 3,2 km/h (1 Bft) 100,00 %
02.07.2018 23:25 16,3 C 22,2 C 69 % 1014,5 hPa 0,0 l/m 1,5 km/h (1 Bft) NO 45 0 min 0,000 mm 0,0 UV-I 0 W/m 10,6 C 16,3 C 3,2 km/h (1 Bft) 100,00 %
02.07.2018 23:26 16,3 C 22,2 C 69 % 1014,4 hPa 0,0 l/m 2,2 km/h (1 Bft) NO 45 0 min 0,000 mm 0,0 UV-I 0 W/m 10,6 C 16,3 C 3,2 km/h (1 Bft) 100,00 %
02.07.2018 23:28 16,3 C 22,2 C 68 % 1014,4 hPa 0,0 l/m 2,2 km/h (1 Bft) NO 45 0 min 0,000 mm 0,0 UV-I 0 W/m 10,4 C 16,3 C 3,2 km/h (1 Bft) 98,11 %
02.07.2018 23:29 16,3 C 22,2 C 68 % 1014,4 hPa 0,0 l/m 1,8 km/h (1 Bft) NO 45 0 min 0,000 mm 0,0 UV-I 0 W/m 10,4 C 16,3 C 3,2 km/h (1 Bft) 100,00 %
02.07.2018 23:30 16,2 C 22,2 C 68 % 1014,4 hPa 0,0 l/m 1,4 km/h (1 Bft) NO 45 0 min 0,000 mm 0,0 UV-I 0 W/m 10,3 C 16,2 C 3,2 km/h (1 Bft) 92,59 %
02.07.2018 23:31 16,2 C 22,2 C 68 % 1014,5 hPa 0,0 l/m 1,0 km/h (0 Bft) NO 45 0 min 0,000 mm 0,0 UV-I 0 W/m 10,3 C 16,2 C 3,2 km/h (1 Bft) 95,65 %
02.07.2018 23:33 15,9 C 22,2 C 70 % 1014,5 hPa 0,0 l/m 2,1 km/h (1 Bft) NO 45 0 min 0,000 mm 0,0 UV-I 0 W/m 10,4 C 15,9 C 3,2 km/h (1 Bft) 97,87 %
02.07.2018 23:34 15,8 C 22,2 C 70 % 1014,5 hPa 0,0 l/m 2,3 km/h (1 Bft) NO 45 0 min 0,000 mm 0,0 UV-I 0 W/m 10,3 C 15,8 C 3,2 km/h (1 Bft) 100,00 %
02.07.2018 23:35 15,7 C 22,2 C 70 % 1014,5 hPa 0,0 l/m 1,8 km/h (1 Bft) NO 45 0 min 0,000 mm 0,0 UV-I 0 W/m 10,2 C 15,7 C 3,2 km/h (1 Bft) 96,15 %
02.07.2018 23:36 15,7 C 22,2 C 70 % 1014,5 hPa 0,0 l/m 2,0 km/h (1 Bft) NO 45 0 min 0,000 mm 0,0 UV-I 0 W/m 10,2 C 15,7 C 3,2 km/h (1 Bft) 100,00 %
02.07.2018 23:38 15,6 C 22,2 C 72 % 1014,5 hPa 0,0 l/m 2,2 km/h (1 Bft) NO 45 0 min 0,000 mm 0,0 UV-I 0 W/m 10,6 C 15,6 C 3,2 km/h (1 Bft) 98,00 %
02.07.2018 23:39 15,6 C 22,2 C 71 % 1014,5 hPa 0,0 l/m 2,8 km/h (1 Bft) NO 45 0 min 0,000 mm 0,0 UV-I 0 W/m 10,4 C 15,6 C 3,2 km/h (1 Bft) 91,67 %
02.07.2018 23:40 15,6 C 22,2 C 71 % 1014,5 hPa 0,0 l/m 3,1 km/h (1 Bft) NO 45 0 min 0,000 mm 0,0 UV-I 0 W/m 10,4 C 15,6 C 3,2 km/h (1 Bft) 96,88 %
02.07.2018 23:41 15,6 C 22,2 C 71 % 1014,5 hPa 0,0 l/m 2,5 km/h (1 Bft) NO 45 0 min 0,000 mm 0,0 UV-I 0 W/m 10,4 C 15,6 C 3,2 km/h (1 Bft) 95,65 %
02.07.2018 23:42 15,5 C 22,2 C 71 % 1014,5 hPa 0,0 l/m 3,1 km/h (1 Bft) NO 45 0 min 0,000 mm 0,0 UV-I 0 W/m 10,3 C 15,5 C 4,8 km/h (1 Bft) 95,83 %
02.07.2018 23:43 15,4 C 22,2 C 71 % 1014,5 hPa 0,0 l/m 3,6 km/h (1 Bft) NO 45 0 min 0,000 mm 0,0 UV-I 0 W/m 10,2 C 15,4 C 4,8 km/h (1 Bft) 100,00 %
02.07.2018 23:44 15,4 C 22,2 C 71 % 1014,5 hPa 0,0 l/m 3,9 km/h (1 Bft) NO 46 0 min 0,000 mm 0,0 UV-I 0 W/m 10,2 C 15,4 C 4,8 km/h (1 Bft) 93,33 %
02.07.2018 23:45 15,6 C 22,2 C 71 % 1014,5 hPa 0,0 l/m 4,4 km/h (1 Bft) NO 46 0 min 0,000 mm 0,0 UV-I 0 W/m 10,4 C 15,6 C 4,8 km/h (1 Bft) 100,00 %
02.07.2018 23:46 15,6 C 22,2 C 71 % 1014,6 hPa 0,0 l/m 4,0 km/h (1 Bft) NO 45 0 min 0,000 mm 0,0 UV-I 0 W/m 10,4 C 15,6 C 4,8 km/h (1 Bft) 96,15 %
02.07.2018 23:48 15,6 C 22,2 C 71 % 1014,5 hPa 0,0 l/m 3,6 km/h (1 Bft) NO 46 0 min 0,000 mm 0,0 UV-I 0 W/m 10,4 C 15,6 C 4,8 km/h (1 Bft) 98,11 %
02.07.2018 23:49 15,6 C 22,2 C 71 % 1014,5 hPa 0,0 l/m 3,5 km/h (1 Bft) NO 55 0 min 0,000 mm 0,0 UV-I 0 W/m 10,4 C 15,6 C 4,8 km/h (1 Bft) 95,83 %
02.07.2018 23:50 15,5 C 22,2 C 71 % 1014,6 hPa 0,0 l/m 3,2 km/h (1 Bft) NO 55 0 min 0,000 mm 0,0 UV-I 0 W/m 10,3 C 15,5 C 4,8 km/h (1 Bft) 100,00 %
02.07.2018 23:51 15,4 C 22,2 C 71 % 1014,5 hPa 0,0 l/m 3,3 km/h (1 Bft) NO 56 0 min 0,000 mm 0,0 UV-I 0 W/m 10,2 C 15,4 C 4,8 km/h (1 Bft) 95,83 %
02.07.2018 23:52 15,3 C 22,2 C 73 % 1014,6 hPa 0,0 l/m 3,5 km/h (1 Bft) O-NO 58 0 min 0,000 mm 0,0 UV-I 0 W/m 10,5 C 15,3 C 4,8 km/h (1 Bft) 100,00 %
02.07.2018 23:53 15,3 C 22,2 C 73 % 1014,5 hPa 0,0 l/m 3,5 km/h (1 Bft) O-NO 65 0 min 0,000 mm 0,0 UV-I 0 W/m 10,5 C 15,3 C 4,8 km/h (1 Bft) 96,30 %
02.07.2018 23:54 15,2 C 22,2 C 73 % 1014,5 hPa 0,0 l/m 3,6 km/h (1 Bft) O-NO 65 0 min 0,000 mm 0,0 UV-I 0 W/m 10,4 C 15,2 C 4,8 km/h (1 Bft) 100,00 %
02.07.2018 23:55 15,3 C 22,2 C 73 % 1014,5 hPa 0,0 l/m 3,5 km/h (1 Bft) O-NO 65 0 min 0,000 mm 0,0 UV-I 0 W/m 10,5 C 15,3 C 4,8 km/h (1 Bft) 91,67 %
02.07.2018 23:56 15,2 C 22,2 C 73 % 1014,5 hPa 0,0 l/m 3,5 km/h (1 Bft) O-NO 65 0 min 0,000 mm 0,0 UV-I 0 W/m 10,4 C 15,2 C 4,8 km/h (1 Bft) 97,37 %
02.07.2018 23:57 15,2 C 22,2 C 73 % 1014,5 hPa 0,0 l/m 3,1 km/h (1 Bft) O-NO 65 0 min 0,000 mm 0,0 UV-I 0 W/m 10,4 C 15,2 C 4,8 km/h (1 Bft) 100,00 %
02.07.2018 23:58 15,2 C 22,2 C 72 % 1014,5 hPa 0,0 l/m 3,8 km/h (1 Bft) O-NO 65 0 min 0,000 mm 0,0 UV-I 0 W/m 10,2 C 15,2 C 4,8 km/h (1 Bft) 100,00 %
_ Min-Zeit 05:12 03:24 16:48 18:51 - 05:35 - - - - - - 16:48 07:28 05:35 06:17
Minimum _ 8,1 C 20,6 C 28 % 1012,7 hPa - 0,0 km/h (0 Bft) - - - - - - 4,7 C 7,7 C 0,0 km/h (0 Bft) 86,67 %
_ Max-Zeit 16:57 16:12 05:09 00:00 00:00 12:46 - - 20:20 13:00 12:51 13:15 21:28 17:56 10:54 00:05
Maximum _ 24,8 C 22,8 C 84 % 1016,2 hPa 0,0 l/m 20,7 km/h
O-NO (4 Bft)
- - 4 min 0,610 mm 6,6 UV-I 925 W/m 11,0 C 24,8 C 27,4 km/h
O (4 Bft)
100,00 %
Durchschnitt _ 17,2 C 21,6 C 57 % 1014,2 hPa #0,0 l/m 6,1 km/h (2 Bft) O - #15:34 h #5,817 mm 3,6 UV-I 510 W/m 7,6 C 16,5 C 8,9 km/h (2 Bft) 98,18 %